<?xml version="1.0" encoding="UTF-8" standalone="no" ?>
<gpx xmlns="http://www.topografix.com/GPX/1/1" xmlns:xsi="http://www.w3.org/2001/XMLSchema-instance" xsi:schemaLocation="http://www.topografix.com/GPX/1/1 http://www.topografix.com/GPX/1/1/gpx.xsd" version="1.1" creator="VisuGPX - https://www.visugpx.com">
  <metadata>
    <name>Laurens</name>
    <desc><![CDATA[23 km en hiver]]></desc>
  </metadata>
  <trk>
    <name><![CDATA[Laurens]]></name>
    <trkseg>
      <trkpt lat="43.52655" lon="3.18616">
        <ele>151.80000305176</ele>
        <time>2011-02-16T13:09:06Z</time>
      </trkpt>
      <trkpt lat="43.52658" lon="3.18615">
        <ele>151.80000305176</ele>
        <time>2011-02-16T13:09:07Z</time>
      </trkpt>
      <trkpt lat="43.52668" lon="3.18613">
        <ele>152</ele>
        <time>2011-02-16T13:09:11Z</time>
      </trkpt>
      <trkpt lat="43.52674" lon="3.18611">
        <ele>152</ele>
        <time>2011-02-16T13:09:13Z</time>
      </trkpt>
      <trkpt lat="43.52698" lon="3.18603">
        <ele>152</ele>
        <time>2011-02-16T13:09:21Z</time>
      </trkpt>
      <trkpt lat="43.52719" lon="3.18591">
        <ele>152</ele>
        <time>2011-02-16T13:09:25Z</time>
      </trkpt>
      <trkpt lat="43.52726" lon="3.18589">
        <ele>151.60000610352</ele>
        <time>2011-02-16T13:09:26Z</time>
      </trkpt>
      <trkpt lat="43.52731" lon="3.18586">
        <ele>151.19999694824</ele>
        <time>2011-02-16T13:09:27Z</time>
      </trkpt>
      <trkpt lat="43.52737" lon="3.18582">
        <ele>150.80000305176</ele>
        <time>2011-02-16T13:09:28Z</time>
      </trkpt>
      <trkpt lat="43.52742" lon="3.18577">
        <ele>150.19999694824</ele>
        <time>2011-02-16T13:09:29Z</time>
      </trkpt>
      <trkpt lat="43.52745" lon="3.1857">
        <ele>149.80000305176</ele>
        <time>2011-02-16T13:09:30Z</time>
      </trkpt>
      <trkpt lat="43.52751" lon="3.18552">
        <ele>149.80000305176</ele>
        <time>2011-02-16T13:09:32Z</time>
      </trkpt>
      <trkpt lat="43.52756" lon="3.18545">
        <ele>149.80000305176</ele>
        <time>2011-02-16T13:09:33Z</time>
      </trkpt>
      <trkpt lat="43.52761" lon="3.18523">
        <ele>149.80000305176</ele>
        <time>2011-02-16T13:09:36Z</time>
      </trkpt>
      <trkpt lat="43.52755" lon="3.18505">
        <ele>149.80000305176</ele>
        <time>2011-02-16T13:09:39Z</time>
      </trkpt>
      <trkpt lat="43.52753" lon="3.18499">
        <ele>149.80000305176</ele>
        <time>2011-02-16T13:09:40Z</time>
      </trkpt>
      <trkpt lat="43.52749" lon="3.18487">
        <ele>149.80000305176</ele>
        <time>2011-02-16T13:09:42Z</time>
      </trkpt>
      <trkpt lat="43.52746" lon="3.18475">
        <ele>149.80000305176</ele>
        <time>2011-02-16T13:09:44Z</time>
      </trkpt>
      <trkpt lat="43.52745" lon="3.18469">
        <ele>149.80000305176</ele>
        <time>2011-02-16T13:09:45Z</time>
      </trkpt>
      <trkpt lat="43.52745" lon="3.18463">
        <ele>149.80000305176</ele>
        <time>2011-02-16T13:09:46Z</time>
      </trkpt>
      <trkpt lat="43.52749" lon="3.18443">
        <ele>149.80000305176</ele>
        <time>2011-02-16T13:09:50Z</time>
      </trkpt>
      <trkpt lat="43.52754" lon="3.18423">
        <ele>149.80000305176</ele>
        <time>2011-02-16T13:09:54Z</time>
      </trkpt>
      <trkpt lat="43.5276" lon="3.18402">
        <ele>149.80000305176</ele>
        <time>2011-02-16T13:09:58Z</time>
      </trkpt>
      <trkpt lat="43.52761" lon="3.18397">
        <ele>150.19999694824</ele>
        <time>2011-02-16T13:09:59Z</time>
      </trkpt>
      <trkpt lat="43.52763" lon="3.18393">
        <ele>150.60000610352</ele>
        <time>2011-02-16T13:10:00Z</time>
      </trkpt>
      <trkpt lat="43.52764" lon="3.18388">
        <ele>151</ele>
        <time>2011-02-16T13:10:01Z</time>
      </trkpt>
      <trkpt lat="43.52766" lon="3.18384">
        <ele>151.80000305176</ele>
        <time>2011-02-16T13:10:02Z</time>
      </trkpt>
      <trkpt lat="43.52773" lon="3.18374">
        <ele>151.80000305176</ele>
        <time>2011-02-16T13:10:05Z</time>
      </trkpt>
      <trkpt lat="43.52787" lon="3.18359">
        <ele>152.39999389648</ele>
        <time>2011-02-16T13:10:11Z</time>
      </trkpt>
      <trkpt lat="43.52789" lon="3.18356">
        <ele>152.80000305176</ele>
        <time>2011-02-16T13:10:12Z</time>
      </trkpt>
      <trkpt lat="43.52792" lon="3.18354">
        <ele>153.19999694824</ele>
        <time>2011-02-16T13:10:13Z</time>
      </trkpt>
      <trkpt lat="43.52794" lon="3.18351">
        <ele>153.60000610352</ele>
        <time>2011-02-16T13:10:14Z</time>
      </trkpt>
      <trkpt lat="43.52796" lon="3.18349">
        <ele>154</ele>
        <time>2011-02-16T13:10:15Z</time>
      </trkpt>
      <trkpt lat="43.52804" lon="3.1834">
        <ele>154</ele>
        <time>2011-02-16T13:10:19Z</time>
      </trkpt>
      <trkpt lat="43.52806" lon="3.18338">
        <ele>154.60000610352</ele>
        <time>2011-02-16T13:10:20Z</time>
      </trkpt>
      <trkpt lat="43.52809" lon="3.18336">
        <ele>155</ele>
        <time>2011-02-16T13:10:21Z</time>
      </trkpt>
      <trkpt lat="43.52811" lon="3.18333">
        <ele>155.39999389648</ele>
        <time>2011-02-16T13:10:22Z</time>
      </trkpt>
      <trkpt lat="43.52813" lon="3.1833">
        <ele>155.80000305176</ele>
        <time>2011-02-16T13:10:23Z</time>
      </trkpt>
      <trkpt lat="43.52814" lon="3.18328">
        <ele>156.39999389648</ele>
        <time>2011-02-16T13:10:24Z</time>
      </trkpt>
      <trkpt lat="43.52821" lon="3.1832">
        <ele>156.39999389648</ele>
        <time>2011-02-16T13:10:27Z</time>
      </trkpt>
      <trkpt lat="43.52822" lon="3.18317">
        <ele>156.39999389648</ele>
        <time>2011-02-16T13:10:28Z</time>
      </trkpt>
      <trkpt lat="43.52825" lon="3.18315">
        <ele>156.80000305176</ele>
        <time>2011-02-16T13:10:29Z</time>
      </trkpt>
      <trkpt lat="43.52827" lon="3.18312">
        <ele>157.19999694824</ele>
        <time>2011-02-16T13:10:30Z</time>
      </trkpt>
      <trkpt lat="43.52829" lon="3.1831">
        <ele>157.60000610352</ele>
        <time>2011-02-16T13:10:31Z</time>
      </trkpt>
      <trkpt lat="43.52831" lon="3.18308">
        <ele>158</ele>
        <time>2011-02-16T13:10:32Z</time>
      </trkpt>
      <trkpt lat="43.52833" lon="3.18305">
        <ele>158.39999389648</ele>
        <time>2011-02-16T13:10:33Z</time>
      </trkpt>
      <trkpt lat="43.52837" lon="3.183">
        <ele>158.39999389648</ele>
        <time>2011-02-16T13:10:35Z</time>
      </trkpt>
      <trkpt lat="43.52846" lon="3.18287">
        <ele>158.80000305176</ele>
        <time>2011-02-16T13:10:40Z</time>
      </trkpt>
      <trkpt lat="43.52848" lon="3.18285">
        <ele>159.39999389648</ele>
        <time>2011-02-16T13:10:41Z</time>
      </trkpt>
      <trkpt lat="43.52851" lon="3.18282">
        <ele>159.80000305176</ele>
        <time>2011-02-16T13:10:42Z</time>
      </trkpt>
      <trkpt lat="43.52853" lon="3.1828">
        <ele>160.19999694824</ele>
        <time>2011-02-16T13:10:43Z</time>
      </trkpt>
      <trkpt lat="43.52856" lon="3.18277">
        <ele>160.60000610352</ele>
        <time>2011-02-16T13:10:44Z</time>
      </trkpt>
      <trkpt lat="43.52871" lon="3.18267">
        <ele>160.60000610352</ele>
        <time>2011-02-16T13:10:50Z</time>
      </trkpt>
      <trkpt lat="43.5288" lon="3.18259">
        <ele>161</ele>
        <time>2011-02-16T13:10:54Z</time>
      </trkpt>
      <trkpt lat="43.52882" lon="3.18257">
        <ele>161.39999389648</ele>
        <time>2011-02-16T13:10:55Z</time>
      </trkpt>
      <trkpt lat="43.52885" lon="3.18256">
        <ele>161.80000305176</ele>
        <time>2011-02-16T13:10:56Z</time>
      </trkpt>
      <trkpt lat="43.52887" lon="3.18253">
        <ele>162.19999694824</ele>
        <time>2011-02-16T13:10:57Z</time>
      </trkpt>
      <trkpt lat="43.52888" lon="3.18251">
        <ele>162.60000610352</ele>
        <time>2011-02-16T13:10:58Z</time>
      </trkpt>
      <trkpt lat="43.52898" lon="3.18232">
        <ele>162.60000610352</ele>
        <time>2011-02-16T13:11:04Z</time>
      </trkpt>
      <trkpt lat="43.52901" lon="3.18215">
        <ele>163</ele>
        <time>2011-02-16T13:11:08Z</time>
      </trkpt>
      <trkpt lat="43.52901" lon="3.18211">
        <ele>163.39999389648</ele>
        <time>2011-02-16T13:11:09Z</time>
      </trkpt>
      <trkpt lat="43.52902" lon="3.18207">
        <ele>163.80000305176</ele>
        <time>2011-02-16T13:11:10Z</time>
      </trkpt>
      <trkpt lat="43.52902" lon="3.18202">
        <ele>164.19999694824</ele>
        <time>2011-02-16T13:11:11Z</time>
      </trkpt>
      <trkpt lat="43.52902" lon="3.18197">
        <ele>164.60000610352</ele>
        <time>2011-02-16T13:11:12Z</time>
      </trkpt>
      <trkpt lat="43.52903" lon="3.18168">
        <ele>164.60000610352</ele>
        <time>2011-02-16T13:11:19Z</time>
      </trkpt>
      <trkpt lat="43.52906" lon="3.18158">
        <ele>164.60000610352</ele>
        <time>2011-02-16T13:11:22Z</time>
      </trkpt>
      <trkpt lat="43.52911" lon="3.18154">
        <ele>164.60000610352</ele>
        <time>2011-02-16T13:11:24Z</time>
      </trkpt>
      <trkpt lat="43.52934" lon="3.18143">
        <ele>164.60000610352</ele>
        <time>2011-02-16T13:11:31Z</time>
      </trkpt>
      <trkpt lat="43.52938" lon="3.18142">
        <ele>164.60000610352</ele>
        <time>2011-02-16T13:11:32Z</time>
      </trkpt>
      <trkpt lat="43.52958" lon="3.18137">
        <ele>164.60000610352</ele>
        <time>2011-02-16T13:11:38Z</time>
      </trkpt>
      <trkpt lat="43.52967" lon="3.18135">
        <ele>165</ele>
        <time>2011-02-16T13:11:41Z</time>
      </trkpt>
      <trkpt lat="43.5297" lon="3.18135">
        <ele>165.39999389648</ele>
        <time>2011-02-16T13:11:42Z</time>
      </trkpt>
      <trkpt lat="43.52973" lon="3.18134">
        <ele>165.80000305176</ele>
        <time>2011-02-16T13:11:43Z</time>
      </trkpt>
      <trkpt lat="43.52977" lon="3.18134">
        <ele>166.19999694824</ele>
        <time>2011-02-16T13:11:44Z</time>
      </trkpt>
      <trkpt lat="43.5298" lon="3.18133">
        <ele>166.80000305176</ele>
        <time>2011-02-16T13:11:45Z</time>
      </trkpt>
      <trkpt lat="43.52983" lon="3.18132">
        <ele>166.80000305176</ele>
        <time>2011-02-16T13:11:46Z</time>
      </trkpt>
      <trkpt lat="43.53006" lon="3.18129">
        <ele>166.80000305176</ele>
        <time>2011-02-16T13:11:53Z</time>
      </trkpt>
      <trkpt lat="43.53024" lon="3.18116">
        <ele>166.80000305176</ele>
        <time>2011-02-16T13:11:59Z</time>
      </trkpt>
      <trkpt lat="43.53026" lon="3.18113">
        <ele>167.19999694824</ele>
        <time>2011-02-16T13:12:00Z</time>
      </trkpt>
      <trkpt lat="43.53029" lon="3.1811">
        <ele>167.60000610352</ele>
        <time>2011-02-16T13:12:01Z</time>
      </trkpt>
      <trkpt lat="43.53032" lon="3.18107">
        <ele>168</ele>
        <time>2011-02-16T13:12:02Z</time>
      </trkpt>
      <trkpt lat="43.53034" lon="3.18104">
        <ele>168.39999389648</ele>
        <time>2011-02-16T13:12:03Z</time>
      </trkpt>
      <trkpt lat="43.53036" lon="3.18101">
        <ele>169</ele>
        <time>2011-02-16T13:12:04Z</time>
      </trkpt>
      <trkpt lat="43.53044" lon="3.18093">
        <ele>169</ele>
        <time>2011-02-16T13:12:07Z</time>
      </trkpt>
      <trkpt lat="43.53062" lon="3.18069">
        <ele>169</ele>
        <time>2011-02-16T13:12:15Z</time>
      </trkpt>
      <trkpt lat="43.53067" lon="3.18063">
        <ele>169.39999389648</ele>
        <time>2011-02-16T13:12:17Z</time>
      </trkpt>
      <trkpt lat="43.53069" lon="3.18061">
        <ele>169.80000305176</ele>
        <time>2011-02-16T13:12:18Z</time>
      </trkpt>
      <trkpt lat="43.53071" lon="3.18059">
        <ele>170.19999694824</ele>
        <time>2011-02-16T13:12:19Z</time>
      </trkpt>
      <trkpt lat="43.53073" lon="3.18057">
        <ele>170.60000610352</ele>
        <time>2011-02-16T13:12:20Z</time>
      </trkpt>
      <trkpt lat="43.53075" lon="3.18054">
        <ele>171</ele>
        <time>2011-02-16T13:12:21Z</time>
      </trkpt>
      <trkpt lat="43.53079" lon="3.1805">
        <ele>171</ele>
        <time>2011-02-16T13:12:23Z</time>
      </trkpt>
      <trkpt lat="43.53084" lon="3.18047">
        <ele>171.39999389648</ele>
        <time>2011-02-16T13:12:25Z</time>
      </trkpt>
      <trkpt lat="43.53086" lon="3.18045">
        <ele>171.80000305176</ele>
        <time>2011-02-16T13:12:26Z</time>
      </trkpt>
      <trkpt lat="43.53089" lon="3.18042">
        <ele>172.39999389648</ele>
        <time>2011-02-16T13:12:27Z</time>
      </trkpt>
      <trkpt lat="43.53091" lon="3.1804">
        <ele>172.80000305176</ele>
        <time>2011-02-16T13:12:28Z</time>
      </trkpt>
      <trkpt lat="43.53094" lon="3.18038">
        <ele>173.19999694824</ele>
        <time>2011-02-16T13:12:29Z</time>
      </trkpt>
      <trkpt lat="43.53099" lon="3.18025">
        <ele>173.60000610352</ele>
        <time>2011-02-16T13:12:33Z</time>
      </trkpt>
      <trkpt lat="43.53099" lon="3.1802">
        <ele>174</ele>
        <time>2011-02-16T13:12:34Z</time>
      </trkpt>
      <trkpt lat="43.531" lon="3.18016">
        <ele>174.39999389648</ele>
        <time>2011-02-16T13:12:35Z</time>
      </trkpt>
      <trkpt lat="43.531" lon="3.18011">
        <ele>174.80000305176</ele>
        <time>2011-02-16T13:12:36Z</time>
      </trkpt>
      <trkpt lat="43.53099" lon="3.18007">
        <ele>175.19999694824</ele>
        <time>2011-02-16T13:12:37Z</time>
      </trkpt>
      <trkpt lat="43.53099" lon="3.17985">
        <ele>175.19999694824</ele>
        <time>2011-02-16T13:12:42Z</time>
      </trkpt>
      <trkpt lat="43.53097" lon="3.17952">
        <ele>175.60000610352</ele>
        <time>2011-02-16T13:12:51Z</time>
      </trkpt>
      <trkpt lat="43.53097" lon="3.17949">
        <ele>176.19999694824</ele>
        <time>2011-02-16T13:12:52Z</time>
      </trkpt>
      <trkpt lat="43.53097" lon="3.17945">
        <ele>176.60000610352</ele>
        <time>2011-02-16T13:12:53Z</time>
      </trkpt>
      <trkpt lat="43.53096" lon="3.17942">
        <ele>177.39999389648</ele>
        <time>2011-02-16T13:12:54Z</time>
      </trkpt>
      <trkpt lat="43.53095" lon="3.17934">
        <ele>177.39999389648</ele>
        <time>2011-02-16T13:12:56Z</time>
      </trkpt>
      <trkpt lat="43.53091" lon="3.17923">
        <ele>177.80000305176</ele>
        <time>2011-02-16T13:12:59Z</time>
      </trkpt>
      <trkpt lat="43.5309" lon="3.1792">
        <ele>178.19999694824</ele>
        <time>2011-02-16T13:13:00Z</time>
      </trkpt>
      <trkpt lat="43.53089" lon="3.17916">
        <ele>178.60000610352</ele>
        <time>2011-02-16T13:13:01Z</time>
      </trkpt>
      <trkpt lat="43.53089" lon="3.17912">
        <ele>179</ele>
        <time>2011-02-16T13:13:02Z</time>
      </trkpt>
      <trkpt lat="43.53089" lon="3.17908">
        <ele>179.60000610352</ele>
        <time>2011-02-16T13:13:03Z</time>
      </trkpt>
      <trkpt lat="43.53092" lon="3.17895">
        <ele>179.60000610352</ele>
        <time>2011-02-16T13:13:06Z</time>
      </trkpt>
      <trkpt lat="43.53107" lon="3.17877">
        <ele>179.60000610352</ele>
        <time>2011-02-16T13:13:11Z</time>
      </trkpt>
      <trkpt lat="43.53123" lon="3.17865">
        <ele>179.60000610352</ele>
        <time>2011-02-16T13:13:16Z</time>
      </trkpt>
      <trkpt lat="43.53127" lon="3.17863">
        <ele>179.60000610352</ele>
        <time>2011-02-16T13:13:17Z</time>
      </trkpt>
      <trkpt lat="43.53144" lon="3.17851">
        <ele>179.60000610352</ele>
        <time>2011-02-16T13:13:23Z</time>
      </trkpt>
      <trkpt lat="43.53147" lon="3.17849">
        <ele>179.60000610352</ele>
        <time>2011-02-16T13:13:24Z</time>
      </trkpt>
      <trkpt lat="43.53173" lon="3.17836">
        <ele>179.60000610352</ele>
        <time>2011-02-16T13:13:31Z</time>
      </trkpt>
      <trkpt lat="43.53189" lon="3.17824">
        <ele>179.60000610352</ele>
        <time>2011-02-16T13:13:36Z</time>
      </trkpt>
      <trkpt lat="43.53193" lon="3.17821">
        <ele>179.60000610352</ele>
        <time>2011-02-16T13:13:37Z</time>
      </trkpt>
      <trkpt lat="43.53205" lon="3.17813">
        <ele>179.60000610352</ele>
        <time>2011-02-16T13:13:40Z</time>
      </trkpt>
      <trkpt lat="43.53216" lon="3.17808">
        <ele>179.60000610352</ele>
        <time>2011-02-16T13:13:42Z</time>
      </trkpt>
      <trkpt lat="43.53228" lon="3.178">
        <ele>179.60000610352</ele>
        <time>2011-02-16T13:13:44Z</time>
      </trkpt>
      <trkpt lat="43.53235" lon="3.17795">
        <ele>179</ele>
        <time>2011-02-16T13:13:45Z</time>
      </trkpt>
      <trkpt lat="43.53241" lon="3.17789">
        <ele>178.60000610352</ele>
        <time>2011-02-16T13:13:46Z</time>
      </trkpt>
      <trkpt lat="43.53248" lon="3.17782">
        <ele>178</ele>
        <time>2011-02-16T13:13:47Z</time>
      </trkpt>
      <trkpt lat="43.53254" lon="3.17776">
        <ele>177.39999389648</ele>
        <time>2011-02-16T13:13:48Z</time>
      </trkpt>
      <trkpt lat="43.5326" lon="3.1777">
        <ele>177</ele>
        <time>2011-02-16T13:13:49Z</time>
      </trkpt>
      <trkpt lat="43.5327" lon="3.17758">
        <ele>177</ele>
        <time>2011-02-16T13:13:51Z</time>
      </trkpt>
      <trkpt lat="43.53275" lon="3.17753">
        <ele>177</ele>
        <time>2011-02-16T13:13:52Z</time>
      </trkpt>
      <trkpt lat="43.53284" lon="3.17743">
        <ele>177</ele>
        <time>2011-02-16T13:13:54Z</time>
      </trkpt>
      <trkpt lat="43.53298" lon="3.17734">
        <ele>177</ele>
        <time>2011-02-16T13:13:57Z</time>
      </trkpt>
      <trkpt lat="43.53313" lon="3.17727">
        <ele>177</ele>
        <time>2011-02-16T13:14:01Z</time>
      </trkpt>
      <trkpt lat="43.53315" lon="3.17726">
        <ele>177</ele>
        <time>2011-02-16T13:14:02Z</time>
      </trkpt>
      <trkpt lat="43.53316" lon="3.17723">
        <ele>177</ele>
        <time>2011-02-16T13:14:04Z</time>
      </trkpt>
      <trkpt lat="43.53316" lon="3.17718">
        <ele>177</ele>
        <time>2011-02-16T13:14:05Z</time>
      </trkpt>
      <trkpt lat="43.53305" lon="3.17704">
        <ele>177</ele>
        <time>2011-02-16T13:14:08Z</time>
      </trkpt>
      <trkpt lat="43.53297" lon="3.1769">
        <ele>176.60000610352</ele>
        <time>2011-02-16T13:14:10Z</time>
      </trkpt>
      <trkpt lat="43.53292" lon="3.17686">
        <ele>176.19999694824</ele>
        <time>2011-02-16T13:14:11Z</time>
      </trkpt>
      <trkpt lat="43.53288" lon="3.17682">
        <ele>175.80000305176</ele>
        <time>2011-02-16T13:14:12Z</time>
      </trkpt>
      <trkpt lat="43.53283" lon="3.17682">
        <ele>175.19999694824</ele>
        <time>2011-02-16T13:14:13Z</time>
      </trkpt>
      <trkpt lat="43.53279" lon="3.17684">
        <ele>174.39999389648</ele>
        <time>2011-02-16T13:14:14Z</time>
      </trkpt>
      <trkpt lat="43.53275" lon="3.17687">
        <ele>173.80000305176</ele>
        <time>2011-02-16T13:14:15Z</time>
      </trkpt>
      <trkpt lat="43.53271" lon="3.17688">
        <ele>173.19999694824</ele>
        <time>2011-02-16T13:14:16Z</time>
      </trkpt>
      <trkpt lat="43.53268" lon="3.17689">
        <ele>172.60000610352</ele>
        <time>2011-02-16T13:14:17Z</time>
      </trkpt>
      <trkpt lat="43.53259" lon="3.17692">
        <ele>172.19999694824</ele>
        <time>2011-02-16T13:14:20Z</time>
      </trkpt>
      <trkpt lat="43.53255" lon="3.17692">
        <ele>171.80000305176</ele>
        <time>2011-02-16T13:14:21Z</time>
      </trkpt>
      <trkpt lat="43.53252" lon="3.17692">
        <ele>171.39999389648</ele>
        <time>2011-02-16T13:14:22Z</time>
      </trkpt>
      <trkpt lat="43.53249" lon="3.17691">
        <ele>171</ele>
        <time>2011-02-16T13:14:23Z</time>
      </trkpt>
      <trkpt lat="43.53247" lon="3.1769">
        <ele>170.60000610352</ele>
        <time>2011-02-16T13:14:24Z</time>
      </trkpt>
      <trkpt lat="43.53246" lon="3.17689">
        <ele>170.60000610352</ele>
        <time>2011-02-16T13:14:25Z</time>
      </trkpt>
      <trkpt lat="43.53241" lon="3.17682">
        <ele>170.60000610352</ele>
        <time>2011-02-16T13:14:29Z</time>
      </trkpt>
      <trkpt lat="43.53242" lon="3.1768">
        <ele>170.19999694824</ele>
        <time>2011-02-16T13:14:30Z</time>
      </trkpt>
      <trkpt lat="43.53244" lon="3.17679">
        <ele>169.60000610352</ele>
        <time>2011-02-16T13:14:31Z</time>
      </trkpt>
      <trkpt lat="43.53246" lon="3.17676">
        <ele>169.19999694824</ele>
        <time>2011-02-16T13:14:32Z</time>
      </trkpt>
      <trkpt lat="43.53246" lon="3.17674">
        <ele>168.39999389648</ele>
        <time>2011-02-16T13:14:33Z</time>
      </trkpt>
      <trkpt lat="43.53245" lon="3.17669">
        <ele>168.39999389648</ele>
        <time>2011-02-16T13:14:35Z</time>
      </trkpt>
      <trkpt lat="43.53242" lon="3.17661">
        <ele>168.39999389648</ele>
        <time>2011-02-16T13:14:38Z</time>
      </trkpt>
      <trkpt lat="43.5324" lon="3.17656">
        <ele>168.39999389648</ele>
        <time>2011-02-16T13:14:40Z</time>
      </trkpt>
      <trkpt lat="43.53238" lon="3.17651">
        <ele>168.39999389648</ele>
        <time>2011-02-16T13:14:42Z</time>
      </trkpt>
      <trkpt lat="43.53234" lon="3.17642">
        <ele>168.39999389648</ele>
        <time>2011-02-16T13:14:45Z</time>
      </trkpt>
      <trkpt lat="43.53233" lon="3.17639">
        <ele>168.39999389648</ele>
        <time>2011-02-16T13:14:46Z</time>
      </trkpt>
      <trkpt lat="43.53233" lon="3.17637">
        <ele>168.80000305176</ele>
        <time>2011-02-16T13:14:47Z</time>
      </trkpt>
      <trkpt lat="43.53231" lon="3.17634">
        <ele>169.19999694824</ele>
        <time>2011-02-16T13:14:48Z</time>
      </trkpt>
      <trkpt lat="43.5323" lon="3.17632">
        <ele>169.60000610352</ele>
        <time>2011-02-16T13:14:49Z</time>
      </trkpt>
      <trkpt lat="43.53228" lon="3.1763">
        <ele>170</ele>
        <time>2011-02-16T13:14:50Z</time>
      </trkpt>
      <trkpt lat="43.53227" lon="3.17627">
        <ele>170.60000610352</ele>
        <time>2011-02-16T13:14:51Z</time>
      </trkpt>
      <trkpt lat="43.53221" lon="3.17616">
        <ele>170.60000610352</ele>
        <time>2011-02-16T13:14:54Z</time>
      </trkpt>
      <trkpt lat="43.53214" lon="3.17603">
        <ele>170.60000610352</ele>
        <time>2011-02-16T13:14:57Z</time>
      </trkpt>
      <trkpt lat="43.53204" lon="3.17583">
        <ele>170.60000610352</ele>
        <time>2011-02-16T13:15:02Z</time>
      </trkpt>
      <trkpt lat="43.5319" lon="3.17556">
        <ele>170.60000610352</ele>
        <time>2011-02-16T13:15:10Z</time>
      </trkpt>
      <trkpt lat="43.53192" lon="3.17542">
        <ele>170.60000610352</ele>
        <time>2011-02-16T13:15:14Z</time>
      </trkpt>
      <trkpt lat="43.53204" lon="3.17534">
        <ele>170.60000610352</ele>
        <time>2011-02-16T13:15:19Z</time>
      </trkpt>
      <trkpt lat="43.53217" lon="3.17525">
        <ele>170.60000610352</ele>
        <time>2011-02-16T13:15:25Z</time>
      </trkpt>
      <trkpt lat="43.53225" lon="3.17521">
        <ele>171</ele>
        <time>2011-02-16T13:15:29Z</time>
      </trkpt>
      <trkpt lat="43.53227" lon="3.17519">
        <ele>171.39999389648</ele>
        <time>2011-02-16T13:15:30Z</time>
      </trkpt>
      <trkpt lat="43.53229" lon="3.17518">
        <ele>171.80000305176</ele>
        <time>2011-02-16T13:15:31Z</time>
      </trkpt>
      <trkpt lat="43.53231" lon="3.17517">
        <ele>172.19999694824</ele>
        <time>2011-02-16T13:15:32Z</time>
      </trkpt>
      <trkpt lat="43.53233" lon="3.17515">
        <ele>172.60000610352</ele>
        <time>2011-02-16T13:15:33Z</time>
      </trkpt>
      <trkpt lat="43.53244" lon="3.17504">
        <ele>173</ele>
        <time>2011-02-16T13:15:40Z</time>
      </trkpt>
      <trkpt lat="43.53245" lon="3.17502">
        <ele>173.39999389648</ele>
        <time>2011-02-16T13:15:41Z</time>
      </trkpt>
      <trkpt lat="43.53247" lon="3.175">
        <ele>174</ele>
        <time>2011-02-16T13:15:42Z</time>
      </trkpt>
      <trkpt lat="43.53247" lon="3.17499">
        <ele>174.39999389648</ele>
        <time>2011-02-16T13:15:43Z</time>
      </trkpt>
      <trkpt lat="43.53249" lon="3.17496">
        <ele>174.80000305176</ele>
        <time>2011-02-16T13:15:44Z</time>
      </trkpt>
      <trkpt lat="43.53249" lon="3.17491">
        <ele>174.80000305176</ele>
        <time>2011-02-16T13:15:46Z</time>
      </trkpt>
      <trkpt lat="43.5325" lon="3.17489">
        <ele>175.19999694824</ele>
        <time>2011-02-16T13:15:47Z</time>
      </trkpt>
      <trkpt lat="43.5325" lon="3.17487">
        <ele>175.60000610352</ele>
        <time>2011-02-16T13:15:48Z</time>
      </trkpt>
      <trkpt lat="43.5325" lon="3.17485">
        <ele>176</ele>
        <time>2011-02-16T13:15:49Z</time>
      </trkpt>
      <trkpt lat="43.53251" lon="3.17482">
        <ele>176.60000610352</ele>
        <time>2011-02-16T13:15:50Z</time>
      </trkpt>
      <trkpt lat="43.53251" lon="3.1748">
        <ele>177</ele>
        <time>2011-02-16T13:15:51Z</time>
      </trkpt>
      <trkpt lat="43.53251" lon="3.17475">
        <ele>177</ele>
        <time>2011-02-16T13:15:53Z</time>
      </trkpt>
      <trkpt lat="43.53251" lon="3.17471">
        <ele>177.39999389648</ele>
        <time>2011-02-16T13:15:55Z</time>
      </trkpt>
      <trkpt lat="43.5325" lon="3.17469">
        <ele>177.80000305176</ele>
        <time>2011-02-16T13:15:56Z</time>
      </trkpt>
      <trkpt lat="43.5325" lon="3.17467">
        <ele>178.19999694824</ele>
        <time>2011-02-16T13:15:57Z</time>
      </trkpt>
      <trkpt lat="43.53248" lon="3.17465">
        <ele>178.60000610352</ele>
        <time>2011-02-16T13:15:58Z</time>
      </trkpt>
      <trkpt lat="43.53248" lon="3.17463">
        <ele>179</ele>
        <time>2011-02-16T13:15:59Z</time>
      </trkpt>
      <trkpt lat="43.53247" lon="3.17454">
        <ele>179.60000610352</ele>
        <time>2011-02-16T13:16:03Z</time>
      </trkpt>
      <trkpt lat="43.53247" lon="3.17452">
        <ele>180</ele>
        <time>2011-02-16T13:16:04Z</time>
      </trkpt>
      <trkpt lat="43.53246" lon="3.1745">
        <ele>180.39999389648</ele>
        <time>2011-02-16T13:16:05Z</time>
      </trkpt>
      <trkpt lat="43.53246" lon="3.17448">
        <ele>180.80000305176</ele>
        <time>2011-02-16T13:16:06Z</time>
      </trkpt>
      <trkpt lat="43.53246" lon="3.17446">
        <ele>181.39999389648</ele>
        <time>2011-02-16T13:16:07Z</time>
      </trkpt>
      <trkpt lat="43.53246" lon="3.17439">
        <ele>181.80000305176</ele>
        <time>2011-02-16T13:16:10Z</time>
      </trkpt>
      <trkpt lat="43.53246" lon="3.17436">
        <ele>182.19999694824</ele>
        <time>2011-02-16T13:16:11Z</time>
      </trkpt>
      <trkpt lat="43.53246" lon="3.17434">
        <ele>183.19999694824</ele>
        <time>2011-02-16T13:16:12Z</time>
      </trkpt>
      <trkpt lat="43.53246" lon="3.17431">
        <ele>183.60000610352</ele>
        <time>2011-02-16T13:16:13Z</time>
      </trkpt>
      <trkpt lat="43.53248" lon="3.17421">
        <ele>184</ele>
        <time>2011-02-16T13:16:17Z</time>
      </trkpt>
      <trkpt lat="43.53249" lon="3.1742">
        <ele>184.39999389648</ele>
        <time>2011-02-16T13:16:18Z</time>
      </trkpt>
      <trkpt lat="43.53251" lon="3.17419">
        <ele>184.80000305176</ele>
        <time>2011-02-16T13:16:19Z</time>
      </trkpt>
      <trkpt lat="43.53252" lon="3.17417">
        <ele>185.19999694824</ele>
        <time>2011-02-16T13:16:20Z</time>
      </trkpt>
      <trkpt lat="43.53253" lon="3.17415">
        <ele>185.80000305176</ele>
        <time>2011-02-16T13:16:21Z</time>
      </trkpt>
      <trkpt lat="43.53265" lon="3.17408">
        <ele>185.80000305176</ele>
        <time>2011-02-16T13:16:27Z</time>
      </trkpt>
      <trkpt lat="43.53275" lon="3.17404">
        <ele>186.19999694824</ele>
        <time>2011-02-16T13:16:33Z</time>
      </trkpt>
      <trkpt lat="43.53277" lon="3.17403">
        <ele>186.60000610352</ele>
        <time>2011-02-16T13:16:34Z</time>
      </trkpt>
      <trkpt lat="43.53278" lon="3.17402">
        <ele>187</ele>
        <time>2011-02-16T13:16:35Z</time>
      </trkpt>
      <trkpt lat="43.53279" lon="3.17402">
        <ele>187.80000305176</ele>
        <time>2011-02-16T13:16:36Z</time>
      </trkpt>
      <trkpt lat="43.53281" lon="3.174">
        <ele>187.80000305176</ele>
        <time>2011-02-16T13:16:37Z</time>
      </trkpt>
      <trkpt lat="43.53284" lon="3.17398">
        <ele>188.19999694824</ele>
        <time>2011-02-16T13:16:39Z</time>
      </trkpt>
      <trkpt lat="43.53286" lon="3.17397">
        <ele>188.60000610352</ele>
        <time>2011-02-16T13:16:40Z</time>
      </trkpt>
      <trkpt lat="43.53287" lon="3.17395">
        <ele>189</ele>
        <time>2011-02-16T13:16:41Z</time>
      </trkpt>
      <trkpt lat="43.53289" lon="3.17394">
        <ele>189.39999389648</ele>
        <time>2011-02-16T13:16:42Z</time>
      </trkpt>
      <trkpt lat="43.5329" lon="3.17394">
        <ele>189.80000305176</ele>
        <time>2011-02-16T13:16:43Z</time>
      </trkpt>
      <trkpt lat="43.53296" lon="3.1739">
        <ele>189.80000305176</ele>
        <time>2011-02-16T13:16:46Z</time>
      </trkpt>
      <trkpt lat="43.53297" lon="3.17389">
        <ele>190.19999694824</ele>
        <time>2011-02-16T13:16:47Z</time>
      </trkpt>
      <trkpt lat="43.53299" lon="3.17388">
        <ele>190.60000610352</ele>
        <time>2011-02-16T13:16:48Z</time>
      </trkpt>
      <trkpt lat="43.533" lon="3.17387">
        <ele>191</ele>
        <time>2011-02-16T13:16:49Z</time>
      </trkpt>
      <trkpt lat="43.53301" lon="3.17385">
        <ele>191.60000610352</ele>
        <time>2011-02-16T13:16:50Z</time>
      </trkpt>
      <trkpt lat="43.53303" lon="3.17385">
        <ele>192</ele>
        <time>2011-02-16T13:16:51Z</time>
      </trkpt>
      <trkpt lat="43.53305" lon="3.17383">
        <ele>192</ele>
        <time>2011-02-16T13:16:52Z</time>
      </trkpt>
      <trkpt lat="43.5332" lon="3.17373">
        <ele>192</ele>
        <time>2011-02-16T13:16:59Z</time>
      </trkpt>
      <trkpt lat="43.53329" lon="3.17366">
        <ele>192</ele>
        <time>2011-02-16T13:17:05Z</time>
      </trkpt>
      <trkpt lat="43.5333" lon="3.17365">
        <ele>192.39999389648</ele>
        <time>2011-02-16T13:17:06Z</time>
      </trkpt>
      <trkpt lat="43.53331" lon="3.17364">
        <ele>192.80000305176</ele>
        <time>2011-02-16T13:17:07Z</time>
      </trkpt>
      <trkpt lat="43.53332" lon="3.17363">
        <ele>193.19999694824</ele>
        <time>2011-02-16T13:17:08Z</time>
      </trkpt>
      <trkpt lat="43.53334" lon="3.17362">
        <ele>193.60000610352</ele>
        <time>2011-02-16T13:17:09Z</time>
      </trkpt>
      <trkpt lat="43.53335" lon="3.17362">
        <ele>194.19999694824</ele>
        <time>2011-02-16T13:17:10Z</time>
      </trkpt>
      <trkpt lat="43.53336" lon="3.17361">
        <ele>194.19999694824</ele>
        <time>2011-02-16T13:17:11Z</time>
      </trkpt>
      <trkpt lat="43.53344" lon="3.17353">
        <ele>194.60000610352</ele>
        <time>2011-02-16T13:17:18Z</time>
      </trkpt>
      <trkpt lat="43.53345" lon="3.17352">
        <ele>195</ele>
        <time>2011-02-16T13:17:19Z</time>
      </trkpt>
      <trkpt lat="43.53346" lon="3.17351">
        <ele>195.39999389648</ele>
        <time>2011-02-16T13:17:20Z</time>
      </trkpt>
      <trkpt lat="43.53347" lon="3.1735">
        <ele>195.80000305176</ele>
        <time>2011-02-16T13:17:21Z</time>
      </trkpt>
      <trkpt lat="43.53349" lon="3.17349">
        <ele>196.19999694824</ele>
        <time>2011-02-16T13:17:22Z</time>
      </trkpt>
      <trkpt lat="43.53353" lon="3.17342">
        <ele>196.19999694824</ele>
        <time>2011-02-16T13:17:26Z</time>
      </trkpt>
      <trkpt lat="43.53362" lon="3.17331">
        <ele>196.60000610352</ele>
        <time>2011-02-16T13:17:33Z</time>
      </trkpt>
      <trkpt lat="43.53363" lon="3.1733">
        <ele>197</ele>
        <time>2011-02-16T13:17:34Z</time>
      </trkpt>
      <trkpt lat="43.53364" lon="3.17329">
        <ele>197.39999389648</ele>
        <time>2011-02-16T13:17:35Z</time>
      </trkpt>
      <trkpt lat="43.53365" lon="3.17328">
        <ele>197.80000305176</ele>
        <time>2011-02-16T13:17:36Z</time>
      </trkpt>
      <trkpt lat="43.53366" lon="3.17327">
        <ele>198.19999694824</ele>
        <time>2011-02-16T13:17:37Z</time>
      </trkpt>
      <trkpt lat="43.53371" lon="3.1732">
        <ele>198.80000305176</ele>
        <time>2011-02-16T13:17:42Z</time>
      </trkpt>
      <trkpt lat="43.53371" lon="3.17319">
        <ele>199.19999694824</ele>
        <time>2011-02-16T13:17:43Z</time>
      </trkpt>
      <trkpt lat="43.53372" lon="3.17317">
        <ele>199.60000610352</ele>
        <time>2011-02-16T13:17:44Z</time>
      </trkpt>
      <trkpt lat="43.53372" lon="3.17315">
        <ele>200</ele>
        <time>2011-02-16T13:17:45Z</time>
      </trkpt>
      <trkpt lat="43.53372" lon="3.17314">
        <ele>200.60000610352</ele>
        <time>2011-02-16T13:17:46Z</time>
      </trkpt>
      <trkpt lat="43.53372" lon="3.1731">
        <ele>200.60000610352</ele>
        <time>2011-02-16T13:17:48Z</time>
      </trkpt>
      <trkpt lat="43.53372" lon="3.17305">
        <ele>201.39999389648</ele>
        <time>2011-02-16T13:17:51Z</time>
      </trkpt>
      <trkpt lat="43.53372" lon="3.17303">
        <ele>201.80000305176</ele>
        <time>2011-02-16T13:17:52Z</time>
      </trkpt>
      <trkpt lat="43.53372" lon="3.17301">
        <ele>202.19999694824</ele>
        <time>2011-02-16T13:17:53Z</time>
      </trkpt>
      <trkpt lat="43.53372" lon="3.173">
        <ele>202.60000610352</ele>
        <time>2011-02-16T13:17:54Z</time>
      </trkpt>
      <trkpt lat="43.53371" lon="3.17298">
        <ele>202.60000610352</ele>
        <time>2011-02-16T13:17:55Z</time>
      </trkpt>
      <trkpt lat="43.53372" lon="3.17296">
        <ele>202.60000610352</ele>
        <time>2011-02-16T13:17:56Z</time>
      </trkpt>
      <trkpt lat="43.53377" lon="3.1729">
        <ele>203</ele>
        <time>2011-02-16T13:18:00Z</time>
      </trkpt>
      <trkpt lat="43.53378" lon="3.1729">
        <ele>203.39999389648</ele>
        <time>2011-02-16T13:18:01Z</time>
      </trkpt>
      <trkpt lat="43.5338" lon="3.17289">
        <ele>203.80000305176</ele>
        <time>2011-02-16T13:18:02Z</time>
      </trkpt>
      <trkpt lat="43.53382" lon="3.1729">
        <ele>204.19999694824</ele>
        <time>2011-02-16T13:18:03Z</time>
      </trkpt>
      <trkpt lat="43.53384" lon="3.17291">
        <ele>204.80000305176</ele>
        <time>2011-02-16T13:18:04Z</time>
      </trkpt>
      <trkpt lat="43.53386" lon="3.17291">
        <ele>204.80000305176</ele>
        <time>2011-02-16T13:18:05Z</time>
      </trkpt>
      <trkpt lat="43.53389" lon="3.17294">
        <ele>204.80000305176</ele>
        <time>2011-02-16T13:18:07Z</time>
      </trkpt>
      <trkpt lat="43.53396" lon="3.17298">
        <ele>204.80000305176</ele>
        <time>2011-02-16T13:18:10Z</time>
      </trkpt>
      <trkpt lat="43.5341" lon="3.17313">
        <ele>204.80000305176</ele>
        <time>2011-02-16T13:18:16Z</time>
      </trkpt>
      <trkpt lat="43.53414" lon="3.17317">
        <ele>205.19999694824</ele>
        <time>2011-02-16T13:18:18Z</time>
      </trkpt>
      <trkpt lat="43.53415" lon="3.17319">
        <ele>205.60000610352</ele>
        <time>2011-02-16T13:18:19Z</time>
      </trkpt>
      <trkpt lat="43.53417" lon="3.17323">
        <ele>206</ele>
        <time>2011-02-16T13:18:20Z</time>
      </trkpt>
      <trkpt lat="43.53419" lon="3.17326">
        <ele>206.39999389648</ele>
        <time>2011-02-16T13:18:21Z</time>
      </trkpt>
      <trkpt lat="43.53421" lon="3.17329">
        <ele>206.80000305176</ele>
        <time>2011-02-16T13:18:22Z</time>
      </trkpt>
      <trkpt lat="43.53434" lon="3.17346">
        <ele>206.80000305176</ele>
        <time>2011-02-16T13:18:28Z</time>
      </trkpt>
      <trkpt lat="43.53452" lon="3.17344">
        <ele>206.80000305176</ele>
        <time>2011-02-16T13:18:33Z</time>
      </trkpt>
      <trkpt lat="43.53465" lon="3.17334">
        <ele>206.80000305176</ele>
        <time>2011-02-16T13:18:38Z</time>
      </trkpt>
      <trkpt lat="43.53471" lon="3.17326">
        <ele>207.19999694824</ele>
        <time>2011-02-16T13:18:41Z</time>
      </trkpt>
      <trkpt lat="43.53473" lon="3.17323">
        <ele>207.60000610352</ele>
        <time>2011-02-16T13:18:42Z</time>
      </trkpt>
      <trkpt lat="43.53474" lon="3.17321">
        <ele>208.19999694824</ele>
        <time>2011-02-16T13:18:43Z</time>
      </trkpt>
      <trkpt lat="43.53475" lon="3.17318">
        <ele>208.60000610352</ele>
        <time>2011-02-16T13:18:44Z</time>
      </trkpt>
      <trkpt lat="43.53476" lon="3.17316">
        <ele>209</ele>
        <time>2011-02-16T13:18:45Z</time>
      </trkpt>
      <trkpt lat="43.53483" lon="3.17303">
        <ele>209.39999389648</ele>
        <time>2011-02-16T13:18:49Z</time>
      </trkpt>
      <trkpt lat="43.53485" lon="3.17301">
        <ele>209.80000305176</ele>
        <time>2011-02-16T13:18:50Z</time>
      </trkpt>
      <trkpt lat="43.53486" lon="3.17299">
        <ele>210.19999694824</ele>
        <time>2011-02-16T13:18:51Z</time>
      </trkpt>
      <trkpt lat="43.53489" lon="3.17297">
        <ele>210.80000305176</ele>
        <time>2011-02-16T13:18:52Z</time>
      </trkpt>
      <trkpt lat="43.53491" lon="3.17294">
        <ele>211.19999694824</ele>
        <time>2011-02-16T13:18:53Z</time>
      </trkpt>
      <trkpt lat="43.53502" lon="3.17281">
        <ele>211.19999694824</ele>
        <time>2011-02-16T13:18:58Z</time>
      </trkpt>
      <trkpt lat="43.53505" lon="3.1727">
        <ele>211.19999694824</ele>
        <time>2011-02-16T13:19:01Z</time>
      </trkpt>
      <trkpt lat="43.53506" lon="3.17262">
        <ele>211.19999694824</ele>
        <time>2011-02-16T13:19:03Z</time>
      </trkpt>
      <trkpt lat="43.53511" lon="3.17235">
        <ele>211.19999694824</ele>
        <time>2011-02-16T13:19:07Z</time>
      </trkpt>
      <trkpt lat="43.53516" lon="3.17229">
        <ele>210.80000305176</ele>
        <time>2011-02-16T13:19:08Z</time>
      </trkpt>
      <trkpt lat="43.53524" lon="3.17225">
        <ele>210.19999694824</ele>
        <time>2011-02-16T13:19:09Z</time>
      </trkpt>
      <trkpt lat="43.53531" lon="3.1722">
        <ele>209.80000305176</ele>
        <time>2011-02-16T13:19:10Z</time>
      </trkpt>
      <trkpt lat="43.53535" lon="3.17213">
        <ele>209.39999389648</ele>
        <time>2011-02-16T13:19:11Z</time>
      </trkpt>
      <trkpt lat="43.53537" lon="3.17205">
        <ele>209</ele>
        <time>2011-02-16T13:19:12Z</time>
      </trkpt>
      <trkpt lat="43.53539" lon="3.17199">
        <ele>209</ele>
        <time>2011-02-16T13:19:13Z</time>
      </trkpt>
      <trkpt lat="43.53541" lon="3.17194">
        <ele>209</ele>
        <time>2011-02-16T13:19:14Z</time>
      </trkpt>
      <trkpt lat="43.53547" lon="3.17184">
        <ele>209</ele>
        <time>2011-02-16T13:19:18Z</time>
      </trkpt>
      <trkpt lat="43.53548" lon="3.17179">
        <ele>209</ele>
        <time>2011-02-16T13:19:20Z</time>
      </trkpt>
      <trkpt lat="43.53553" lon="3.1717">
        <ele>209.39999389648</ele>
        <time>2011-02-16T13:19:24Z</time>
      </trkpt>
      <trkpt lat="43.53555" lon="3.17168">
        <ele>209.80000305176</ele>
        <time>2011-02-16T13:19:25Z</time>
      </trkpt>
      <trkpt lat="43.53556" lon="3.17165">
        <ele>210.19999694824</ele>
        <time>2011-02-16T13:19:26Z</time>
      </trkpt>
      <trkpt lat="43.53557" lon="3.17163">
        <ele>210.80000305176</ele>
        <time>2011-02-16T13:19:27Z</time>
      </trkpt>
      <trkpt lat="43.53559" lon="3.17161">
        <ele>211.19999694824</ele>
        <time>2011-02-16T13:19:28Z</time>
      </trkpt>
      <trkpt lat="43.53562" lon="3.17156">
        <ele>211.60000610352</ele>
        <time>2011-02-16T13:19:30Z</time>
      </trkpt>
      <trkpt lat="43.53564" lon="3.17154">
        <ele>212</ele>
        <time>2011-02-16T13:19:31Z</time>
      </trkpt>
      <trkpt lat="43.53566" lon="3.17151">
        <ele>212.39999389648</ele>
        <time>2011-02-16T13:19:32Z</time>
      </trkpt>
      <trkpt lat="43.53568" lon="3.17148">
        <ele>213</ele>
        <time>2011-02-16T13:19:33Z</time>
      </trkpt>
      <trkpt lat="43.5357" lon="3.17145">
        <ele>213.39999389648</ele>
        <time>2011-02-16T13:19:34Z</time>
      </trkpt>
      <trkpt lat="43.53581" lon="3.17139">
        <ele>213.39999389648</ele>
        <time>2011-02-16T13:19:39Z</time>
      </trkpt>
      <trkpt lat="43.53599" lon="3.17139">
        <ele>213.39999389648</ele>
        <time>2011-02-16T13:19:44Z</time>
      </trkpt>
      <trkpt lat="43.53608" lon="3.17138">
        <ele>213.80000305176</ele>
        <time>2011-02-16T13:19:47Z</time>
      </trkpt>
      <trkpt lat="43.53611" lon="3.17136">
        <ele>214.19999694824</ele>
        <time>2011-02-16T13:19:48Z</time>
      </trkpt>
      <trkpt lat="43.53615" lon="3.17134">
        <ele>214.60000610352</ele>
        <time>2011-02-16T13:19:49Z</time>
      </trkpt>
      <trkpt lat="43.53618" lon="3.17133">
        <ele>215</ele>
        <time>2011-02-16T13:19:50Z</time>
      </trkpt>
      <trkpt lat="43.53621" lon="3.17131">
        <ele>215.39999389648</ele>
        <time>2011-02-16T13:19:51Z</time>
      </trkpt>
      <trkpt lat="43.53636" lon="3.17123">
        <ele>215.39999389648</ele>
        <time>2011-02-16T13:19:57Z</time>
      </trkpt>
      <trkpt lat="43.53638" lon="3.17122">
        <ele>215.80000305176</ele>
        <time>2011-02-16T13:19:58Z</time>
      </trkpt>
      <trkpt lat="43.53641" lon="3.17121">
        <ele>216.19999694824</ele>
        <time>2011-02-16T13:19:59Z</time>
      </trkpt>
      <trkpt lat="43.53643" lon="3.1712">
        <ele>216.60000610352</ele>
        <time>2011-02-16T13:20:00Z</time>
      </trkpt>
      <trkpt lat="43.53645" lon="3.17119">
        <ele>217</ele>
        <time>2011-02-16T13:20:01Z</time>
      </trkpt>
      <trkpt lat="43.53647" lon="3.17118">
        <ele>217.39999389648</ele>
        <time>2011-02-16T13:20:02Z</time>
      </trkpt>
      <trkpt lat="43.5365" lon="3.17117">
        <ele>217.39999389648</ele>
        <time>2011-02-16T13:20:03Z</time>
      </trkpt>
      <trkpt lat="43.53652" lon="3.17116">
        <ele>218</ele>
        <time>2011-02-16T13:20:04Z</time>
      </trkpt>
      <trkpt lat="43.53655" lon="3.17116">
        <ele>218.39999389648</ele>
        <time>2011-02-16T13:20:05Z</time>
      </trkpt>
      <trkpt lat="43.53657" lon="3.17116">
        <ele>218.80000305176</ele>
        <time>2011-02-16T13:20:06Z</time>
      </trkpt>
      <trkpt lat="43.5366" lon="3.17115">
        <ele>219.19999694824</ele>
        <time>2011-02-16T13:20:07Z</time>
      </trkpt>
      <trkpt lat="43.53663" lon="3.17114">
        <ele>219.80000305176</ele>
        <time>2011-02-16T13:20:08Z</time>
      </trkpt>
      <trkpt lat="43.53666" lon="3.17113">
        <ele>219.80000305176</ele>
        <time>2011-02-16T13:20:09Z</time>
      </trkpt>
      <trkpt lat="43.53671" lon="3.17103">
        <ele>219.80000305176</ele>
        <time>2011-02-16T13:20:13Z</time>
      </trkpt>
      <trkpt lat="43.53672" lon="3.17097">
        <ele>219.80000305176</ele>
        <time>2011-02-16T13:20:15Z</time>
      </trkpt>
      <trkpt lat="43.53672" lon="3.17085">
        <ele>220.19999694824</ele>
        <time>2011-02-16T13:20:18Z</time>
      </trkpt>
      <trkpt lat="43.53672" lon="3.17081">
        <ele>221</ele>
        <time>2011-02-16T13:20:19Z</time>
      </trkpt>
      <trkpt lat="43.53672" lon="3.17077">
        <ele>221.39999389648</ele>
        <time>2011-02-16T13:20:20Z</time>
      </trkpt>
      <trkpt lat="43.53672" lon="3.17073">
        <ele>221.80000305176</ele>
        <time>2011-02-16T13:20:21Z</time>
      </trkpt>
      <trkpt lat="43.53671" lon="3.17042">
        <ele>221.80000305176</ele>
        <time>2011-02-16T13:20:28Z</time>
      </trkpt>
      <trkpt lat="43.53671" lon="3.17013">
        <ele>221.80000305176</ele>
        <time>2011-02-16T13:20:33Z</time>
      </trkpt>
      <trkpt lat="43.53672" lon="3.16976">
        <ele>221.19999694824</ele>
        <time>2011-02-16T13:20:38Z</time>
      </trkpt>
      <trkpt lat="43.53672" lon="3.16967">
        <ele>220.80000305176</ele>
        <time>2011-02-16T13:20:39Z</time>
      </trkpt>
      <trkpt lat="43.53672" lon="3.16958">
        <ele>220.19999694824</ele>
        <time>2011-02-16T13:20:40Z</time>
      </trkpt>
      <trkpt lat="43.53672" lon="3.1695">
        <ele>219.80000305176</ele>
        <time>2011-02-16T13:20:41Z</time>
      </trkpt>
      <trkpt lat="43.53672" lon="3.16941">
        <ele>219.39999389648</ele>
        <time>2011-02-16T13:20:42Z</time>
      </trkpt>
      <trkpt lat="43.53671" lon="3.16902">
        <ele>219.39999389648</ele>
        <time>2011-02-16T13:20:47Z</time>
      </trkpt>
      <trkpt lat="43.53671" lon="3.16882">
        <ele>219.39999389648</ele>
        <time>2011-02-16T13:20:50Z</time>
      </trkpt>
      <trkpt lat="43.53671" lon="3.16877">
        <ele>219</ele>
        <time>2011-02-16T13:20:51Z</time>
      </trkpt>
      <trkpt lat="43.53671" lon="3.16871">
        <ele>218.60000610352</ele>
        <time>2011-02-16T13:20:52Z</time>
      </trkpt>
      <trkpt lat="43.53671" lon="3.16866">
        <ele>218.19999694824</ele>
        <time>2011-02-16T13:20:53Z</time>
      </trkpt>
      <trkpt lat="43.53671" lon="3.1686">
        <ele>217.60000610352</ele>
        <time>2011-02-16T13:20:54Z</time>
      </trkpt>
      <trkpt lat="43.53672" lon="3.16855">
        <ele>217.19999694824</ele>
        <time>2011-02-16T13:20:55Z</time>
      </trkpt>
      <trkpt lat="43.53677" lon="3.1684">
        <ele>217.19999694824</ele>
        <time>2011-02-16T13:20:58Z</time>
      </trkpt>
      <trkpt lat="43.5368" lon="3.16838">
        <ele>217.19999694824</ele>
        <time>2011-02-16T13:20:59Z</time>
      </trkpt>
      <trkpt lat="43.53687" lon="3.16836">
        <ele>217.19999694824</ele>
        <time>2011-02-16T13:21:02Z</time>
      </trkpt>
      <trkpt lat="43.53693" lon="3.16844">
        <ele>217.19999694824</ele>
        <time>2011-02-16T13:21:05Z</time>
      </trkpt>
      <trkpt lat="43.53693" lon="3.16848">
        <ele>217.19999694824</ele>
        <time>2011-02-16T13:21:06Z</time>
      </trkpt>
      <trkpt lat="43.53695" lon="3.16852">
        <ele>217.80000305176</ele>
        <time>2011-02-16T13:21:07Z</time>
      </trkpt>
      <trkpt lat="43.53696" lon="3.16856">
        <ele>218.60000610352</ele>
        <time>2011-02-16T13:21:08Z</time>
      </trkpt>
      <trkpt lat="43.53697" lon="3.1686">
        <ele>219</ele>
        <time>2011-02-16T13:21:09Z</time>
      </trkpt>
      <trkpt lat="43.53698" lon="3.16863">
        <ele>219.60000610352</ele>
        <time>2011-02-16T13:21:10Z</time>
      </trkpt>
      <trkpt lat="43.53702" lon="3.16876">
        <ele>219.60000610352</ele>
        <time>2011-02-16T13:21:13Z</time>
      </trkpt>
      <trkpt lat="43.53707" lon="3.16892">
        <ele>219.60000610352</ele>
        <time>2011-02-16T13:21:16Z</time>
      </trkpt>
      <trkpt lat="43.53714" lon="3.1691">
        <ele>219.60000610352</ele>
        <time>2011-02-16T13:21:19Z</time>
      </trkpt>
      <trkpt lat="43.53723" lon="3.16934">
        <ele>219.60000610352</ele>
        <time>2011-02-16T13:21:23Z</time>
      </trkpt>
      <trkpt lat="43.53728" lon="3.16945">
        <ele>219.19999694824</ele>
        <time>2011-02-16T13:21:25Z</time>
      </trkpt>
      <trkpt lat="43.53731" lon="3.16951">
        <ele>218.60000610352</ele>
        <time>2011-02-16T13:21:26Z</time>
      </trkpt>
      <trkpt lat="43.53733" lon="3.16956">
        <ele>218.19999694824</ele>
        <time>2011-02-16T13:21:27Z</time>
      </trkpt>
      <trkpt lat="43.53734" lon="3.16963">
        <ele>217.80000305176</ele>
        <time>2011-02-16T13:21:28Z</time>
      </trkpt>
      <trkpt lat="43.53735" lon="3.16969">
        <ele>217.39999389648</ele>
        <time>2011-02-16T13:21:29Z</time>
      </trkpt>
      <trkpt lat="43.53735" lon="3.16976">
        <ele>217.39999389648</ele>
        <time>2011-02-16T13:21:30Z</time>
      </trkpt>
      <trkpt lat="43.53735" lon="3.16984">
        <ele>217.39999389648</ele>
        <time>2011-02-16T13:21:31Z</time>
      </trkpt>
      <trkpt lat="43.53733" lon="3.17002">
        <ele>217</ele>
        <time>2011-02-16T13:21:33Z</time>
      </trkpt>
      <trkpt lat="43.53733" lon="3.17011">
        <ele>216.39999389648</ele>
        <time>2011-02-16T13:21:34Z</time>
      </trkpt>
      <trkpt lat="43.53734" lon="3.1702">
        <ele>216</ele>
        <time>2011-02-16T13:21:35Z</time>
      </trkpt>
      <trkpt lat="43.53735" lon="3.17029">
        <ele>215.39999389648</ele>
        <time>2011-02-16T13:21:36Z</time>
      </trkpt>
      <trkpt lat="43.53736" lon="3.17039">
        <ele>215</ele>
        <time>2011-02-16T13:21:37Z</time>
      </trkpt>
      <trkpt lat="43.5374" lon="3.17057">
        <ele>214.60000610352</ele>
        <time>2011-02-16T13:21:39Z</time>
      </trkpt>
      <trkpt lat="43.53741" lon="3.17067">
        <ele>214</ele>
        <time>2011-02-16T13:21:40Z</time>
      </trkpt>
      <trkpt lat="43.53743" lon="3.17076">
        <ele>213.60000610352</ele>
        <time>2011-02-16T13:21:41Z</time>
      </trkpt>
      <trkpt lat="43.53745" lon="3.17085">
        <ele>213.19999694824</ele>
        <time>2011-02-16T13:21:42Z</time>
      </trkpt>
      <trkpt lat="43.53746" lon="3.17094">
        <ele>212.80000305176</ele>
        <time>2011-02-16T13:21:43Z</time>
      </trkpt>
      <trkpt lat="43.53751" lon="3.17112">
        <ele>212.19999694824</ele>
        <time>2011-02-16T13:21:45Z</time>
      </trkpt>
      <trkpt lat="43.53753" lon="3.17119">
        <ele>211.80000305176</ele>
        <time>2011-02-16T13:21:46Z</time>
      </trkpt>
      <trkpt lat="43.53755" lon="3.17126">
        <ele>211.19999694824</ele>
        <time>2011-02-16T13:21:47Z</time>
      </trkpt>
      <trkpt lat="43.53757" lon="3.17135">
        <ele>210.39999389648</ele>
        <time>2011-02-16T13:21:48Z</time>
      </trkpt>
      <trkpt lat="43.5376" lon="3.17145">
        <ele>209.80000305176</ele>
        <time>2011-02-16T13:21:49Z</time>
      </trkpt>
      <trkpt lat="43.53763" lon="3.17155">
        <ele>209</ele>
        <time>2011-02-16T13:21:50Z</time>
      </trkpt>
      <trkpt lat="43.53767" lon="3.17165">
        <ele>208.19999694824</ele>
        <time>2011-02-16T13:21:51Z</time>
      </trkpt>
      <trkpt lat="43.53771" lon="3.17172">
        <ele>207.19999694824</ele>
        <time>2011-02-16T13:21:52Z</time>
      </trkpt>
      <trkpt lat="43.53775" lon="3.17174">
        <ele>206.39999389648</ele>
        <time>2011-02-16T13:21:53Z</time>
      </trkpt>
      <trkpt lat="43.53779" lon="3.17173">
        <ele>205.39999389648</ele>
        <time>2011-02-16T13:21:54Z</time>
      </trkpt>
      <trkpt lat="43.53782" lon="3.17171">
        <ele>204.60000610352</ele>
        <time>2011-02-16T13:21:55Z</time>
      </trkpt>
      <trkpt lat="43.53784" lon="3.17168">
        <ele>204.60000610352</ele>
        <time>2011-02-16T13:21:56Z</time>
      </trkpt>
      <trkpt lat="43.53789" lon="3.17161">
        <ele>204.60000610352</ele>
        <time>2011-02-16T13:21:58Z</time>
      </trkpt>
      <trkpt lat="43.53798" lon="3.17149">
        <ele>204.60000610352</ele>
        <time>2011-02-16T13:22:01Z</time>
      </trkpt>
      <trkpt lat="43.53804" lon="3.17141">
        <ele>204.60000610352</ele>
        <time>2011-02-16T13:22:03Z</time>
      </trkpt>
      <trkpt lat="43.53813" lon="3.1713">
        <ele>204.60000610352</ele>
        <time>2011-02-16T13:22:06Z</time>
      </trkpt>
      <trkpt lat="43.53822" lon="3.1712">
        <ele>204.60000610352</ele>
        <time>2011-02-16T13:22:09Z</time>
      </trkpt>
      <trkpt lat="43.53832" lon="3.17109">
        <ele>204.60000610352</ele>
        <time>2011-02-16T13:22:13Z</time>
      </trkpt>
      <trkpt lat="43.53843" lon="3.17098">
        <ele>204.60000610352</ele>
        <time>2011-02-16T13:22:17Z</time>
      </trkpt>
      <trkpt lat="43.53845" lon="3.17096">
        <ele>205</ele>
        <time>2011-02-16T13:22:18Z</time>
      </trkpt>
      <trkpt lat="43.53848" lon="3.17094">
        <ele>205.39999389648</ele>
        <time>2011-02-16T13:22:19Z</time>
      </trkpt>
      <trkpt lat="43.53851" lon="3.17092">
        <ele>205.80000305176</ele>
        <time>2011-02-16T13:22:20Z</time>
      </trkpt>
      <trkpt lat="43.53854" lon="3.17091">
        <ele>206.19999694824</ele>
        <time>2011-02-16T13:22:21Z</time>
      </trkpt>
      <trkpt lat="43.53857" lon="3.17089">
        <ele>206.60000610352</ele>
        <time>2011-02-16T13:22:22Z</time>
      </trkpt>
      <trkpt lat="43.53865" lon="3.17086">
        <ele>206.60000610352</ele>
        <time>2011-02-16T13:22:25Z</time>
      </trkpt>
      <trkpt lat="43.53873" lon="3.17083">
        <ele>207</ele>
        <time>2011-02-16T13:22:28Z</time>
      </trkpt>
      <trkpt lat="43.53875" lon="3.17083">
        <ele>207.39999389648</ele>
        <time>2011-02-16T13:22:29Z</time>
      </trkpt>
      <trkpt lat="43.53878" lon="3.17082">
        <ele>207.80000305176</ele>
        <time>2011-02-16T13:22:30Z</time>
      </trkpt>
      <trkpt lat="43.53881" lon="3.17082">
        <ele>208.19999694824</ele>
        <time>2011-02-16T13:22:31Z</time>
      </trkpt>
      <trkpt lat="43.53883" lon="3.17081">
        <ele>208.60000610352</ele>
        <time>2011-02-16T13:22:32Z</time>
      </trkpt>
      <trkpt lat="43.53886" lon="3.1708">
        <ele>208.60000610352</ele>
        <time>2011-02-16T13:22:33Z</time>
      </trkpt>
      <trkpt lat="43.53905" lon="3.17078">
        <ele>208.60000610352</ele>
        <time>2011-02-16T13:22:40Z</time>
      </trkpt>
      <trkpt lat="43.53909" lon="3.17079">
        <ele>209.19999694824</ele>
        <time>2011-02-16T13:22:42Z</time>
      </trkpt>
      <trkpt lat="43.53912" lon="3.17079">
        <ele>209.60000610352</ele>
        <time>2011-02-16T13:22:43Z</time>
      </trkpt>
      <trkpt lat="43.53915" lon="3.17078">
        <ele>210</ele>
        <time>2011-02-16T13:22:44Z</time>
      </trkpt>
      <trkpt lat="43.53918" lon="3.17078">
        <ele>210.39999389648</ele>
        <time>2011-02-16T13:22:45Z</time>
      </trkpt>
      <trkpt lat="43.5392" lon="3.17078">
        <ele>210.80000305176</ele>
        <time>2011-02-16T13:22:46Z</time>
      </trkpt>
      <trkpt lat="43.53932" lon="3.17074">
        <ele>210.80000305176</ele>
        <time>2011-02-16T13:22:51Z</time>
      </trkpt>
      <trkpt lat="43.53942" lon="3.17068">
        <ele>210.80000305176</ele>
        <time>2011-02-16T13:22:56Z</time>
      </trkpt>
      <trkpt lat="43.53955" lon="3.17061">
        <ele>211.19999694824</ele>
        <time>2011-02-16T13:23:02Z</time>
      </trkpt>
      <trkpt lat="43.53957" lon="3.1706">
        <ele>211.60000610352</ele>
        <time>2011-02-16T13:23:03Z</time>
      </trkpt>
      <trkpt lat="43.53959" lon="3.17059">
        <ele>212</ele>
        <time>2011-02-16T13:23:04Z</time>
      </trkpt>
      <trkpt lat="43.53961" lon="3.17059">
        <ele>212.39999389648</ele>
        <time>2011-02-16T13:23:05Z</time>
      </trkpt>
      <trkpt lat="43.53963" lon="3.17058">
        <ele>212.80000305176</ele>
        <time>2011-02-16T13:23:06Z</time>
      </trkpt>
      <trkpt lat="43.5397" lon="3.17056">
        <ele>212.80000305176</ele>
        <time>2011-02-16T13:23:10Z</time>
      </trkpt>
      <trkpt lat="43.53979" lon="3.17053">
        <ele>213.19999694824</ele>
        <time>2011-02-16T13:23:15Z</time>
      </trkpt>
      <trkpt lat="43.53981" lon="3.17052">
        <ele>213.80000305176</ele>
        <time>2011-02-16T13:23:16Z</time>
      </trkpt>
      <trkpt lat="43.53983" lon="3.17052">
        <ele>214.19999694824</ele>
        <time>2011-02-16T13:23:17Z</time>
      </trkpt>
      <trkpt lat="43.53984" lon="3.17052">
        <ele>214.60000610352</ele>
        <time>2011-02-16T13:23:18Z</time>
      </trkpt>
      <trkpt lat="43.53986" lon="3.17052">
        <ele>215</ele>
        <time>2011-02-16T13:23:19Z</time>
      </trkpt>
      <trkpt lat="43.53994" lon="3.17049">
        <ele>215</ele>
        <time>2011-02-16T13:23:24Z</time>
      </trkpt>
      <trkpt lat="43.53996" lon="3.17048">
        <ele>215.39999389648</ele>
        <time>2011-02-16T13:23:25Z</time>
      </trkpt>
      <trkpt lat="43.53997" lon="3.17048">
        <ele>215.80000305176</ele>
        <time>2011-02-16T13:23:26Z</time>
      </trkpt>
      <trkpt lat="43.53999" lon="3.17048">
        <ele>216.19999694824</ele>
        <time>2011-02-16T13:23:27Z</time>
      </trkpt>
      <trkpt lat="43.54001" lon="3.17047">
        <ele>216.60000610352</ele>
        <time>2011-02-16T13:23:28Z</time>
      </trkpt>
      <trkpt lat="43.54002" lon="3.17047">
        <ele>217.19999694824</ele>
        <time>2011-02-16T13:23:29Z</time>
      </trkpt>
      <trkpt lat="43.54005" lon="3.17045">
        <ele>217.19999694824</ele>
        <time>2011-02-16T13:23:31Z</time>
      </trkpt>
      <trkpt lat="43.54013" lon="3.17043">
        <ele>217.60000610352</ele>
        <time>2011-02-16T13:23:35Z</time>
      </trkpt>
      <trkpt lat="43.54015" lon="3.17043">
        <ele>218.39999389648</ele>
        <time>2011-02-16T13:23:36Z</time>
      </trkpt>
      <trkpt lat="43.54016" lon="3.17043">
        <ele>218.80000305176</ele>
        <time>2011-02-16T13:23:37Z</time>
      </trkpt>
      <trkpt lat="43.54018" lon="3.17042">
        <ele>219.19999694824</ele>
        <time>2011-02-16T13:23:38Z</time>
      </trkpt>
      <trkpt lat="43.54034" lon="3.17041">
        <ele>219.19999694824</ele>
        <time>2011-02-16T13:23:47Z</time>
      </trkpt>
      <trkpt lat="43.54036" lon="3.17041">
        <ele>219.60000610352</ele>
        <time>2011-02-16T13:23:48Z</time>
      </trkpt>
      <trkpt lat="43.54037" lon="3.17041">
        <ele>220</ele>
        <time>2011-02-16T13:23:49Z</time>
      </trkpt>
      <trkpt lat="43.54039" lon="3.17041">
        <ele>220.39999389648</ele>
        <time>2011-02-16T13:23:50Z</time>
      </trkpt>
      <trkpt lat="43.5404" lon="3.17041">
        <ele>220.80000305176</ele>
        <time>2011-02-16T13:23:51Z</time>
      </trkpt>
      <trkpt lat="43.54042" lon="3.17041">
        <ele>221.19999694824</ele>
        <time>2011-02-16T13:23:52Z</time>
      </trkpt>
      <trkpt lat="43.54043" lon="3.17041">
        <ele>221.19999694824</ele>
        <time>2011-02-16T13:23:53Z</time>
      </trkpt>
      <trkpt lat="43.54052" lon="3.17039">
        <ele>221.60000610352</ele>
        <time>2011-02-16T13:23:59Z</time>
      </trkpt>
      <trkpt lat="43.54054" lon="3.17038">
        <ele>222</ele>
        <time>2011-02-16T13:24:00Z</time>
      </trkpt>
      <trkpt lat="43.54056" lon="3.17038">
        <ele>222.80000305176</ele>
        <time>2011-02-16T13:24:01Z</time>
      </trkpt>
      <trkpt lat="43.54057" lon="3.17037">
        <ele>223.19999694824</ele>
        <time>2011-02-16T13:24:02Z</time>
      </trkpt>
      <trkpt lat="43.54063" lon="3.17036">
        <ele>223.19999694824</ele>
        <time>2011-02-16T13:24:06Z</time>
      </trkpt>
      <trkpt lat="43.5407" lon="3.17036">
        <ele>223.80000305176</ele>
        <time>2011-02-16T13:24:10Z</time>
      </trkpt>
      <trkpt lat="43.54072" lon="3.17036">
        <ele>224.19999694824</ele>
        <time>2011-02-16T13:24:11Z</time>
      </trkpt>
      <trkpt lat="43.54074" lon="3.17037">
        <ele>224.60000610352</ele>
        <time>2011-02-16T13:24:12Z</time>
      </trkpt>
      <trkpt lat="43.54076" lon="3.17038">
        <ele>225</ele>
        <time>2011-02-16T13:24:13Z</time>
      </trkpt>
      <trkpt lat="43.54078" lon="3.17039">
        <ele>225.39999389648</ele>
        <time>2011-02-16T13:24:14Z</time>
      </trkpt>
      <trkpt lat="43.54082" lon="3.17045">
        <ele>225.39999389648</ele>
        <time>2011-02-16T13:24:18Z</time>
      </trkpt>
      <trkpt lat="43.54082" lon="3.17047">
        <ele>225.80000305176</ele>
        <time>2011-02-16T13:24:20Z</time>
      </trkpt>
      <trkpt lat="43.54083" lon="3.17049">
        <ele>226.39999389648</ele>
        <time>2011-02-16T13:24:21Z</time>
      </trkpt>
      <trkpt lat="43.54083" lon="3.1705">
        <ele>226.80000305176</ele>
        <time>2011-02-16T13:24:22Z</time>
      </trkpt>
      <trkpt lat="43.54083" lon="3.17051">
        <ele>227.19999694824</ele>
        <time>2011-02-16T13:24:23Z</time>
      </trkpt>
      <trkpt lat="43.54084" lon="3.17052">
        <ele>227.60000610352</ele>
        <time>2011-02-16T13:24:24Z</time>
      </trkpt>
      <trkpt lat="43.54086" lon="3.17057">
        <ele>227.60000610352</ele>
        <time>2011-02-16T13:24:27Z</time>
      </trkpt>
      <trkpt lat="43.54087" lon="3.17057">
        <ele>227.60000610352</ele>
        <time>2011-02-16T13:24:29Z</time>
      </trkpt>
      <trkpt lat="43.54087" lon="3.1705">
        <ele>227.60000610352</ele>
        <time>2011-02-16T13:24:33Z</time>
      </trkpt>
      <trkpt lat="43.54082" lon="3.17044">
        <ele>227.60000610352</ele>
        <time>2011-02-16T13:25:33Z</time>
      </trkpt>
      <trkpt lat="43.54081" lon="3.17041">
        <ele>227.60000610352</ele>
        <time>2011-02-16T13:25:34Z</time>
      </trkpt>
      <trkpt lat="43.54081" lon="3.17037">
        <ele>227.60000610352</ele>
        <time>2011-02-16T13:25:35Z</time>
      </trkpt>
      <trkpt lat="43.54084" lon="3.17013">
        <ele>227.60000610352</ele>
        <time>2011-02-16T13:25:41Z</time>
      </trkpt>
      <trkpt lat="43.54087" lon="3.16991">
        <ele>227.19999694824</ele>
        <time>2011-02-16T13:25:44Z</time>
      </trkpt>
      <trkpt lat="43.54088" lon="3.16981">
        <ele>226.80000305176</ele>
        <time>2011-02-16T13:25:45Z</time>
      </trkpt>
      <trkpt lat="43.5409" lon="3.16972">
        <ele>226.19999694824</ele>
        <time>2011-02-16T13:25:46Z</time>
      </trkpt>
      <trkpt lat="43.54092" lon="3.16963">
        <ele>225.80000305176</ele>
        <time>2011-02-16T13:25:47Z</time>
      </trkpt>
      <trkpt lat="43.54093" lon="3.16955">
        <ele>225.39999389648</ele>
        <time>2011-02-16T13:25:48Z</time>
      </trkpt>
      <trkpt lat="43.54094" lon="3.16947">
        <ele>225.39999389648</ele>
        <time>2011-02-16T13:25:49Z</time>
      </trkpt>
      <trkpt lat="43.54095" lon="3.16914">
        <ele>225.39999389648</ele>
        <time>2011-02-16T13:25:53Z</time>
      </trkpt>
      <trkpt lat="43.54095" lon="3.169">
        <ele>225.39999389648</ele>
        <time>2011-02-16T13:25:55Z</time>
      </trkpt>
      <trkpt lat="43.54097" lon="3.1689">
        <ele>225.39999389648</ele>
        <time>2011-02-16T13:25:57Z</time>
      </trkpt>
      <trkpt lat="43.54099" lon="3.16886">
        <ele>226</ele>
        <time>2011-02-16T13:25:58Z</time>
      </trkpt>
      <trkpt lat="43.54101" lon="3.16883">
        <ele>226.39999389648</ele>
        <time>2011-02-16T13:25:59Z</time>
      </trkpt>
      <trkpt lat="43.54102" lon="3.16879">
        <ele>227</ele>
        <time>2011-02-16T13:26:00Z</time>
      </trkpt>
      <trkpt lat="43.54103" lon="3.16875">
        <ele>227.60000610352</ele>
        <time>2011-02-16T13:26:01Z</time>
      </trkpt>
      <trkpt lat="43.54104" lon="3.16871">
        <ele>228</ele>
        <time>2011-02-16T13:26:02Z</time>
      </trkpt>
      <trkpt lat="43.54105" lon="3.16864">
        <ele>228.39999389648</ele>
        <time>2011-02-16T13:26:04Z</time>
      </trkpt>
      <trkpt lat="43.54105" lon="3.1686">
        <ele>229.19999694824</ele>
        <time>2011-02-16T13:26:05Z</time>
      </trkpt>
      <trkpt lat="43.54105" lon="3.16857">
        <ele>229.60000610352</ele>
        <time>2011-02-16T13:26:06Z</time>
      </trkpt>
      <trkpt lat="43.54105" lon="3.16853">
        <ele>230.19999694824</ele>
        <time>2011-02-16T13:26:07Z</time>
      </trkpt>
      <trkpt lat="43.54105" lon="3.16842">
        <ele>230.19999694824</ele>
        <time>2011-02-16T13:26:10Z</time>
      </trkpt>
      <trkpt lat="43.54105" lon="3.16831">
        <ele>230.19999694824</ele>
        <time>2011-02-16T13:26:13Z</time>
      </trkpt>
      <trkpt lat="43.54106" lon="3.16802">
        <ele>230.19999694824</ele>
        <time>2011-02-16T13:26:19Z</time>
      </trkpt>
      <trkpt lat="43.54109" lon="3.16778">
        <ele>230.19999694824</ele>
        <time>2011-02-16T13:26:22Z</time>
      </trkpt>
      <trkpt lat="43.54111" lon="3.1677">
        <ele>230.19999694824</ele>
        <time>2011-02-16T13:26:23Z</time>
      </trkpt>
      <trkpt lat="43.54115" lon="3.16752">
        <ele>230.19999694824</ele>
        <time>2011-02-16T13:26:25Z</time>
      </trkpt>
      <trkpt lat="43.54119" lon="3.16746">
        <ele>229.60000610352</ele>
        <time>2011-02-16T13:26:26Z</time>
      </trkpt>
      <trkpt lat="43.54125" lon="3.16741">
        <ele>229.19999694824</ele>
        <time>2011-02-16T13:26:27Z</time>
      </trkpt>
      <trkpt lat="43.5413" lon="3.16738">
        <ele>228.80000305176</ele>
        <time>2011-02-16T13:26:28Z</time>
      </trkpt>
      <trkpt lat="43.54134" lon="3.16736">
        <ele>228.39999389648</ele>
        <time>2011-02-16T13:26:29Z</time>
      </trkpt>
      <trkpt lat="43.54137" lon="3.16735">
        <ele>228</ele>
        <time>2011-02-16T13:26:30Z</time>
      </trkpt>
      <trkpt lat="43.54145" lon="3.16727">
        <ele>228</ele>
        <time>2011-02-16T13:26:33Z</time>
      </trkpt>
      <trkpt lat="43.5415" lon="3.16713">
        <ele>228</ele>
        <time>2011-02-16T13:26:36Z</time>
      </trkpt>
      <trkpt lat="43.54145" lon="3.16701">
        <ele>228</ele>
        <time>2011-02-16T13:26:38Z</time>
      </trkpt>
      <trkpt lat="43.54144" lon="3.16688">
        <ele>228</ele>
        <time>2011-02-16T13:26:40Z</time>
      </trkpt>
      <trkpt lat="43.54143" lon="3.16677">
        <ele>228</ele>
        <time>2011-02-16T13:26:42Z</time>
      </trkpt>
      <trkpt lat="43.5414" lon="3.16657">
        <ele>228</ele>
        <time>2011-02-16T13:26:47Z</time>
      </trkpt>
      <trkpt lat="43.54139" lon="3.16648">
        <ele>228.60000610352</ele>
        <time>2011-02-16T13:26:51Z</time>
      </trkpt>
      <trkpt lat="43.54139" lon="3.16646">
        <ele>229</ele>
        <time>2011-02-16T13:26:52Z</time>
      </trkpt>
      <trkpt lat="43.54139" lon="3.16644">
        <ele>229.39999389648</ele>
        <time>2011-02-16T13:26:53Z</time>
      </trkpt>
      <trkpt lat="43.54139" lon="3.16641">
        <ele>229.80000305176</ele>
        <time>2011-02-16T13:26:54Z</time>
      </trkpt>
      <trkpt lat="43.54139" lon="3.16639">
        <ele>230.39999389648</ele>
        <time>2011-02-16T13:26:55Z</time>
      </trkpt>
      <trkpt lat="43.5414" lon="3.16634">
        <ele>230.80000305176</ele>
        <time>2011-02-16T13:26:57Z</time>
      </trkpt>
      <trkpt lat="43.54141" lon="3.16632">
        <ele>231.19999694824</ele>
        <time>2011-02-16T13:26:58Z</time>
      </trkpt>
      <trkpt lat="43.54142" lon="3.16629">
        <ele>231.60000610352</ele>
        <time>2011-02-16T13:26:59Z</time>
      </trkpt>
      <trkpt lat="43.54142" lon="3.16627">
        <ele>232</ele>
        <time>2011-02-16T13:27:00Z</time>
      </trkpt>
      <trkpt lat="43.54143" lon="3.16625">
        <ele>232.39999389648</ele>
        <time>2011-02-16T13:27:01Z</time>
      </trkpt>
      <trkpt lat="43.54147" lon="3.1662">
        <ele>232.39999389648</ele>
        <time>2011-02-16T13:27:04Z</time>
      </trkpt>
      <trkpt lat="43.54148" lon="3.16619">
        <ele>233</ele>
        <time>2011-02-16T13:27:05Z</time>
      </trkpt>
      <trkpt lat="43.54149" lon="3.16617">
        <ele>233.39999389648</ele>
        <time>2011-02-16T13:27:06Z</time>
      </trkpt>
      <trkpt lat="43.5415" lon="3.16616">
        <ele>233.80000305176</ele>
        <time>2011-02-16T13:27:07Z</time>
      </trkpt>
      <trkpt lat="43.54152" lon="3.16614">
        <ele>234.19999694824</ele>
        <time>2011-02-16T13:27:08Z</time>
      </trkpt>
      <trkpt lat="43.54153" lon="3.16613">
        <ele>234.60000610352</ele>
        <time>2011-02-16T13:27:09Z</time>
      </trkpt>
      <trkpt lat="43.54166" lon="3.16604">
        <ele>234.60000610352</ele>
        <time>2011-02-16T13:27:16Z</time>
      </trkpt>
      <trkpt lat="43.54176" lon="3.16597">
        <ele>234.60000610352</ele>
        <time>2011-02-16T13:27:22Z</time>
      </trkpt>
      <trkpt lat="43.54181" lon="3.16593">
        <ele>235.19999694824</ele>
        <time>2011-02-16T13:27:25Z</time>
      </trkpt>
      <trkpt lat="43.54182" lon="3.16592">
        <ele>235.60000610352</ele>
        <time>2011-02-16T13:27:26Z</time>
      </trkpt>
      <trkpt lat="43.54183" lon="3.16591">
        <ele>236</ele>
        <time>2011-02-16T13:27:27Z</time>
      </trkpt>
      <trkpt lat="43.54185" lon="3.16589">
        <ele>236.39999389648</ele>
        <time>2011-02-16T13:27:28Z</time>
      </trkpt>
      <trkpt lat="43.54187" lon="3.16588">
        <ele>236.80000305176</ele>
        <time>2011-02-16T13:27:29Z</time>
      </trkpt>
      <trkpt lat="43.54189" lon="3.16587">
        <ele>236.80000305176</ele>
        <time>2011-02-16T13:27:31Z</time>
      </trkpt>
      <trkpt lat="43.54196" lon="3.16578">
        <ele>237.19999694824</ele>
        <time>2011-02-16T13:27:37Z</time>
      </trkpt>
      <trkpt lat="43.54197" lon="3.16577">
        <ele>237.60000610352</ele>
        <time>2011-02-16T13:27:38Z</time>
      </trkpt>
      <trkpt lat="43.54199" lon="3.16576">
        <ele>238</ele>
        <time>2011-02-16T13:27:39Z</time>
      </trkpt>
      <trkpt lat="43.542" lon="3.16575">
        <ele>238.39999389648</ele>
        <time>2011-02-16T13:27:40Z</time>
      </trkpt>
      <trkpt lat="43.54202" lon="3.16573">
        <ele>238.80000305176</ele>
        <time>2011-02-16T13:27:41Z</time>
      </trkpt>
      <trkpt lat="43.54207" lon="3.16569">
        <ele>238.80000305176</ele>
        <time>2011-02-16T13:27:45Z</time>
      </trkpt>
      <trkpt lat="43.54208" lon="3.16567">
        <ele>239.19999694824</ele>
        <time>2011-02-16T13:27:46Z</time>
      </trkpt>
      <trkpt lat="43.5421" lon="3.16566">
        <ele>239.80000305176</ele>
        <time>2011-02-16T13:27:47Z</time>
      </trkpt>
      <trkpt lat="43.54211" lon="3.16566">
        <ele>240.19999694824</ele>
        <time>2011-02-16T13:27:48Z</time>
      </trkpt>
      <trkpt lat="43.54212" lon="3.16565">
        <ele>240.60000610352</ele>
        <time>2011-02-16T13:27:49Z</time>
      </trkpt>
      <trkpt lat="43.54213" lon="3.16564">
        <ele>241</ele>
        <time>2011-02-16T13:27:50Z</time>
      </trkpt>
      <trkpt lat="43.54216" lon="3.16561">
        <ele>241</ele>
        <time>2011-02-16T13:27:52Z</time>
      </trkpt>
      <trkpt lat="43.54221" lon="3.16556">
        <ele>241.39999389648</ele>
        <time>2011-02-16T13:27:57Z</time>
      </trkpt>
      <trkpt lat="43.54222" lon="3.16554">
        <ele>241.80000305176</ele>
        <time>2011-02-16T13:27:58Z</time>
      </trkpt>
      <trkpt lat="43.54223" lon="3.16553">
        <ele>242.39999389648</ele>
        <time>2011-02-16T13:27:59Z</time>
      </trkpt>
      <trkpt lat="43.54224" lon="3.16551">
        <ele>242.80000305176</ele>
        <time>2011-02-16T13:28:00Z</time>
      </trkpt>
      <trkpt lat="43.54225" lon="3.1655">
        <ele>243.19999694824</ele>
        <time>2011-02-16T13:28:01Z</time>
      </trkpt>
      <trkpt lat="43.5423" lon="3.16545">
        <ele>243.60000610352</ele>
        <time>2011-02-16T13:28:05Z</time>
      </trkpt>
      <trkpt lat="43.54231" lon="3.16544">
        <ele>244</ele>
        <time>2011-02-16T13:28:06Z</time>
      </trkpt>
      <trkpt lat="43.54232" lon="3.16542">
        <ele>244.39999389648</ele>
        <time>2011-02-16T13:28:07Z</time>
      </trkpt>
      <trkpt lat="43.54233" lon="3.16541">
        <ele>244.80000305176</ele>
        <time>2011-02-16T13:28:08Z</time>
      </trkpt>
      <trkpt lat="43.54234" lon="3.16539">
        <ele>245.19999694824</ele>
        <time>2011-02-16T13:28:09Z</time>
      </trkpt>
      <trkpt lat="43.54241" lon="3.16527">
        <ele>245.19999694824</ele>
        <time>2011-02-16T13:28:16Z</time>
      </trkpt>
      <trkpt lat="43.54241" lon="3.16525">
        <ele>245.60000610352</ele>
        <time>2011-02-16T13:28:17Z</time>
      </trkpt>
      <trkpt lat="43.54242" lon="3.16522">
        <ele>246</ele>
        <time>2011-02-16T13:28:18Z</time>
      </trkpt>
      <trkpt lat="43.54243" lon="3.16521">
        <ele>246.39999389648</ele>
        <time>2011-02-16T13:28:19Z</time>
      </trkpt>
      <trkpt lat="43.54243" lon="3.16519">
        <ele>246.80000305176</ele>
        <time>2011-02-16T13:28:20Z</time>
      </trkpt>
      <trkpt lat="43.54244" lon="3.16517">
        <ele>247.39999389648</ele>
        <time>2011-02-16T13:28:21Z</time>
      </trkpt>
      <trkpt lat="43.54247" lon="3.16511">
        <ele>247.39999389648</ele>
        <time>2011-02-16T13:28:24Z</time>
      </trkpt>
      <trkpt lat="43.5425" lon="3.16502">
        <ele>247.80000305176</ele>
        <time>2011-02-16T13:28:29Z</time>
      </trkpt>
      <trkpt lat="43.54251" lon="3.16499">
        <ele>248.19999694824</ele>
        <time>2011-02-16T13:28:30Z</time>
      </trkpt>
      <trkpt lat="43.54251" lon="3.16497">
        <ele>248.60000610352</ele>
        <time>2011-02-16T13:28:31Z</time>
      </trkpt>
      <trkpt lat="43.54251" lon="3.16495">
        <ele>249</ele>
        <time>2011-02-16T13:28:32Z</time>
      </trkpt>
      <trkpt lat="43.54252" lon="3.16492">
        <ele>249.39999389648</ele>
        <time>2011-02-16T13:28:33Z</time>
      </trkpt>
      <trkpt lat="43.54253" lon="3.16478">
        <ele>249.80000305176</ele>
        <time>2011-02-16T13:28:39Z</time>
      </trkpt>
      <trkpt lat="43.54253" lon="3.16475">
        <ele>250.19999694824</ele>
        <time>2011-02-16T13:28:40Z</time>
      </trkpt>
      <trkpt lat="43.54252" lon="3.16473">
        <ele>250.60000610352</ele>
        <time>2011-02-16T13:28:41Z</time>
      </trkpt>
      <trkpt lat="43.54252" lon="3.1647">
        <ele>251</ele>
        <time>2011-02-16T13:28:42Z</time>
      </trkpt>
      <trkpt lat="43.54252" lon="3.16468">
        <ele>251.60000610352</ele>
        <time>2011-02-16T13:28:43Z</time>
      </trkpt>
      <trkpt lat="43.54252" lon="3.16457">
        <ele>251.60000610352</ele>
        <time>2011-02-16T13:28:47Z</time>
      </trkpt>
      <trkpt lat="43.54254" lon="3.16438">
        <ele>252</ele>
        <time>2011-02-16T13:28:54Z</time>
      </trkpt>
      <trkpt lat="43.54254" lon="3.16436">
        <ele>252.39999389648</ele>
        <time>2011-02-16T13:28:55Z</time>
      </trkpt>
      <trkpt lat="43.54255" lon="3.16433">
        <ele>252.80000305176</ele>
        <time>2011-02-16T13:28:56Z</time>
      </trkpt>
      <trkpt lat="43.54255" lon="3.16429">
        <ele>253.19999694824</ele>
        <time>2011-02-16T13:28:57Z</time>
      </trkpt>
      <trkpt lat="43.54256" lon="3.16426">
        <ele>253.60000610352</ele>
        <time>2011-02-16T13:28:58Z</time>
      </trkpt>
      <trkpt lat="43.54258" lon="3.16416">
        <ele>253.60000610352</ele>
        <time>2011-02-16T13:29:02Z</time>
      </trkpt>
      <trkpt lat="43.54263" lon="3.16397">
        <ele>253.60000610352</ele>
        <time>2011-02-16T13:29:09Z</time>
      </trkpt>
      <trkpt lat="43.54265" lon="3.16389">
        <ele>254</ele>
        <time>2011-02-16T13:29:12Z</time>
      </trkpt>
      <trkpt lat="43.54266" lon="3.16385">
        <ele>254.39999389648</ele>
        <time>2011-02-16T13:29:13Z</time>
      </trkpt>
      <trkpt lat="43.54266" lon="3.16382">
        <ele>254.80000305176</ele>
        <time>2011-02-16T13:29:14Z</time>
      </trkpt>
      <trkpt lat="43.54268" lon="3.16379">
        <ele>255.19999694824</ele>
        <time>2011-02-16T13:29:15Z</time>
      </trkpt>
      <trkpt lat="43.54269" lon="3.16376">
        <ele>255.60000610352</ele>
        <time>2011-02-16T13:29:16Z</time>
      </trkpt>
      <trkpt lat="43.5427" lon="3.16373">
        <ele>255.60000610352</ele>
        <time>2011-02-16T13:29:17Z</time>
      </trkpt>
      <trkpt lat="43.54276" lon="3.1635">
        <ele>255.60000610352</ele>
        <time>2011-02-16T13:29:24Z</time>
      </trkpt>
      <trkpt lat="43.54277" lon="3.16338">
        <ele>256</ele>
        <time>2011-02-16T13:29:28Z</time>
      </trkpt>
      <trkpt lat="43.54278" lon="3.16335">
        <ele>256.39999389648</ele>
        <time>2011-02-16T13:29:29Z</time>
      </trkpt>
      <trkpt lat="43.54278" lon="3.16332">
        <ele>256.79998779297</ele>
        <time>2011-02-16T13:29:30Z</time>
      </trkpt>
      <trkpt lat="43.54279" lon="3.16329">
        <ele>257.20001220703</ele>
        <time>2011-02-16T13:29:31Z</time>
      </trkpt>
      <trkpt lat="43.5428" lon="3.16326">
        <ele>257.60000610352</ele>
        <time>2011-02-16T13:29:32Z</time>
      </trkpt>
      <trkpt lat="43.54281" lon="3.16306">
        <ele>257.60000610352</ele>
        <time>2011-02-16T13:29:39Z</time>
      </trkpt>
      <trkpt lat="43.54281" lon="3.16297">
        <ele>258</ele>
        <time>2011-02-16T13:29:42Z</time>
      </trkpt>
      <trkpt lat="43.54281" lon="3.16294">
        <ele>258.39999389648</ele>
        <time>2011-02-16T13:29:43Z</time>
      </trkpt>
      <trkpt lat="43.54281" lon="3.1629">
        <ele>258.79998779297</ele>
        <time>2011-02-16T13:29:44Z</time>
      </trkpt>
      <trkpt lat="43.54282" lon="3.16287">
        <ele>259.20001220703</ele>
        <time>2011-02-16T13:29:45Z</time>
      </trkpt>
      <trkpt lat="43.54282" lon="3.16283">
        <ele>259.60000610352</ele>
        <time>2011-02-16T13:29:46Z</time>
      </trkpt>
      <trkpt lat="43.54288" lon="3.16265">
        <ele>259.60000610352</ele>
        <time>2011-02-16T13:29:51Z</time>
      </trkpt>
      <trkpt lat="43.54301" lon="3.16249">
        <ele>259.60000610352</ele>
        <time>2011-02-16T13:29:57Z</time>
      </trkpt>
      <trkpt lat="43.54303" lon="3.16247">
        <ele>260</ele>
        <time>2011-02-16T13:29:58Z</time>
      </trkpt>
      <trkpt lat="43.54305" lon="3.16244">
        <ele>260.60000610352</ele>
        <time>2011-02-16T13:29:59Z</time>
      </trkpt>
      <trkpt lat="43.54307" lon="3.16243">
        <ele>261</ele>
        <time>2011-02-16T13:30:00Z</time>
      </trkpt>
      <trkpt lat="43.54309" lon="3.1624">
        <ele>261.39999389648</ele>
        <time>2011-02-16T13:30:01Z</time>
      </trkpt>
      <trkpt lat="43.54312" lon="3.16238">
        <ele>261.79998779297</ele>
        <time>2011-02-16T13:30:02Z</time>
      </trkpt>
      <trkpt lat="43.54319" lon="3.16231">
        <ele>261.79998779297</ele>
        <time>2011-02-16T13:30:05Z</time>
      </trkpt>
      <trkpt lat="43.54335" lon="3.16213">
        <ele>261.79998779297</ele>
        <time>2011-02-16T13:30:12Z</time>
      </trkpt>
      <trkpt lat="43.5434" lon="3.16209">
        <ele>261.79998779297</ele>
        <time>2011-02-16T13:30:14Z</time>
      </trkpt>
      <trkpt lat="43.5436" lon="3.1619">
        <ele>261.79998779297</ele>
        <time>2011-02-16T13:30:22Z</time>
      </trkpt>
      <trkpt lat="43.54379" lon="3.16165">
        <ele>261.79998779297</ele>
        <time>2011-02-16T13:30:30Z</time>
      </trkpt>
      <trkpt lat="43.54387" lon="3.16153">
        <ele>262.20001220703</ele>
        <time>2011-02-16T13:30:34Z</time>
      </trkpt>
      <trkpt lat="43.54389" lon="3.1615">
        <ele>262.60000610352</ele>
        <time>2011-02-16T13:30:35Z</time>
      </trkpt>
      <trkpt lat="43.54391" lon="3.16148">
        <ele>263</ele>
        <time>2011-02-16T13:30:36Z</time>
      </trkpt>
      <trkpt lat="43.54393" lon="3.16145">
        <ele>263.39999389648</ele>
        <time>2011-02-16T13:30:37Z</time>
      </trkpt>
      <trkpt lat="43.54396" lon="3.16142">
        <ele>263.79998779297</ele>
        <time>2011-02-16T13:30:38Z</time>
      </trkpt>
      <trkpt lat="43.54415" lon="3.16116">
        <ele>263.79998779297</ele>
        <time>2011-02-16T13:30:46Z</time>
      </trkpt>
      <trkpt lat="43.54443" lon="3.16082">
        <ele>263.79998779297</ele>
        <time>2011-02-16T13:30:56Z</time>
      </trkpt>
      <trkpt lat="43.54456" lon="3.16063">
        <ele>264.20001220703</ele>
        <time>2011-02-16T13:31:01Z</time>
      </trkpt>
      <trkpt lat="43.54458" lon="3.1606">
        <ele>265</ele>
        <time>2011-02-16T13:31:02Z</time>
      </trkpt>
      <trkpt lat="43.54461" lon="3.16056">
        <ele>265.39999389648</ele>
        <time>2011-02-16T13:31:03Z</time>
      </trkpt>
      <trkpt lat="43.54463" lon="3.16052">
        <ele>265.79998779297</ele>
        <time>2011-02-16T13:31:04Z</time>
      </trkpt>
      <trkpt lat="43.54468" lon="3.16045">
        <ele>265.79998779297</ele>
        <time>2011-02-16T13:31:06Z</time>
      </trkpt>
      <trkpt lat="43.54486" lon="3.16017">
        <ele>266.20001220703</ele>
        <time>2011-02-16T13:31:14Z</time>
      </trkpt>
      <trkpt lat="43.54488" lon="3.16013">
        <ele>266.60000610352</ele>
        <time>2011-02-16T13:31:15Z</time>
      </trkpt>
      <trkpt lat="43.54491" lon="3.16009">
        <ele>267.20001220703</ele>
        <time>2011-02-16T13:31:16Z</time>
      </trkpt>
      <trkpt lat="43.54493" lon="3.16005">
        <ele>267.60000610352</ele>
        <time>2011-02-16T13:31:17Z</time>
      </trkpt>
      <trkpt lat="43.54496" lon="3.16001">
        <ele>268</ele>
        <time>2011-02-16T13:31:18Z</time>
      </trkpt>
      <trkpt lat="43.54506" lon="3.15986">
        <ele>268</ele>
        <time>2011-02-16T13:31:22Z</time>
      </trkpt>
      <trkpt lat="43.5451" lon="3.15979">
        <ele>268.39999389648</ele>
        <time>2011-02-16T13:31:24Z</time>
      </trkpt>
      <trkpt lat="43.54513" lon="3.15975">
        <ele>268.79998779297</ele>
        <time>2011-02-16T13:31:25Z</time>
      </trkpt>
      <trkpt lat="43.54516" lon="3.15972">
        <ele>269.39999389648</ele>
        <time>2011-02-16T13:31:26Z</time>
      </trkpt>
      <trkpt lat="43.54518" lon="3.15968">
        <ele>270.20001220703</ele>
        <time>2011-02-16T13:31:27Z</time>
      </trkpt>
      <trkpt lat="43.54523" lon="3.15962">
        <ele>270.20001220703</ele>
        <time>2011-02-16T13:31:29Z</time>
      </trkpt>
      <trkpt lat="43.54539" lon="3.15938">
        <ele>270.20001220703</ele>
        <time>2011-02-16T13:31:36Z</time>
      </trkpt>
      <trkpt lat="43.54552" lon="3.15915">
        <ele>270.60000610352</ele>
        <time>2011-02-16T13:31:43Z</time>
      </trkpt>
      <trkpt lat="43.54553" lon="3.1591">
        <ele>271.20001220703</ele>
        <time>2011-02-16T13:31:44Z</time>
      </trkpt>
      <trkpt lat="43.54554" lon="3.15905">
        <ele>271.60000610352</ele>
        <time>2011-02-16T13:31:45Z</time>
      </trkpt>
      <trkpt lat="43.54554" lon="3.159">
        <ele>272</ele>
        <time>2011-02-16T13:31:46Z</time>
      </trkpt>
      <trkpt lat="43.54553" lon="3.15895">
        <ele>272.39999389648</ele>
        <time>2011-02-16T13:31:47Z</time>
      </trkpt>
      <trkpt lat="43.54543" lon="3.15864">
        <ele>272.39999389648</ele>
        <time>2011-02-16T13:31:52Z</time>
      </trkpt>
      <trkpt lat="43.54544" lon="3.1584">
        <ele>272</ele>
        <time>2011-02-16T13:31:55Z</time>
      </trkpt>
      <trkpt lat="43.54548" lon="3.15833">
        <ele>271.60000610352</ele>
        <time>2011-02-16T13:31:56Z</time>
      </trkpt>
      <trkpt lat="43.54552" lon="3.15826">
        <ele>271.20001220703</ele>
        <time>2011-02-16T13:31:57Z</time>
      </trkpt>
      <trkpt lat="43.54556" lon="3.15819">
        <ele>270.79998779297</ele>
        <time>2011-02-16T13:31:58Z</time>
      </trkpt>
      <trkpt lat="43.5456" lon="3.15814">
        <ele>270.39999389648</ele>
        <time>2011-02-16T13:31:59Z</time>
      </trkpt>
      <trkpt lat="43.5457" lon="3.15806">
        <ele>270.39999389648</ele>
        <time>2011-02-16T13:32:01Z</time>
      </trkpt>
      <trkpt lat="43.54574" lon="3.15802">
        <ele>270.39999389648</ele>
        <time>2011-02-16T13:32:02Z</time>
      </trkpt>
      <trkpt lat="43.54586" lon="3.1579">
        <ele>270.39999389648</ele>
        <time>2011-02-16T13:32:05Z</time>
      </trkpt>
      <trkpt lat="43.54591" lon="3.1578">
        <ele>270.39999389648</ele>
        <time>2011-02-16T13:32:07Z</time>
      </trkpt>
      <trkpt lat="43.54607" lon="3.15745">
        <ele>270.39999389648</ele>
        <time>2011-02-16T13:32:14Z</time>
      </trkpt>
      <trkpt lat="43.54628" lon="3.15697">
        <ele>270.39999389648</ele>
        <time>2011-02-16T13:32:23Z</time>
      </trkpt>
      <trkpt lat="43.54638" lon="3.15674">
        <ele>270.39999389648</ele>
        <time>2011-02-16T13:32:26Z</time>
      </trkpt>
      <trkpt lat="43.5464" lon="3.15664">
        <ele>270.39999389648</ele>
        <time>2011-02-16T13:32:27Z</time>
      </trkpt>
      <trkpt lat="43.54648" lon="3.15642">
        <ele>269.79998779297</ele>
        <time>2011-02-16T13:32:29Z</time>
      </trkpt>
      <trkpt lat="43.54655" lon="3.15633">
        <ele>269.39999389648</ele>
        <time>2011-02-16T13:32:30Z</time>
      </trkpt>
      <trkpt lat="43.54663" lon="3.15627">
        <ele>268.79998779297</ele>
        <time>2011-02-16T13:32:31Z</time>
      </trkpt>
      <trkpt lat="43.54671" lon="3.15623">
        <ele>268.20001220703</ele>
        <time>2011-02-16T13:32:32Z</time>
      </trkpt>
      <trkpt lat="43.54679" lon="3.15619">
        <ele>267.39999389648</ele>
        <time>2011-02-16T13:32:33Z</time>
      </trkpt>
      <trkpt lat="43.54688" lon="3.15616">
        <ele>266.60000610352</ele>
        <time>2011-02-16T13:32:34Z</time>
      </trkpt>
      <trkpt lat="43.54696" lon="3.15614">
        <ele>266</ele>
        <time>2011-02-16T13:32:35Z</time>
      </trkpt>
      <trkpt lat="43.54704" lon="3.15612">
        <ele>265.20001220703</ele>
        <time>2011-02-16T13:32:36Z</time>
      </trkpt>
      <trkpt lat="43.54712" lon="3.15612">
        <ele>265.20001220703</ele>
        <time>2011-02-16T13:32:37Z</time>
      </trkpt>
      <trkpt lat="43.54749" lon="3.15618">
        <ele>265.20001220703</ele>
        <time>2011-02-16T13:32:42Z</time>
      </trkpt>
      <trkpt lat="43.54771" lon="3.1562">
        <ele>265.20001220703</ele>
        <time>2011-02-16T13:32:46Z</time>
      </trkpt>
      <trkpt lat="43.54781" lon="3.1562">
        <ele>265.79998779297</ele>
        <time>2011-02-16T13:32:48Z</time>
      </trkpt>
      <trkpt lat="43.54785" lon="3.15619">
        <ele>266.20001220703</ele>
        <time>2011-02-16T13:32:49Z</time>
      </trkpt>
      <trkpt lat="43.54789" lon="3.15619">
        <ele>266.60000610352</ele>
        <time>2011-02-16T13:32:50Z</time>
      </trkpt>
      <trkpt lat="43.54794" lon="3.15619">
        <ele>267</ele>
        <time>2011-02-16T13:32:51Z</time>
      </trkpt>
      <trkpt lat="43.54797" lon="3.15619">
        <ele>267.60000610352</ele>
        <time>2011-02-16T13:32:52Z</time>
      </trkpt>
      <trkpt lat="43.54802" lon="3.15619">
        <ele>267.60000610352</ele>
        <time>2011-02-16T13:32:53Z</time>
      </trkpt>
      <trkpt lat="43.54805" lon="3.15619">
        <ele>268</ele>
        <time>2011-02-16T13:32:54Z</time>
      </trkpt>
      <trkpt lat="43.54809" lon="3.15619">
        <ele>268.39999389648</ele>
        <time>2011-02-16T13:32:55Z</time>
      </trkpt>
      <trkpt lat="43.54813" lon="3.1562">
        <ele>268.79998779297</ele>
        <time>2011-02-16T13:32:56Z</time>
      </trkpt>
      <trkpt lat="43.54816" lon="3.1562">
        <ele>269.20001220703</ele>
        <time>2011-02-16T13:32:57Z</time>
      </trkpt>
      <trkpt lat="43.54819" lon="3.15621">
        <ele>269.60000610352</ele>
        <time>2011-02-16T13:32:58Z</time>
      </trkpt>
      <trkpt lat="43.54826" lon="3.15622">
        <ele>269.60000610352</ele>
        <time>2011-02-16T13:33:00Z</time>
      </trkpt>
      <trkpt lat="43.5483" lon="3.15623">
        <ele>270.20001220703</ele>
        <time>2011-02-16T13:33:01Z</time>
      </trkpt>
      <trkpt lat="43.54833" lon="3.15623">
        <ele>270.60000610352</ele>
        <time>2011-02-16T13:33:02Z</time>
      </trkpt>
      <trkpt lat="43.54836" lon="3.15624">
        <ele>271</ele>
        <time>2011-02-16T13:33:03Z</time>
      </trkpt>
      <trkpt lat="43.5484" lon="3.15625">
        <ele>271.39999389648</ele>
        <time>2011-02-16T13:33:04Z</time>
      </trkpt>
      <trkpt lat="43.54844" lon="3.15626">
        <ele>271.79998779297</ele>
        <time>2011-02-16T13:33:05Z</time>
      </trkpt>
      <trkpt lat="43.5485" lon="3.15627">
        <ele>271.79998779297</ele>
        <time>2011-02-16T13:33:07Z</time>
      </trkpt>
      <trkpt lat="43.5486" lon="3.15627">
        <ele>272.20001220703</ele>
        <time>2011-02-16T13:33:10Z</time>
      </trkpt>
      <trkpt lat="43.54863" lon="3.15627">
        <ele>272.79998779297</ele>
        <time>2011-02-16T13:33:11Z</time>
      </trkpt>
      <trkpt lat="43.54865" lon="3.15628">
        <ele>273.20001220703</ele>
        <time>2011-02-16T13:33:12Z</time>
      </trkpt>
      <trkpt lat="43.54868" lon="3.15628">
        <ele>273.60000610352</ele>
        <time>2011-02-16T13:33:13Z</time>
      </trkpt>
      <trkpt lat="43.5487" lon="3.15628">
        <ele>274</ele>
        <time>2011-02-16T13:33:14Z</time>
      </trkpt>
      <trkpt lat="43.54882" lon="3.15628">
        <ele>274</ele>
        <time>2011-02-16T13:33:19Z</time>
      </trkpt>
      <trkpt lat="43.54889" lon="3.15628">
        <ele>274.39999389648</ele>
        <time>2011-02-16T13:33:22Z</time>
      </trkpt>
      <trkpt lat="43.5489" lon="3.15627">
        <ele>274.79998779297</ele>
        <time>2011-02-16T13:33:23Z</time>
      </trkpt>
      <trkpt lat="43.54892" lon="3.15627">
        <ele>275.20001220703</ele>
        <time>2011-02-16T13:33:24Z</time>
      </trkpt>
      <trkpt lat="43.54894" lon="3.15627">
        <ele>275.60000610352</ele>
        <time>2011-02-16T13:33:25Z</time>
      </trkpt>
      <trkpt lat="43.54896" lon="3.15627">
        <ele>276</ele>
        <time>2011-02-16T13:33:26Z</time>
      </trkpt>
      <trkpt lat="43.549" lon="3.15627">
        <ele>276</ele>
        <time>2011-02-16T13:33:28Z</time>
      </trkpt>
      <trkpt lat="43.54911" lon="3.15623">
        <ele>276</ele>
        <time>2011-02-16T13:33:35Z</time>
      </trkpt>
      <trkpt lat="43.54918" lon="3.15619">
        <ele>276.39999389648</ele>
        <time>2011-02-16T13:33:39Z</time>
      </trkpt>
      <trkpt lat="43.54921" lon="3.15618">
        <ele>276.79998779297</ele>
        <time>2011-02-16T13:33:40Z</time>
      </trkpt>
      <trkpt lat="43.54922" lon="3.15617">
        <ele>277.20001220703</ele>
        <time>2011-02-16T13:33:41Z</time>
      </trkpt>
      <trkpt lat="43.54924" lon="3.15616">
        <ele>277.60000610352</ele>
        <time>2011-02-16T13:33:42Z</time>
      </trkpt>
      <trkpt lat="43.54927" lon="3.15615">
        <ele>278.20001220703</ele>
        <time>2011-02-16T13:33:43Z</time>
      </trkpt>
      <trkpt lat="43.54939" lon="3.15609">
        <ele>278.20001220703</ele>
        <time>2011-02-16T13:33:49Z</time>
      </trkpt>
      <trkpt lat="43.54949" lon="3.15603">
        <ele>278.60000610352</ele>
        <time>2011-02-16T13:33:54Z</time>
      </trkpt>
      <trkpt lat="43.54951" lon="3.15602">
        <ele>279.39999389648</ele>
        <time>2011-02-16T13:33:55Z</time>
      </trkpt>
      <trkpt lat="43.54953" lon="3.15601">
        <ele>279.79998779297</ele>
        <time>2011-02-16T13:33:56Z</time>
      </trkpt>
      <trkpt lat="43.54955" lon="3.15601">
        <ele>280.20001220703</ele>
        <time>2011-02-16T13:33:57Z</time>
      </trkpt>
      <trkpt lat="43.54966" lon="3.15596">
        <ele>280.20001220703</ele>
        <time>2011-02-16T13:34:02Z</time>
      </trkpt>
      <trkpt lat="43.54976" lon="3.15593">
        <ele>280.20001220703</ele>
        <time>2011-02-16T13:34:07Z</time>
      </trkpt>
      <trkpt lat="43.54977" lon="3.15594">
        <ele>280.60000610352</ele>
        <time>2011-02-16T13:34:08Z</time>
      </trkpt>
      <trkpt lat="43.54979" lon="3.15595">
        <ele>281</ele>
        <time>2011-02-16T13:34:09Z</time>
      </trkpt>
      <trkpt lat="43.5498" lon="3.15597">
        <ele>281.39999389648</ele>
        <time>2011-02-16T13:34:10Z</time>
      </trkpt>
      <trkpt lat="43.5498" lon="3.15599">
        <ele>282</ele>
        <time>2011-02-16T13:34:11Z</time>
      </trkpt>
      <trkpt lat="43.5498" lon="3.15601">
        <ele>282.39999389648</ele>
        <time>2011-02-16T13:34:12Z</time>
      </trkpt>
      <trkpt lat="43.54979" lon="3.15604">
        <ele>282.39999389648</ele>
        <time>2011-02-16T13:34:13Z</time>
      </trkpt>
      <trkpt lat="43.54979" lon="3.15606">
        <ele>282.39999389648</ele>
        <time>2011-02-16T13:34:14Z</time>
      </trkpt>
      <trkpt lat="43.54979" lon="3.15608">
        <ele>282.39999389648</ele>
        <time>2011-02-16T13:34:16Z</time>
      </trkpt>
      <trkpt lat="43.54979" lon="3.15608">
        <ele>282.39999389648</ele>
        <time>2011-02-16T13:34:17Z</time>
      </trkpt>
      <trkpt lat="43.5498" lon="3.156">
        <ele>282.39999389648</ele>
        <time>2011-02-16T13:34:32Z</time>
      </trkpt>
      <trkpt lat="43.5498" lon="3.15595">
        <ele>282.39999389648</ele>
        <time>2011-02-16T13:34:34Z</time>
      </trkpt>
      <trkpt lat="43.54985" lon="3.15579">
        <ele>282.39999389648</ele>
        <time>2011-02-16T13:34:39Z</time>
      </trkpt>
      <trkpt lat="43.54987" lon="3.15577">
        <ele>282.39999389648</ele>
        <time>2011-02-16T13:34:40Z</time>
      </trkpt>
      <trkpt lat="43.54996" lon="3.15557">
        <ele>282.39999389648</ele>
        <time>2011-02-16T13:34:47Z</time>
      </trkpt>
      <trkpt lat="43.54998" lon="3.15554">
        <ele>282.39999389648</ele>
        <time>2011-02-16T13:34:48Z</time>
      </trkpt>
      <trkpt lat="43.55001" lon="3.1555">
        <ele>282.39999389648</ele>
        <time>2011-02-16T13:34:50Z</time>
      </trkpt>
      <trkpt lat="43.55006" lon="3.15544">
        <ele>282.39999389648</ele>
        <time>2011-02-16T13:34:53Z</time>
      </trkpt>
      <trkpt lat="43.55008" lon="3.15542">
        <ele>282.79998779297</ele>
        <time>2011-02-16T13:34:54Z</time>
      </trkpt>
      <trkpt lat="43.55009" lon="3.1554">
        <ele>283.20001220703</ele>
        <time>2011-02-16T13:34:55Z</time>
      </trkpt>
      <trkpt lat="43.55012" lon="3.15538">
        <ele>283.60000610352</ele>
        <time>2011-02-16T13:34:56Z</time>
      </trkpt>
      <trkpt lat="43.55014" lon="3.15537">
        <ele>284</ele>
        <time>2011-02-16T13:34:57Z</time>
      </trkpt>
      <trkpt lat="43.55017" lon="3.15537">
        <ele>284.39999389648</ele>
        <time>2011-02-16T13:34:58Z</time>
      </trkpt>
      <trkpt lat="43.55027" lon="3.15534">
        <ele>284.39999389648</ele>
        <time>2011-02-16T13:35:01Z</time>
      </trkpt>
      <trkpt lat="43.55036" lon="3.15532">
        <ele>284.39999389648</ele>
        <time>2011-02-16T13:35:04Z</time>
      </trkpt>
      <trkpt lat="43.55057" lon="3.15522">
        <ele>284.39999389648</ele>
        <time>2011-02-16T13:35:11Z</time>
      </trkpt>
      <trkpt lat="43.5506" lon="3.1552">
        <ele>284.79998779297</ele>
        <time>2011-02-16T13:35:12Z</time>
      </trkpt>
      <trkpt lat="43.55062" lon="3.15519">
        <ele>285.39999389648</ele>
        <time>2011-02-16T13:35:13Z</time>
      </trkpt>
      <trkpt lat="43.55065" lon="3.15517">
        <ele>285.79998779297</ele>
        <time>2011-02-16T13:35:14Z</time>
      </trkpt>
      <trkpt lat="43.55068" lon="3.15514">
        <ele>286.20001220703</ele>
        <time>2011-02-16T13:35:15Z</time>
      </trkpt>
      <trkpt lat="43.5507" lon="3.15512">
        <ele>286.60000610352</ele>
        <time>2011-02-16T13:35:16Z</time>
      </trkpt>
      <trkpt lat="43.55075" lon="3.15508">
        <ele>286.60000610352</ele>
        <time>2011-02-16T13:35:18Z</time>
      </trkpt>
      <trkpt lat="43.55085" lon="3.15493">
        <ele>286.60000610352</ele>
        <time>2011-02-16T13:35:23Z</time>
      </trkpt>
      <trkpt lat="43.55088" lon="3.15486">
        <ele>287</ele>
        <time>2011-02-16T13:35:25Z</time>
      </trkpt>
      <trkpt lat="43.5509" lon="3.15482">
        <ele>287.39999389648</ele>
        <time>2011-02-16T13:35:26Z</time>
      </trkpt>
      <trkpt lat="43.55091" lon="3.15479">
        <ele>287.79998779297</ele>
        <time>2011-02-16T13:35:27Z</time>
      </trkpt>
      <trkpt lat="43.55092" lon="3.15475">
        <ele>288.39999389648</ele>
        <time>2011-02-16T13:35:28Z</time>
      </trkpt>
      <trkpt lat="43.55094" lon="3.15472">
        <ele>288.79998779297</ele>
        <time>2011-02-16T13:35:29Z</time>
      </trkpt>
      <trkpt lat="43.55104" lon="3.15447">
        <ele>289.20001220703</ele>
        <time>2011-02-16T13:35:37Z</time>
      </trkpt>
      <trkpt lat="43.55106" lon="3.15444">
        <ele>289.60000610352</ele>
        <time>2011-02-16T13:35:38Z</time>
      </trkpt>
      <trkpt lat="43.55106" lon="3.15441">
        <ele>290</ele>
        <time>2011-02-16T13:35:39Z</time>
      </trkpt>
      <trkpt lat="43.55108" lon="3.15438">
        <ele>290.39999389648</ele>
        <time>2011-02-16T13:35:40Z</time>
      </trkpt>
      <trkpt lat="43.55109" lon="3.15436">
        <ele>290.79998779297</ele>
        <time>2011-02-16T13:35:41Z</time>
      </trkpt>
      <trkpt lat="43.55111" lon="3.15433">
        <ele>290.79998779297</ele>
        <time>2011-02-16T13:35:42Z</time>
      </trkpt>
      <trkpt lat="43.55115" lon="3.15427">
        <ele>290.79998779297</ele>
        <time>2011-02-16T13:35:45Z</time>
      </trkpt>
      <trkpt lat="43.55117" lon="3.15421">
        <ele>290.79998779297</ele>
        <time>2011-02-16T13:35:47Z</time>
      </trkpt>
      <trkpt lat="43.5512" lon="3.15409">
        <ele>291.20001220703</ele>
        <time>2011-02-16T13:35:51Z</time>
      </trkpt>
      <trkpt lat="43.55121" lon="3.15406">
        <ele>291.60000610352</ele>
        <time>2011-02-16T13:35:52Z</time>
      </trkpt>
      <trkpt lat="43.55123" lon="3.15403">
        <ele>292</ele>
        <time>2011-02-16T13:35:53Z</time>
      </trkpt>
      <trkpt lat="43.55124" lon="3.154">
        <ele>292.39999389648</ele>
        <time>2011-02-16T13:35:54Z</time>
      </trkpt>
      <trkpt lat="43.55125" lon="3.15397">
        <ele>292.79998779297</ele>
        <time>2011-02-16T13:35:55Z</time>
      </trkpt>
      <trkpt lat="43.55132" lon="3.15383">
        <ele>292.79998779297</ele>
        <time>2011-02-16T13:36:00Z</time>
      </trkpt>
      <trkpt lat="43.55136" lon="3.15373">
        <ele>293.20001220703</ele>
        <time>2011-02-16T13:36:04Z</time>
      </trkpt>
      <trkpt lat="43.55136" lon="3.15371">
        <ele>293.79998779297</ele>
        <time>2011-02-16T13:36:05Z</time>
      </trkpt>
      <trkpt lat="43.55137" lon="3.15369">
        <ele>294.20001220703</ele>
        <time>2011-02-16T13:36:06Z</time>
      </trkpt>
      <trkpt lat="43.55138" lon="3.15367">
        <ele>294.60000610352</ele>
        <time>2011-02-16T13:36:07Z</time>
      </trkpt>
      <trkpt lat="43.55139" lon="3.15365">
        <ele>295</ele>
        <time>2011-02-16T13:36:08Z</time>
      </trkpt>
      <trkpt lat="43.55139" lon="3.15363">
        <ele>295</ele>
        <time>2011-02-16T13:36:09Z</time>
      </trkpt>
      <trkpt lat="43.55139" lon="3.15361">
        <ele>295</ele>
        <time>2011-02-16T13:36:10Z</time>
      </trkpt>
      <trkpt lat="43.55145" lon="3.15351">
        <ele>295</ele>
        <time>2011-02-16T13:36:15Z</time>
      </trkpt>
      <trkpt lat="43.55146" lon="3.15351">
        <ele>295</ele>
        <time>2011-02-16T13:36:16Z</time>
      </trkpt>
      <trkpt lat="43.55147" lon="3.15358">
        <ele>295.39999389648</ele>
        <time>2011-02-16T13:36:20Z</time>
      </trkpt>
      <trkpt lat="43.55147" lon="3.1536">
        <ele>295.79998779297</ele>
        <time>2011-02-16T13:36:21Z</time>
      </trkpt>
      <trkpt lat="43.55147" lon="3.15363">
        <ele>296.20001220703</ele>
        <time>2011-02-16T13:36:22Z</time>
      </trkpt>
      <trkpt lat="43.55146" lon="3.15365">
        <ele>297</ele>
        <time>2011-02-16T13:36:23Z</time>
      </trkpt>
      <trkpt lat="43.55146" lon="3.15367">
        <ele>297</ele>
        <time>2011-02-16T13:36:24Z</time>
      </trkpt>
      <trkpt lat="43.55146" lon="3.15375">
        <ele>297</ele>
        <time>2011-02-16T13:36:27Z</time>
      </trkpt>
      <trkpt lat="43.55146" lon="3.15388">
        <ele>297</ele>
        <time>2011-02-16T13:36:32Z</time>
      </trkpt>
      <trkpt lat="43.55146" lon="3.15391">
        <ele>297</ele>
        <time>2011-02-16T13:36:33Z</time>
      </trkpt>
      <trkpt lat="43.55146" lon="3.15396">
        <ele>297.39999389648</ele>
        <time>2011-02-16T13:36:35Z</time>
      </trkpt>
      <trkpt lat="43.55146" lon="3.154">
        <ele>297.79998779297</ele>
        <time>2011-02-16T13:36:36Z</time>
      </trkpt>
      <trkpt lat="43.55145" lon="3.15403">
        <ele>298.20001220703</ele>
        <time>2011-02-16T13:36:37Z</time>
      </trkpt>
      <trkpt lat="43.55143" lon="3.15407">
        <ele>298.60000610352</ele>
        <time>2011-02-16T13:36:38Z</time>
      </trkpt>
      <trkpt lat="43.55141" lon="3.1541">
        <ele>299</ele>
        <time>2011-02-16T13:36:39Z</time>
      </trkpt>
      <trkpt lat="43.55141" lon="3.15425">
        <ele>299</ele>
        <time>2011-02-16T13:36:44Z</time>
      </trkpt>
      <trkpt lat="43.55145" lon="3.15451">
        <ele>299</ele>
        <time>2011-02-16T13:36:51Z</time>
      </trkpt>
      <trkpt lat="43.55154" lon="3.15477">
        <ele>299</ele>
        <time>2011-02-16T13:36:57Z</time>
      </trkpt>
      <trkpt lat="43.5516" lon="3.15491">
        <ele>299</ele>
        <time>2011-02-16T13:37:00Z</time>
      </trkpt>
      <trkpt lat="43.55167" lon="3.15498">
        <ele>299</ele>
        <time>2011-02-16T13:37:02Z</time>
      </trkpt>
      <trkpt lat="43.55184" lon="3.15505">
        <ele>299</ele>
        <time>2011-02-16T13:37:07Z</time>
      </trkpt>
      <trkpt lat="43.55196" lon="3.15508">
        <ele>299</ele>
        <time>2011-02-16T13:37:11Z</time>
      </trkpt>
      <trkpt lat="43.55204" lon="3.15513">
        <ele>299.60000610352</ele>
        <time>2011-02-16T13:37:14Z</time>
      </trkpt>
      <trkpt lat="43.55207" lon="3.15515">
        <ele>300</ele>
        <time>2011-02-16T13:37:15Z</time>
      </trkpt>
      <trkpt lat="43.5521" lon="3.15516">
        <ele>300.39999389648</ele>
        <time>2011-02-16T13:37:16Z</time>
      </trkpt>
      <trkpt lat="43.55214" lon="3.15517">
        <ele>300.79998779297</ele>
        <time>2011-02-16T13:37:17Z</time>
      </trkpt>
      <trkpt lat="43.55217" lon="3.15518">
        <ele>301.20001220703</ele>
        <time>2011-02-16T13:37:18Z</time>
      </trkpt>
      <trkpt lat="43.55226" lon="3.15523">
        <ele>301.60000610352</ele>
        <time>2011-02-16T13:37:21Z</time>
      </trkpt>
      <trkpt lat="43.55229" lon="3.15524">
        <ele>302</ele>
        <time>2011-02-16T13:37:22Z</time>
      </trkpt>
      <trkpt lat="43.55232" lon="3.15527">
        <ele>302.60000610352</ele>
        <time>2011-02-16T13:37:23Z</time>
      </trkpt>
      <trkpt lat="43.55235" lon="3.1553">
        <ele>303</ele>
        <time>2011-02-16T13:37:24Z</time>
      </trkpt>
      <trkpt lat="43.55238" lon="3.15532">
        <ele>303.39999389648</ele>
        <time>2011-02-16T13:37:25Z</time>
      </trkpt>
      <trkpt lat="43.55239" lon="3.15534">
        <ele>303.39999389648</ele>
        <time>2011-02-16T13:37:26Z</time>
      </trkpt>
      <trkpt lat="43.55249" lon="3.15548">
        <ele>303.39999389648</ele>
        <time>2011-02-16T13:37:31Z</time>
      </trkpt>
      <trkpt lat="43.55263" lon="3.15569">
        <ele>303.39999389648</ele>
        <time>2011-02-16T13:37:38Z</time>
      </trkpt>
      <trkpt lat="43.55279" lon="3.1558">
        <ele>303.39999389648</ele>
        <time>2011-02-16T13:37:43Z</time>
      </trkpt>
      <trkpt lat="43.5529" lon="3.15586">
        <ele>303</ele>
        <time>2011-02-16T13:37:45Z</time>
      </trkpt>
      <trkpt lat="43.55297" lon="3.15589">
        <ele>302.39999389648</ele>
        <time>2011-02-16T13:37:46Z</time>
      </trkpt>
      <trkpt lat="43.55305" lon="3.15592">
        <ele>302</ele>
        <time>2011-02-16T13:37:47Z</time>
      </trkpt>
      <trkpt lat="43.55313" lon="3.15596">
        <ele>301.20001220703</ele>
        <time>2011-02-16T13:37:48Z</time>
      </trkpt>
      <trkpt lat="43.55319" lon="3.15598">
        <ele>300.60000610352</ele>
        <time>2011-02-16T13:37:49Z</time>
      </trkpt>
      <trkpt lat="43.55323" lon="3.15599">
        <ele>300</ele>
        <time>2011-02-16T13:37:50Z</time>
      </trkpt>
      <trkpt lat="43.55325" lon="3.156">
        <ele>299.20001220703</ele>
        <time>2011-02-16T13:37:51Z</time>
      </trkpt>
      <trkpt lat="43.55327" lon="3.156">
        <ele>298.60000610352</ele>
        <time>2011-02-16T13:37:52Z</time>
      </trkpt>
      <trkpt lat="43.55323" lon="3.15598">
        <ele>296.60000610352</ele>
        <time>2011-02-16T13:38:17Z</time>
      </trkpt>
      <trkpt lat="43.55321" lon="3.15597">
        <ele>296.60000610352</ele>
        <time>2011-02-16T13:38:18Z</time>
      </trkpt>
      <trkpt lat="43.55315" lon="3.15595">
        <ele>296.60000610352</ele>
        <time>2011-02-16T13:38:21Z</time>
      </trkpt>
      <trkpt lat="43.55314" lon="3.15594">
        <ele>296.60000610352</ele>
        <time>2011-02-16T13:38:22Z</time>
      </trkpt>
      <trkpt lat="43.553" lon="3.15589">
        <ele>296.60000610352</ele>
        <time>2011-02-16T13:38:30Z</time>
      </trkpt>
      <trkpt lat="43.55298" lon="3.15589">
        <ele>297</ele>
        <time>2011-02-16T13:38:31Z</time>
      </trkpt>
      <trkpt lat="43.55297" lon="3.15588">
        <ele>297.39999389648</ele>
        <time>2011-02-16T13:38:32Z</time>
      </trkpt>
      <trkpt lat="43.55295" lon="3.15588">
        <ele>297.79998779297</ele>
        <time>2011-02-16T13:38:33Z</time>
      </trkpt>
      <trkpt lat="43.55294" lon="3.15587">
        <ele>298.20001220703</ele>
        <time>2011-02-16T13:38:34Z</time>
      </trkpt>
      <trkpt lat="43.55293" lon="3.15587">
        <ele>298.60000610352</ele>
        <time>2011-02-16T13:38:35Z</time>
      </trkpt>
      <trkpt lat="43.55291" lon="3.15587">
        <ele>298.60000610352</ele>
        <time>2011-02-16T13:38:36Z</time>
      </trkpt>
      <trkpt lat="43.55283" lon="3.15585">
        <ele>298.60000610352</ele>
        <time>2011-02-16T13:38:43Z</time>
      </trkpt>
      <trkpt lat="43.55282" lon="3.15584">
        <ele>299</ele>
        <time>2011-02-16T13:38:44Z</time>
      </trkpt>
      <trkpt lat="43.55281" lon="3.15583">
        <ele>299.39999389648</ele>
        <time>2011-02-16T13:38:45Z</time>
      </trkpt>
      <trkpt lat="43.5528" lon="3.15582">
        <ele>299.79998779297</ele>
        <time>2011-02-16T13:38:46Z</time>
      </trkpt>
      <trkpt lat="43.55278" lon="3.15582">
        <ele>300.20001220703</ele>
        <time>2011-02-16T13:38:47Z</time>
      </trkpt>
      <trkpt lat="43.55278" lon="3.15581">
        <ele>300.60000610352</ele>
        <time>2011-02-16T13:38:48Z</time>
      </trkpt>
      <trkpt lat="43.55274" lon="3.15581">
        <ele>300.60000610352</ele>
        <time>2011-02-16T13:38:52Z</time>
      </trkpt>
      <trkpt lat="43.55276" lon="3.15581">
        <ele>300.60000610352</ele>
        <time>2011-02-16T13:39:00Z</time>
      </trkpt>
      <trkpt lat="43.5528" lon="3.15581">
        <ele>300.60000610352</ele>
        <time>2011-02-16T13:39:02Z</time>
      </trkpt>
      <trkpt lat="43.55285" lon="3.15582">
        <ele>300.60000610352</ele>
        <time>2011-02-16T13:39:06Z</time>
      </trkpt>
      <trkpt lat="43.55287" lon="3.15581">
        <ele>300.60000610352</ele>
        <time>2011-02-16T13:39:07Z</time>
      </trkpt>
      <trkpt lat="43.55291" lon="3.15581">
        <ele>300.60000610352</ele>
        <time>2011-02-16T13:39:09Z</time>
      </trkpt>
      <trkpt lat="43.55296" lon="3.15579">
        <ele>301</ele>
        <time>2011-02-16T13:39:12Z</time>
      </trkpt>
      <trkpt lat="43.55297" lon="3.15579">
        <ele>301.39999389648</ele>
        <time>2011-02-16T13:39:13Z</time>
      </trkpt>
      <trkpt lat="43.55299" lon="3.15579">
        <ele>301.79998779297</ele>
        <time>2011-02-16T13:39:14Z</time>
      </trkpt>
      <trkpt lat="43.55302" lon="3.1558">
        <ele>302.39999389648</ele>
        <time>2011-02-16T13:39:15Z</time>
      </trkpt>
      <trkpt lat="43.55304" lon="3.15581">
        <ele>302.79998779297</ele>
        <time>2011-02-16T13:39:16Z</time>
      </trkpt>
      <trkpt lat="43.55306" lon="3.15582">
        <ele>302.79998779297</ele>
        <time>2011-02-16T13:39:17Z</time>
      </trkpt>
      <trkpt lat="43.55312" lon="3.15583">
        <ele>302.79998779297</ele>
        <time>2011-02-16T13:39:19Z</time>
      </trkpt>
      <trkpt lat="43.55323" lon="3.15585">
        <ele>302.79998779297</ele>
        <time>2011-02-16T13:39:23Z</time>
      </trkpt>
      <trkpt lat="43.55338" lon="3.15587">
        <ele>302.79998779297</ele>
        <time>2011-02-16T13:39:28Z</time>
      </trkpt>
      <trkpt lat="43.55358" lon="3.15586">
        <ele>302.79998779297</ele>
        <time>2011-02-16T13:39:35Z</time>
      </trkpt>
      <trkpt lat="43.55373" lon="3.15588">
        <ele>302.79998779297</ele>
        <time>2011-02-16T13:39:40Z</time>
      </trkpt>
      <trkpt lat="43.55384" lon="3.15598">
        <ele>302.79998779297</ele>
        <time>2011-02-16T13:39:45Z</time>
      </trkpt>
      <trkpt lat="43.55389" lon="3.15602">
        <ele>303.20001220703</ele>
        <time>2011-02-16T13:39:48Z</time>
      </trkpt>
      <trkpt lat="43.55391" lon="3.15604">
        <ele>303.60000610352</ele>
        <time>2011-02-16T13:39:49Z</time>
      </trkpt>
      <trkpt lat="43.55392" lon="3.15605">
        <ele>304</ele>
        <time>2011-02-16T13:39:50Z</time>
      </trkpt>
      <trkpt lat="43.55394" lon="3.15606">
        <ele>304.39999389648</ele>
        <time>2011-02-16T13:39:51Z</time>
      </trkpt>
      <trkpt lat="43.55396" lon="3.15607">
        <ele>304.79998779297</ele>
        <time>2011-02-16T13:39:52Z</time>
      </trkpt>
      <trkpt lat="43.55401" lon="3.15611">
        <ele>304.79998779297</ele>
        <time>2011-02-16T13:39:55Z</time>
      </trkpt>
      <trkpt lat="43.55404" lon="3.15615">
        <ele>305.20001220703</ele>
        <time>2011-02-16T13:39:57Z</time>
      </trkpt>
      <trkpt lat="43.55405" lon="3.15616">
        <ele>305.60000610352</ele>
        <time>2011-02-16T13:39:58Z</time>
      </trkpt>
      <trkpt lat="43.55407" lon="3.15618">
        <ele>306</ele>
        <time>2011-02-16T13:39:59Z</time>
      </trkpt>
      <trkpt lat="43.55409" lon="3.15619">
        <ele>306.39999389648</ele>
        <time>2011-02-16T13:40:00Z</time>
      </trkpt>
      <trkpt lat="43.55411" lon="3.15621">
        <ele>306.79998779297</ele>
        <time>2011-02-16T13:40:01Z</time>
      </trkpt>
      <trkpt lat="43.55413" lon="3.15623">
        <ele>306.79998779297</ele>
        <time>2011-02-16T13:40:02Z</time>
      </trkpt>
      <trkpt lat="43.55427" lon="3.15627">
        <ele>306.79998779297</ele>
        <time>2011-02-16T13:40:08Z</time>
      </trkpt>
      <trkpt lat="43.5544" lon="3.15625">
        <ele>306.79998779297</ele>
        <time>2011-02-16T13:40:14Z</time>
      </trkpt>
      <trkpt lat="43.55447" lon="3.15624">
        <ele>307.20001220703</ele>
        <time>2011-02-16T13:40:17Z</time>
      </trkpt>
      <trkpt lat="43.55449" lon="3.15623">
        <ele>307.60000610352</ele>
        <time>2011-02-16T13:40:18Z</time>
      </trkpt>
      <trkpt lat="43.55451" lon="3.15622">
        <ele>308</ele>
        <time>2011-02-16T13:40:19Z</time>
      </trkpt>
      <trkpt lat="43.55453" lon="3.15621">
        <ele>308.60000610352</ele>
        <time>2011-02-16T13:40:20Z</time>
      </trkpt>
      <trkpt lat="43.55455" lon="3.15621">
        <ele>309</ele>
        <time>2011-02-16T13:40:21Z</time>
      </trkpt>
      <trkpt lat="43.55465" lon="3.1562">
        <ele>309</ele>
        <time>2011-02-16T13:40:25Z</time>
      </trkpt>
      <trkpt lat="43.55476" lon="3.15617">
        <ele>309</ele>
        <time>2011-02-16T13:40:30Z</time>
      </trkpt>
      <trkpt lat="43.55491" lon="3.15617">
        <ele>309</ele>
        <time>2011-02-16T13:40:36Z</time>
      </trkpt>
      <trkpt lat="43.55503" lon="3.15625">
        <ele>309</ele>
        <time>2011-02-16T13:40:42Z</time>
      </trkpt>
      <trkpt lat="43.5551" lon="3.15631">
        <ele>309.39999389648</ele>
        <time>2011-02-16T13:40:45Z</time>
      </trkpt>
      <trkpt lat="43.55511" lon="3.15633">
        <ele>309.79998779297</ele>
        <time>2011-02-16T13:40:46Z</time>
      </trkpt>
      <trkpt lat="43.55513" lon="3.15636">
        <ele>310.20001220703</ele>
        <time>2011-02-16T13:40:47Z</time>
      </trkpt>
      <trkpt lat="43.55514" lon="3.15638">
        <ele>310.60000610352</ele>
        <time>2011-02-16T13:40:48Z</time>
      </trkpt>
      <trkpt lat="43.55515" lon="3.1564">
        <ele>311</ele>
        <time>2011-02-16T13:40:49Z</time>
      </trkpt>
      <trkpt lat="43.55518" lon="3.1565">
        <ele>311</ele>
        <time>2011-02-16T13:40:54Z</time>
      </trkpt>
      <trkpt lat="43.55519" lon="3.15655">
        <ele>311.39999389648</ele>
        <time>2011-02-16T13:40:56Z</time>
      </trkpt>
      <trkpt lat="43.5552" lon="3.15658">
        <ele>311.79998779297</ele>
        <time>2011-02-16T13:40:57Z</time>
      </trkpt>
      <trkpt lat="43.55521" lon="3.1566">
        <ele>312.20001220703</ele>
        <time>2011-02-16T13:40:58Z</time>
      </trkpt>
      <trkpt lat="43.5552" lon="3.15662">
        <ele>312.60000610352</ele>
        <time>2011-02-16T13:40:59Z</time>
      </trkpt>
      <trkpt lat="43.55521" lon="3.15664">
        <ele>313</ele>
        <time>2011-02-16T13:41:00Z</time>
      </trkpt>
      <trkpt lat="43.55525" lon="3.15672">
        <ele>313</ele>
        <time>2011-02-16T13:41:04Z</time>
      </trkpt>
      <trkpt lat="43.55526" lon="3.15673">
        <ele>313.39999389648</ele>
        <time>2011-02-16T13:41:05Z</time>
      </trkpt>
      <trkpt lat="43.55526" lon="3.15675">
        <ele>313.79998779297</ele>
        <time>2011-02-16T13:41:06Z</time>
      </trkpt>
      <trkpt lat="43.55527" lon="3.15675">
        <ele>314.20001220703</ele>
        <time>2011-02-16T13:41:07Z</time>
      </trkpt>
      <trkpt lat="43.55527" lon="3.15676">
        <ele>314.60000610352</ele>
        <time>2011-02-16T13:41:08Z</time>
      </trkpt>
      <trkpt lat="43.55529" lon="3.15678">
        <ele>315</ele>
        <time>2011-02-16T13:41:21Z</time>
      </trkpt>
      <trkpt lat="43.55531" lon="3.15681">
        <ele>315</ele>
        <time>2011-02-16T13:41:23Z</time>
      </trkpt>
      <trkpt lat="43.55531" lon="3.15682">
        <ele>315</ele>
        <time>2011-02-16T13:41:24Z</time>
      </trkpt>
      <trkpt lat="43.55532" lon="3.15684">
        <ele>315</ele>
        <time>2011-02-16T13:41:26Z</time>
      </trkpt>
      <trkpt lat="43.55532" lon="3.15684">
        <ele>315</ele>
        <time>2011-02-16T13:41:29Z</time>
      </trkpt>
      <trkpt lat="43.55536" lon="3.1569">
        <ele>317.20001220703</ele>
        <time>2011-02-16T13:41:58Z</time>
      </trkpt>
      <trkpt lat="43.55536" lon="3.1569">
        <ele>317.20001220703</ele>
        <time>2011-02-16T13:41:59Z</time>
      </trkpt>
      <trkpt lat="43.55537" lon="3.15695">
        <ele>317.20001220703</ele>
        <time>2011-02-16T13:42:03Z</time>
      </trkpt>
      <trkpt lat="43.55537" lon="3.15695">
        <ele>317.20001220703</ele>
        <time>2011-02-16T13:42:04Z</time>
      </trkpt>
      <trkpt lat="43.55539" lon="3.15698">
        <ele>317.20001220703</ele>
        <time>2011-02-16T13:42:07Z</time>
      </trkpt>
      <trkpt lat="43.55539" lon="3.15699">
        <ele>317.60000610352</ele>
        <time>2011-02-16T13:42:08Z</time>
      </trkpt>
      <trkpt lat="43.55539" lon="3.157">
        <ele>318.39999389648</ele>
        <time>2011-02-16T13:42:09Z</time>
      </trkpt>
      <trkpt lat="43.5554" lon="3.15701">
        <ele>318.79998779297</ele>
        <time>2011-02-16T13:42:10Z</time>
      </trkpt>
      <trkpt lat="43.55539" lon="3.15702">
        <ele>319.20001220703</ele>
        <time>2011-02-16T13:42:11Z</time>
      </trkpt>
      <trkpt lat="43.5554" lon="3.15705">
        <ele>319.20001220703</ele>
        <time>2011-02-16T13:42:14Z</time>
      </trkpt>
      <trkpt lat="43.55542" lon="3.1571">
        <ele>319.20001220703</ele>
        <time>2011-02-16T13:42:19Z</time>
      </trkpt>
      <trkpt lat="43.55542" lon="3.15712">
        <ele>319.60000610352</ele>
        <time>2011-02-16T13:42:22Z</time>
      </trkpt>
      <trkpt lat="43.55542" lon="3.15713">
        <ele>320</ele>
        <time>2011-02-16T13:42:23Z</time>
      </trkpt>
      <trkpt lat="43.55542" lon="3.15713">
        <ele>320.39999389648</ele>
        <time>2011-02-16T13:42:24Z</time>
      </trkpt>
      <trkpt lat="43.55542" lon="3.15714">
        <ele>321</ele>
        <time>2011-02-16T13:42:25Z</time>
      </trkpt>
      <trkpt lat="43.55543" lon="3.15715">
        <ele>321.39999389648</ele>
        <time>2011-02-16T13:42:26Z</time>
      </trkpt>
      <trkpt lat="43.55544" lon="3.15718">
        <ele>321.39999389648</ele>
        <time>2011-02-16T13:42:30Z</time>
      </trkpt>
      <trkpt lat="43.55547" lon="3.15724">
        <ele>322.60000610352</ele>
        <time>2011-02-16T13:42:51Z</time>
      </trkpt>
      <trkpt lat="43.55547" lon="3.15725">
        <ele>323</ele>
        <time>2011-02-16T13:42:52Z</time>
      </trkpt>
      <trkpt lat="43.55548" lon="3.15725">
        <ele>323.39999389648</ele>
        <time>2011-02-16T13:42:53Z</time>
      </trkpt>
      <trkpt lat="43.55548" lon="3.15727">
        <ele>323.39999389648</ele>
        <time>2011-02-16T13:42:54Z</time>
      </trkpt>
      <trkpt lat="43.5555" lon="3.15732">
        <ele>323.39999389648</ele>
        <time>2011-02-16T13:43:20Z</time>
      </trkpt>
      <trkpt lat="43.5555" lon="3.15732">
        <ele>323.39999389648</ele>
        <time>2011-02-16T13:43:21Z</time>
      </trkpt>
      <trkpt lat="43.5555" lon="3.15733">
        <ele>323.79998779297</ele>
        <time>2011-02-16T13:43:22Z</time>
      </trkpt>
      <trkpt lat="43.55551" lon="3.15734">
        <ele>324.60000610352</ele>
        <time>2011-02-16T13:43:23Z</time>
      </trkpt>
      <trkpt lat="43.55551" lon="3.15735">
        <ele>325</ele>
        <time>2011-02-16T13:43:24Z</time>
      </trkpt>
      <trkpt lat="43.55552" lon="3.15736">
        <ele>325.39999389648</ele>
        <time>2011-02-16T13:43:25Z</time>
      </trkpt>
      <trkpt lat="43.55553" lon="3.1574">
        <ele>325.39999389648</ele>
        <time>2011-02-16T13:43:27Z</time>
      </trkpt>
      <trkpt lat="43.55555" lon="3.15743">
        <ele>325.39999389648</ele>
        <time>2011-02-16T13:43:29Z</time>
      </trkpt>
      <trkpt lat="43.55555" lon="3.15743">
        <ele>325.39999389648</ele>
        <time>2011-02-16T13:43:30Z</time>
      </trkpt>
      <trkpt lat="43.55556" lon="3.15746">
        <ele>325.39999389648</ele>
        <time>2011-02-16T13:43:33Z</time>
      </trkpt>
      <trkpt lat="43.55557" lon="3.15748">
        <ele>325.39999389648</ele>
        <time>2011-02-16T13:43:34Z</time>
      </trkpt>
      <trkpt lat="43.55557" lon="3.15749">
        <ele>325.79998779297</ele>
        <time>2011-02-16T13:43:35Z</time>
      </trkpt>
      <trkpt lat="43.55558" lon="3.15751">
        <ele>326.20001220703</ele>
        <time>2011-02-16T13:43:36Z</time>
      </trkpt>
      <trkpt lat="43.55558" lon="3.15752">
        <ele>326.60000610352</ele>
        <time>2011-02-16T13:43:37Z</time>
      </trkpt>
      <trkpt lat="43.55558" lon="3.15754">
        <ele>327</ele>
        <time>2011-02-16T13:43:38Z</time>
      </trkpt>
      <trkpt lat="43.55558" lon="3.15755">
        <ele>327.60000610352</ele>
        <time>2011-02-16T13:43:39Z</time>
      </trkpt>
      <trkpt lat="43.55558" lon="3.15757">
        <ele>327.60000610352</ele>
        <time>2011-02-16T13:43:41Z</time>
      </trkpt>
      <trkpt lat="43.55561" lon="3.15761">
        <ele>327.60000610352</ele>
        <time>2011-02-16T13:43:46Z</time>
      </trkpt>
      <trkpt lat="43.55563" lon="3.15765">
        <ele>328</ele>
        <time>2011-02-16T13:43:50Z</time>
      </trkpt>
      <trkpt lat="43.55563" lon="3.15766">
        <ele>328.39999389648</ele>
        <time>2011-02-16T13:43:51Z</time>
      </trkpt>
      <trkpt lat="43.55563" lon="3.15766">
        <ele>328.79998779297</ele>
        <time>2011-02-16T13:43:52Z</time>
      </trkpt>
      <trkpt lat="43.55565" lon="3.15771">
        <ele>329.60000610352</ele>
        <time>2011-02-16T13:44:00Z</time>
      </trkpt>
      <trkpt lat="43.55566" lon="3.15772">
        <ele>329.60000610352</ele>
        <time>2011-02-16T13:44:02Z</time>
      </trkpt>
      <trkpt lat="43.55566" lon="3.15771">
        <ele>329.60000610352</ele>
        <time>2011-02-16T13:44:04Z</time>
      </trkpt>
      <trkpt lat="43.55568" lon="3.15774">
        <ele>329.60000610352</ele>
        <time>2011-02-16T13:45:02Z</time>
      </trkpt>
      <trkpt lat="43.55572" lon="3.15781">
        <ele>329.60000610352</ele>
        <time>2011-02-16T13:45:12Z</time>
      </trkpt>
      <trkpt lat="43.55574" lon="3.15783">
        <ele>329.60000610352</ele>
        <time>2011-02-16T13:45:13Z</time>
      </trkpt>
      <trkpt lat="43.5558" lon="3.15787">
        <ele>329.60000610352</ele>
        <time>2011-02-16T13:45:16Z</time>
      </trkpt>
      <trkpt lat="43.55587" lon="3.15792">
        <ele>329.60000610352</ele>
        <time>2011-02-16T13:45:19Z</time>
      </trkpt>
      <trkpt lat="43.55603" lon="3.158">
        <ele>329.60000610352</ele>
        <time>2011-02-16T13:45:24Z</time>
      </trkpt>
      <trkpt lat="43.55612" lon="3.15808">
        <ele>328.60000610352</ele>
        <time>2011-02-16T13:45:27Z</time>
      </trkpt>
      <trkpt lat="43.55616" lon="3.15811">
        <ele>328.20001220703</ele>
        <time>2011-02-16T13:45:28Z</time>
      </trkpt>
      <trkpt lat="43.55619" lon="3.15813">
        <ele>327.79998779297</ele>
        <time>2011-02-16T13:45:29Z</time>
      </trkpt>
      <trkpt lat="43.55624" lon="3.15815">
        <ele>327.39999389648</ele>
        <time>2011-02-16T13:45:30Z</time>
      </trkpt>
      <trkpt lat="43.55629" lon="3.15817">
        <ele>326.79998779297</ele>
        <time>2011-02-16T13:45:31Z</time>
      </trkpt>
      <trkpt lat="43.55633" lon="3.15818">
        <ele>326.39999389648</ele>
        <time>2011-02-16T13:45:32Z</time>
      </trkpt>
      <trkpt lat="43.55636" lon="3.15819">
        <ele>325.79998779297</ele>
        <time>2011-02-16T13:45:33Z</time>
      </trkpt>
      <trkpt lat="43.5564" lon="3.15821">
        <ele>325.39999389648</ele>
        <time>2011-02-16T13:45:34Z</time>
      </trkpt>
      <trkpt lat="43.55642" lon="3.15822">
        <ele>324.79998779297</ele>
        <time>2011-02-16T13:45:35Z</time>
      </trkpt>
      <trkpt lat="43.55645" lon="3.15823">
        <ele>324.39999389648</ele>
        <time>2011-02-16T13:45:36Z</time>
      </trkpt>
      <trkpt lat="43.55648" lon="3.15825">
        <ele>323.79998779297</ele>
        <time>2011-02-16T13:45:37Z</time>
      </trkpt>
      <trkpt lat="43.5565" lon="3.15826">
        <ele>323.39999389648</ele>
        <time>2011-02-16T13:45:38Z</time>
      </trkpt>
      <trkpt lat="43.55654" lon="3.15827">
        <ele>322.79998779297</ele>
        <time>2011-02-16T13:45:39Z</time>
      </trkpt>
      <trkpt lat="43.55657" lon="3.15826">
        <ele>322.20001220703</ele>
        <time>2011-02-16T13:45:40Z</time>
      </trkpt>
      <trkpt lat="43.5566" lon="3.15826">
        <ele>321.60000610352</ele>
        <time>2011-02-16T13:45:41Z</time>
      </trkpt>
      <trkpt lat="43.55663" lon="3.15825">
        <ele>321.20001220703</ele>
        <time>2011-02-16T13:45:42Z</time>
      </trkpt>
      <trkpt lat="43.55667" lon="3.15824">
        <ele>320.60000610352</ele>
        <time>2011-02-16T13:45:43Z</time>
      </trkpt>
      <trkpt lat="43.55685" lon="3.15821">
        <ele>320.60000610352</ele>
        <time>2011-02-16T13:45:48Z</time>
      </trkpt>
      <trkpt lat="43.55703" lon="3.15819">
        <ele>320.20001220703</ele>
        <time>2011-02-16T13:45:53Z</time>
      </trkpt>
      <trkpt lat="43.55706" lon="3.15819">
        <ele>319.79998779297</ele>
        <time>2011-02-16T13:45:54Z</time>
      </trkpt>
      <trkpt lat="43.5571" lon="3.15819">
        <ele>319.39999389648</ele>
        <time>2011-02-16T13:45:55Z</time>
      </trkpt>
      <trkpt lat="43.55713" lon="3.15819">
        <ele>319</ele>
        <time>2011-02-16T13:45:56Z</time>
      </trkpt>
      <trkpt lat="43.55716" lon="3.15819">
        <ele>318.60000610352</ele>
        <time>2011-02-16T13:45:57Z</time>
      </trkpt>
      <trkpt lat="43.55732" lon="3.15821">
        <ele>318.60000610352</ele>
        <time>2011-02-16T13:46:02Z</time>
      </trkpt>
      <trkpt lat="43.55751" lon="3.15823">
        <ele>318.60000610352</ele>
        <time>2011-02-16T13:46:07Z</time>
      </trkpt>
      <trkpt lat="43.55762" lon="3.15825">
        <ele>318.60000610352</ele>
        <time>2011-02-16T13:46:11Z</time>
      </trkpt>
      <trkpt lat="43.55767" lon="3.15832">
        <ele>318.60000610352</ele>
        <time>2011-02-16T13:46:14Z</time>
      </trkpt>
      <trkpt lat="43.55769" lon="3.15836">
        <ele>318.60000610352</ele>
        <time>2011-02-16T13:46:15Z</time>
      </trkpt>
      <trkpt lat="43.55775" lon="3.15848">
        <ele>318.60000610352</ele>
        <time>2011-02-16T13:46:20Z</time>
      </trkpt>
      <trkpt lat="43.55776" lon="3.15853">
        <ele>318.60000610352</ele>
        <time>2011-02-16T13:46:23Z</time>
      </trkpt>
      <trkpt lat="43.55775" lon="3.15857">
        <ele>318.60000610352</ele>
        <time>2011-02-16T13:46:24Z</time>
      </trkpt>
      <trkpt lat="43.55779" lon="3.15864">
        <ele>318.60000610352</ele>
        <time>2011-02-16T13:46:28Z</time>
      </trkpt>
      <trkpt lat="43.5578" lon="3.15865">
        <ele>318.60000610352</ele>
        <time>2011-02-16T13:46:30Z</time>
      </trkpt>
      <trkpt lat="43.55783" lon="3.15865">
        <ele>318.60000610352</ele>
        <time>2011-02-16T13:46:33Z</time>
      </trkpt>
      <trkpt lat="43.55787" lon="3.15865">
        <ele>318.60000610352</ele>
        <time>2011-02-16T13:46:36Z</time>
      </trkpt>
      <trkpt lat="43.55789" lon="3.15863">
        <ele>318.60000610352</ele>
        <time>2011-02-16T13:46:39Z</time>
      </trkpt>
      <trkpt lat="43.55795" lon="3.1586">
        <ele>319</ele>
        <time>2011-02-16T13:46:46Z</time>
      </trkpt>
      <trkpt lat="43.55796" lon="3.15859">
        <ele>319.39999389648</ele>
        <time>2011-02-16T13:46:47Z</time>
      </trkpt>
      <trkpt lat="43.55798" lon="3.15859">
        <ele>319.79998779297</ele>
        <time>2011-02-16T13:46:48Z</time>
      </trkpt>
      <trkpt lat="43.55799" lon="3.15858">
        <ele>320.20001220703</ele>
        <time>2011-02-16T13:46:49Z</time>
      </trkpt>
      <trkpt lat="43.558" lon="3.15857">
        <ele>320.60000610352</ele>
        <time>2011-02-16T13:46:50Z</time>
      </trkpt>
      <trkpt lat="43.55804" lon="3.15856">
        <ele>320.60000610352</ele>
        <time>2011-02-16T13:46:55Z</time>
      </trkpt>
      <trkpt lat="43.55804" lon="3.15856">
        <ele>321</ele>
        <time>2011-02-16T13:46:56Z</time>
      </trkpt>
      <trkpt lat="43.55805" lon="3.15855">
        <ele>321.39999389648</ele>
        <time>2011-02-16T13:46:57Z</time>
      </trkpt>
      <trkpt lat="43.55806" lon="3.15855">
        <ele>321.79998779297</ele>
        <time>2011-02-16T13:46:58Z</time>
      </trkpt>
      <trkpt lat="43.55806" lon="3.15855">
        <ele>322.20001220703</ele>
        <time>2011-02-16T13:46:59Z</time>
      </trkpt>
      <trkpt lat="43.55807" lon="3.15855">
        <ele>322.60000610352</ele>
        <time>2011-02-16T13:47:00Z</time>
      </trkpt>
      <trkpt lat="43.55808" lon="3.15851">
        <ele>322.60000610352</ele>
        <time>2011-02-16T13:47:29Z</time>
      </trkpt>
      <trkpt lat="43.55812" lon="3.15849">
        <ele>322.60000610352</ele>
        <time>2011-02-16T13:47:32Z</time>
      </trkpt>
      <trkpt lat="43.55814" lon="3.15847">
        <ele>323</ele>
        <time>2011-02-16T13:47:34Z</time>
      </trkpt>
      <trkpt lat="43.55815" lon="3.15846">
        <ele>323.39999389648</ele>
        <time>2011-02-16T13:47:35Z</time>
      </trkpt>
      <trkpt lat="43.55817" lon="3.15846">
        <ele>323.79998779297</ele>
        <time>2011-02-16T13:47:36Z</time>
      </trkpt>
      <trkpt lat="43.55818" lon="3.15846">
        <ele>324.20001220703</ele>
        <time>2011-02-16T13:47:37Z</time>
      </trkpt>
      <trkpt lat="43.55819" lon="3.15846">
        <ele>324.60000610352</ele>
        <time>2011-02-16T13:47:38Z</time>
      </trkpt>
      <trkpt lat="43.5582" lon="3.15846">
        <ele>324.60000610352</ele>
        <time>2011-02-16T13:47:39Z</time>
      </trkpt>
      <trkpt lat="43.55826" lon="3.15846">
        <ele>324.60000610352</ele>
        <time>2011-02-16T13:47:44Z</time>
      </trkpt>
      <trkpt lat="43.55834" lon="3.15849">
        <ele>326.79998779297</ele>
        <time>2011-02-16T13:48:16Z</time>
      </trkpt>
      <trkpt lat="43.55835" lon="3.15849">
        <ele>326.79998779297</ele>
        <time>2011-02-16T13:48:17Z</time>
      </trkpt>
      <trkpt lat="43.55835" lon="3.15849">
        <ele>327.20001220703</ele>
        <time>2011-02-16T13:48:18Z</time>
      </trkpt>
      <trkpt lat="43.55836" lon="3.15849">
        <ele>327.60000610352</ele>
        <time>2011-02-16T13:48:19Z</time>
      </trkpt>
      <trkpt lat="43.55836" lon="3.15849">
        <ele>328.20001220703</ele>
        <time>2011-02-16T13:48:20Z</time>
      </trkpt>
      <trkpt lat="43.55836" lon="3.15849">
        <ele>329</ele>
        <time>2011-02-16T13:48:21Z</time>
      </trkpt>
      <trkpt lat="43.5584" lon="3.1585">
        <ele>329</ele>
        <time>2011-02-16T13:48:27Z</time>
      </trkpt>
      <trkpt lat="43.55846" lon="3.15851">
        <ele>329</ele>
        <time>2011-02-16T13:48:33Z</time>
      </trkpt>
      <trkpt lat="43.55846" lon="3.15851">
        <ele>329.39999389648</ele>
        <time>2011-02-16T13:48:34Z</time>
      </trkpt>
      <trkpt lat="43.55846" lon="3.15851">
        <ele>329.79998779297</ele>
        <time>2011-02-16T13:48:35Z</time>
      </trkpt>
      <trkpt lat="43.55846" lon="3.15851">
        <ele>330.20001220703</ele>
        <time>2011-02-16T13:48:36Z</time>
      </trkpt>
      <trkpt lat="43.55846" lon="3.1585">
        <ele>330.79998779297</ele>
        <time>2011-02-16T13:48:37Z</time>
      </trkpt>
      <trkpt lat="43.55853" lon="3.15855">
        <ele>331.20001220703</ele>
        <time>2011-02-16T13:49:43Z</time>
      </trkpt>
      <trkpt lat="43.55855" lon="3.15856">
        <ele>331.60000610352</ele>
        <time>2011-02-16T13:49:45Z</time>
      </trkpt>
      <trkpt lat="43.55855" lon="3.15856">
        <ele>332</ele>
        <time>2011-02-16T13:49:46Z</time>
      </trkpt>
      <trkpt lat="43.55855" lon="3.15856">
        <ele>332.39999389648</ele>
        <time>2011-02-16T13:49:47Z</time>
      </trkpt>
      <trkpt lat="43.55855" lon="3.15856">
        <ele>332.79998779297</ele>
        <time>2011-02-16T13:49:48Z</time>
      </trkpt>
      <trkpt lat="43.55857" lon="3.15857">
        <ele>333.20001220703</ele>
        <time>2011-02-16T13:50:23Z</time>
      </trkpt>
      <trkpt lat="43.55861" lon="3.15858">
        <ele>333.20001220703</ele>
        <time>2011-02-16T13:50:27Z</time>
      </trkpt>
      <trkpt lat="43.55861" lon="3.15857">
        <ele>333.20001220703</ele>
        <time>2011-02-16T13:50:28Z</time>
      </trkpt>
      <trkpt lat="43.55864" lon="3.15856">
        <ele>333.60000610352</ele>
        <time>2011-02-16T13:50:30Z</time>
      </trkpt>
      <trkpt lat="43.55865" lon="3.15856">
        <ele>334</ele>
        <time>2011-02-16T13:50:31Z</time>
      </trkpt>
      <trkpt lat="43.55865" lon="3.15856">
        <ele>334.39999389648</ele>
        <time>2011-02-16T13:50:32Z</time>
      </trkpt>
      <trkpt lat="43.55865" lon="3.15856">
        <ele>334.79998779297</ele>
        <time>2011-02-16T13:50:33Z</time>
      </trkpt>
      <trkpt lat="43.55866" lon="3.15856">
        <ele>335.20001220703</ele>
        <time>2011-02-16T13:50:34Z</time>
      </trkpt>
      <trkpt lat="43.55867" lon="3.15856">
        <ele>335.20001220703</ele>
        <time>2011-02-16T13:50:35Z</time>
      </trkpt>
      <trkpt lat="43.55872" lon="3.15857">
        <ele>335.20001220703</ele>
        <time>2011-02-16T13:50:39Z</time>
      </trkpt>
      <trkpt lat="43.55877" lon="3.1586">
        <ele>335.20001220703</ele>
        <time>2011-02-16T13:50:45Z</time>
      </trkpt>
      <trkpt lat="43.5588" lon="3.1586">
        <ele>335.60000610352</ele>
        <time>2011-02-16T13:50:47Z</time>
      </trkpt>
      <trkpt lat="43.55881" lon="3.1586">
        <ele>336.39999389648</ele>
        <time>2011-02-16T13:50:48Z</time>
      </trkpt>
      <trkpt lat="43.55881" lon="3.1586">
        <ele>336.79998779297</ele>
        <time>2011-02-16T13:50:49Z</time>
      </trkpt>
      <trkpt lat="43.55881" lon="3.15859">
        <ele>337.20001220703</ele>
        <time>2011-02-16T13:50:50Z</time>
      </trkpt>
      <trkpt lat="43.55883" lon="3.1586">
        <ele>337.20001220703</ele>
        <time>2011-02-16T13:50:51Z</time>
      </trkpt>
      <trkpt lat="43.55887" lon="3.15861">
        <ele>337.20001220703</ele>
        <time>2011-02-16T13:50:55Z</time>
      </trkpt>
      <trkpt lat="43.55889" lon="3.15861">
        <ele>337.20001220703</ele>
        <time>2011-02-16T13:50:57Z</time>
      </trkpt>
      <trkpt lat="43.55893" lon="3.1586">
        <ele>337.60000610352</ele>
        <time>2011-02-16T13:51:01Z</time>
      </trkpt>
      <trkpt lat="43.55893" lon="3.1586">
        <ele>338.20001220703</ele>
        <time>2011-02-16T13:51:02Z</time>
      </trkpt>
      <trkpt lat="43.55894" lon="3.1586">
        <ele>338.60000610352</ele>
        <time>2011-02-16T13:51:03Z</time>
      </trkpt>
      <trkpt lat="43.55895" lon="3.15861">
        <ele>339</ele>
        <time>2011-02-16T13:51:04Z</time>
      </trkpt>
      <trkpt lat="43.55896" lon="3.15861">
        <ele>339.39999389648</ele>
        <time>2011-02-16T13:51:05Z</time>
      </trkpt>
      <trkpt lat="43.55898" lon="3.15861">
        <ele>339.39999389648</ele>
        <time>2011-02-16T13:51:07Z</time>
      </trkpt>
      <trkpt lat="43.55901" lon="3.15861">
        <ele>339.39999389648</ele>
        <time>2011-02-16T13:51:10Z</time>
      </trkpt>
      <trkpt lat="43.55904" lon="3.15861">
        <ele>339.39999389648</ele>
        <time>2011-02-16T13:51:14Z</time>
      </trkpt>
      <trkpt lat="43.55907" lon="3.15864">
        <ele>340.60000610352</ele>
        <time>2011-02-16T13:51:26Z</time>
      </trkpt>
      <trkpt lat="43.55908" lon="3.15865">
        <ele>341</ele>
        <time>2011-02-16T13:51:27Z</time>
      </trkpt>
      <trkpt lat="43.55909" lon="3.15865">
        <ele>341.39999389648</ele>
        <time>2011-02-16T13:51:28Z</time>
      </trkpt>
      <trkpt lat="43.55915" lon="3.15866">
        <ele>341.39999389648</ele>
        <time>2011-02-16T13:51:48Z</time>
      </trkpt>
      <trkpt lat="43.5592" lon="3.15867">
        <ele>341.39999389648</ele>
        <time>2011-02-16T13:51:51Z</time>
      </trkpt>
      <trkpt lat="43.55921" lon="3.15867">
        <ele>341.79998779297</ele>
        <time>2011-02-16T13:51:52Z</time>
      </trkpt>
      <trkpt lat="43.55922" lon="3.15867">
        <ele>342.20001220703</ele>
        <time>2011-02-16T13:51:53Z</time>
      </trkpt>
      <trkpt lat="43.55923" lon="3.15867">
        <ele>342.79998779297</ele>
        <time>2011-02-16T13:51:54Z</time>
      </trkpt>
      <trkpt lat="43.55925" lon="3.15867">
        <ele>343.20001220703</ele>
        <time>2011-02-16T13:51:55Z</time>
      </trkpt>
      <trkpt lat="43.55927" lon="3.15867">
        <ele>343.60000610352</ele>
        <time>2011-02-16T13:51:56Z</time>
      </trkpt>
      <trkpt lat="43.55931" lon="3.15868">
        <ele>343.60000610352</ele>
        <time>2011-02-16T13:51:59Z</time>
      </trkpt>
      <trkpt lat="43.55933" lon="3.15867">
        <ele>343.60000610352</ele>
        <time>2011-02-16T13:52:01Z</time>
      </trkpt>
      <trkpt lat="43.55935" lon="3.15866">
        <ele>343.60000610352</ele>
        <time>2011-02-16T13:52:02Z</time>
      </trkpt>
      <trkpt lat="43.55941" lon="3.15864">
        <ele>344</ele>
        <time>2011-02-16T13:52:06Z</time>
      </trkpt>
      <trkpt lat="43.55942" lon="3.15864">
        <ele>344.39999389648</ele>
        <time>2011-02-16T13:52:07Z</time>
      </trkpt>
      <trkpt lat="43.55944" lon="3.15864">
        <ele>344.79998779297</ele>
        <time>2011-02-16T13:52:08Z</time>
      </trkpt>
      <trkpt lat="43.55944" lon="3.15864">
        <ele>345.20001220703</ele>
        <time>2011-02-16T13:52:09Z</time>
      </trkpt>
      <trkpt lat="43.55945" lon="3.15864">
        <ele>345.60000610352</ele>
        <time>2011-02-16T13:52:10Z</time>
      </trkpt>
      <trkpt lat="43.55948" lon="3.15865">
        <ele>345.60000610352</ele>
        <time>2011-02-16T13:52:13Z</time>
      </trkpt>
      <trkpt lat="43.5595" lon="3.15864">
        <ele>345.60000610352</ele>
        <time>2011-02-16T13:52:14Z</time>
      </trkpt>
      <trkpt lat="43.55956" lon="3.15862">
        <ele>346</ele>
        <time>2011-02-16T13:52:19Z</time>
      </trkpt>
      <trkpt lat="43.55957" lon="3.15861">
        <ele>346.39999389648</ele>
        <time>2011-02-16T13:52:20Z</time>
      </trkpt>
      <trkpt lat="43.55958" lon="3.1586">
        <ele>346.79998779297</ele>
        <time>2011-02-16T13:52:21Z</time>
      </trkpt>
      <trkpt lat="43.55959" lon="3.15859">
        <ele>347.20001220703</ele>
        <time>2011-02-16T13:52:22Z</time>
      </trkpt>
      <trkpt lat="43.5596" lon="3.15858">
        <ele>347.60000610352</ele>
        <time>2011-02-16T13:52:23Z</time>
      </trkpt>
      <trkpt lat="43.55964" lon="3.15856">
        <ele>347.60000610352</ele>
        <time>2011-02-16T13:52:26Z</time>
      </trkpt>
      <trkpt lat="43.55968" lon="3.15855">
        <ele>348</ele>
        <time>2011-02-16T13:52:30Z</time>
      </trkpt>
      <trkpt lat="43.55968" lon="3.15854">
        <ele>348.39999389648</ele>
        <time>2011-02-16T13:52:31Z</time>
      </trkpt>
      <trkpt lat="43.55968" lon="3.15854">
        <ele>348.79998779297</ele>
        <time>2011-02-16T13:52:32Z</time>
      </trkpt>
      <trkpt lat="43.55972" lon="3.15855">
        <ele>349.60000610352</ele>
        <time>2011-02-16T13:52:38Z</time>
      </trkpt>
      <trkpt lat="43.55975" lon="3.15855">
        <ele>349.60000610352</ele>
        <time>2011-02-16T13:52:41Z</time>
      </trkpt>
      <trkpt lat="43.5598" lon="3.15855">
        <ele>350.20001220703</ele>
        <time>2011-02-16T13:52:46Z</time>
      </trkpt>
      <trkpt lat="43.55981" lon="3.15856">
        <ele>350.60000610352</ele>
        <time>2011-02-16T13:52:47Z</time>
      </trkpt>
      <trkpt lat="43.55982" lon="3.15855">
        <ele>351</ele>
        <time>2011-02-16T13:52:48Z</time>
      </trkpt>
      <trkpt lat="43.55983" lon="3.15855">
        <ele>351.39999389648</ele>
        <time>2011-02-16T13:52:49Z</time>
      </trkpt>
      <trkpt lat="43.55984" lon="3.15856">
        <ele>351.79998779297</ele>
        <time>2011-02-16T13:52:50Z</time>
      </trkpt>
      <trkpt lat="43.55986" lon="3.15856">
        <ele>351.79998779297</ele>
        <time>2011-02-16T13:52:53Z</time>
      </trkpt>
      <trkpt lat="43.55989" lon="3.15856">
        <ele>351.79998779297</ele>
        <time>2011-02-16T13:52:56Z</time>
      </trkpt>
      <trkpt lat="43.55992" lon="3.15857">
        <ele>351.79998779297</ele>
        <time>2011-02-16T13:52:59Z</time>
      </trkpt>
      <trkpt lat="43.55993" lon="3.15856">
        <ele>352.20001220703</ele>
        <time>2011-02-16T13:53:00Z</time>
      </trkpt>
      <trkpt lat="43.55993" lon="3.15855">
        <ele>352.60000610352</ele>
        <time>2011-02-16T13:53:01Z</time>
      </trkpt>
      <trkpt lat="43.55994" lon="3.15854">
        <ele>353</ele>
        <time>2011-02-16T13:53:02Z</time>
      </trkpt>
      <trkpt lat="43.55994" lon="3.15854">
        <ele>353.60000610352</ele>
        <time>2011-02-16T13:53:03Z</time>
      </trkpt>
      <trkpt lat="43.55994" lon="3.15853">
        <ele>354</ele>
        <time>2011-02-16T13:53:04Z</time>
      </trkpt>
      <trkpt lat="43.55994" lon="3.15853">
        <ele>354</ele>
        <time>2011-02-16T13:53:05Z</time>
      </trkpt>
      <trkpt lat="43.55999" lon="3.15854">
        <ele>354</ele>
        <time>2011-02-16T13:53:23Z</time>
      </trkpt>
      <trkpt lat="43.56002" lon="3.15853">
        <ele>354</ele>
        <time>2011-02-16T13:53:26Z</time>
      </trkpt>
      <trkpt lat="43.56004" lon="3.15853">
        <ele>354.39999389648</ele>
        <time>2011-02-16T13:53:29Z</time>
      </trkpt>
      <trkpt lat="43.56005" lon="3.15852">
        <ele>354.79998779297</ele>
        <time>2011-02-16T13:53:30Z</time>
      </trkpt>
      <trkpt lat="43.56006" lon="3.15854">
        <ele>355.20001220703</ele>
        <time>2011-02-16T13:53:31Z</time>
      </trkpt>
      <trkpt lat="43.56007" lon="3.15854">
        <ele>355.60000610352</ele>
        <time>2011-02-16T13:53:32Z</time>
      </trkpt>
      <trkpt lat="43.56007" lon="3.15854">
        <ele>356</ele>
        <time>2011-02-16T13:53:33Z</time>
      </trkpt>
      <trkpt lat="43.5601" lon="3.15854">
        <ele>356</ele>
        <time>2011-02-16T13:53:38Z</time>
      </trkpt>
      <trkpt lat="43.56015" lon="3.15853">
        <ele>356</ele>
        <time>2011-02-16T13:53:51Z</time>
      </trkpt>
      <trkpt lat="43.56017" lon="3.15853">
        <ele>356</ele>
        <time>2011-02-16T13:53:53Z</time>
      </trkpt>
      <trkpt lat="43.56026" lon="3.15852">
        <ele>356</ele>
        <time>2011-02-16T13:54:00Z</time>
      </trkpt>
      <trkpt lat="43.56028" lon="3.15851">
        <ele>356</ele>
        <time>2011-02-16T13:54:02Z</time>
      </trkpt>
      <trkpt lat="43.56028" lon="3.15851">
        <ele>356</ele>
        <time>2011-02-16T13:54:05Z</time>
      </trkpt>
      <trkpt lat="43.56032" lon="3.15846">
        <ele>356</ele>
        <time>2011-02-16T13:55:40Z</time>
      </trkpt>
      <trkpt lat="43.56034" lon="3.15845">
        <ele>356</ele>
        <time>2011-02-16T13:55:41Z</time>
      </trkpt>
      <trkpt lat="43.56036" lon="3.15841">
        <ele>356</ele>
        <time>2011-02-16T13:55:43Z</time>
      </trkpt>
      <trkpt lat="43.56045" lon="3.15828">
        <ele>356</ele>
        <time>2011-02-16T13:55:49Z</time>
      </trkpt>
      <trkpt lat="43.56055" lon="3.15808">
        <ele>356</ele>
        <time>2011-02-16T13:55:54Z</time>
      </trkpt>
      <trkpt lat="43.56058" lon="3.15805">
        <ele>356</ele>
        <time>2011-02-16T13:55:55Z</time>
      </trkpt>
      <trkpt lat="43.56073" lon="3.15787">
        <ele>355.60000610352</ele>
        <time>2011-02-16T13:55:59Z</time>
      </trkpt>
      <trkpt lat="43.56076" lon="3.15784">
        <ele>355.20001220703</ele>
        <time>2011-02-16T13:56:00Z</time>
      </trkpt>
      <trkpt lat="43.5608" lon="3.15779">
        <ele>354.79998779297</ele>
        <time>2011-02-16T13:56:01Z</time>
      </trkpt>
      <trkpt lat="43.56084" lon="3.15775">
        <ele>354.39999389648</ele>
        <time>2011-02-16T13:56:02Z</time>
      </trkpt>
      <trkpt lat="43.56086" lon="3.15772">
        <ele>354</ele>
        <time>2011-02-16T13:56:03Z</time>
      </trkpt>
      <trkpt lat="43.56089" lon="3.15768">
        <ele>353.39999389648</ele>
        <time>2011-02-16T13:56:04Z</time>
      </trkpt>
      <trkpt lat="43.56093" lon="3.15766">
        <ele>353</ele>
        <time>2011-02-16T13:56:05Z</time>
      </trkpt>
      <trkpt lat="43.56096" lon="3.15763">
        <ele>352.60000610352</ele>
        <time>2011-02-16T13:56:06Z</time>
      </trkpt>
      <trkpt lat="43.56099" lon="3.15761">
        <ele>352</ele>
        <time>2011-02-16T13:56:07Z</time>
      </trkpt>
      <trkpt lat="43.56102" lon="3.15758">
        <ele>351.60000610352</ele>
        <time>2011-02-16T13:56:08Z</time>
      </trkpt>
      <trkpt lat="43.56105" lon="3.15755">
        <ele>350.60000610352</ele>
        <time>2011-02-16T13:56:09Z</time>
      </trkpt>
      <trkpt lat="43.56108" lon="3.15751">
        <ele>350.20001220703</ele>
        <time>2011-02-16T13:56:10Z</time>
      </trkpt>
      <trkpt lat="43.56112" lon="3.15746">
        <ele>349.79998779297</ele>
        <time>2011-02-16T13:56:11Z</time>
      </trkpt>
      <trkpt lat="43.56115" lon="3.15741">
        <ele>349.20001220703</ele>
        <time>2011-02-16T13:56:12Z</time>
      </trkpt>
      <trkpt lat="43.56118" lon="3.15736">
        <ele>349.20001220703</ele>
        <time>2011-02-16T13:56:13Z</time>
      </trkpt>
      <trkpt lat="43.56122" lon="3.15731">
        <ele>348.79998779297</ele>
        <time>2011-02-16T13:56:14Z</time>
      </trkpt>
      <trkpt lat="43.56126" lon="3.15726">
        <ele>348.20001220703</ele>
        <time>2011-02-16T13:56:15Z</time>
      </trkpt>
      <trkpt lat="43.5613" lon="3.15721">
        <ele>347.79998779297</ele>
        <time>2011-02-16T13:56:16Z</time>
      </trkpt>
      <trkpt lat="43.56135" lon="3.15717">
        <ele>347.20001220703</ele>
        <time>2011-02-16T13:56:17Z</time>
      </trkpt>
      <trkpt lat="43.56137" lon="3.15714">
        <ele>346.79998779297</ele>
        <time>2011-02-16T13:56:18Z</time>
      </trkpt>
      <trkpt lat="43.56141" lon="3.15711">
        <ele>346.39999389648</ele>
        <time>2011-02-16T13:56:19Z</time>
      </trkpt>
      <trkpt lat="43.56144" lon="3.15707">
        <ele>346</ele>
        <time>2011-02-16T13:56:20Z</time>
      </trkpt>
      <trkpt lat="43.56147" lon="3.15704">
        <ele>345.60000610352</ele>
        <time>2011-02-16T13:56:21Z</time>
      </trkpt>
      <trkpt lat="43.56151" lon="3.15701">
        <ele>345</ele>
        <time>2011-02-16T13:56:22Z</time>
      </trkpt>
      <trkpt lat="43.56154" lon="3.15698">
        <ele>344.60000610352</ele>
        <time>2011-02-16T13:56:23Z</time>
      </trkpt>
      <trkpt lat="43.56157" lon="3.15694">
        <ele>344.60000610352</ele>
        <time>2011-02-16T13:56:24Z</time>
      </trkpt>
      <trkpt lat="43.56165" lon="3.15685">
        <ele>344.20001220703</ele>
        <time>2011-02-16T13:56:26Z</time>
      </trkpt>
      <trkpt lat="43.56167" lon="3.1568">
        <ele>343.79998779297</ele>
        <time>2011-02-16T13:56:27Z</time>
      </trkpt>
      <trkpt lat="43.56171" lon="3.15676">
        <ele>343.20001220703</ele>
        <time>2011-02-16T13:56:28Z</time>
      </trkpt>
      <trkpt lat="43.56173" lon="3.15671">
        <ele>342.79998779297</ele>
        <time>2011-02-16T13:56:29Z</time>
      </trkpt>
      <trkpt lat="43.56177" lon="3.15667">
        <ele>342.20001220703</ele>
        <time>2011-02-16T13:56:30Z</time>
      </trkpt>
      <trkpt lat="43.56182" lon="3.15658">
        <ele>341.79998779297</ele>
        <time>2011-02-16T13:56:32Z</time>
      </trkpt>
      <trkpt lat="43.56184" lon="3.15654">
        <ele>341.39999389648</ele>
        <time>2011-02-16T13:56:33Z</time>
      </trkpt>
      <trkpt lat="43.56186" lon="3.15651">
        <ele>340.60000610352</ele>
        <time>2011-02-16T13:56:34Z</time>
      </trkpt>
      <trkpt lat="43.56187" lon="3.15646">
        <ele>340.20001220703</ele>
        <time>2011-02-16T13:56:35Z</time>
      </trkpt>
      <trkpt lat="43.5619" lon="3.15641">
        <ele>340.20001220703</ele>
        <time>2011-02-16T13:56:36Z</time>
      </trkpt>
      <trkpt lat="43.56193" lon="3.15636">
        <ele>339.79998779297</ele>
        <time>2011-02-16T13:56:37Z</time>
      </trkpt>
      <trkpt lat="43.56195" lon="3.15632">
        <ele>339.20001220703</ele>
        <time>2011-02-16T13:56:38Z</time>
      </trkpt>
      <trkpt lat="43.56198" lon="3.15629">
        <ele>338.79998779297</ele>
        <time>2011-02-16T13:56:39Z</time>
      </trkpt>
      <trkpt lat="43.562" lon="3.15627">
        <ele>338.20001220703</ele>
        <time>2011-02-16T13:56:40Z</time>
      </trkpt>
      <trkpt lat="43.56204" lon="3.15624">
        <ele>337.79998779297</ele>
        <time>2011-02-16T13:56:41Z</time>
      </trkpt>
      <trkpt lat="43.56212" lon="3.15622">
        <ele>337.39999389648</ele>
        <time>2011-02-16T13:56:43Z</time>
      </trkpt>
      <trkpt lat="43.56215" lon="3.15621">
        <ele>336.79998779297</ele>
        <time>2011-02-16T13:56:44Z</time>
      </trkpt>
      <trkpt lat="43.56221" lon="3.1562">
        <ele>336.39999389648</ele>
        <time>2011-02-16T13:56:45Z</time>
      </trkpt>
      <trkpt lat="43.56224" lon="3.15619">
        <ele>336</ele>
        <time>2011-02-16T13:56:46Z</time>
      </trkpt>
      <trkpt lat="43.56228" lon="3.15618">
        <ele>335.60000610352</ele>
        <time>2011-02-16T13:56:47Z</time>
      </trkpt>
      <trkpt lat="43.56239" lon="3.15615">
        <ele>335.60000610352</ele>
        <time>2011-02-16T13:56:50Z</time>
      </trkpt>
      <trkpt lat="43.56254" lon="3.15612">
        <ele>335.60000610352</ele>
        <time>2011-02-16T13:56:54Z</time>
      </trkpt>
      <trkpt lat="43.56258" lon="3.15611">
        <ele>335.60000610352</ele>
        <time>2011-02-16T13:56:55Z</time>
      </trkpt>
      <trkpt lat="43.56273" lon="3.15605">
        <ele>335.60000610352</ele>
        <time>2011-02-16T13:57:00Z</time>
      </trkpt>
      <trkpt lat="43.56286" lon="3.15601">
        <ele>335.60000610352</ele>
        <time>2011-02-16T13:57:05Z</time>
      </trkpt>
      <trkpt lat="43.56297" lon="3.15598">
        <ele>335.60000610352</ele>
        <time>2011-02-16T13:57:11Z</time>
      </trkpt>
      <trkpt lat="43.56298" lon="3.15598">
        <ele>335.60000610352</ele>
        <time>2011-02-16T13:57:12Z</time>
      </trkpt>
      <trkpt lat="43.56308" lon="3.15594">
        <ele>335.60000610352</ele>
        <time>2011-02-16T13:57:17Z</time>
      </trkpt>
      <trkpt lat="43.56314" lon="3.15595">
        <ele>336</ele>
        <time>2011-02-16T13:57:19Z</time>
      </trkpt>
      <trkpt lat="43.56316" lon="3.15596">
        <ele>336.39999389648</ele>
        <time>2011-02-16T13:57:20Z</time>
      </trkpt>
      <trkpt lat="43.56319" lon="3.15597">
        <ele>336.79998779297</ele>
        <time>2011-02-16T13:57:21Z</time>
      </trkpt>
      <trkpt lat="43.56322" lon="3.15598">
        <ele>337.20001220703</ele>
        <time>2011-02-16T13:57:22Z</time>
      </trkpt>
      <trkpt lat="43.56324" lon="3.15597">
        <ele>337.60000610352</ele>
        <time>2011-02-16T13:57:23Z</time>
      </trkpt>
      <trkpt lat="43.56337" lon="3.15597">
        <ele>337.60000610352</ele>
        <time>2011-02-16T13:57:28Z</time>
      </trkpt>
      <trkpt lat="43.56344" lon="3.15599">
        <ele>338</ele>
        <time>2011-02-16T13:57:31Z</time>
      </trkpt>
      <trkpt lat="43.56346" lon="3.15598">
        <ele>338.39999389648</ele>
        <time>2011-02-16T13:57:32Z</time>
      </trkpt>
      <trkpt lat="43.56348" lon="3.15597">
        <ele>338.79998779297</ele>
        <time>2011-02-16T13:57:33Z</time>
      </trkpt>
      <trkpt lat="43.56351" lon="3.15597">
        <ele>339.20001220703</ele>
        <time>2011-02-16T13:57:34Z</time>
      </trkpt>
      <trkpt lat="43.56354" lon="3.15597">
        <ele>339.60000610352</ele>
        <time>2011-02-16T13:57:35Z</time>
      </trkpt>
      <trkpt lat="43.56359" lon="3.15594">
        <ele>339.60000610352</ele>
        <time>2011-02-16T13:57:37Z</time>
      </trkpt>
      <trkpt lat="43.56367" lon="3.15591">
        <ele>339.60000610352</ele>
        <time>2011-02-16T13:57:40Z</time>
      </trkpt>
      <trkpt lat="43.56377" lon="3.15582">
        <ele>340.20001220703</ele>
        <time>2011-02-16T13:57:44Z</time>
      </trkpt>
      <trkpt lat="43.56379" lon="3.1558">
        <ele>340.60000610352</ele>
        <time>2011-02-16T13:57:45Z</time>
      </trkpt>
      <trkpt lat="43.56382" lon="3.15578">
        <ele>341</ele>
        <time>2011-02-16T13:57:46Z</time>
      </trkpt>
      <trkpt lat="43.56384" lon="3.15576">
        <ele>341.39999389648</ele>
        <time>2011-02-16T13:57:47Z</time>
      </trkpt>
      <trkpt lat="43.56387" lon="3.15574">
        <ele>341.79998779297</ele>
        <time>2011-02-16T13:57:48Z</time>
      </trkpt>
      <trkpt lat="43.56397" lon="3.15558">
        <ele>341.79998779297</ele>
        <time>2011-02-16T13:57:54Z</time>
      </trkpt>
      <trkpt lat="43.56402" lon="3.1555">
        <ele>342.20001220703</ele>
        <time>2011-02-16T13:57:57Z</time>
      </trkpt>
      <trkpt lat="43.56404" lon="3.15547">
        <ele>342.60000610352</ele>
        <time>2011-02-16T13:57:58Z</time>
      </trkpt>
      <trkpt lat="43.56406" lon="3.15545">
        <ele>343</ele>
        <time>2011-02-16T13:57:59Z</time>
      </trkpt>
      <trkpt lat="43.56407" lon="3.15542">
        <ele>343.39999389648</ele>
        <time>2011-02-16T13:58:00Z</time>
      </trkpt>
      <trkpt lat="43.56409" lon="3.15539">
        <ele>343.79998779297</ele>
        <time>2011-02-16T13:58:01Z</time>
      </trkpt>
      <trkpt lat="43.56417" lon="3.15522">
        <ele>343.79998779297</ele>
        <time>2011-02-16T13:58:07Z</time>
      </trkpt>
      <trkpt lat="43.56429" lon="3.15506">
        <ele>344.20001220703</ele>
        <time>2011-02-16T13:58:13Z</time>
      </trkpt>
      <trkpt lat="43.56431" lon="3.15503">
        <ele>344.60000610352</ele>
        <time>2011-02-16T13:58:14Z</time>
      </trkpt>
      <trkpt lat="43.56433" lon="3.15501">
        <ele>345</ele>
        <time>2011-02-16T13:58:15Z</time>
      </trkpt>
      <trkpt lat="43.56435" lon="3.15498">
        <ele>345.39999389648</ele>
        <time>2011-02-16T13:58:16Z</time>
      </trkpt>
      <trkpt lat="43.56438" lon="3.15496">
        <ele>345.79998779297</ele>
        <time>2011-02-16T13:58:17Z</time>
      </trkpt>
      <trkpt lat="43.56447" lon="3.15485">
        <ele>345.79998779297</ele>
        <time>2011-02-16T13:58:21Z</time>
      </trkpt>
      <trkpt lat="43.56464" lon="3.15464">
        <ele>346.39999389648</ele>
        <time>2011-02-16T13:58:29Z</time>
      </trkpt>
      <trkpt lat="43.56467" lon="3.15461">
        <ele>346.79998779297</ele>
        <time>2011-02-16T13:58:30Z</time>
      </trkpt>
      <trkpt lat="43.56469" lon="3.15459">
        <ele>347.20001220703</ele>
        <time>2011-02-16T13:58:31Z</time>
      </trkpt>
      <trkpt lat="43.5647" lon="3.15457">
        <ele>347.60000610352</ele>
        <time>2011-02-16T13:58:32Z</time>
      </trkpt>
      <trkpt lat="43.56472" lon="3.15455">
        <ele>348</ele>
        <time>2011-02-16T13:58:33Z</time>
      </trkpt>
      <trkpt lat="43.56485" lon="3.15441">
        <ele>348</ele>
        <time>2011-02-16T13:58:39Z</time>
      </trkpt>
      <trkpt lat="43.56488" lon="3.15437">
        <ele>348.39999389648</ele>
        <time>2011-02-16T13:58:41Z</time>
      </trkpt>
      <trkpt lat="43.5649" lon="3.15435">
        <ele>348.79998779297</ele>
        <time>2011-02-16T13:58:42Z</time>
      </trkpt>
      <trkpt lat="43.56492" lon="3.15433">
        <ele>349.20001220703</ele>
        <time>2011-02-16T13:58:43Z</time>
      </trkpt>
      <trkpt lat="43.56495" lon="3.15431">
        <ele>349.60000610352</ele>
        <time>2011-02-16T13:58:44Z</time>
      </trkpt>
      <trkpt lat="43.56496" lon="3.15429">
        <ele>350.20001220703</ele>
        <time>2011-02-16T13:58:45Z</time>
      </trkpt>
      <trkpt lat="43.56498" lon="3.15427">
        <ele>350.20001220703</ele>
        <time>2011-02-16T13:58:46Z</time>
      </trkpt>
      <trkpt lat="43.56506" lon="3.15418">
        <ele>350.20001220703</ele>
        <time>2011-02-16T13:58:51Z</time>
      </trkpt>
      <trkpt lat="43.56515" lon="3.15406">
        <ele>350.60000610352</ele>
        <time>2011-02-16T13:58:57Z</time>
      </trkpt>
      <trkpt lat="43.56517" lon="3.15403">
        <ele>351</ele>
        <time>2011-02-16T13:58:58Z</time>
      </trkpt>
      <trkpt lat="43.56519" lon="3.154">
        <ele>351.39999389648</ele>
        <time>2011-02-16T13:58:59Z</time>
      </trkpt>
      <trkpt lat="43.5652" lon="3.15398">
        <ele>351.79998779297</ele>
        <time>2011-02-16T13:59:00Z</time>
      </trkpt>
      <trkpt lat="43.56523" lon="3.15395">
        <ele>352.20001220703</ele>
        <time>2011-02-16T13:59:01Z</time>
      </trkpt>
      <trkpt lat="43.56527" lon="3.1539">
        <ele>352.20001220703</ele>
        <time>2011-02-16T13:59:03Z</time>
      </trkpt>
      <trkpt lat="43.56539" lon="3.15374">
        <ele>352.60000610352</ele>
        <time>2011-02-16T13:59:09Z</time>
      </trkpt>
      <trkpt lat="43.56541" lon="3.15372">
        <ele>353</ele>
        <time>2011-02-16T13:59:10Z</time>
      </trkpt>
      <trkpt lat="43.56542" lon="3.15368">
        <ele>353.39999389648</ele>
        <time>2011-02-16T13:59:11Z</time>
      </trkpt>
      <trkpt lat="43.56544" lon="3.15366">
        <ele>353.79998779297</ele>
        <time>2011-02-16T13:59:12Z</time>
      </trkpt>
      <trkpt lat="43.56546" lon="3.15363">
        <ele>354.20001220703</ele>
        <time>2011-02-16T13:59:13Z</time>
      </trkpt>
      <trkpt lat="43.5655" lon="3.15356">
        <ele>354.20001220703</ele>
        <time>2011-02-16T13:59:16Z</time>
      </trkpt>
      <trkpt lat="43.56561" lon="3.15338">
        <ele>354.60000610352</ele>
        <time>2011-02-16T13:59:23Z</time>
      </trkpt>
      <trkpt lat="43.56563" lon="3.15336">
        <ele>355</ele>
        <time>2011-02-16T13:59:24Z</time>
      </trkpt>
      <trkpt lat="43.56564" lon="3.15334">
        <ele>355.39999389648</ele>
        <time>2011-02-16T13:59:25Z</time>
      </trkpt>
      <trkpt lat="43.56566" lon="3.15331">
        <ele>356</ele>
        <time>2011-02-16T13:59:26Z</time>
      </trkpt>
      <trkpt lat="43.56568" lon="3.15329">
        <ele>356.39999389648</ele>
        <time>2011-02-16T13:59:27Z</time>
      </trkpt>
      <trkpt lat="43.56578" lon="3.15316">
        <ele>356.39999389648</ele>
        <time>2011-02-16T13:59:32Z</time>
      </trkpt>
      <trkpt lat="43.56584" lon="3.15307">
        <ele>356.79998779297</ele>
        <time>2011-02-16T13:59:36Z</time>
      </trkpt>
      <trkpt lat="43.56585" lon="3.15305">
        <ele>357.20001220703</ele>
        <time>2011-02-16T13:59:37Z</time>
      </trkpt>
      <trkpt lat="43.56586" lon="3.15304">
        <ele>357.60000610352</ele>
        <time>2011-02-16T13:59:38Z</time>
      </trkpt>
      <trkpt lat="43.56588" lon="3.15302">
        <ele>358</ele>
        <time>2011-02-16T13:59:39Z</time>
      </trkpt>
      <trkpt lat="43.5659" lon="3.153">
        <ele>358.39999389648</ele>
        <time>2011-02-16T13:59:40Z</time>
      </trkpt>
      <trkpt lat="43.56601" lon="3.15284">
        <ele>358.79998779297</ele>
        <time>2011-02-16T13:59:47Z</time>
      </trkpt>
      <trkpt lat="43.56603" lon="3.15282">
        <ele>359.20001220703</ele>
        <time>2011-02-16T13:59:48Z</time>
      </trkpt>
      <trkpt lat="43.56605" lon="3.15281">
        <ele>359.60000610352</ele>
        <time>2011-02-16T13:59:49Z</time>
      </trkpt>
      <trkpt lat="43.56607" lon="3.15279">
        <ele>360</ele>
        <time>2011-02-16T13:59:50Z</time>
      </trkpt>
      <trkpt lat="43.56609" lon="3.15277">
        <ele>360.39999389648</ele>
        <time>2011-02-16T13:59:51Z</time>
      </trkpt>
      <trkpt lat="43.56614" lon="3.15273">
        <ele>360.39999389648</ele>
        <time>2011-02-16T13:59:53Z</time>
      </trkpt>
      <trkpt lat="43.56618" lon="3.15265">
        <ele>360.79998779297</ele>
        <time>2011-02-16T13:59:56Z</time>
      </trkpt>
      <trkpt lat="43.5662" lon="3.15261">
        <ele>361.20001220703</ele>
        <time>2011-02-16T13:59:57Z</time>
      </trkpt>
      <trkpt lat="43.5662" lon="3.15258">
        <ele>361.60000610352</ele>
        <time>2011-02-16T13:59:58Z</time>
      </trkpt>
      <trkpt lat="43.56621" lon="3.15254">
        <ele>362</ele>
        <time>2011-02-16T13:59:59Z</time>
      </trkpt>
      <trkpt lat="43.56622" lon="3.15251">
        <ele>362.39999389648</ele>
        <time>2011-02-16T14:00:00Z</time>
      </trkpt>
      <trkpt lat="43.56622" lon="3.15234">
        <ele>362.39999389648</ele>
        <time>2011-02-16T14:00:05Z</time>
      </trkpt>
      <trkpt lat="43.56626" lon="3.15213">
        <ele>362.39999389648</ele>
        <time>2011-02-16T14:00:12Z</time>
      </trkpt>
      <trkpt lat="43.56627" lon="3.1521">
        <ele>362.79998779297</ele>
        <time>2011-02-16T14:00:13Z</time>
      </trkpt>
      <trkpt lat="43.56628" lon="3.15207">
        <ele>363.20001220703</ele>
        <time>2011-02-16T14:00:14Z</time>
      </trkpt>
      <trkpt lat="43.56629" lon="3.15204">
        <ele>363.60000610352</ele>
        <time>2011-02-16T14:00:15Z</time>
      </trkpt>
      <trkpt lat="43.5663" lon="3.15202">
        <ele>364.60000610352</ele>
        <time>2011-02-16T14:00:16Z</time>
      </trkpt>
      <trkpt lat="43.56636" lon="3.15194">
        <ele>364.60000610352</ele>
        <time>2011-02-16T14:00:20Z</time>
      </trkpt>
      <trkpt lat="43.56642" lon="3.15187">
        <ele>365</ele>
        <time>2011-02-16T14:00:24Z</time>
      </trkpt>
      <trkpt lat="43.56643" lon="3.15185">
        <ele>365.39999389648</ele>
        <time>2011-02-16T14:00:25Z</time>
      </trkpt>
      <trkpt lat="43.56644" lon="3.15184">
        <ele>365.79998779297</ele>
        <time>2011-02-16T14:00:26Z</time>
      </trkpt>
      <trkpt lat="43.56646" lon="3.15183">
        <ele>366.20001220703</ele>
        <time>2011-02-16T14:00:27Z</time>
      </trkpt>
      <trkpt lat="43.56647" lon="3.15182">
        <ele>366.60000610352</ele>
        <time>2011-02-16T14:00:28Z</time>
      </trkpt>
      <trkpt lat="43.56656" lon="3.15173">
        <ele>366.60000610352</ele>
        <time>2011-02-16T14:00:34Z</time>
      </trkpt>
      <trkpt lat="43.56659" lon="3.15169">
        <ele>367</ele>
        <time>2011-02-16T14:00:36Z</time>
      </trkpt>
      <trkpt lat="43.5666" lon="3.15168">
        <ele>367.39999389648</ele>
        <time>2011-02-16T14:00:37Z</time>
      </trkpt>
      <trkpt lat="43.56662" lon="3.15167">
        <ele>367.79998779297</ele>
        <time>2011-02-16T14:00:38Z</time>
      </trkpt>
      <trkpt lat="43.56663" lon="3.15165">
        <ele>368.20001220703</ele>
        <time>2011-02-16T14:00:39Z</time>
      </trkpt>
      <trkpt lat="43.56664" lon="3.15163">
        <ele>368.79998779297</ele>
        <time>2011-02-16T14:00:40Z</time>
      </trkpt>
      <trkpt lat="43.56666" lon="3.15162">
        <ele>368.79998779297</ele>
        <time>2011-02-16T14:00:41Z</time>
      </trkpt>
      <trkpt lat="43.56673" lon="3.15153">
        <ele>368.79998779297</ele>
        <time>2011-02-16T14:00:47Z</time>
      </trkpt>
      <trkpt lat="43.56674" lon="3.15152">
        <ele>369.20001220703</ele>
        <time>2011-02-16T14:00:48Z</time>
      </trkpt>
      <trkpt lat="43.56675" lon="3.1515">
        <ele>369.60000610352</ele>
        <time>2011-02-16T14:00:49Z</time>
      </trkpt>
      <trkpt lat="43.56676" lon="3.15149">
        <ele>370</ele>
        <time>2011-02-16T14:00:50Z</time>
      </trkpt>
      <trkpt lat="43.56678" lon="3.15147">
        <ele>370.39999389648</ele>
        <time>2011-02-16T14:00:51Z</time>
      </trkpt>
      <trkpt lat="43.56679" lon="3.15146">
        <ele>370.79998779297</ele>
        <time>2011-02-16T14:00:52Z</time>
      </trkpt>
      <trkpt lat="43.56683" lon="3.15141">
        <ele>370.79998779297</ele>
        <time>2011-02-16T14:00:55Z</time>
      </trkpt>
      <trkpt lat="43.5669" lon="3.15133">
        <ele>371.20001220703</ele>
        <time>2011-02-16T14:01:01Z</time>
      </trkpt>
      <trkpt lat="43.56691" lon="3.15132">
        <ele>371.60000610352</ele>
        <time>2011-02-16T14:01:02Z</time>
      </trkpt>
      <trkpt lat="43.56693" lon="3.15131">
        <ele>372</ele>
        <time>2011-02-16T14:01:03Z</time>
      </trkpt>
      <trkpt lat="43.56694" lon="3.15129">
        <ele>372.39999389648</ele>
        <time>2011-02-16T14:01:04Z</time>
      </trkpt>
      <trkpt lat="43.56696" lon="3.15128">
        <ele>372.79998779297</ele>
        <time>2011-02-16T14:01:05Z</time>
      </trkpt>
      <trkpt lat="43.56702" lon="3.15119">
        <ele>372.79998779297</ele>
        <time>2011-02-16T14:01:11Z</time>
      </trkpt>
      <trkpt lat="43.56706" lon="3.15113">
        <ele>373.20001220703</ele>
        <time>2011-02-16T14:01:15Z</time>
      </trkpt>
      <trkpt lat="43.56707" lon="3.1511">
        <ele>373.60000610352</ele>
        <time>2011-02-16T14:01:16Z</time>
      </trkpt>
      <trkpt lat="43.56708" lon="3.15108">
        <ele>374</ele>
        <time>2011-02-16T14:01:17Z</time>
      </trkpt>
      <trkpt lat="43.56709" lon="3.15107">
        <ele>374.39999389648</ele>
        <time>2011-02-16T14:01:18Z</time>
      </trkpt>
      <trkpt lat="43.5671" lon="3.15106">
        <ele>374.79998779297</ele>
        <time>2011-02-16T14:01:19Z</time>
      </trkpt>
      <trkpt lat="43.56714" lon="3.15096">
        <ele>374.79998779297</ele>
        <time>2011-02-16T14:01:24Z</time>
      </trkpt>
      <trkpt lat="43.56719" lon="3.15086">
        <ele>375.20001220703</ele>
        <time>2011-02-16T14:01:30Z</time>
      </trkpt>
      <trkpt lat="43.5672" lon="3.15084">
        <ele>375.60000610352</ele>
        <time>2011-02-16T14:01:31Z</time>
      </trkpt>
      <trkpt lat="43.56721" lon="3.15082">
        <ele>376</ele>
        <time>2011-02-16T14:01:32Z</time>
      </trkpt>
      <trkpt lat="43.56722" lon="3.15081">
        <ele>376.60000610352</ele>
        <time>2011-02-16T14:01:33Z</time>
      </trkpt>
      <trkpt lat="43.56723" lon="3.15079">
        <ele>377</ele>
        <time>2011-02-16T14:01:34Z</time>
      </trkpt>
      <trkpt lat="43.56725" lon="3.15072">
        <ele>377</ele>
        <time>2011-02-16T14:01:38Z</time>
      </trkpt>
      <trkpt lat="43.5673" lon="3.15063">
        <ele>377.39999389648</ele>
        <time>2011-02-16T14:01:43Z</time>
      </trkpt>
      <trkpt lat="43.56731" lon="3.15062">
        <ele>377.79998779297</ele>
        <time>2011-02-16T14:01:44Z</time>
      </trkpt>
      <trkpt lat="43.56732" lon="3.1506">
        <ele>378.20001220703</ele>
        <time>2011-02-16T14:01:45Z</time>
      </trkpt>
      <trkpt lat="43.56733" lon="3.15058">
        <ele>378.60000610352</ele>
        <time>2011-02-16T14:01:46Z</time>
      </trkpt>
      <trkpt lat="43.56734" lon="3.15056">
        <ele>379</ele>
        <time>2011-02-16T14:01:47Z</time>
      </trkpt>
      <trkpt lat="43.56738" lon="3.15046">
        <ele>379</ele>
        <time>2011-02-16T14:01:52Z</time>
      </trkpt>
      <trkpt lat="43.5674" lon="3.1504">
        <ele>379.39999389648</ele>
        <time>2011-02-16T14:01:55Z</time>
      </trkpt>
      <trkpt lat="43.56741" lon="3.15038">
        <ele>379.79998779297</ele>
        <time>2011-02-16T14:01:56Z</time>
      </trkpt>
      <trkpt lat="43.56741" lon="3.15036">
        <ele>380.20001220703</ele>
        <time>2011-02-16T14:01:57Z</time>
      </trkpt>
      <trkpt lat="43.56742" lon="3.15035">
        <ele>380.60000610352</ele>
        <time>2011-02-16T14:01:58Z</time>
      </trkpt>
      <trkpt lat="43.56743" lon="3.15033">
        <ele>381</ele>
        <time>2011-02-16T14:01:59Z</time>
      </trkpt>
      <trkpt lat="43.56745" lon="3.15026">
        <ele>381</ele>
        <time>2011-02-16T14:02:02Z</time>
      </trkpt>
      <trkpt lat="43.56749" lon="3.15013">
        <ele>381</ele>
        <time>2011-02-16T14:02:09Z</time>
      </trkpt>
      <trkpt lat="43.5675" lon="3.15009">
        <ele>381.39999389648</ele>
        <time>2011-02-16T14:02:11Z</time>
      </trkpt>
      <trkpt lat="43.5675" lon="3.15007">
        <ele>382</ele>
        <time>2011-02-16T14:02:12Z</time>
      </trkpt>
      <trkpt lat="43.56751" lon="3.15005">
        <ele>382.39999389648</ele>
        <time>2011-02-16T14:02:13Z</time>
      </trkpt>
      <trkpt lat="43.56752" lon="3.15003">
        <ele>382.79998779297</ele>
        <time>2011-02-16T14:02:14Z</time>
      </trkpt>
      <trkpt lat="43.56752" lon="3.15001">
        <ele>383.20001220703</ele>
        <time>2011-02-16T14:02:15Z</time>
      </trkpt>
      <trkpt lat="43.56753" lon="3.14998">
        <ele>383.20001220703</ele>
        <time>2011-02-16T14:02:17Z</time>
      </trkpt>
      <trkpt lat="43.56754" lon="3.14986">
        <ele>383.20001220703</ele>
        <time>2011-02-16T14:02:23Z</time>
      </trkpt>
      <trkpt lat="43.56755" lon="3.14976">
        <ele>383.79998779297</ele>
        <time>2011-02-16T14:02:28Z</time>
      </trkpt>
      <trkpt lat="43.56755" lon="3.14973">
        <ele>384.20001220703</ele>
        <time>2011-02-16T14:02:29Z</time>
      </trkpt>
      <trkpt lat="43.56755" lon="3.14971">
        <ele>384.60000610352</ele>
        <time>2011-02-16T14:02:30Z</time>
      </trkpt>
      <trkpt lat="43.56756" lon="3.1497">
        <ele>385</ele>
        <time>2011-02-16T14:02:31Z</time>
      </trkpt>
      <trkpt lat="43.56756" lon="3.14968">
        <ele>385.60000610352</ele>
        <time>2011-02-16T14:02:32Z</time>
      </trkpt>
      <trkpt lat="43.56756" lon="3.14955">
        <ele>385.60000610352</ele>
        <time>2011-02-16T14:02:38Z</time>
      </trkpt>
      <trkpt lat="43.56756" lon="3.14946">
        <ele>386</ele>
        <time>2011-02-16T14:02:42Z</time>
      </trkpt>
      <trkpt lat="43.56757" lon="3.14944">
        <ele>386.39999389648</ele>
        <time>2011-02-16T14:02:43Z</time>
      </trkpt>
      <trkpt lat="43.56757" lon="3.14942">
        <ele>387.20001220703</ele>
        <time>2011-02-16T14:02:44Z</time>
      </trkpt>
      <trkpt lat="43.56757" lon="3.14941">
        <ele>387.60000610352</ele>
        <time>2011-02-16T14:02:45Z</time>
      </trkpt>
      <trkpt lat="43.5676" lon="3.14925">
        <ele>387.60000610352</ele>
        <time>2011-02-16T14:02:52Z</time>
      </trkpt>
      <trkpt lat="43.56762" lon="3.14916">
        <ele>388</ele>
        <time>2011-02-16T14:02:56Z</time>
      </trkpt>
      <trkpt lat="43.56762" lon="3.14914">
        <ele>388.39999389648</ele>
        <time>2011-02-16T14:02:57Z</time>
      </trkpt>
      <trkpt lat="43.56762" lon="3.14912">
        <ele>388.79998779297</ele>
        <time>2011-02-16T14:02:58Z</time>
      </trkpt>
      <trkpt lat="43.56763" lon="3.1491">
        <ele>389.39999389648</ele>
        <time>2011-02-16T14:02:59Z</time>
      </trkpt>
      <trkpt lat="43.56763" lon="3.14907">
        <ele>389.79998779297</ele>
        <time>2011-02-16T14:03:00Z</time>
      </trkpt>
      <trkpt lat="43.56768" lon="3.14888">
        <ele>389.79998779297</ele>
        <time>2011-02-16T14:03:08Z</time>
      </trkpt>
      <trkpt lat="43.56768" lon="3.14886">
        <ele>390.60000610352</ele>
        <time>2011-02-16T14:03:09Z</time>
      </trkpt>
      <trkpt lat="43.56769" lon="3.14883">
        <ele>391</ele>
        <time>2011-02-16T14:03:10Z</time>
      </trkpt>
      <trkpt lat="43.5677" lon="3.14881">
        <ele>391.39999389648</ele>
        <time>2011-02-16T14:03:11Z</time>
      </trkpt>
      <trkpt lat="43.5677" lon="3.14878">
        <ele>391.79998779297</ele>
        <time>2011-02-16T14:03:12Z</time>
      </trkpt>
      <trkpt lat="43.56772" lon="3.14871">
        <ele>391.79998779297</ele>
        <time>2011-02-16T14:03:15Z</time>
      </trkpt>
      <trkpt lat="43.56773" lon="3.14856">
        <ele>391.79998779297</ele>
        <time>2011-02-16T14:03:21Z</time>
      </trkpt>
      <trkpt lat="43.56772" lon="3.14854">
        <ele>392.20001220703</ele>
        <time>2011-02-16T14:03:22Z</time>
      </trkpt>
      <trkpt lat="43.56772" lon="3.14851">
        <ele>392.60000610352</ele>
        <time>2011-02-16T14:03:23Z</time>
      </trkpt>
      <trkpt lat="43.56772" lon="3.14849">
        <ele>393.20001220703</ele>
        <time>2011-02-16T14:03:24Z</time>
      </trkpt>
      <trkpt lat="43.56773" lon="3.14847">
        <ele>393.60000610352</ele>
        <time>2011-02-16T14:03:25Z</time>
      </trkpt>
      <trkpt lat="43.56773" lon="3.14845">
        <ele>394</ele>
        <time>2011-02-16T14:03:26Z</time>
      </trkpt>
      <trkpt lat="43.56775" lon="3.14841">
        <ele>394</ele>
        <time>2011-02-16T14:03:28Z</time>
      </trkpt>
      <trkpt lat="43.56779" lon="3.14825">
        <ele>394.39999389648</ele>
        <time>2011-02-16T14:03:34Z</time>
      </trkpt>
      <trkpt lat="43.56779" lon="3.14823">
        <ele>394.79998779297</ele>
        <time>2011-02-16T14:03:35Z</time>
      </trkpt>
      <trkpt lat="43.56778" lon="3.1482">
        <ele>395.20001220703</ele>
        <time>2011-02-16T14:03:36Z</time>
      </trkpt>
      <trkpt lat="43.56779" lon="3.14818">
        <ele>395.79998779297</ele>
        <time>2011-02-16T14:03:37Z</time>
      </trkpt>
      <trkpt lat="43.56779" lon="3.14815">
        <ele>396.20001220703</ele>
        <time>2011-02-16T14:03:38Z</time>
      </trkpt>
      <trkpt lat="43.56779" lon="3.14811">
        <ele>396.20001220703</ele>
        <time>2011-02-16T14:03:40Z</time>
      </trkpt>
      <trkpt lat="43.56783" lon="3.14795">
        <ele>396.60000610352</ele>
        <time>2011-02-16T14:03:46Z</time>
      </trkpt>
      <trkpt lat="43.56783" lon="3.14792">
        <ele>397</ele>
        <time>2011-02-16T14:03:47Z</time>
      </trkpt>
      <trkpt lat="43.56782" lon="3.14789">
        <ele>397.39999389648</ele>
        <time>2011-02-16T14:03:48Z</time>
      </trkpt>
      <trkpt lat="43.56782" lon="3.14787">
        <ele>397.79998779297</ele>
        <time>2011-02-16T14:03:49Z</time>
      </trkpt>
      <trkpt lat="43.56782" lon="3.14785">
        <ele>398.20001220703</ele>
        <time>2011-02-16T14:03:50Z</time>
      </trkpt>
      <trkpt lat="43.5678" lon="3.14772">
        <ele>398.20001220703</ele>
        <time>2011-02-16T14:03:55Z</time>
      </trkpt>
      <trkpt lat="43.56781" lon="3.14762">
        <ele>398.60000610352</ele>
        <time>2011-02-16T14:03:59Z</time>
      </trkpt>
      <trkpt lat="43.56781" lon="3.1476">
        <ele>399</ele>
        <time>2011-02-16T14:04:00Z</time>
      </trkpt>
      <trkpt lat="43.56781" lon="3.14759">
        <ele>399.39999389648</ele>
        <time>2011-02-16T14:04:01Z</time>
      </trkpt>
      <trkpt lat="43.56783" lon="3.14758">
        <ele>399.79998779297</ele>
        <time>2011-02-16T14:04:02Z</time>
      </trkpt>
      <trkpt lat="43.56784" lon="3.14759">
        <ele>400.39999389648</ele>
        <time>2011-02-16T14:04:03Z</time>
      </trkpt>
      <trkpt lat="43.56787" lon="3.14762">
        <ele>400.39999389648</ele>
        <time>2011-02-16T14:04:05Z</time>
      </trkpt>
      <trkpt lat="43.56789" lon="3.14765">
        <ele>400.39999389648</ele>
        <time>2011-02-16T14:04:06Z</time>
      </trkpt>
      <trkpt lat="43.56791" lon="3.14772">
        <ele>400.79998779297</ele>
        <time>2011-02-16T14:04:08Z</time>
      </trkpt>
      <trkpt lat="43.56792" lon="3.14775">
        <ele>401.20001220703</ele>
        <time>2011-02-16T14:04:09Z</time>
      </trkpt>
      <trkpt lat="43.56793" lon="3.14778">
        <ele>401.60000610352</ele>
        <time>2011-02-16T14:04:10Z</time>
      </trkpt>
      <trkpt lat="43.56794" lon="3.14782">
        <ele>402</ele>
        <time>2011-02-16T14:04:11Z</time>
      </trkpt>
      <trkpt lat="43.56794" lon="3.14785">
        <ele>402.39999389648</ele>
        <time>2011-02-16T14:04:12Z</time>
      </trkpt>
      <trkpt lat="43.56794" lon="3.14801">
        <ele>402.39999389648</ele>
        <time>2011-02-16T14:04:16Z</time>
      </trkpt>
      <trkpt lat="43.56793" lon="3.14819">
        <ele>402.39999389648</ele>
        <time>2011-02-16T14:04:22Z</time>
      </trkpt>
      <trkpt lat="43.56794" lon="3.14839">
        <ele>402.39999389648</ele>
        <time>2011-02-16T14:04:30Z</time>
      </trkpt>
      <trkpt lat="43.56793" lon="3.14854">
        <ele>402.39999389648</ele>
        <time>2011-02-16T14:04:36Z</time>
      </trkpt>
      <trkpt lat="43.56792" lon="3.14856">
        <ele>402.79998779297</ele>
        <time>2011-02-16T14:04:37Z</time>
      </trkpt>
      <trkpt lat="43.56793" lon="3.14859">
        <ele>403.20001220703</ele>
        <time>2011-02-16T14:04:38Z</time>
      </trkpt>
      <trkpt lat="43.56793" lon="3.14861">
        <ele>403.60000610352</ele>
        <time>2011-02-16T14:04:39Z</time>
      </trkpt>
      <trkpt lat="43.56792" lon="3.14864">
        <ele>404</ele>
        <time>2011-02-16T14:04:40Z</time>
      </trkpt>
      <trkpt lat="43.56792" lon="3.14868">
        <ele>404.39999389648</ele>
        <time>2011-02-16T14:04:41Z</time>
      </trkpt>
      <trkpt lat="43.56792" lon="3.14874">
        <ele>404.39999389648</ele>
        <time>2011-02-16T14:04:43Z</time>
      </trkpt>
      <trkpt lat="43.56794" lon="3.14886">
        <ele>405.20001220703</ele>
        <time>2011-02-16T14:04:47Z</time>
      </trkpt>
      <trkpt lat="43.56794" lon="3.14889">
        <ele>405.60000610352</ele>
        <time>2011-02-16T14:04:48Z</time>
      </trkpt>
      <trkpt lat="43.56795" lon="3.14893">
        <ele>406</ele>
        <time>2011-02-16T14:04:49Z</time>
      </trkpt>
      <trkpt lat="43.56796" lon="3.14896">
        <ele>406.39999389648</ele>
        <time>2011-02-16T14:04:50Z</time>
      </trkpt>
      <trkpt lat="43.56796" lon="3.14904">
        <ele>407</ele>
        <time>2011-02-16T14:04:53Z</time>
      </trkpt>
      <trkpt lat="43.56796" lon="3.14907">
        <ele>407.39999389648</ele>
        <time>2011-02-16T14:04:54Z</time>
      </trkpt>
      <trkpt lat="43.56796" lon="3.1491">
        <ele>407.79998779297</ele>
        <time>2011-02-16T14:04:55Z</time>
      </trkpt>
      <trkpt lat="43.56795" lon="3.14913">
        <ele>408.20001220703</ele>
        <time>2011-02-16T14:04:56Z</time>
      </trkpt>
      <trkpt lat="43.56795" lon="3.14916">
        <ele>408.79998779297</ele>
        <time>2011-02-16T14:04:57Z</time>
      </trkpt>
      <trkpt lat="43.56796" lon="3.14924">
        <ele>409.20001220703</ele>
        <time>2011-02-16T14:05:00Z</time>
      </trkpt>
      <trkpt lat="43.56796" lon="3.14927">
        <ele>409.60000610352</ele>
        <time>2011-02-16T14:05:01Z</time>
      </trkpt>
      <trkpt lat="43.56796" lon="3.1493">
        <ele>410</ele>
        <time>2011-02-16T14:05:02Z</time>
      </trkpt>
      <trkpt lat="43.56797" lon="3.14933">
        <ele>410.60000610352</ele>
        <time>2011-02-16T14:05:03Z</time>
      </trkpt>
      <trkpt lat="43.56797" lon="3.14936">
        <ele>411</ele>
        <time>2011-02-16T14:05:04Z</time>
      </trkpt>
      <trkpt lat="43.56798" lon="3.14945">
        <ele>411.39999389648</ele>
        <time>2011-02-16T14:05:07Z</time>
      </trkpt>
      <trkpt lat="43.56799" lon="3.14948">
        <ele>411.79998779297</ele>
        <time>2011-02-16T14:05:08Z</time>
      </trkpt>
      <trkpt lat="43.56799" lon="3.14951">
        <ele>412.20001220703</ele>
        <time>2011-02-16T14:05:09Z</time>
      </trkpt>
      <trkpt lat="43.568" lon="3.14954">
        <ele>412.60000610352</ele>
        <time>2011-02-16T14:05:10Z</time>
      </trkpt>
      <trkpt lat="43.56801" lon="3.14955">
        <ele>413</ele>
        <time>2011-02-16T14:05:11Z</time>
      </trkpt>
      <trkpt lat="43.56805" lon="3.14966">
        <ele>413.60000610352</ele>
        <time>2011-02-16T14:05:16Z</time>
      </trkpt>
      <trkpt lat="43.56807" lon="3.14968">
        <ele>414</ele>
        <time>2011-02-16T14:05:17Z</time>
      </trkpt>
      <trkpt lat="43.56807" lon="3.1497">
        <ele>414.39999389648</ele>
        <time>2011-02-16T14:05:18Z</time>
      </trkpt>
      <trkpt lat="43.56809" lon="3.14972">
        <ele>414.79998779297</ele>
        <time>2011-02-16T14:05:19Z</time>
      </trkpt>
      <trkpt lat="43.5681" lon="3.14973">
        <ele>415.20001220703</ele>
        <time>2011-02-16T14:05:20Z</time>
      </trkpt>
      <trkpt lat="43.56812" lon="3.14976">
        <ele>415.20001220703</ele>
        <time>2011-02-16T14:05:22Z</time>
      </trkpt>
      <trkpt lat="43.56818" lon="3.14987">
        <ele>415.20001220703</ele>
        <time>2011-02-16T14:05:28Z</time>
      </trkpt>
      <trkpt lat="43.56819" lon="3.1499">
        <ele>415.20001220703</ele>
        <time>2011-02-16T14:05:29Z</time>
      </trkpt>
      <trkpt lat="43.5682" lon="3.14996">
        <ele>415.60000610352</ele>
        <time>2011-02-16T14:05:32Z</time>
      </trkpt>
      <trkpt lat="43.5682" lon="3.14998">
        <ele>416</ele>
        <time>2011-02-16T14:05:33Z</time>
      </trkpt>
      <trkpt lat="43.5682" lon="3.15">
        <ele>416.60000610352</ele>
        <time>2011-02-16T14:05:34Z</time>
      </trkpt>
      <trkpt lat="43.5682" lon="3.15003">
        <ele>417</ele>
        <time>2011-02-16T14:05:35Z</time>
      </trkpt>
      <trkpt lat="43.5682" lon="3.15005">
        <ele>417.39999389648</ele>
        <time>2011-02-16T14:05:36Z</time>
      </trkpt>
      <trkpt lat="43.56817" lon="3.15019">
        <ele>417.79998779297</ele>
        <time>2011-02-16T14:05:42Z</time>
      </trkpt>
      <trkpt lat="43.56816" lon="3.15021">
        <ele>418.20001220703</ele>
        <time>2011-02-16T14:05:43Z</time>
      </trkpt>
      <trkpt lat="43.56815" lon="3.15023">
        <ele>418.60000610352</ele>
        <time>2011-02-16T14:05:44Z</time>
      </trkpt>
      <trkpt lat="43.56815" lon="3.15025">
        <ele>419</ele>
        <time>2011-02-16T14:05:45Z</time>
      </trkpt>
      <trkpt lat="43.56813" lon="3.15027">
        <ele>419.39999389648</ele>
        <time>2011-02-16T14:05:46Z</time>
      </trkpt>
      <trkpt lat="43.5681" lon="3.15038">
        <ele>419.39999389648</ele>
        <time>2011-02-16T14:05:51Z</time>
      </trkpt>
      <trkpt lat="43.56809" lon="3.1504">
        <ele>419.79998779297</ele>
        <time>2011-02-16T14:05:52Z</time>
      </trkpt>
      <trkpt lat="43.56809" lon="3.15043">
        <ele>420.20001220703</ele>
        <time>2011-02-16T14:05:53Z</time>
      </trkpt>
      <trkpt lat="43.56808" lon="3.15045">
        <ele>420.60000610352</ele>
        <time>2011-02-16T14:05:54Z</time>
      </trkpt>
      <trkpt lat="43.56808" lon="3.15048">
        <ele>421</ele>
        <time>2011-02-16T14:05:55Z</time>
      </trkpt>
      <trkpt lat="43.56807" lon="3.15051">
        <ele>421.39999389648</ele>
        <time>2011-02-16T14:05:56Z</time>
      </trkpt>
      <trkpt lat="43.56807" lon="3.15054">
        <ele>421.39999389648</ele>
        <time>2011-02-16T14:05:57Z</time>
      </trkpt>
      <trkpt lat="43.56804" lon="3.15069">
        <ele>421.79998779297</ele>
        <time>2011-02-16T14:06:03Z</time>
      </trkpt>
      <trkpt lat="43.56804" lon="3.15072">
        <ele>422.20001220703</ele>
        <time>2011-02-16T14:06:04Z</time>
      </trkpt>
      <trkpt lat="43.56804" lon="3.15074">
        <ele>422.79998779297</ele>
        <time>2011-02-16T14:06:05Z</time>
      </trkpt>
      <trkpt lat="43.56804" lon="3.15077">
        <ele>423.20001220703</ele>
        <time>2011-02-16T14:06:06Z</time>
      </trkpt>
      <trkpt lat="43.56804" lon="3.15079">
        <ele>423.60000610352</ele>
        <time>2011-02-16T14:06:07Z</time>
      </trkpt>
      <trkpt lat="43.56804" lon="3.15096">
        <ele>423.60000610352</ele>
        <time>2011-02-16T14:06:14Z</time>
      </trkpt>
      <trkpt lat="43.56804" lon="3.15098">
        <ele>424</ele>
        <time>2011-02-16T14:06:15Z</time>
      </trkpt>
      <trkpt lat="43.56804" lon="3.151">
        <ele>424.39999389648</ele>
        <time>2011-02-16T14:06:16Z</time>
      </trkpt>
      <trkpt lat="43.56805" lon="3.15103">
        <ele>425</ele>
        <time>2011-02-16T14:06:17Z</time>
      </trkpt>
      <trkpt lat="43.56805" lon="3.15106">
        <ele>425.39999389648</ele>
        <time>2011-02-16T14:06:18Z</time>
      </trkpt>
      <trkpt lat="43.56807" lon="3.15109">
        <ele>425.79998779297</ele>
        <time>2011-02-16T14:06:19Z</time>
      </trkpt>
      <trkpt lat="43.56816" lon="3.15119">
        <ele>425.79998779297</ele>
        <time>2011-02-16T14:06:25Z</time>
      </trkpt>
      <trkpt lat="43.56828" lon="3.15122">
        <ele>426.20001220703</ele>
        <time>2011-02-16T14:06:30Z</time>
      </trkpt>
      <trkpt lat="43.5683" lon="3.15122">
        <ele>426.60000610352</ele>
        <time>2011-02-16T14:06:31Z</time>
      </trkpt>
      <trkpt lat="43.56832" lon="3.15122">
        <ele>427</ele>
        <time>2011-02-16T14:06:32Z</time>
      </trkpt>
      <trkpt lat="43.56834" lon="3.15122">
        <ele>427.39999389648</ele>
        <time>2011-02-16T14:06:33Z</time>
      </trkpt>
      <trkpt lat="43.56836" lon="3.15123">
        <ele>428</ele>
        <time>2011-02-16T14:06:34Z</time>
      </trkpt>
      <trkpt lat="43.56843" lon="3.15124">
        <ele>428</ele>
        <time>2011-02-16T14:06:38Z</time>
      </trkpt>
      <trkpt lat="43.56858" lon="3.15125">
        <ele>428</ele>
        <time>2011-02-16T14:06:46Z</time>
      </trkpt>
      <trkpt lat="43.56862" lon="3.15126">
        <ele>428.39999389648</ele>
        <time>2011-02-16T14:06:48Z</time>
      </trkpt>
      <trkpt lat="43.56864" lon="3.15126">
        <ele>428.79998779297</ele>
        <time>2011-02-16T14:06:49Z</time>
      </trkpt>
      <trkpt lat="43.56866" lon="3.15127">
        <ele>429.20001220703</ele>
        <time>2011-02-16T14:06:50Z</time>
      </trkpt>
      <trkpt lat="43.56869" lon="3.15127">
        <ele>430</ele>
        <time>2011-02-16T14:06:51Z</time>
      </trkpt>
      <trkpt lat="43.56872" lon="3.15128">
        <ele>430</ele>
        <time>2011-02-16T14:06:52Z</time>
      </trkpt>
      <trkpt lat="43.56885" lon="3.15135">
        <ele>430</ele>
        <time>2011-02-16T14:06:59Z</time>
      </trkpt>
      <trkpt lat="43.56897" lon="3.15141">
        <ele>430.39999389648</ele>
        <time>2011-02-16T14:07:05Z</time>
      </trkpt>
      <trkpt lat="43.56898" lon="3.15142">
        <ele>430.79998779297</ele>
        <time>2011-02-16T14:07:06Z</time>
      </trkpt>
      <trkpt lat="43.569" lon="3.15144">
        <ele>431.20001220703</ele>
        <time>2011-02-16T14:07:07Z</time>
      </trkpt>
      <trkpt lat="43.56901" lon="3.15146">
        <ele>431.60000610352</ele>
        <time>2011-02-16T14:07:08Z</time>
      </trkpt>
      <trkpt lat="43.56902" lon="3.15148">
        <ele>432</ele>
        <time>2011-02-16T14:07:09Z</time>
      </trkpt>
      <trkpt lat="43.56906" lon="3.15158">
        <ele>432</ele>
        <time>2011-02-16T14:07:12Z</time>
      </trkpt>
      <trkpt lat="43.56908" lon="3.15178">
        <ele>432</ele>
        <time>2011-02-16T14:07:17Z</time>
      </trkpt>
      <trkpt lat="43.56906" lon="3.15196">
        <ele>432</ele>
        <time>2011-02-16T14:07:22Z</time>
      </trkpt>
      <trkpt lat="43.56903" lon="3.15216">
        <ele>432</ele>
        <time>2011-02-16T14:07:28Z</time>
      </trkpt>
      <trkpt lat="43.56902" lon="3.15223">
        <ele>432</ele>
        <time>2011-02-16T14:07:30Z</time>
      </trkpt>
      <trkpt lat="43.56902" lon="3.15245">
        <ele>432</ele>
        <time>2011-02-16T14:07:37Z</time>
      </trkpt>
      <trkpt lat="43.56903" lon="3.15256">
        <ele>432.39999389648</ele>
        <time>2011-02-16T14:07:40Z</time>
      </trkpt>
      <trkpt lat="43.56903" lon="3.15259">
        <ele>432.79998779297</ele>
        <time>2011-02-16T14:07:41Z</time>
      </trkpt>
      <trkpt lat="43.56903" lon="3.15263">
        <ele>433.39999389648</ele>
        <time>2011-02-16T14:07:42Z</time>
      </trkpt>
      <trkpt lat="43.56903" lon="3.15266">
        <ele>433.79998779297</ele>
        <time>2011-02-16T14:07:43Z</time>
      </trkpt>
      <trkpt lat="43.56903" lon="3.15269">
        <ele>434.20001220703</ele>
        <time>2011-02-16T14:07:44Z</time>
      </trkpt>
      <trkpt lat="43.56903" lon="3.15272">
        <ele>434.20001220703</ele>
        <time>2011-02-16T14:07:45Z</time>
      </trkpt>
      <trkpt lat="43.56905" lon="3.15294">
        <ele>435</ele>
        <time>2011-02-16T14:07:53Z</time>
      </trkpt>
      <trkpt lat="43.56905" lon="3.15296">
        <ele>435.39999389648</ele>
        <time>2011-02-16T14:07:54Z</time>
      </trkpt>
      <trkpt lat="43.56905" lon="3.153">
        <ele>436</ele>
        <time>2011-02-16T14:07:55Z</time>
      </trkpt>
      <trkpt lat="43.56905" lon="3.15303">
        <ele>436.39999389648</ele>
        <time>2011-02-16T14:07:56Z</time>
      </trkpt>
      <trkpt lat="43.56905" lon="3.15317">
        <ele>436.39999389648</ele>
        <time>2011-02-16T14:08:00Z</time>
      </trkpt>
      <trkpt lat="43.56906" lon="3.15339">
        <ele>436.39999389648</ele>
        <time>2011-02-16T14:08:07Z</time>
      </trkpt>
      <trkpt lat="43.56908" lon="3.15352">
        <ele>436.79998779297</ele>
        <time>2011-02-16T14:08:12Z</time>
      </trkpt>
      <trkpt lat="43.56909" lon="3.15355">
        <ele>437.20001220703</ele>
        <time>2011-02-16T14:08:13Z</time>
      </trkpt>
      <trkpt lat="43.5691" lon="3.15358">
        <ele>437.60000610352</ele>
        <time>2011-02-16T14:08:14Z</time>
      </trkpt>
      <trkpt lat="43.56911" lon="3.1536">
        <ele>438</ele>
        <time>2011-02-16T14:08:15Z</time>
      </trkpt>
      <trkpt lat="43.56912" lon="3.15363">
        <ele>438.39999389648</ele>
        <time>2011-02-16T14:08:16Z</time>
      </trkpt>
      <trkpt lat="43.56915" lon="3.15369">
        <ele>438.39999389648</ele>
        <time>2011-02-16T14:08:19Z</time>
      </trkpt>
      <trkpt lat="43.56921" lon="3.15381">
        <ele>438.39999389648</ele>
        <time>2011-02-16T14:08:24Z</time>
      </trkpt>
      <trkpt lat="43.56924" lon="3.15385">
        <ele>438.79998779297</ele>
        <time>2011-02-16T14:08:26Z</time>
      </trkpt>
      <trkpt lat="43.56926" lon="3.15387">
        <ele>439.20001220703</ele>
        <time>2011-02-16T14:08:27Z</time>
      </trkpt>
      <trkpt lat="43.56927" lon="3.15389">
        <ele>439.60000610352</ele>
        <time>2011-02-16T14:08:28Z</time>
      </trkpt>
      <trkpt lat="43.56928" lon="3.15391">
        <ele>440</ele>
        <time>2011-02-16T14:08:29Z</time>
      </trkpt>
      <trkpt lat="43.56929" lon="3.15392">
        <ele>440.39999389648</ele>
        <time>2011-02-16T14:08:30Z</time>
      </trkpt>
      <trkpt lat="43.56931" lon="3.15393">
        <ele>440.39999389648</ele>
        <time>2011-02-16T14:08:31Z</time>
      </trkpt>
      <trkpt lat="43.56938" lon="3.15403">
        <ele>440.39999389648</ele>
        <time>2011-02-16T14:08:37Z</time>
      </trkpt>
      <trkpt lat="43.56941" lon="3.15409">
        <ele>440.79998779297</ele>
        <time>2011-02-16T14:08:40Z</time>
      </trkpt>
      <trkpt lat="43.56942" lon="3.15411">
        <ele>441.39999389648</ele>
        <time>2011-02-16T14:08:41Z</time>
      </trkpt>
      <trkpt lat="43.56942" lon="3.15413">
        <ele>442.20001220703</ele>
        <time>2011-02-16T14:08:42Z</time>
      </trkpt>
      <trkpt lat="43.56944" lon="3.15414">
        <ele>442.60000610352</ele>
        <time>2011-02-16T14:08:43Z</time>
      </trkpt>
      <trkpt lat="43.56949" lon="3.15424">
        <ele>442.60000610352</ele>
        <time>2011-02-16T14:08:48Z</time>
      </trkpt>
      <trkpt lat="43.56955" lon="3.15435">
        <ele>443</ele>
        <time>2011-02-16T14:08:54Z</time>
      </trkpt>
      <trkpt lat="43.56956" lon="3.15437">
        <ele>443.39999389648</ele>
        <time>2011-02-16T14:08:55Z</time>
      </trkpt>
      <trkpt lat="43.56956" lon="3.15439">
        <ele>443.79998779297</ele>
        <time>2011-02-16T14:08:56Z</time>
      </trkpt>
      <trkpt lat="43.56957" lon="3.15441">
        <ele>444.20001220703</ele>
        <time>2011-02-16T14:08:57Z</time>
      </trkpt>
      <trkpt lat="43.56958" lon="3.15443">
        <ele>444.60000610352</ele>
        <time>2011-02-16T14:08:58Z</time>
      </trkpt>
      <trkpt lat="43.56961" lon="3.15452">
        <ele>444.60000610352</ele>
        <time>2011-02-16T14:09:02Z</time>
      </trkpt>
      <trkpt lat="43.56962" lon="3.15455">
        <ele>445</ele>
        <time>2011-02-16T14:09:04Z</time>
      </trkpt>
      <trkpt lat="43.56963" lon="3.15457">
        <ele>445.39999389648</ele>
        <time>2011-02-16T14:09:05Z</time>
      </trkpt>
      <trkpt lat="43.56964" lon="3.15459">
        <ele>446</ele>
        <time>2011-02-16T14:09:06Z</time>
      </trkpt>
      <trkpt lat="43.56964" lon="3.15462">
        <ele>446.79998779297</ele>
        <time>2011-02-16T14:09:07Z</time>
      </trkpt>
      <trkpt lat="43.56965" lon="3.15466">
        <ele>446.79998779297</ele>
        <time>2011-02-16T14:09:09Z</time>
      </trkpt>
      <trkpt lat="43.56968" lon="3.15485">
        <ele>447.20001220703</ele>
        <time>2011-02-16T14:09:17Z</time>
      </trkpt>
      <trkpt lat="43.56968" lon="3.15486">
        <ele>447.60000610352</ele>
        <time>2011-02-16T14:09:18Z</time>
      </trkpt>
      <trkpt lat="43.56968" lon="3.15488">
        <ele>448</ele>
        <time>2011-02-16T14:09:19Z</time>
      </trkpt>
      <trkpt lat="43.56968" lon="3.1549">
        <ele>448.39999389648</ele>
        <time>2011-02-16T14:09:20Z</time>
      </trkpt>
      <trkpt lat="43.56968" lon="3.15492">
        <ele>448.79998779297</ele>
        <time>2011-02-16T14:09:21Z</time>
      </trkpt>
      <trkpt lat="43.56968" lon="3.15498">
        <ele>448.79998779297</ele>
        <time>2011-02-16T14:09:24Z</time>
      </trkpt>
      <trkpt lat="43.56966" lon="3.15513">
        <ele>449.20001220703</ele>
        <time>2011-02-16T14:09:31Z</time>
      </trkpt>
      <trkpt lat="43.56966" lon="3.15515">
        <ele>450</ele>
        <time>2011-02-16T14:09:32Z</time>
      </trkpt>
      <trkpt lat="43.56966" lon="3.15517">
        <ele>450.39999389648</ele>
        <time>2011-02-16T14:09:33Z</time>
      </trkpt>
      <trkpt lat="43.56965" lon="3.15519">
        <ele>450.79998779297</ele>
        <time>2011-02-16T14:09:34Z</time>
      </trkpt>
      <trkpt lat="43.56962" lon="3.15532">
        <ele>450.79998779297</ele>
        <time>2011-02-16T14:09:40Z</time>
      </trkpt>
      <trkpt lat="43.56956" lon="3.15548">
        <ele>451.20001220703</ele>
        <time>2011-02-16T14:09:48Z</time>
      </trkpt>
      <trkpt lat="43.56956" lon="3.15549">
        <ele>451.60000610352</ele>
        <time>2011-02-16T14:09:49Z</time>
      </trkpt>
      <trkpt lat="43.56955" lon="3.15551">
        <ele>452</ele>
        <time>2011-02-16T14:09:50Z</time>
      </trkpt>
      <trkpt lat="43.56954" lon="3.15553">
        <ele>452.39999389648</ele>
        <time>2011-02-16T14:09:51Z</time>
      </trkpt>
      <trkpt lat="43.56953" lon="3.15555">
        <ele>452.79998779297</ele>
        <time>2011-02-16T14:09:52Z</time>
      </trkpt>
      <trkpt lat="43.56947" lon="3.15564">
        <ele>452.79998779297</ele>
        <time>2011-02-16T14:09:57Z</time>
      </trkpt>
      <trkpt lat="43.56946" lon="3.15566">
        <ele>453.20001220703</ele>
        <time>2011-02-16T14:09:58Z</time>
      </trkpt>
      <trkpt lat="43.56945" lon="3.15567">
        <ele>453.60000610352</ele>
        <time>2011-02-16T14:09:59Z</time>
      </trkpt>
      <trkpt lat="43.56944" lon="3.15568">
        <ele>454</ele>
        <time>2011-02-16T14:10:00Z</time>
      </trkpt>
      <trkpt lat="43.56944" lon="3.15569">
        <ele>454.39999389648</ele>
        <time>2011-02-16T14:10:01Z</time>
      </trkpt>
      <trkpt lat="43.56942" lon="3.15571">
        <ele>454.79998779297</ele>
        <time>2011-02-16T14:10:02Z</time>
      </trkpt>
      <trkpt lat="43.56941" lon="3.15573">
        <ele>454.79998779297</ele>
        <time>2011-02-16T14:10:03Z</time>
      </trkpt>
      <trkpt lat="43.5693" lon="3.15584">
        <ele>454.79998779297</ele>
        <time>2011-02-16T14:10:10Z</time>
      </trkpt>
      <trkpt lat="43.56919" lon="3.15595">
        <ele>454.79998779297</ele>
        <time>2011-02-16T14:10:17Z</time>
      </trkpt>
      <trkpt lat="43.56918" lon="3.15596">
        <ele>455.20001220703</ele>
        <time>2011-02-16T14:10:18Z</time>
      </trkpt>
      <trkpt lat="43.56916" lon="3.15597">
        <ele>455.60000610352</ele>
        <time>2011-02-16T14:10:19Z</time>
      </trkpt>
      <trkpt lat="43.56915" lon="3.15599">
        <ele>456.20001220703</ele>
        <time>2011-02-16T14:10:20Z</time>
      </trkpt>
      <trkpt lat="43.56913" lon="3.156">
        <ele>457</ele>
        <time>2011-02-16T14:10:21Z</time>
      </trkpt>
      <trkpt lat="43.5691" lon="3.15602">
        <ele>457</ele>
        <time>2011-02-16T14:10:23Z</time>
      </trkpt>
      <trkpt lat="43.56898" lon="3.1561">
        <ele>457.39999389648</ele>
        <time>2011-02-16T14:10:30Z</time>
      </trkpt>
      <trkpt lat="43.56896" lon="3.15611">
        <ele>457.79998779297</ele>
        <time>2011-02-16T14:10:31Z</time>
      </trkpt>
      <trkpt lat="43.56895" lon="3.15612">
        <ele>458.20001220703</ele>
        <time>2011-02-16T14:10:32Z</time>
      </trkpt>
      <trkpt lat="43.56893" lon="3.15613">
        <ele>458.60000610352</ele>
        <time>2011-02-16T14:10:33Z</time>
      </trkpt>
      <trkpt lat="43.56891" lon="3.15614">
        <ele>459.20001220703</ele>
        <time>2011-02-16T14:10:34Z</time>
      </trkpt>
      <trkpt lat="43.56885" lon="3.15617">
        <ele>459.20001220703</ele>
        <time>2011-02-16T14:10:37Z</time>
      </trkpt>
      <trkpt lat="43.56874" lon="3.15626">
        <ele>459.60000610352</ele>
        <time>2011-02-16T14:10:43Z</time>
      </trkpt>
      <trkpt lat="43.56872" lon="3.15627">
        <ele>460</ele>
        <time>2011-02-16T14:10:44Z</time>
      </trkpt>
      <trkpt lat="43.56871" lon="3.15628">
        <ele>460.39999389648</ele>
        <time>2011-02-16T14:10:45Z</time>
      </trkpt>
      <trkpt lat="43.5687" lon="3.15629">
        <ele>461.20001220703</ele>
        <time>2011-02-16T14:10:46Z</time>
      </trkpt>
      <trkpt lat="43.56865" lon="3.15632">
        <ele>461.20001220703</ele>
        <time>2011-02-16T14:10:49Z</time>
      </trkpt>
      <trkpt lat="43.56857" lon="3.15642">
        <ele>461.60000610352</ele>
        <time>2011-02-16T14:10:55Z</time>
      </trkpt>
      <trkpt lat="43.56855" lon="3.15644">
        <ele>462</ele>
        <time>2011-02-16T14:10:56Z</time>
      </trkpt>
      <trkpt lat="43.56853" lon="3.15646">
        <ele>462.39999389648</ele>
        <time>2011-02-16T14:10:57Z</time>
      </trkpt>
      <trkpt lat="43.56852" lon="3.15647">
        <ele>462.79998779297</ele>
        <time>2011-02-16T14:10:58Z</time>
      </trkpt>
      <trkpt lat="43.56851" lon="3.15649">
        <ele>463.20001220703</ele>
        <time>2011-02-16T14:10:59Z</time>
      </trkpt>
      <trkpt lat="43.56847" lon="3.15656">
        <ele>463.20001220703</ele>
        <time>2011-02-16T14:11:03Z</time>
      </trkpt>
      <trkpt lat="43.56843" lon="3.15669">
        <ele>463.20001220703</ele>
        <time>2011-02-16T14:11:09Z</time>
      </trkpt>
      <trkpt lat="43.56839" lon="3.15683">
        <ele>463.60000610352</ele>
        <time>2011-02-16T14:11:15Z</time>
      </trkpt>
      <trkpt lat="43.56838" lon="3.15686">
        <ele>464</ele>
        <time>2011-02-16T14:11:16Z</time>
      </trkpt>
      <trkpt lat="43.56838" lon="3.15688">
        <ele>464.60000610352</ele>
        <time>2011-02-16T14:11:17Z</time>
      </trkpt>
      <trkpt lat="43.56837" lon="3.1569">
        <ele>465</ele>
        <time>2011-02-16T14:11:18Z</time>
      </trkpt>
      <trkpt lat="43.56837" lon="3.15692">
        <ele>465.39999389648</ele>
        <time>2011-02-16T14:11:19Z</time>
      </trkpt>
      <trkpt lat="43.56835" lon="3.15704">
        <ele>465.39999389648</ele>
        <time>2011-02-16T14:11:24Z</time>
      </trkpt>
      <trkpt lat="43.56833" lon="3.15721">
        <ele>465.39999389648</ele>
        <time>2011-02-16T14:11:31Z</time>
      </trkpt>
      <trkpt lat="43.56831" lon="3.15731">
        <ele>466.20001220703</ele>
        <time>2011-02-16T14:11:35Z</time>
      </trkpt>
      <trkpt lat="43.56831" lon="3.15733">
        <ele>466.60000610352</ele>
        <time>2011-02-16T14:11:36Z</time>
      </trkpt>
      <trkpt lat="43.56831" lon="3.15735">
        <ele>467</ele>
        <time>2011-02-16T14:11:37Z</time>
      </trkpt>
      <trkpt lat="43.5683" lon="3.15738">
        <ele>467.39999389648</ele>
        <time>2011-02-16T14:11:38Z</time>
      </trkpt>
      <trkpt lat="43.5683" lon="3.15743">
        <ele>467.39999389648</ele>
        <time>2011-02-16T14:11:40Z</time>
      </trkpt>
      <trkpt lat="43.56828" lon="3.15758">
        <ele>467.79998779297</ele>
        <time>2011-02-16T14:11:47Z</time>
      </trkpt>
      <trkpt lat="43.56828" lon="3.15761">
        <ele>468.20001220703</ele>
        <time>2011-02-16T14:11:48Z</time>
      </trkpt>
      <trkpt lat="43.56828" lon="3.15764">
        <ele>468.60000610352</ele>
        <time>2011-02-16T14:11:49Z</time>
      </trkpt>
      <trkpt lat="43.56828" lon="3.15767">
        <ele>469.20001220703</ele>
        <time>2011-02-16T14:11:50Z</time>
      </trkpt>
      <trkpt lat="43.56828" lon="3.1577">
        <ele>469.60000610352</ele>
        <time>2011-02-16T14:11:51Z</time>
      </trkpt>
      <trkpt lat="43.56828" lon="3.15776">
        <ele>469.60000610352</ele>
        <time>2011-02-16T14:11:53Z</time>
      </trkpt>
      <trkpt lat="43.56833" lon="3.15796">
        <ele>470.39999389648</ele>
        <time>2011-02-16T14:12:00Z</time>
      </trkpt>
      <trkpt lat="43.56834" lon="3.15798">
        <ele>470.79998779297</ele>
        <time>2011-02-16T14:12:01Z</time>
      </trkpt>
      <trkpt lat="43.56836" lon="3.15801">
        <ele>471.20001220703</ele>
        <time>2011-02-16T14:12:02Z</time>
      </trkpt>
      <trkpt lat="43.56837" lon="3.15803">
        <ele>471.60000610352</ele>
        <time>2011-02-16T14:12:03Z</time>
      </trkpt>
      <trkpt lat="43.56839" lon="3.15807">
        <ele>471.60000610352</ele>
        <time>2011-02-16T14:12:06Z</time>
      </trkpt>
      <trkpt lat="43.56845" lon="3.15819">
        <ele>471.60000610352</ele>
        <time>2011-02-16T14:12:12Z</time>
      </trkpt>
      <trkpt lat="43.56852" lon="3.15832">
        <ele>472</ele>
        <time>2011-02-16T14:12:18Z</time>
      </trkpt>
      <trkpt lat="43.56853" lon="3.15835">
        <ele>472.39999389648</ele>
        <time>2011-02-16T14:12:19Z</time>
      </trkpt>
      <trkpt lat="43.56853" lon="3.15838">
        <ele>472.79998779297</ele>
        <time>2011-02-16T14:12:20Z</time>
      </trkpt>
      <trkpt lat="43.56854" lon="3.15841">
        <ele>473.39999389648</ele>
        <time>2011-02-16T14:12:21Z</time>
      </trkpt>
      <trkpt lat="43.56855" lon="3.15844">
        <ele>473.79998779297</ele>
        <time>2011-02-16T14:12:22Z</time>
      </trkpt>
      <trkpt lat="43.56857" lon="3.15853">
        <ele>474.20001220703</ele>
        <time>2011-02-16T14:12:25Z</time>
      </trkpt>
      <trkpt lat="43.56857" lon="3.15856">
        <ele>474.60000610352</ele>
        <time>2011-02-16T14:12:26Z</time>
      </trkpt>
      <trkpt lat="43.56858" lon="3.15859">
        <ele>475</ele>
        <time>2011-02-16T14:12:27Z</time>
      </trkpt>
      <trkpt lat="43.56858" lon="3.15862">
        <ele>475.39999389648</ele>
        <time>2011-02-16T14:12:28Z</time>
      </trkpt>
      <trkpt lat="43.56858" lon="3.15866">
        <ele>476</ele>
        <time>2011-02-16T14:12:29Z</time>
      </trkpt>
      <trkpt lat="43.56859" lon="3.15879">
        <ele>476</ele>
        <time>2011-02-16T14:12:33Z</time>
      </trkpt>
      <trkpt lat="43.56858" lon="3.15883">
        <ele>476.39999389648</ele>
        <time>2011-02-16T14:12:34Z</time>
      </trkpt>
      <trkpt lat="43.56858" lon="3.15886">
        <ele>476.79998779297</ele>
        <time>2011-02-16T14:12:35Z</time>
      </trkpt>
      <trkpt lat="43.56858" lon="3.15889">
        <ele>477.20001220703</ele>
        <time>2011-02-16T14:12:36Z</time>
      </trkpt>
      <trkpt lat="43.56858" lon="3.15891">
        <ele>477.60000610352</ele>
        <time>2011-02-16T14:12:37Z</time>
      </trkpt>
      <trkpt lat="43.56858" lon="3.15893">
        <ele>478</ele>
        <time>2011-02-16T14:12:38Z</time>
      </trkpt>
      <trkpt lat="43.56858" lon="3.15895">
        <ele>478</ele>
        <time>2011-02-16T14:12:39Z</time>
      </trkpt>
      <trkpt lat="43.56858" lon="3.15899">
        <ele>478</ele>
        <time>2011-02-16T14:12:42Z</time>
      </trkpt>
      <trkpt lat="43.56858" lon="3.15898">
        <ele>478</ele>
        <time>2011-02-16T14:12:44Z</time>
      </trkpt>
      <trkpt lat="43.56858" lon="3.15899">
        <ele>478</ele>
        <time>2011-02-16T14:19:28Z</time>
      </trkpt>
      <trkpt lat="43.56859" lon="3.159">
        <ele>478</ele>
        <time>2011-02-16T14:19:29Z</time>
      </trkpt>
      <trkpt lat="43.56861" lon="3.15905">
        <ele>478</ele>
        <time>2011-02-16T14:19:32Z</time>
      </trkpt>
      <trkpt lat="43.56868" lon="3.15915">
        <ele>478</ele>
        <time>2011-02-16T14:19:38Z</time>
      </trkpt>
      <trkpt lat="43.56873" lon="3.15919">
        <ele>478.39999389648</ele>
        <time>2011-02-16T14:19:42Z</time>
      </trkpt>
      <trkpt lat="43.56874" lon="3.1592">
        <ele>478.79998779297</ele>
        <time>2011-02-16T14:19:43Z</time>
      </trkpt>
      <trkpt lat="43.56877" lon="3.15922">
        <ele>479.20001220703</ele>
        <time>2011-02-16T14:19:44Z</time>
      </trkpt>
      <trkpt lat="43.56879" lon="3.15923">
        <ele>479.60000610352</ele>
        <time>2011-02-16T14:19:45Z</time>
      </trkpt>
      <trkpt lat="43.56881" lon="3.15924">
        <ele>480</ele>
        <time>2011-02-16T14:19:46Z</time>
      </trkpt>
      <trkpt lat="43.56897" lon="3.15939">
        <ele>480</ele>
        <time>2011-02-16T14:19:52Z</time>
      </trkpt>
      <trkpt lat="43.56905" lon="3.1595">
        <ele>480</ele>
        <time>2011-02-16T14:19:54Z</time>
      </trkpt>
      <trkpt lat="43.56909" lon="3.15958">
        <ele>479.39999389648</ele>
        <time>2011-02-16T14:19:55Z</time>
      </trkpt>
      <trkpt lat="43.56911" lon="3.15967">
        <ele>479</ele>
        <time>2011-02-16T14:19:56Z</time>
      </trkpt>
      <trkpt lat="43.56913" lon="3.15977">
        <ele>478.39999389648</ele>
        <time>2011-02-16T14:19:57Z</time>
      </trkpt>
      <trkpt lat="43.56915" lon="3.15987">
        <ele>478</ele>
        <time>2011-02-16T14:19:58Z</time>
      </trkpt>
      <trkpt lat="43.56916" lon="3.15997">
        <ele>477.39999389648</ele>
        <time>2011-02-16T14:19:59Z</time>
      </trkpt>
      <trkpt lat="43.56918" lon="3.16005">
        <ele>477</ele>
        <time>2011-02-16T14:20:00Z</time>
      </trkpt>
      <trkpt lat="43.56922" lon="3.16013">
        <ele>476.39999389648</ele>
        <time>2011-02-16T14:20:01Z</time>
      </trkpt>
      <trkpt lat="43.56926" lon="3.16019">
        <ele>475.79998779297</ele>
        <time>2011-02-16T14:20:02Z</time>
      </trkpt>
      <trkpt lat="43.56931" lon="3.16024">
        <ele>475.39999389648</ele>
        <time>2011-02-16T14:20:03Z</time>
      </trkpt>
      <trkpt lat="43.56938" lon="3.16028">
        <ele>474.79998779297</ele>
        <time>2011-02-16T14:20:04Z</time>
      </trkpt>
      <trkpt lat="43.56945" lon="3.16032">
        <ele>474.39999389648</ele>
        <time>2011-02-16T14:20:05Z</time>
      </trkpt>
      <trkpt lat="43.56952" lon="3.16034">
        <ele>473.79998779297</ele>
        <time>2011-02-16T14:20:06Z</time>
      </trkpt>
      <trkpt lat="43.56957" lon="3.16035">
        <ele>473.20001220703</ele>
        <time>2011-02-16T14:20:07Z</time>
      </trkpt>
      <trkpt lat="43.5696" lon="3.16035">
        <ele>472.60000610352</ele>
        <time>2011-02-16T14:20:08Z</time>
      </trkpt>
      <trkpt lat="43.56962" lon="3.16035">
        <ele>471.79998779297</ele>
        <time>2011-02-16T14:20:09Z</time>
      </trkpt>
      <trkpt lat="43.56963" lon="3.16034">
        <ele>471.20001220703</ele>
        <time>2011-02-16T14:20:10Z</time>
      </trkpt>
      <trkpt lat="43.56964" lon="3.16033">
        <ele>470.39999389648</ele>
        <time>2011-02-16T14:20:11Z</time>
      </trkpt>
      <trkpt lat="43.56969" lon="3.16032">
        <ele>469.60000610352</ele>
        <time>2011-02-16T14:20:14Z</time>
      </trkpt>
      <trkpt lat="43.5697" lon="3.16032">
        <ele>469.20001220703</ele>
        <time>2011-02-16T14:20:15Z</time>
      </trkpt>
      <trkpt lat="43.56971" lon="3.16032">
        <ele>468.79998779297</ele>
        <time>2011-02-16T14:20:16Z</time>
      </trkpt>
      <trkpt lat="43.56971" lon="3.16032">
        <ele>468.39999389648</ele>
        <time>2011-02-16T14:20:17Z</time>
      </trkpt>
      <trkpt lat="43.56976" lon="3.16034">
        <ele>468.39999389648</ele>
        <time>2011-02-16T14:20:28Z</time>
      </trkpt>
      <trkpt lat="43.56979" lon="3.16038">
        <ele>468.39999389648</ele>
        <time>2011-02-16T14:20:31Z</time>
      </trkpt>
      <trkpt lat="43.56985" lon="3.16047">
        <ele>467.79998779297</ele>
        <time>2011-02-16T14:20:34Z</time>
      </trkpt>
      <trkpt lat="43.56987" lon="3.16051">
        <ele>467.20001220703</ele>
        <time>2011-02-16T14:20:35Z</time>
      </trkpt>
      <trkpt lat="43.5699" lon="3.16055">
        <ele>466.39999389648</ele>
        <time>2011-02-16T14:20:36Z</time>
      </trkpt>
      <trkpt lat="43.56992" lon="3.16059">
        <ele>465.79998779297</ele>
        <time>2011-02-16T14:20:37Z</time>
      </trkpt>
      <trkpt lat="43.56995" lon="3.16064">
        <ele>464</ele>
        <time>2011-02-16T14:20:38Z</time>
      </trkpt>
      <trkpt lat="43.56998" lon="3.1607">
        <ele>463.20001220703</ele>
        <time>2011-02-16T14:20:39Z</time>
      </trkpt>
      <trkpt lat="43.57001" lon="3.16076">
        <ele>462.20001220703</ele>
        <time>2011-02-16T14:20:40Z</time>
      </trkpt>
      <trkpt lat="43.57005" lon="3.16083">
        <ele>461.20001220703</ele>
        <time>2011-02-16T14:20:41Z</time>
      </trkpt>
      <trkpt lat="43.57008" lon="3.1609">
        <ele>460.20001220703</ele>
        <time>2011-02-16T14:20:42Z</time>
      </trkpt>
      <trkpt lat="43.57012" lon="3.16096">
        <ele>459</ele>
        <time>2011-02-16T14:20:43Z</time>
      </trkpt>
      <trkpt lat="43.57014" lon="3.16102">
        <ele>457.79998779297</ele>
        <time>2011-02-16T14:20:44Z</time>
      </trkpt>
      <trkpt lat="43.57017" lon="3.16108">
        <ele>456.60000610352</ele>
        <time>2011-02-16T14:20:45Z</time>
      </trkpt>
      <trkpt lat="43.5702" lon="3.16113">
        <ele>455.39999389648</ele>
        <time>2011-02-16T14:20:46Z</time>
      </trkpt>
      <trkpt lat="43.57022" lon="3.16118">
        <ele>454.20001220703</ele>
        <time>2011-02-16T14:20:47Z</time>
      </trkpt>
      <trkpt lat="43.57025" lon="3.16124">
        <ele>453.20001220703</ele>
        <time>2011-02-16T14:20:48Z</time>
      </trkpt>
      <trkpt lat="43.57027" lon="3.1613">
        <ele>452</ele>
        <time>2011-02-16T14:20:49Z</time>
      </trkpt>
      <trkpt lat="43.5703" lon="3.16135">
        <ele>451</ele>
        <time>2011-02-16T14:20:50Z</time>
      </trkpt>
      <trkpt lat="43.57032" lon="3.16141">
        <ele>449.79998779297</ele>
        <time>2011-02-16T14:20:51Z</time>
      </trkpt>
      <trkpt lat="43.57034" lon="3.16146">
        <ele>448.60000610352</ele>
        <time>2011-02-16T14:20:52Z</time>
      </trkpt>
      <trkpt lat="43.57037" lon="3.16152">
        <ele>447.60000610352</ele>
        <time>2011-02-16T14:20:53Z</time>
      </trkpt>
      <trkpt lat="43.5704" lon="3.16158">
        <ele>446.39999389648</ele>
        <time>2011-02-16T14:20:54Z</time>
      </trkpt>
      <trkpt lat="43.57041" lon="3.16165">
        <ele>445.39999389648</ele>
        <time>2011-02-16T14:20:55Z</time>
      </trkpt>
      <trkpt lat="43.57043" lon="3.16171">
        <ele>444.20001220703</ele>
        <time>2011-02-16T14:20:56Z</time>
      </trkpt>
      <trkpt lat="43.57044" lon="3.16178">
        <ele>443.20001220703</ele>
        <time>2011-02-16T14:20:57Z</time>
      </trkpt>
      <trkpt lat="43.57046" lon="3.16186">
        <ele>442</ele>
        <time>2011-02-16T14:20:58Z</time>
      </trkpt>
      <trkpt lat="43.57047" lon="3.16194">
        <ele>441.20001220703</ele>
        <time>2011-02-16T14:20:59Z</time>
      </trkpt>
      <trkpt lat="43.57048" lon="3.16201">
        <ele>440.20001220703</ele>
        <time>2011-02-16T14:21:00Z</time>
      </trkpt>
      <trkpt lat="43.5705" lon="3.16208">
        <ele>439.20001220703</ele>
        <time>2011-02-16T14:21:01Z</time>
      </trkpt>
      <trkpt lat="43.57051" lon="3.16213">
        <ele>438.39999389648</ele>
        <time>2011-02-16T14:21:02Z</time>
      </trkpt>
      <trkpt lat="43.57053" lon="3.1622">
        <ele>436.60000610352</ele>
        <time>2011-02-16T14:21:03Z</time>
      </trkpt>
      <trkpt lat="43.57053" lon="3.16225">
        <ele>435.79998779297</ele>
        <time>2011-02-16T14:21:04Z</time>
      </trkpt>
      <trkpt lat="43.57055" lon="3.1623">
        <ele>435</ele>
        <time>2011-02-16T14:21:05Z</time>
      </trkpt>
      <trkpt lat="43.57055" lon="3.16235">
        <ele>434.20001220703</ele>
        <time>2011-02-16T14:21:06Z</time>
      </trkpt>
      <trkpt lat="43.57055" lon="3.16239">
        <ele>433.39999389648</ele>
        <time>2011-02-16T14:21:07Z</time>
      </trkpt>
      <trkpt lat="43.57055" lon="3.16244">
        <ele>432.39999389648</ele>
        <time>2011-02-16T14:21:08Z</time>
      </trkpt>
      <trkpt lat="43.57054" lon="3.16248">
        <ele>431.60000610352</ele>
        <time>2011-02-16T14:21:09Z</time>
      </trkpt>
      <trkpt lat="43.57051" lon="3.1625">
        <ele>430.79998779297</ele>
        <time>2011-02-16T14:21:10Z</time>
      </trkpt>
      <trkpt lat="43.57049" lon="3.16251">
        <ele>430</ele>
        <time>2011-02-16T14:21:11Z</time>
      </trkpt>
      <trkpt lat="43.57045" lon="3.16254">
        <ele>430</ele>
        <time>2011-02-16T14:21:14Z</time>
      </trkpt>
      <trkpt lat="43.57044" lon="3.16257">
        <ele>429.60000610352</ele>
        <time>2011-02-16T14:21:15Z</time>
      </trkpt>
      <trkpt lat="43.57045" lon="3.16261">
        <ele>429.20001220703</ele>
        <time>2011-02-16T14:21:16Z</time>
      </trkpt>
      <trkpt lat="43.57046" lon="3.16263">
        <ele>428.79998779297</ele>
        <time>2011-02-16T14:21:17Z</time>
      </trkpt>
      <trkpt lat="43.57048" lon="3.16266">
        <ele>428.39999389648</ele>
        <time>2011-02-16T14:21:18Z</time>
      </trkpt>
      <trkpt lat="43.57049" lon="3.16269">
        <ele>428</ele>
        <time>2011-02-16T14:21:19Z</time>
      </trkpt>
      <trkpt lat="43.57048" lon="3.16278">
        <ele>427.39999389648</ele>
        <time>2011-02-16T14:21:21Z</time>
      </trkpt>
      <trkpt lat="43.57047" lon="3.16282">
        <ele>427</ele>
        <time>2011-02-16T14:21:22Z</time>
      </trkpt>
      <trkpt lat="43.57047" lon="3.16284">
        <ele>426.60000610352</ele>
        <time>2011-02-16T14:21:23Z</time>
      </trkpt>
      <trkpt lat="43.57046" lon="3.16286">
        <ele>426.20001220703</ele>
        <time>2011-02-16T14:21:24Z</time>
      </trkpt>
      <trkpt lat="43.57044" lon="3.16287">
        <ele>425.60000610352</ele>
        <time>2011-02-16T14:21:25Z</time>
      </trkpt>
      <trkpt lat="43.57042" lon="3.16288">
        <ele>425</ele>
        <time>2011-02-16T14:21:26Z</time>
      </trkpt>
      <trkpt lat="43.57041" lon="3.16291">
        <ele>424.39999389648</ele>
        <time>2011-02-16T14:21:27Z</time>
      </trkpt>
      <trkpt lat="43.57041" lon="3.16293">
        <ele>423.39999389648</ele>
        <time>2011-02-16T14:21:28Z</time>
      </trkpt>
      <trkpt lat="43.57042" lon="3.16298">
        <ele>422.79998779297</ele>
        <time>2011-02-16T14:21:29Z</time>
      </trkpt>
      <trkpt lat="43.57041" lon="3.16303">
        <ele>422.20001220703</ele>
        <time>2011-02-16T14:21:30Z</time>
      </trkpt>
      <trkpt lat="43.5704" lon="3.16308">
        <ele>421.60000610352</ele>
        <time>2011-02-16T14:21:31Z</time>
      </trkpt>
      <trkpt lat="43.57037" lon="3.16312">
        <ele>420.79998779297</ele>
        <time>2011-02-16T14:21:32Z</time>
      </trkpt>
      <trkpt lat="43.57035" lon="3.16318">
        <ele>420.20001220703</ele>
        <time>2011-02-16T14:21:33Z</time>
      </trkpt>
      <trkpt lat="43.57032" lon="3.16323">
        <ele>419.60000610352</ele>
        <time>2011-02-16T14:21:34Z</time>
      </trkpt>
      <trkpt lat="43.57029" lon="3.16327">
        <ele>418.79998779297</ele>
        <time>2011-02-16T14:21:35Z</time>
      </trkpt>
      <trkpt lat="43.57028" lon="3.16331">
        <ele>418</ele>
        <time>2011-02-16T14:21:36Z</time>
      </trkpt>
      <trkpt lat="43.57027" lon="3.16335">
        <ele>417.20001220703</ele>
        <time>2011-02-16T14:21:37Z</time>
      </trkpt>
      <trkpt lat="43.57026" lon="3.1634">
        <ele>416.39999389648</ele>
        <time>2011-02-16T14:21:38Z</time>
      </trkpt>
      <trkpt lat="43.57024" lon="3.16344">
        <ele>415.79998779297</ele>
        <time>2011-02-16T14:21:39Z</time>
      </trkpt>
      <trkpt lat="43.57023" lon="3.16346">
        <ele>415.20001220703</ele>
        <time>2011-02-16T14:21:40Z</time>
      </trkpt>
      <trkpt lat="43.57022" lon="3.16347">
        <ele>414.60000610352</ele>
        <time>2011-02-16T14:21:41Z</time>
      </trkpt>
      <trkpt lat="43.57021" lon="3.16349">
        <ele>413.20001220703</ele>
        <time>2011-02-16T14:21:43Z</time>
      </trkpt>
      <trkpt lat="43.57021" lon="3.16348">
        <ele>412.60000610352</ele>
        <time>2011-02-16T14:21:44Z</time>
      </trkpt>
      <trkpt lat="43.57018" lon="3.16355">
        <ele>410.39999389648</ele>
        <time>2011-02-16T14:21:59Z</time>
      </trkpt>
      <trkpt lat="43.57019" lon="3.16354">
        <ele>410</ele>
        <time>2011-02-16T14:22:00Z</time>
      </trkpt>
      <trkpt lat="43.57018" lon="3.16355">
        <ele>409.60000610352</ele>
        <time>2011-02-16T14:22:01Z</time>
      </trkpt>
      <trkpt lat="43.57014" lon="3.16365">
        <ele>409.20001220703</ele>
        <time>2011-02-16T14:22:06Z</time>
      </trkpt>
      <trkpt lat="43.57013" lon="3.16367">
        <ele>409.20001220703</ele>
        <time>2011-02-16T14:22:07Z</time>
      </trkpt>
      <trkpt lat="43.57012" lon="3.16369">
        <ele>408.79998779297</ele>
        <time>2011-02-16T14:22:08Z</time>
      </trkpt>
      <trkpt lat="43.57013" lon="3.16372">
        <ele>408.20001220703</ele>
        <time>2011-02-16T14:22:09Z</time>
      </trkpt>
      <trkpt lat="43.57012" lon="3.16374">
        <ele>407.79998779297</ele>
        <time>2011-02-16T14:22:10Z</time>
      </trkpt>
      <trkpt lat="43.5701" lon="3.16376">
        <ele>407.39999389648</ele>
        <time>2011-02-16T14:22:11Z</time>
      </trkpt>
      <trkpt lat="43.57008" lon="3.16379">
        <ele>406.79998779297</ele>
        <time>2011-02-16T14:22:12Z</time>
      </trkpt>
      <trkpt lat="43.57006" lon="3.16381">
        <ele>406.39999389648</ele>
        <time>2011-02-16T14:22:13Z</time>
      </trkpt>
      <trkpt lat="43.57004" lon="3.16384">
        <ele>405.79998779297</ele>
        <time>2011-02-16T14:22:14Z</time>
      </trkpt>
      <trkpt lat="43.57002" lon="3.16387">
        <ele>405.39999389648</ele>
        <time>2011-02-16T14:22:15Z</time>
      </trkpt>
      <trkpt lat="43.57001" lon="3.16389">
        <ele>404.79998779297</ele>
        <time>2011-02-16T14:22:16Z</time>
      </trkpt>
      <trkpt lat="43.57" lon="3.16392">
        <ele>403.79998779297</ele>
        <time>2011-02-16T14:22:17Z</time>
      </trkpt>
      <trkpt lat="43.56998" lon="3.16396">
        <ele>403.39999389648</ele>
        <time>2011-02-16T14:22:18Z</time>
      </trkpt>
      <trkpt lat="43.56997" lon="3.16399">
        <ele>402.79998779297</ele>
        <time>2011-02-16T14:22:19Z</time>
      </trkpt>
      <trkpt lat="43.56994" lon="3.16403">
        <ele>402.39999389648</ele>
        <time>2011-02-16T14:22:20Z</time>
      </trkpt>
      <trkpt lat="43.56992" lon="3.16406">
        <ele>401.79998779297</ele>
        <time>2011-02-16T14:22:21Z</time>
      </trkpt>
      <trkpt lat="43.5699" lon="3.16408">
        <ele>401.39999389648</ele>
        <time>2011-02-16T14:22:22Z</time>
      </trkpt>
      <trkpt lat="43.56989" lon="3.1641">
        <ele>400.79998779297</ele>
        <time>2011-02-16T14:22:23Z</time>
      </trkpt>
      <trkpt lat="43.56986" lon="3.16412">
        <ele>400.39999389648</ele>
        <time>2011-02-16T14:22:24Z</time>
      </trkpt>
      <trkpt lat="43.56984" lon="3.16415">
        <ele>399.79998779297</ele>
        <time>2011-02-16T14:22:25Z</time>
      </trkpt>
      <trkpt lat="43.56982" lon="3.16418">
        <ele>399.39999389648</ele>
        <time>2011-02-16T14:22:26Z</time>
      </trkpt>
      <trkpt lat="43.56979" lon="3.16422">
        <ele>398.79998779297</ele>
        <time>2011-02-16T14:22:27Z</time>
      </trkpt>
      <trkpt lat="43.56976" lon="3.16426">
        <ele>398.20001220703</ele>
        <time>2011-02-16T14:22:28Z</time>
      </trkpt>
      <trkpt lat="43.56973" lon="3.1643">
        <ele>397.79998779297</ele>
        <time>2011-02-16T14:22:29Z</time>
      </trkpt>
      <trkpt lat="43.5697" lon="3.16434">
        <ele>397.20001220703</ele>
        <time>2011-02-16T14:22:30Z</time>
      </trkpt>
      <trkpt lat="43.56967" lon="3.16439">
        <ele>396.60000610352</ele>
        <time>2011-02-16T14:22:31Z</time>
      </trkpt>
      <trkpt lat="43.56964" lon="3.16443">
        <ele>396</ele>
        <time>2011-02-16T14:22:32Z</time>
      </trkpt>
      <trkpt lat="43.56961" lon="3.16449">
        <ele>395.39999389648</ele>
        <time>2011-02-16T14:22:33Z</time>
      </trkpt>
      <trkpt lat="43.56959" lon="3.16453">
        <ele>394.79998779297</ele>
        <time>2011-02-16T14:22:34Z</time>
      </trkpt>
      <trkpt lat="43.56956" lon="3.16457">
        <ele>394.20001220703</ele>
        <time>2011-02-16T14:22:35Z</time>
      </trkpt>
      <trkpt lat="43.56953" lon="3.16459">
        <ele>393.79998779297</ele>
        <time>2011-02-16T14:22:36Z</time>
      </trkpt>
      <trkpt lat="43.5695" lon="3.1646">
        <ele>393.39999389648</ele>
        <time>2011-02-16T14:22:37Z</time>
      </trkpt>
      <trkpt lat="43.56947" lon="3.16462">
        <ele>392.79998779297</ele>
        <time>2011-02-16T14:22:38Z</time>
      </trkpt>
      <trkpt lat="43.56944" lon="3.16465">
        <ele>392.39999389648</ele>
        <time>2011-02-16T14:22:39Z</time>
      </trkpt>
      <trkpt lat="43.56942" lon="3.16469">
        <ele>392</ele>
        <time>2011-02-16T14:22:40Z</time>
      </trkpt>
      <trkpt lat="43.56938" lon="3.16476">
        <ele>392</ele>
        <time>2011-02-16T14:22:42Z</time>
      </trkpt>
      <trkpt lat="43.56936" lon="3.1648">
        <ele>391.60000610352</ele>
        <time>2011-02-16T14:22:43Z</time>
      </trkpt>
      <trkpt lat="43.56934" lon="3.16484">
        <ele>391.20001220703</ele>
        <time>2011-02-16T14:22:44Z</time>
      </trkpt>
      <trkpt lat="43.56931" lon="3.16484">
        <ele>390.79998779297</ele>
        <time>2011-02-16T14:22:45Z</time>
      </trkpt>
      <trkpt lat="43.56928" lon="3.16485">
        <ele>390.39999389648</ele>
        <time>2011-02-16T14:22:46Z</time>
      </trkpt>
      <trkpt lat="43.56926" lon="3.16487">
        <ele>389.79998779297</ele>
        <time>2011-02-16T14:22:47Z</time>
      </trkpt>
      <trkpt lat="43.56922" lon="3.16493">
        <ele>389.79998779297</ele>
        <time>2011-02-16T14:22:49Z</time>
      </trkpt>
      <trkpt lat="43.56919" lon="3.16497">
        <ele>389.39999389648</ele>
        <time>2011-02-16T14:22:50Z</time>
      </trkpt>
      <trkpt lat="43.56916" lon="3.16501">
        <ele>389</ele>
        <time>2011-02-16T14:22:51Z</time>
      </trkpt>
      <trkpt lat="43.56913" lon="3.16504">
        <ele>388.39999389648</ele>
        <time>2011-02-16T14:22:52Z</time>
      </trkpt>
      <trkpt lat="43.5691" lon="3.16507">
        <ele>388</ele>
        <time>2011-02-16T14:22:53Z</time>
      </trkpt>
      <trkpt lat="43.56907" lon="3.1651">
        <ele>387.39999389648</ele>
        <time>2011-02-16T14:22:54Z</time>
      </trkpt>
      <trkpt lat="43.56903" lon="3.16513">
        <ele>386.79998779297</ele>
        <time>2011-02-16T14:22:55Z</time>
      </trkpt>
      <trkpt lat="43.569" lon="3.16515">
        <ele>386.39999389648</ele>
        <time>2011-02-16T14:22:56Z</time>
      </trkpt>
      <trkpt lat="43.56898" lon="3.16518">
        <ele>385.60000610352</ele>
        <time>2011-02-16T14:22:57Z</time>
      </trkpt>
      <trkpt lat="43.56896" lon="3.1652">
        <ele>384.60000610352</ele>
        <time>2011-02-16T14:22:58Z</time>
      </trkpt>
      <trkpt lat="43.56894" lon="3.16524">
        <ele>383.79998779297</ele>
        <time>2011-02-16T14:22:59Z</time>
      </trkpt>
      <trkpt lat="43.56894" lon="3.16526">
        <ele>383</ele>
        <time>2011-02-16T14:23:00Z</time>
      </trkpt>
      <trkpt lat="43.56891" lon="3.16528">
        <ele>382.20001220703</ele>
        <time>2011-02-16T14:23:01Z</time>
      </trkpt>
      <trkpt lat="43.56889" lon="3.16529">
        <ele>381.39999389648</ele>
        <time>2011-02-16T14:23:02Z</time>
      </trkpt>
      <trkpt lat="43.56886" lon="3.16529">
        <ele>380.60000610352</ele>
        <time>2011-02-16T14:23:03Z</time>
      </trkpt>
      <trkpt lat="43.56882" lon="3.16531">
        <ele>379.79998779297</ele>
        <time>2011-02-16T14:23:04Z</time>
      </trkpt>
      <trkpt lat="43.5688" lon="3.16533">
        <ele>379</ele>
        <time>2011-02-16T14:23:05Z</time>
      </trkpt>
      <trkpt lat="43.56878" lon="3.16536">
        <ele>378.20001220703</ele>
        <time>2011-02-16T14:23:06Z</time>
      </trkpt>
      <trkpt lat="43.56875" lon="3.16538">
        <ele>377.20001220703</ele>
        <time>2011-02-16T14:23:07Z</time>
      </trkpt>
      <trkpt lat="43.56872" lon="3.1654">
        <ele>376.60000610352</ele>
        <time>2011-02-16T14:23:08Z</time>
      </trkpt>
      <trkpt lat="43.56869" lon="3.16541">
        <ele>376</ele>
        <time>2011-02-16T14:23:09Z</time>
      </trkpt>
      <trkpt lat="43.56866" lon="3.16543">
        <ele>375.39999389648</ele>
        <time>2011-02-16T14:23:10Z</time>
      </trkpt>
      <trkpt lat="43.56863" lon="3.16546">
        <ele>374.79998779297</ele>
        <time>2011-02-16T14:23:11Z</time>
      </trkpt>
      <trkpt lat="43.5686" lon="3.1655">
        <ele>374.39999389648</ele>
        <time>2011-02-16T14:23:12Z</time>
      </trkpt>
      <trkpt lat="43.56857" lon="3.16553">
        <ele>373.60000610352</ele>
        <time>2011-02-16T14:23:13Z</time>
      </trkpt>
      <trkpt lat="43.56856" lon="3.16558">
        <ele>373</ele>
        <time>2011-02-16T14:23:14Z</time>
      </trkpt>
      <trkpt lat="43.56854" lon="3.16562">
        <ele>372</ele>
        <time>2011-02-16T14:23:15Z</time>
      </trkpt>
      <trkpt lat="43.56851" lon="3.16565">
        <ele>371.20001220703</ele>
        <time>2011-02-16T14:23:16Z</time>
      </trkpt>
      <trkpt lat="43.56848" lon="3.16568">
        <ele>370.39999389648</ele>
        <time>2011-02-16T14:23:17Z</time>
      </trkpt>
      <trkpt lat="43.56846" lon="3.16571">
        <ele>369.39999389648</ele>
        <time>2011-02-16T14:23:18Z</time>
      </trkpt>
      <trkpt lat="43.56843" lon="3.16572">
        <ele>368.79998779297</ele>
        <time>2011-02-16T14:23:19Z</time>
      </trkpt>
      <trkpt lat="43.5684" lon="3.16573">
        <ele>368.20001220703</ele>
        <time>2011-02-16T14:23:20Z</time>
      </trkpt>
      <trkpt lat="43.56837" lon="3.16575">
        <ele>367.39999389648</ele>
        <time>2011-02-16T14:23:21Z</time>
      </trkpt>
      <trkpt lat="43.56835" lon="3.16577">
        <ele>366.79998779297</ele>
        <time>2011-02-16T14:23:22Z</time>
      </trkpt>
      <trkpt lat="43.56832" lon="3.16578">
        <ele>366</ele>
        <time>2011-02-16T14:23:23Z</time>
      </trkpt>
      <trkpt lat="43.56829" lon="3.16579">
        <ele>365.39999389648</ele>
        <time>2011-02-16T14:23:24Z</time>
      </trkpt>
      <trkpt lat="43.56826" lon="3.16581">
        <ele>364.60000610352</ele>
        <time>2011-02-16T14:23:25Z</time>
      </trkpt>
      <trkpt lat="43.56824" lon="3.16583">
        <ele>364</ele>
        <time>2011-02-16T14:23:26Z</time>
      </trkpt>
      <trkpt lat="43.56821" lon="3.16584">
        <ele>363.20001220703</ele>
        <time>2011-02-16T14:23:27Z</time>
      </trkpt>
      <trkpt lat="43.56819" lon="3.16585">
        <ele>362.39999389648</ele>
        <time>2011-02-16T14:23:28Z</time>
      </trkpt>
      <trkpt lat="43.56817" lon="3.16588">
        <ele>361.60000610352</ele>
        <time>2011-02-16T14:23:29Z</time>
      </trkpt>
      <trkpt lat="43.56815" lon="3.16589">
        <ele>360.79998779297</ele>
        <time>2011-02-16T14:23:30Z</time>
      </trkpt>
      <trkpt lat="43.56813" lon="3.1659">
        <ele>359</ele>
        <time>2011-02-16T14:23:31Z</time>
      </trkpt>
      <trkpt lat="43.5681" lon="3.16592">
        <ele>358.20001220703</ele>
        <time>2011-02-16T14:23:32Z</time>
      </trkpt>
      <trkpt lat="43.56808" lon="3.16595">
        <ele>357.39999389648</ele>
        <time>2011-02-16T14:23:33Z</time>
      </trkpt>
      <trkpt lat="43.56806" lon="3.16598">
        <ele>356.39999389648</ele>
        <time>2011-02-16T14:23:34Z</time>
      </trkpt>
      <trkpt lat="43.56805" lon="3.16602">
        <ele>355.60000610352</ele>
        <time>2011-02-16T14:23:35Z</time>
      </trkpt>
      <trkpt lat="43.56803" lon="3.16604">
        <ele>354.79998779297</ele>
        <time>2011-02-16T14:23:36Z</time>
      </trkpt>
      <trkpt lat="43.56802" lon="3.16605">
        <ele>353.79998779297</ele>
        <time>2011-02-16T14:23:37Z</time>
      </trkpt>
      <trkpt lat="43.568" lon="3.16605">
        <ele>353</ele>
        <time>2011-02-16T14:23:38Z</time>
      </trkpt>
      <trkpt lat="43.56799" lon="3.16604">
        <ele>352.20001220703</ele>
        <time>2011-02-16T14:23:39Z</time>
      </trkpt>
      <trkpt lat="43.56797" lon="3.16604">
        <ele>351.39999389648</ele>
        <time>2011-02-16T14:23:40Z</time>
      </trkpt>
      <trkpt lat="43.56795" lon="3.16604">
        <ele>350.79998779297</ele>
        <time>2011-02-16T14:23:41Z</time>
      </trkpt>
      <trkpt lat="43.56792" lon="3.16604">
        <ele>350.39999389648</ele>
        <time>2011-02-16T14:23:42Z</time>
      </trkpt>
      <trkpt lat="43.56792" lon="3.16605">
        <ele>350</ele>
        <time>2011-02-16T14:23:43Z</time>
      </trkpt>
      <trkpt lat="43.56792" lon="3.16605">
        <ele>349.60000610352</ele>
        <time>2011-02-16T14:23:44Z</time>
      </trkpt>
      <trkpt lat="43.56781" lon="3.16613">
        <ele>347.79998779297</ele>
        <time>2011-02-16T14:24:04Z</time>
      </trkpt>
      <trkpt lat="43.56778" lon="3.16614">
        <ele>347.39999389648</ele>
        <time>2011-02-16T14:24:05Z</time>
      </trkpt>
      <trkpt lat="43.56775" lon="3.16616">
        <ele>347</ele>
        <time>2011-02-16T14:24:06Z</time>
      </trkpt>
      <trkpt lat="43.56773" lon="3.16618">
        <ele>346.39999389648</ele>
        <time>2011-02-16T14:24:07Z</time>
      </trkpt>
      <trkpt lat="43.5677" lon="3.16621">
        <ele>346</ele>
        <time>2011-02-16T14:24:08Z</time>
      </trkpt>
      <trkpt lat="43.56768" lon="3.16622">
        <ele>345.39999389648</ele>
        <time>2011-02-16T14:24:09Z</time>
      </trkpt>
      <trkpt lat="43.56766" lon="3.16624">
        <ele>344.79998779297</ele>
        <time>2011-02-16T14:24:10Z</time>
      </trkpt>
      <trkpt lat="43.56763" lon="3.16626">
        <ele>344.20001220703</ele>
        <time>2011-02-16T14:24:11Z</time>
      </trkpt>
      <trkpt lat="43.5676" lon="3.16629">
        <ele>343.60000610352</ele>
        <time>2011-02-16T14:24:12Z</time>
      </trkpt>
      <trkpt lat="43.56759" lon="3.16631">
        <ele>343</ele>
        <time>2011-02-16T14:24:13Z</time>
      </trkpt>
      <trkpt lat="43.56757" lon="3.16634">
        <ele>342.39999389648</ele>
        <time>2011-02-16T14:24:14Z</time>
      </trkpt>
      <trkpt lat="43.56756" lon="3.16636">
        <ele>342</ele>
        <time>2011-02-16T14:24:15Z</time>
      </trkpt>
      <trkpt lat="43.56754" lon="3.16637">
        <ele>341.39999389648</ele>
        <time>2011-02-16T14:24:16Z</time>
      </trkpt>
      <trkpt lat="43.56749" lon="3.16639">
        <ele>340.39999389648</ele>
        <time>2011-02-16T14:24:18Z</time>
      </trkpt>
      <trkpt lat="43.56747" lon="3.1664">
        <ele>339.79998779297</ele>
        <time>2011-02-16T14:24:19Z</time>
      </trkpt>
      <trkpt lat="43.56746" lon="3.16643">
        <ele>339.20001220703</ele>
        <time>2011-02-16T14:24:20Z</time>
      </trkpt>
      <trkpt lat="43.56745" lon="3.16646">
        <ele>338</ele>
        <time>2011-02-16T14:24:21Z</time>
      </trkpt>
      <trkpt lat="43.56744" lon="3.16652">
        <ele>338</ele>
        <time>2011-02-16T14:24:22Z</time>
      </trkpt>
      <trkpt lat="43.56744" lon="3.16658">
        <ele>337.60000610352</ele>
        <time>2011-02-16T14:24:23Z</time>
      </trkpt>
      <trkpt lat="43.56742" lon="3.16662">
        <ele>337.20001220703</ele>
        <time>2011-02-16T14:24:24Z</time>
      </trkpt>
      <trkpt lat="43.5674" lon="3.16665">
        <ele>336.60000610352</ele>
        <time>2011-02-16T14:24:25Z</time>
      </trkpt>
      <trkpt lat="43.56738" lon="3.16669">
        <ele>336.20001220703</ele>
        <time>2011-02-16T14:24:26Z</time>
      </trkpt>
      <trkpt lat="43.56736" lon="3.16671">
        <ele>335.79998779297</ele>
        <time>2011-02-16T14:24:27Z</time>
      </trkpt>
      <trkpt lat="43.56733" lon="3.16674">
        <ele>335.39999389648</ele>
        <time>2011-02-16T14:24:28Z</time>
      </trkpt>
      <trkpt lat="43.56731" lon="3.16676">
        <ele>334.79998779297</ele>
        <time>2011-02-16T14:24:29Z</time>
      </trkpt>
      <trkpt lat="43.56728" lon="3.1668">
        <ele>334.39999389648</ele>
        <time>2011-02-16T14:24:30Z</time>
      </trkpt>
      <trkpt lat="43.56726" lon="3.16683">
        <ele>334</ele>
        <time>2011-02-16T14:24:31Z</time>
      </trkpt>
      <trkpt lat="43.56723" lon="3.16686">
        <ele>333.60000610352</ele>
        <time>2011-02-16T14:24:32Z</time>
      </trkpt>
      <trkpt lat="43.56721" lon="3.1669">
        <ele>333</ele>
        <time>2011-02-16T14:24:33Z</time>
      </trkpt>
      <trkpt lat="43.56718" lon="3.16692">
        <ele>332.39999389648</ele>
        <time>2011-02-16T14:24:34Z</time>
      </trkpt>
      <trkpt lat="43.56717" lon="3.16695">
        <ele>332</ele>
        <time>2011-02-16T14:24:35Z</time>
      </trkpt>
      <trkpt lat="43.56715" lon="3.16698">
        <ele>331.39999389648</ele>
        <time>2011-02-16T14:24:36Z</time>
      </trkpt>
      <trkpt lat="43.56713" lon="3.16702">
        <ele>330.79998779297</ele>
        <time>2011-02-16T14:24:37Z</time>
      </trkpt>
      <trkpt lat="43.56712" lon="3.16706">
        <ele>330.20001220703</ele>
        <time>2011-02-16T14:24:38Z</time>
      </trkpt>
      <trkpt lat="43.56711" lon="3.16711">
        <ele>329.60000610352</ele>
        <time>2011-02-16T14:24:39Z</time>
      </trkpt>
      <trkpt lat="43.56708" lon="3.16715">
        <ele>329.20001220703</ele>
        <time>2011-02-16T14:24:40Z</time>
      </trkpt>
      <trkpt lat="43.56706" lon="3.16719">
        <ele>328.60000610352</ele>
        <time>2011-02-16T14:24:41Z</time>
      </trkpt>
      <trkpt lat="43.56704" lon="3.16724">
        <ele>328</ele>
        <time>2011-02-16T14:24:42Z</time>
      </trkpt>
      <trkpt lat="43.56701" lon="3.16728">
        <ele>327.60000610352</ele>
        <time>2011-02-16T14:24:43Z</time>
      </trkpt>
      <trkpt lat="43.56699" lon="3.16733">
        <ele>327</ele>
        <time>2011-02-16T14:24:44Z</time>
      </trkpt>
      <trkpt lat="43.56697" lon="3.16738">
        <ele>325.79998779297</ele>
        <time>2011-02-16T14:24:45Z</time>
      </trkpt>
      <trkpt lat="43.56695" lon="3.16743">
        <ele>325</ele>
        <time>2011-02-16T14:24:46Z</time>
      </trkpt>
      <trkpt lat="43.56693" lon="3.16746">
        <ele>324.39999389648</ele>
        <time>2011-02-16T14:24:47Z</time>
      </trkpt>
      <trkpt lat="43.56692" lon="3.16751">
        <ele>323.60000610352</ele>
        <time>2011-02-16T14:24:48Z</time>
      </trkpt>
      <trkpt lat="43.56689" lon="3.16756">
        <ele>323</ele>
        <time>2011-02-16T14:24:49Z</time>
      </trkpt>
      <trkpt lat="43.56687" lon="3.16761">
        <ele>322.20001220703</ele>
        <time>2011-02-16T14:24:50Z</time>
      </trkpt>
      <trkpt lat="43.56685" lon="3.16766">
        <ele>321.60000610352</ele>
        <time>2011-02-16T14:24:51Z</time>
      </trkpt>
      <trkpt lat="43.56683" lon="3.1677">
        <ele>320.79998779297</ele>
        <time>2011-02-16T14:24:52Z</time>
      </trkpt>
      <trkpt lat="43.56681" lon="3.16774">
        <ele>320</ele>
        <time>2011-02-16T14:24:53Z</time>
      </trkpt>
      <trkpt lat="43.56678" lon="3.16778">
        <ele>319.20001220703</ele>
        <time>2011-02-16T14:24:54Z</time>
      </trkpt>
      <trkpt lat="43.56675" lon="3.16782">
        <ele>318.39999389648</ele>
        <time>2011-02-16T14:24:55Z</time>
      </trkpt>
      <trkpt lat="43.56672" lon="3.16785">
        <ele>317.79998779297</ele>
        <time>2011-02-16T14:24:56Z</time>
      </trkpt>
      <trkpt lat="43.56669" lon="3.16789">
        <ele>317</ele>
        <time>2011-02-16T14:24:57Z</time>
      </trkpt>
      <trkpt lat="43.56666" lon="3.16791">
        <ele>316.39999389648</ele>
        <time>2011-02-16T14:24:58Z</time>
      </trkpt>
      <trkpt lat="43.56664" lon="3.16793">
        <ele>315.60000610352</ele>
        <time>2011-02-16T14:24:59Z</time>
      </trkpt>
      <trkpt lat="43.56661" lon="3.16795">
        <ele>315</ele>
        <time>2011-02-16T14:25:00Z</time>
      </trkpt>
      <trkpt lat="43.56659" lon="3.16796">
        <ele>314.20001220703</ele>
        <time>2011-02-16T14:25:01Z</time>
      </trkpt>
      <trkpt lat="43.56659" lon="3.16796">
        <ele>313.60000610352</ele>
        <time>2011-02-16T14:25:02Z</time>
      </trkpt>
      <trkpt lat="43.56658" lon="3.16796">
        <ele>313</ele>
        <time>2011-02-16T14:25:03Z</time>
      </trkpt>
      <trkpt lat="43.56657" lon="3.16796">
        <ele>312.60000610352</ele>
        <time>2011-02-16T14:25:04Z</time>
      </trkpt>
      <trkpt lat="43.56656" lon="3.16796">
        <ele>311.39999389648</ele>
        <time>2011-02-16T14:26:58Z</time>
      </trkpt>
      <trkpt lat="43.56656" lon="3.16796">
        <ele>311.39999389648</ele>
        <time>2011-02-16T14:26:59Z</time>
      </trkpt>
      <trkpt lat="43.56646" lon="3.168">
        <ele>311.39999389648</ele>
        <time>2011-02-16T14:27:11Z</time>
      </trkpt>
      <trkpt lat="43.56642" lon="3.16802">
        <ele>311.39999389648</ele>
        <time>2011-02-16T14:27:12Z</time>
      </trkpt>
      <trkpt lat="43.56636" lon="3.16807">
        <ele>311</ele>
        <time>2011-02-16T14:27:14Z</time>
      </trkpt>
      <trkpt lat="43.56632" lon="3.16811">
        <ele>310.39999389648</ele>
        <time>2011-02-16T14:27:15Z</time>
      </trkpt>
      <trkpt lat="43.56629" lon="3.16815">
        <ele>310</ele>
        <time>2011-02-16T14:27:16Z</time>
      </trkpt>
      <trkpt lat="43.56626" lon="3.1682">
        <ele>309.60000610352</ele>
        <time>2011-02-16T14:27:17Z</time>
      </trkpt>
      <trkpt lat="43.56623" lon="3.16827">
        <ele>309</ele>
        <time>2011-02-16T14:27:18Z</time>
      </trkpt>
      <trkpt lat="43.5662" lon="3.16832">
        <ele>308.60000610352</ele>
        <time>2011-02-16T14:27:19Z</time>
      </trkpt>
      <trkpt lat="43.56617" lon="3.16839">
        <ele>308.20001220703</ele>
        <time>2011-02-16T14:27:20Z</time>
      </trkpt>
      <trkpt lat="43.56613" lon="3.16846">
        <ele>307.79998779297</ele>
        <time>2011-02-16T14:27:21Z</time>
      </trkpt>
      <trkpt lat="43.56609" lon="3.16852">
        <ele>307.39999389648</ele>
        <time>2011-02-16T14:27:22Z</time>
      </trkpt>
      <trkpt lat="43.56604" lon="3.16856">
        <ele>307</ele>
        <time>2011-02-16T14:27:23Z</time>
      </trkpt>
      <trkpt lat="43.56599" lon="3.16857">
        <ele>306.60000610352</ele>
        <time>2011-02-16T14:27:24Z</time>
      </trkpt>
      <trkpt lat="43.56594" lon="3.16856">
        <ele>306</ele>
        <time>2011-02-16T14:27:25Z</time>
      </trkpt>
      <trkpt lat="43.56589" lon="3.16852">
        <ele>305.60000610352</ele>
        <time>2011-02-16T14:27:26Z</time>
      </trkpt>
      <trkpt lat="43.56584" lon="3.16848">
        <ele>305.20001220703</ele>
        <time>2011-02-16T14:27:27Z</time>
      </trkpt>
      <trkpt lat="43.56579" lon="3.16844">
        <ele>304.79998779297</ele>
        <time>2011-02-16T14:27:28Z</time>
      </trkpt>
      <trkpt lat="43.56558" lon="3.16828">
        <ele>304.79998779297</ele>
        <time>2011-02-16T14:27:32Z</time>
      </trkpt>
      <trkpt lat="43.56553" lon="3.16824">
        <ele>304.79998779297</ele>
        <time>2011-02-16T14:27:33Z</time>
      </trkpt>
      <trkpt lat="43.56533" lon="3.1681">
        <ele>304.79998779297</ele>
        <time>2011-02-16T14:27:37Z</time>
      </trkpt>
      <trkpt lat="43.56528" lon="3.16807">
        <ele>304.39999389648</ele>
        <time>2011-02-16T14:27:38Z</time>
      </trkpt>
      <trkpt lat="43.56523" lon="3.16807">
        <ele>304</ele>
        <time>2011-02-16T14:27:39Z</time>
      </trkpt>
      <trkpt lat="43.56518" lon="3.16807">
        <ele>303.60000610352</ele>
        <time>2011-02-16T14:27:40Z</time>
      </trkpt>
      <trkpt lat="43.56512" lon="3.16809">
        <ele>303</ele>
        <time>2011-02-16T14:27:41Z</time>
      </trkpt>
      <trkpt lat="43.56508" lon="3.16812">
        <ele>302.60000610352</ele>
        <time>2011-02-16T14:27:42Z</time>
      </trkpt>
      <trkpt lat="43.56504" lon="3.16817">
        <ele>302.60000610352</ele>
        <time>2011-02-16T14:27:43Z</time>
      </trkpt>
      <trkpt lat="43.56493" lon="3.16832">
        <ele>302.60000610352</ele>
        <time>2011-02-16T14:27:46Z</time>
      </trkpt>
      <trkpt lat="43.56485" lon="3.16841">
        <ele>302.60000610352</ele>
        <time>2011-02-16T14:27:48Z</time>
      </trkpt>
      <trkpt lat="43.56477" lon="3.16853">
        <ele>302.20001220703</ele>
        <time>2011-02-16T14:27:50Z</time>
      </trkpt>
      <trkpt lat="43.56473" lon="3.16858">
        <ele>301.79998779297</ele>
        <time>2011-02-16T14:27:51Z</time>
      </trkpt>
      <trkpt lat="43.56468" lon="3.16862">
        <ele>301.39999389648</ele>
        <time>2011-02-16T14:27:52Z</time>
      </trkpt>
      <trkpt lat="43.56462" lon="3.16865">
        <ele>301</ele>
        <time>2011-02-16T14:27:53Z</time>
      </trkpt>
      <trkpt lat="43.56457" lon="3.16868">
        <ele>300.60000610352</ele>
        <time>2011-02-16T14:27:54Z</time>
      </trkpt>
      <trkpt lat="43.56445" lon="3.16874">
        <ele>300.60000610352</ele>
        <time>2011-02-16T14:27:56Z</time>
      </trkpt>
      <trkpt lat="43.56427" lon="3.16881">
        <ele>300.60000610352</ele>
        <time>2011-02-16T14:27:59Z</time>
      </trkpt>
      <trkpt lat="43.56417" lon="3.16888">
        <ele>300.60000610352</ele>
        <time>2011-02-16T14:28:01Z</time>
      </trkpt>
      <trkpt lat="43.56408" lon="3.16897">
        <ele>300.60000610352</ele>
        <time>2011-02-16T14:28:03Z</time>
      </trkpt>
      <trkpt lat="43.56404" lon="3.16902">
        <ele>300.20001220703</ele>
        <time>2011-02-16T14:28:04Z</time>
      </trkpt>
      <trkpt lat="43.56401" lon="3.16908">
        <ele>299.79998779297</ele>
        <time>2011-02-16T14:28:05Z</time>
      </trkpt>
      <trkpt lat="43.56399" lon="3.16915">
        <ele>299.39999389648</ele>
        <time>2011-02-16T14:28:06Z</time>
      </trkpt>
      <trkpt lat="43.56396" lon="3.16922">
        <ele>299</ele>
        <time>2011-02-16T14:28:07Z</time>
      </trkpt>
      <trkpt lat="43.56394" lon="3.1693">
        <ele>298.39999389648</ele>
        <time>2011-02-16T14:28:08Z</time>
      </trkpt>
      <trkpt lat="43.5639" lon="3.16938">
        <ele>297.79998779297</ele>
        <time>2011-02-16T14:28:09Z</time>
      </trkpt>
      <trkpt lat="43.56387" lon="3.16947">
        <ele>297.39999389648</ele>
        <time>2011-02-16T14:28:10Z</time>
      </trkpt>
      <trkpt lat="43.56383" lon="3.16955">
        <ele>296.79998779297</ele>
        <time>2011-02-16T14:28:11Z</time>
      </trkpt>
      <trkpt lat="43.56379" lon="3.16963">
        <ele>296.20001220703</ele>
        <time>2011-02-16T14:28:12Z</time>
      </trkpt>
      <trkpt lat="43.56374" lon="3.16971">
        <ele>295.60000610352</ele>
        <time>2011-02-16T14:28:13Z</time>
      </trkpt>
      <trkpt lat="43.56369" lon="3.16979">
        <ele>295</ele>
        <time>2011-02-16T14:28:14Z</time>
      </trkpt>
      <trkpt lat="43.56364" lon="3.16987">
        <ele>294.60000610352</ele>
        <time>2011-02-16T14:28:15Z</time>
      </trkpt>
      <trkpt lat="43.56359" lon="3.16996">
        <ele>294</ele>
        <time>2011-02-16T14:28:16Z</time>
      </trkpt>
      <trkpt lat="43.56351" lon="3.17015">
        <ele>294</ele>
        <time>2011-02-16T14:28:18Z</time>
      </trkpt>
      <trkpt lat="43.56347" lon="3.17025">
        <ele>293.39999389648</ele>
        <time>2011-02-16T14:28:19Z</time>
      </trkpt>
      <trkpt lat="43.56345" lon="3.17036">
        <ele>293</ele>
        <time>2011-02-16T14:28:20Z</time>
      </trkpt>
      <trkpt lat="43.56343" lon="3.17048">
        <ele>292.60000610352</ele>
        <time>2011-02-16T14:28:21Z</time>
      </trkpt>
      <trkpt lat="43.56343" lon="3.17059">
        <ele>292.20001220703</ele>
        <time>2011-02-16T14:28:22Z</time>
      </trkpt>
      <trkpt lat="43.56343" lon="3.17071">
        <ele>291.79998779297</ele>
        <time>2011-02-16T14:28:23Z</time>
      </trkpt>
      <trkpt lat="43.56343" lon="3.17083">
        <ele>291.20001220703</ele>
        <time>2011-02-16T14:28:24Z</time>
      </trkpt>
      <trkpt lat="43.56341" lon="3.17094">
        <ele>290.79998779297</ele>
        <time>2011-02-16T14:28:25Z</time>
      </trkpt>
      <trkpt lat="43.56339" lon="3.17105">
        <ele>290.39999389648</ele>
        <time>2011-02-16T14:28:26Z</time>
      </trkpt>
      <trkpt lat="43.56337" lon="3.17116">
        <ele>289.39999389648</ele>
        <time>2011-02-16T14:28:27Z</time>
      </trkpt>
      <trkpt lat="43.56334" lon="3.17127">
        <ele>289</ele>
        <time>2011-02-16T14:28:28Z</time>
      </trkpt>
      <trkpt lat="43.56333" lon="3.17138">
        <ele>288.60000610352</ele>
        <time>2011-02-16T14:28:29Z</time>
      </trkpt>
      <trkpt lat="43.56333" lon="3.17149">
        <ele>288</ele>
        <time>2011-02-16T14:28:30Z</time>
      </trkpt>
      <trkpt lat="43.56333" lon="3.17158">
        <ele>287.60000610352</ele>
        <time>2011-02-16T14:28:31Z</time>
      </trkpt>
      <trkpt lat="43.56334" lon="3.17165">
        <ele>287.20001220703</ele>
        <time>2011-02-16T14:28:32Z</time>
      </trkpt>
      <trkpt lat="43.56336" lon="3.17176">
        <ele>287.20001220703</ele>
        <time>2011-02-16T14:28:34Z</time>
      </trkpt>
      <trkpt lat="43.56337" lon="3.17186">
        <ele>287.20001220703</ele>
        <time>2011-02-16T14:28:36Z</time>
      </trkpt>
      <trkpt lat="43.56339" lon="3.17195">
        <ele>287.20001220703</ele>
        <time>2011-02-16T14:28:38Z</time>
      </trkpt>
      <trkpt lat="43.56339" lon="3.172">
        <ele>287.60000610352</ele>
        <time>2011-02-16T14:28:39Z</time>
      </trkpt>
      <trkpt lat="43.5634" lon="3.17204">
        <ele>288.20001220703</ele>
        <time>2011-02-16T14:28:40Z</time>
      </trkpt>
      <trkpt lat="43.5634" lon="3.17208">
        <ele>288.60000610352</ele>
        <time>2011-02-16T14:28:41Z</time>
      </trkpt>
      <trkpt lat="43.5634" lon="3.17212">
        <ele>289.20001220703</ele>
        <time>2011-02-16T14:28:42Z</time>
      </trkpt>
      <trkpt lat="43.5634" lon="3.17216">
        <ele>289.60000610352</ele>
        <time>2011-02-16T14:28:43Z</time>
      </trkpt>
      <trkpt lat="43.56341" lon="3.1722">
        <ele>290</ele>
        <time>2011-02-16T14:28:44Z</time>
      </trkpt>
      <trkpt lat="43.56341" lon="3.17224">
        <ele>290.39999389648</ele>
        <time>2011-02-16T14:28:45Z</time>
      </trkpt>
      <trkpt lat="43.5634" lon="3.17229">
        <ele>291</ele>
        <time>2011-02-16T14:28:46Z</time>
      </trkpt>
      <trkpt lat="43.5634" lon="3.17234">
        <ele>291.39999389648</ele>
        <time>2011-02-16T14:28:47Z</time>
      </trkpt>
      <trkpt lat="43.5634" lon="3.17239">
        <ele>291.79998779297</ele>
        <time>2011-02-16T14:28:48Z</time>
      </trkpt>
      <trkpt lat="43.56339" lon="3.1725">
        <ele>291.79998779297</ele>
        <time>2011-02-16T14:28:50Z</time>
      </trkpt>
      <trkpt lat="43.56338" lon="3.17262">
        <ele>292.60000610352</ele>
        <time>2011-02-16T14:28:52Z</time>
      </trkpt>
      <trkpt lat="43.56337" lon="3.17266">
        <ele>293</ele>
        <time>2011-02-16T14:28:53Z</time>
      </trkpt>
      <trkpt lat="43.56335" lon="3.1727">
        <ele>293.39999389648</ele>
        <time>2011-02-16T14:28:54Z</time>
      </trkpt>
      <trkpt lat="43.56333" lon="3.17273">
        <ele>293.79998779297</ele>
        <time>2011-02-16T14:28:55Z</time>
      </trkpt>
      <trkpt lat="43.56331" lon="3.17278">
        <ele>294.39999389648</ele>
        <time>2011-02-16T14:28:56Z</time>
      </trkpt>
      <trkpt lat="43.5633" lon="3.17283">
        <ele>294.79998779297</ele>
        <time>2011-02-16T14:28:57Z</time>
      </trkpt>
      <trkpt lat="43.56328" lon="3.17288">
        <ele>295.20001220703</ele>
        <time>2011-02-16T14:28:58Z</time>
      </trkpt>
      <trkpt lat="43.56327" lon="3.17292">
        <ele>295.79998779297</ele>
        <time>2011-02-16T14:28:59Z</time>
      </trkpt>
      <trkpt lat="43.56324" lon="3.17296">
        <ele>296.20001220703</ele>
        <time>2011-02-16T14:29:00Z</time>
      </trkpt>
      <trkpt lat="43.56321" lon="3.17308">
        <ele>296.60000610352</ele>
        <time>2011-02-16T14:29:03Z</time>
      </trkpt>
      <trkpt lat="43.5632" lon="3.17311">
        <ele>297.20001220703</ele>
        <time>2011-02-16T14:29:04Z</time>
      </trkpt>
      <trkpt lat="43.56319" lon="3.17315">
        <ele>297.60000610352</ele>
        <time>2011-02-16T14:29:05Z</time>
      </trkpt>
      <trkpt lat="43.56319" lon="3.17318">
        <ele>298</ele>
        <time>2011-02-16T14:29:06Z</time>
      </trkpt>
      <trkpt lat="43.56319" lon="3.17321">
        <ele>298.39999389648</ele>
        <time>2011-02-16T14:29:07Z</time>
      </trkpt>
      <trkpt lat="43.5632" lon="3.17329">
        <ele>298.79998779297</ele>
        <time>2011-02-16T14:29:10Z</time>
      </trkpt>
      <trkpt lat="43.56321" lon="3.17332">
        <ele>299.20001220703</ele>
        <time>2011-02-16T14:29:11Z</time>
      </trkpt>
      <trkpt lat="43.56321" lon="3.17334">
        <ele>299.60000610352</ele>
        <time>2011-02-16T14:29:12Z</time>
      </trkpt>
      <trkpt lat="43.56322" lon="3.17336">
        <ele>300</ele>
        <time>2011-02-16T14:29:13Z</time>
      </trkpt>
      <trkpt lat="43.56323" lon="3.17338">
        <ele>300.39999389648</ele>
        <time>2011-02-16T14:29:14Z</time>
      </trkpt>
      <trkpt lat="43.56326" lon="3.17344">
        <ele>300.39999389648</ele>
        <time>2011-02-16T14:29:17Z</time>
      </trkpt>
      <trkpt lat="43.56327" lon="3.17346">
        <ele>300.79998779297</ele>
        <time>2011-02-16T14:29:18Z</time>
      </trkpt>
      <trkpt lat="43.56328" lon="3.17348">
        <ele>301.20001220703</ele>
        <time>2011-02-16T14:29:19Z</time>
      </trkpt>
      <trkpt lat="43.56329" lon="3.1735">
        <ele>301.60000610352</ele>
        <time>2011-02-16T14:29:20Z</time>
      </trkpt>
      <trkpt lat="43.5633" lon="3.17351">
        <ele>302</ele>
        <time>2011-02-16T14:29:21Z</time>
      </trkpt>
      <trkpt lat="43.56331" lon="3.17353">
        <ele>302.39999389648</ele>
        <time>2011-02-16T14:29:22Z</time>
      </trkpt>
      <trkpt lat="43.56331" lon="3.17355">
        <ele>302.39999389648</ele>
        <time>2011-02-16T14:29:23Z</time>
      </trkpt>
      <trkpt lat="43.56335" lon="3.1737">
        <ele>302.39999389648</ele>
        <time>2011-02-16T14:29:30Z</time>
      </trkpt>
      <trkpt lat="43.56339" lon="3.17385">
        <ele>302.39999389648</ele>
        <time>2011-02-16T14:29:38Z</time>
      </trkpt>
      <trkpt lat="43.5634" lon="3.17392">
        <ele>302.79998779297</ele>
        <time>2011-02-16T14:29:42Z</time>
      </trkpt>
      <trkpt lat="43.5634" lon="3.17394">
        <ele>303.20001220703</ele>
        <time>2011-02-16T14:29:43Z</time>
      </trkpt>
      <trkpt lat="43.5634" lon="3.17397">
        <ele>303.60000610352</ele>
        <time>2011-02-16T14:29:44Z</time>
      </trkpt>
      <trkpt lat="43.5634" lon="3.17399">
        <ele>304.20001220703</ele>
        <time>2011-02-16T14:29:45Z</time>
      </trkpt>
      <trkpt lat="43.5634" lon="3.17401">
        <ele>304.60000610352</ele>
        <time>2011-02-16T14:29:46Z</time>
      </trkpt>
      <trkpt lat="43.5634" lon="3.17413">
        <ele>304.60000610352</ele>
        <time>2011-02-16T14:29:52Z</time>
      </trkpt>
      <trkpt lat="43.56339" lon="3.17421">
        <ele>305</ele>
        <time>2011-02-16T14:29:56Z</time>
      </trkpt>
      <trkpt lat="43.56339" lon="3.17422">
        <ele>305.39999389648</ele>
        <time>2011-02-16T14:29:57Z</time>
      </trkpt>
      <trkpt lat="43.56339" lon="3.17424">
        <ele>305.79998779297</ele>
        <time>2011-02-16T14:29:58Z</time>
      </trkpt>
      <trkpt lat="43.56339" lon="3.17426">
        <ele>306.20001220703</ele>
        <time>2011-02-16T14:29:59Z</time>
      </trkpt>
      <trkpt lat="43.56339" lon="3.17428">
        <ele>306.60000610352</ele>
        <time>2011-02-16T14:30:00Z</time>
      </trkpt>
      <trkpt lat="43.5634" lon="3.17437">
        <ele>306.60000610352</ele>
        <time>2011-02-16T14:30:05Z</time>
      </trkpt>
      <trkpt lat="43.5634" lon="3.17439">
        <ele>307.39999389648</ele>
        <time>2011-02-16T14:30:06Z</time>
      </trkpt>
      <trkpt lat="43.5634" lon="3.17442">
        <ele>307.79998779297</ele>
        <time>2011-02-16T14:30:07Z</time>
      </trkpt>
      <trkpt lat="43.5634" lon="3.17444">
        <ele>308.20001220703</ele>
        <time>2011-02-16T14:30:08Z</time>
      </trkpt>
      <trkpt lat="43.56339" lon="3.17446">
        <ele>308.60000610352</ele>
        <time>2011-02-16T14:30:09Z</time>
      </trkpt>
      <trkpt lat="43.56339" lon="3.17451">
        <ele>308.60000610352</ele>
        <time>2011-02-16T14:30:11Z</time>
      </trkpt>
      <trkpt lat="43.5634" lon="3.17454">
        <ele>308.60000610352</ele>
        <time>2011-02-16T14:30:13Z</time>
      </trkpt>
      <trkpt lat="43.5634" lon="3.17457">
        <ele>309</ele>
        <time>2011-02-16T14:30:14Z</time>
      </trkpt>
      <trkpt lat="43.5634" lon="3.17459">
        <ele>309.39999389648</ele>
        <time>2011-02-16T14:30:15Z</time>
      </trkpt>
      <trkpt lat="43.5634" lon="3.17462">
        <ele>309.79998779297</ele>
        <time>2011-02-16T14:30:16Z</time>
      </trkpt>
      <trkpt lat="43.56341" lon="3.17464">
        <ele>310.20001220703</ele>
        <time>2011-02-16T14:30:17Z</time>
      </trkpt>
      <trkpt lat="43.5634" lon="3.17467">
        <ele>310.60000610352</ele>
        <time>2011-02-16T14:30:18Z</time>
      </trkpt>
      <trkpt lat="43.5634" lon="3.17479">
        <ele>310.60000610352</ele>
        <time>2011-02-16T14:30:23Z</time>
      </trkpt>
      <trkpt lat="43.5634" lon="3.17491">
        <ele>310.60000610352</ele>
        <time>2011-02-16T14:30:28Z</time>
      </trkpt>
      <trkpt lat="43.56342" lon="3.17501">
        <ele>311</ele>
        <time>2011-02-16T14:30:32Z</time>
      </trkpt>
      <trkpt lat="43.56342" lon="3.17503">
        <ele>311.39999389648</ele>
        <time>2011-02-16T14:30:33Z</time>
      </trkpt>
      <trkpt lat="43.56343" lon="3.17505">
        <ele>311.79998779297</ele>
        <time>2011-02-16T14:30:34Z</time>
      </trkpt>
      <trkpt lat="43.56343" lon="3.17508">
        <ele>312.20001220703</ele>
        <time>2011-02-16T14:30:35Z</time>
      </trkpt>
      <trkpt lat="43.56343" lon="3.1751">
        <ele>312.60000610352</ele>
        <time>2011-02-16T14:30:36Z</time>
      </trkpt>
      <trkpt lat="43.56348" lon="3.17528">
        <ele>312.60000610352</ele>
        <time>2011-02-16T14:30:43Z</time>
      </trkpt>
      <trkpt lat="43.5635" lon="3.17542">
        <ele>312.60000610352</ele>
        <time>2011-02-16T14:30:48Z</time>
      </trkpt>
      <trkpt lat="43.56353" lon="3.17552">
        <ele>312.60000610352</ele>
        <time>2011-02-16T14:30:52Z</time>
      </trkpt>
      <trkpt lat="43.56356" lon="3.17563">
        <ele>312.60000610352</ele>
        <time>2011-02-16T14:30:57Z</time>
      </trkpt>
      <trkpt lat="43.56358" lon="3.17568">
        <ele>312.60000610352</ele>
        <time>2011-02-16T14:30:59Z</time>
      </trkpt>
      <trkpt lat="43.56359" lon="3.17575">
        <ele>312.60000610352</ele>
        <time>2011-02-16T14:31:02Z</time>
      </trkpt>
      <trkpt lat="43.5636" lon="3.1759">
        <ele>312.60000610352</ele>
        <time>2011-02-16T14:31:07Z</time>
      </trkpt>
      <trkpt lat="43.56358" lon="3.17622">
        <ele>312.60000610352</ele>
        <time>2011-02-16T14:31:15Z</time>
      </trkpt>
      <trkpt lat="43.56356" lon="3.17637">
        <ele>312.60000610352</ele>
        <time>2011-02-16T14:31:18Z</time>
      </trkpt>
      <trkpt lat="43.56353" lon="3.17645">
        <ele>312.60000610352</ele>
        <time>2011-02-16T14:31:20Z</time>
      </trkpt>
      <trkpt lat="43.5635" lon="3.1766">
        <ele>312.60000610352</ele>
        <time>2011-02-16T14:31:24Z</time>
      </trkpt>
      <trkpt lat="43.56351" lon="3.17663">
        <ele>312.60000610352</ele>
        <time>2011-02-16T14:31:25Z</time>
      </trkpt>
      <trkpt lat="43.56359" lon="3.17666">
        <ele>312.60000610352</ele>
        <time>2011-02-16T14:31:28Z</time>
      </trkpt>
      <trkpt lat="43.56368" lon="3.17672">
        <ele>312.60000610352</ele>
        <time>2011-02-16T14:31:32Z</time>
      </trkpt>
      <trkpt lat="43.56372" lon="3.17692">
        <ele>312.60000610352</ele>
        <time>2011-02-16T14:31:36Z</time>
      </trkpt>
      <trkpt lat="43.56374" lon="3.17714">
        <ele>312.20001220703</ele>
        <time>2011-02-16T14:31:39Z</time>
      </trkpt>
      <trkpt lat="43.56377" lon="3.17721">
        <ele>311.79998779297</ele>
        <time>2011-02-16T14:31:40Z</time>
      </trkpt>
      <trkpt lat="43.56379" lon="3.17728">
        <ele>311.39999389648</ele>
        <time>2011-02-16T14:31:41Z</time>
      </trkpt>
      <trkpt lat="43.56382" lon="3.17737">
        <ele>311</ele>
        <time>2011-02-16T14:31:42Z</time>
      </trkpt>
      <trkpt lat="43.56384" lon="3.17745">
        <ele>310.60000610352</ele>
        <time>2011-02-16T14:31:43Z</time>
      </trkpt>
      <trkpt lat="43.56387" lon="3.17753">
        <ele>310</ele>
        <time>2011-02-16T14:31:44Z</time>
      </trkpt>
      <trkpt lat="43.5639" lon="3.17761">
        <ele>309.20001220703</ele>
        <time>2011-02-16T14:31:45Z</time>
      </trkpt>
      <trkpt lat="43.56393" lon="3.1777">
        <ele>308.79998779297</ele>
        <time>2011-02-16T14:31:46Z</time>
      </trkpt>
      <trkpt lat="43.56397" lon="3.17779">
        <ele>308.39999389648</ele>
        <time>2011-02-16T14:31:47Z</time>
      </trkpt>
      <trkpt lat="43.56413" lon="3.1781">
        <ele>308</ele>
        <time>2011-02-16T14:31:51Z</time>
      </trkpt>
      <trkpt lat="43.56417" lon="3.17817">
        <ele>307.60000610352</ele>
        <time>2011-02-16T14:31:52Z</time>
      </trkpt>
      <trkpt lat="43.56423" lon="3.17825">
        <ele>307.20001220703</ele>
        <time>2011-02-16T14:31:53Z</time>
      </trkpt>
      <trkpt lat="43.56429" lon="3.17831">
        <ele>306.60000610352</ele>
        <time>2011-02-16T14:31:54Z</time>
      </trkpt>
      <trkpt lat="43.56435" lon="3.17837">
        <ele>306.20001220703</ele>
        <time>2011-02-16T14:31:55Z</time>
      </trkpt>
      <trkpt lat="43.56442" lon="3.17842">
        <ele>305.79998779297</ele>
        <time>2011-02-16T14:31:56Z</time>
      </trkpt>
      <trkpt lat="43.56448" lon="3.17847">
        <ele>305.20001220703</ele>
        <time>2011-02-16T14:31:57Z</time>
      </trkpt>
      <trkpt lat="43.56455" lon="3.17852">
        <ele>304.79998779297</ele>
        <time>2011-02-16T14:31:58Z</time>
      </trkpt>
      <trkpt lat="43.56462" lon="3.17858">
        <ele>304.20001220703</ele>
        <time>2011-02-16T14:31:59Z</time>
      </trkpt>
      <trkpt lat="43.56469" lon="3.17863">
        <ele>303.79998779297</ele>
        <time>2011-02-16T14:32:00Z</time>
      </trkpt>
      <trkpt lat="43.56481" lon="3.17874">
        <ele>303.79998779297</ele>
        <time>2011-02-16T14:32:02Z</time>
      </trkpt>
      <trkpt lat="43.56487" lon="3.1788">
        <ele>303.20001220703</ele>
        <time>2011-02-16T14:32:03Z</time>
      </trkpt>
      <trkpt lat="43.56491" lon="3.17889">
        <ele>302.79998779297</ele>
        <time>2011-02-16T14:32:04Z</time>
      </trkpt>
      <trkpt lat="43.56495" lon="3.17898">
        <ele>302.39999389648</ele>
        <time>2011-02-16T14:32:05Z</time>
      </trkpt>
      <trkpt lat="43.56496" lon="3.17909">
        <ele>301.79998779297</ele>
        <time>2011-02-16T14:32:06Z</time>
      </trkpt>
      <trkpt lat="43.56495" lon="3.17919">
        <ele>301.39999389648</ele>
        <time>2011-02-16T14:32:07Z</time>
      </trkpt>
      <trkpt lat="43.56494" lon="3.17928">
        <ele>301.39999389648</ele>
        <time>2011-02-16T14:32:08Z</time>
      </trkpt>
      <trkpt lat="43.56491" lon="3.17937">
        <ele>301.39999389648</ele>
        <time>2011-02-16T14:32:09Z</time>
      </trkpt>
      <trkpt lat="43.5649" lon="3.17944">
        <ele>301.39999389648</ele>
        <time>2011-02-16T14:32:10Z</time>
      </trkpt>
      <trkpt lat="43.56491" lon="3.17956">
        <ele>301</ele>
        <time>2011-02-16T14:32:12Z</time>
      </trkpt>
      <trkpt lat="43.56495" lon="3.17959">
        <ele>300.60000610352</ele>
        <time>2011-02-16T14:32:13Z</time>
      </trkpt>
      <trkpt lat="43.56498" lon="3.17959">
        <ele>300.20001220703</ele>
        <time>2011-02-16T14:32:14Z</time>
      </trkpt>
      <trkpt lat="43.56501" lon="3.1796">
        <ele>299.79998779297</ele>
        <time>2011-02-16T14:32:15Z</time>
      </trkpt>
      <trkpt lat="43.56503" lon="3.1796">
        <ele>299.39999389648</ele>
        <time>2011-02-16T14:32:16Z</time>
      </trkpt>
      <trkpt lat="43.56504" lon="3.1796">
        <ele>299.39999389648</ele>
        <time>2011-02-16T14:32:17Z</time>
      </trkpt>
      <trkpt lat="43.5651" lon="3.17961">
        <ele>299.39999389648</ele>
        <time>2011-02-16T14:32:20Z</time>
      </trkpt>
      <trkpt lat="43.56514" lon="3.17963">
        <ele>299.79998779297</ele>
        <time>2011-02-16T14:32:22Z</time>
      </trkpt>
      <trkpt lat="43.56515" lon="3.17963">
        <ele>300.20001220703</ele>
        <time>2011-02-16T14:32:23Z</time>
      </trkpt>
      <trkpt lat="43.56516" lon="3.17964">
        <ele>300.60000610352</ele>
        <time>2011-02-16T14:32:24Z</time>
      </trkpt>
      <trkpt lat="43.56517" lon="3.17966">
        <ele>301</ele>
        <time>2011-02-16T14:32:25Z</time>
      </trkpt>
      <trkpt lat="43.56518" lon="3.17967">
        <ele>301.39999389648</ele>
        <time>2011-02-16T14:32:26Z</time>
      </trkpt>
      <trkpt lat="43.56521" lon="3.17969">
        <ele>301.39999389648</ele>
        <time>2011-02-16T14:32:28Z</time>
      </trkpt>
      <trkpt lat="43.56527" lon="3.17973">
        <ele>301.39999389648</ele>
        <time>2011-02-16T14:32:31Z</time>
      </trkpt>
      <trkpt lat="43.56533" lon="3.17979">
        <ele>301.79998779297</ele>
        <time>2011-02-16T14:32:35Z</time>
      </trkpt>
      <trkpt lat="43.56535" lon="3.1798">
        <ele>302.20001220703</ele>
        <time>2011-02-16T14:32:36Z</time>
      </trkpt>
      <trkpt lat="43.56537" lon="3.17981">
        <ele>302.60000610352</ele>
        <time>2011-02-16T14:32:37Z</time>
      </trkpt>
      <trkpt lat="43.56539" lon="3.17982">
        <ele>303.20001220703</ele>
        <time>2011-02-16T14:32:38Z</time>
      </trkpt>
      <trkpt lat="43.5654" lon="3.17983">
        <ele>303.60000610352</ele>
        <time>2011-02-16T14:32:39Z</time>
      </trkpt>
      <trkpt lat="43.5655" lon="3.17987">
        <ele>303.60000610352</ele>
        <time>2011-02-16T14:32:44Z</time>
      </trkpt>
      <trkpt lat="43.56564" lon="3.17991">
        <ele>303.60000610352</ele>
        <time>2011-02-16T14:32:52Z</time>
      </trkpt>
      <trkpt lat="43.56567" lon="3.17993">
        <ele>304</ele>
        <time>2011-02-16T14:32:54Z</time>
      </trkpt>
      <trkpt lat="43.56569" lon="3.17994">
        <ele>304.39999389648</ele>
        <time>2011-02-16T14:32:55Z</time>
      </trkpt>
      <trkpt lat="43.5657" lon="3.17995">
        <ele>304.79998779297</ele>
        <time>2011-02-16T14:32:56Z</time>
      </trkpt>
      <trkpt lat="43.56572" lon="3.17995">
        <ele>305.20001220703</ele>
        <time>2011-02-16T14:32:57Z</time>
      </trkpt>
      <trkpt lat="43.56573" lon="3.17996">
        <ele>305.60000610352</ele>
        <time>2011-02-16T14:32:58Z</time>
      </trkpt>
      <trkpt lat="43.56575" lon="3.17997">
        <ele>305.60000610352</ele>
        <time>2011-02-16T14:32:59Z</time>
      </trkpt>
      <trkpt lat="43.56585" lon="3.18007">
        <ele>306</ele>
        <time>2011-02-16T14:33:07Z</time>
      </trkpt>
      <trkpt lat="43.56586" lon="3.18009">
        <ele>306.39999389648</ele>
        <time>2011-02-16T14:33:08Z</time>
      </trkpt>
      <trkpt lat="43.56587" lon="3.1801">
        <ele>306.79998779297</ele>
        <time>2011-02-16T14:33:09Z</time>
      </trkpt>
      <trkpt lat="43.56588" lon="3.18012">
        <ele>307.20001220703</ele>
        <time>2011-02-16T14:33:10Z</time>
      </trkpt>
      <trkpt lat="43.56588" lon="3.18014">
        <ele>307.60000610352</ele>
        <time>2011-02-16T14:33:11Z</time>
      </trkpt>
      <trkpt lat="43.5659" lon="3.18019">
        <ele>307.60000610352</ele>
        <time>2011-02-16T14:33:13Z</time>
      </trkpt>
      <trkpt lat="43.56594" lon="3.18035">
        <ele>308</ele>
        <time>2011-02-16T14:33:20Z</time>
      </trkpt>
      <trkpt lat="43.56595" lon="3.18037">
        <ele>308.60000610352</ele>
        <time>2011-02-16T14:33:21Z</time>
      </trkpt>
      <trkpt lat="43.56596" lon="3.1804">
        <ele>309</ele>
        <time>2011-02-16T14:33:22Z</time>
      </trkpt>
      <trkpt lat="43.56596" lon="3.18043">
        <ele>309.39999389648</ele>
        <time>2011-02-16T14:33:23Z</time>
      </trkpt>
      <trkpt lat="43.56596" lon="3.18046">
        <ele>309.79998779297</ele>
        <time>2011-02-16T14:33:24Z</time>
      </trkpt>
      <trkpt lat="43.56598" lon="3.18063">
        <ele>309.79998779297</ele>
        <time>2011-02-16T14:33:30Z</time>
      </trkpt>
      <trkpt lat="43.56603" lon="3.18081">
        <ele>309.79998779297</ele>
        <time>2011-02-16T14:33:37Z</time>
      </trkpt>
      <trkpt lat="43.56606" lon="3.18085">
        <ele>310.20001220703</ele>
        <time>2011-02-16T14:33:39Z</time>
      </trkpt>
      <trkpt lat="43.56606" lon="3.18087">
        <ele>310.60000610352</ele>
        <time>2011-02-16T14:33:40Z</time>
      </trkpt>
      <trkpt lat="43.56607" lon="3.18088">
        <ele>311</ele>
        <time>2011-02-16T14:33:41Z</time>
      </trkpt>
      <trkpt lat="43.56608" lon="3.18089">
        <ele>311.39999389648</ele>
        <time>2011-02-16T14:33:42Z</time>
      </trkpt>
      <trkpt lat="43.56609" lon="3.18091">
        <ele>311.79998779297</ele>
        <time>2011-02-16T14:33:43Z</time>
      </trkpt>
      <trkpt lat="43.56616" lon="3.18099">
        <ele>311.79998779297</ele>
        <time>2011-02-16T14:33:50Z</time>
      </trkpt>
      <trkpt lat="43.56617" lon="3.181">
        <ele>312.39999389648</ele>
        <time>2011-02-16T14:33:51Z</time>
      </trkpt>
      <trkpt lat="43.56618" lon="3.18101">
        <ele>312.79998779297</ele>
        <time>2011-02-16T14:33:52Z</time>
      </trkpt>
      <trkpt lat="43.56619" lon="3.18102">
        <ele>313.20001220703</ele>
        <time>2011-02-16T14:33:53Z</time>
      </trkpt>
      <trkpt lat="43.5662" lon="3.18103">
        <ele>313.60000610352</ele>
        <time>2011-02-16T14:33:54Z</time>
      </trkpt>
      <trkpt lat="43.56621" lon="3.18105">
        <ele>314</ele>
        <time>2011-02-16T14:33:55Z</time>
      </trkpt>
      <trkpt lat="43.56624" lon="3.18107">
        <ele>314</ele>
        <time>2011-02-16T14:33:57Z</time>
      </trkpt>
      <trkpt lat="43.56628" lon="3.18116">
        <ele>314.39999389648</ele>
        <time>2011-02-16T14:34:03Z</time>
      </trkpt>
      <trkpt lat="43.56629" lon="3.18118">
        <ele>314.79998779297</ele>
        <time>2011-02-16T14:34:04Z</time>
      </trkpt>
      <trkpt lat="43.5663" lon="3.18119">
        <ele>315.20001220703</ele>
        <time>2011-02-16T14:34:05Z</time>
      </trkpt>
      <trkpt lat="43.5663" lon="3.18121">
        <ele>315.60000610352</ele>
        <time>2011-02-16T14:34:06Z</time>
      </trkpt>
      <trkpt lat="43.56631" lon="3.18123">
        <ele>316</ele>
        <time>2011-02-16T14:34:07Z</time>
      </trkpt>
      <trkpt lat="43.56633" lon="3.1813">
        <ele>316</ele>
        <time>2011-02-16T14:34:11Z</time>
      </trkpt>
      <trkpt lat="43.56635" lon="3.18133">
        <ele>317</ele>
        <time>2011-02-16T14:34:13Z</time>
      </trkpt>
      <trkpt lat="43.56635" lon="3.18135">
        <ele>317.39999389648</ele>
        <time>2011-02-16T14:34:14Z</time>
      </trkpt>
      <trkpt lat="43.56635" lon="3.18137">
        <ele>317.79998779297</ele>
        <time>2011-02-16T14:34:15Z</time>
      </trkpt>
      <trkpt lat="43.56636" lon="3.18139">
        <ele>318.20001220703</ele>
        <time>2011-02-16T14:34:16Z</time>
      </trkpt>
      <trkpt lat="43.56636" lon="3.18141">
        <ele>318.20001220703</ele>
        <time>2011-02-16T14:34:17Z</time>
      </trkpt>
      <trkpt lat="43.56639" lon="3.18157">
        <ele>318.60000610352</ele>
        <time>2011-02-16T14:34:25Z</time>
      </trkpt>
      <trkpt lat="43.5664" lon="3.1816">
        <ele>319</ele>
        <time>2011-02-16T14:34:26Z</time>
      </trkpt>
      <trkpt lat="43.56641" lon="3.18162">
        <ele>319.39999389648</ele>
        <time>2011-02-16T14:34:27Z</time>
      </trkpt>
      <trkpt lat="43.56641" lon="3.18164">
        <ele>319.79998779297</ele>
        <time>2011-02-16T14:34:28Z</time>
      </trkpt>
      <trkpt lat="43.56642" lon="3.18166">
        <ele>320.20001220703</ele>
        <time>2011-02-16T14:34:29Z</time>
      </trkpt>
      <trkpt lat="43.56644" lon="3.18172">
        <ele>320.20001220703</ele>
        <time>2011-02-16T14:34:32Z</time>
      </trkpt>
      <trkpt lat="43.56651" lon="3.18186">
        <ele>320.20001220703</ele>
        <time>2011-02-16T14:34:40Z</time>
      </trkpt>
      <trkpt lat="43.56654" lon="3.18191">
        <ele>320.60000610352</ele>
        <time>2011-02-16T14:34:43Z</time>
      </trkpt>
      <trkpt lat="43.56655" lon="3.18192">
        <ele>321</ele>
        <time>2011-02-16T14:34:44Z</time>
      </trkpt>
      <trkpt lat="43.56656" lon="3.18194">
        <ele>321.39999389648</ele>
        <time>2011-02-16T14:34:45Z</time>
      </trkpt>
      <trkpt lat="43.56657" lon="3.18195">
        <ele>322</ele>
        <time>2011-02-16T14:34:46Z</time>
      </trkpt>
      <trkpt lat="43.56659" lon="3.18197">
        <ele>322.39999389648</ele>
        <time>2011-02-16T14:34:47Z</time>
      </trkpt>
      <trkpt lat="43.56666" lon="3.18203">
        <ele>322.39999389648</ele>
        <time>2011-02-16T14:34:52Z</time>
      </trkpt>
      <trkpt lat="43.56673" lon="3.18204">
        <ele>322.79998779297</ele>
        <time>2011-02-16T14:34:57Z</time>
      </trkpt>
      <trkpt lat="43.56675" lon="3.18203">
        <ele>323.20001220703</ele>
        <time>2011-02-16T14:34:58Z</time>
      </trkpt>
      <trkpt lat="43.56676" lon="3.18203">
        <ele>323.60000610352</ele>
        <time>2011-02-16T14:34:59Z</time>
      </trkpt>
      <trkpt lat="43.56678" lon="3.18203">
        <ele>324</ele>
        <time>2011-02-16T14:35:00Z</time>
      </trkpt>
      <trkpt lat="43.5668" lon="3.18202">
        <ele>324.39999389648</ele>
        <time>2011-02-16T14:35:01Z</time>
      </trkpt>
      <trkpt lat="43.56684" lon="3.18201">
        <ele>324.39999389648</ele>
        <time>2011-02-16T14:35:04Z</time>
      </trkpt>
      <trkpt lat="43.56689" lon="3.18201">
        <ele>324.79998779297</ele>
        <time>2011-02-16T14:35:07Z</time>
      </trkpt>
      <trkpt lat="43.5669" lon="3.18201">
        <ele>325.20001220703</ele>
        <time>2011-02-16T14:35:08Z</time>
      </trkpt>
      <trkpt lat="43.56692" lon="3.18203">
        <ele>325.60000610352</ele>
        <time>2011-02-16T14:35:09Z</time>
      </trkpt>
      <trkpt lat="43.56693" lon="3.18204">
        <ele>326</ele>
        <time>2011-02-16T14:35:10Z</time>
      </trkpt>
      <trkpt lat="43.56694" lon="3.18205">
        <ele>326.39999389648</ele>
        <time>2011-02-16T14:35:11Z</time>
      </trkpt>
      <trkpt lat="43.56702" lon="3.18212">
        <ele>326.79998779297</ele>
        <time>2011-02-16T14:35:17Z</time>
      </trkpt>
      <trkpt lat="43.56704" lon="3.18213">
        <ele>327.20001220703</ele>
        <time>2011-02-16T14:35:18Z</time>
      </trkpt>
      <trkpt lat="43.56705" lon="3.18214">
        <ele>327.60000610352</ele>
        <time>2011-02-16T14:35:19Z</time>
      </trkpt>
      <trkpt lat="43.56707" lon="3.18215">
        <ele>328</ele>
        <time>2011-02-16T14:35:20Z</time>
      </trkpt>
      <trkpt lat="43.56708" lon="3.18214">
        <ele>328.39999389648</ele>
        <time>2011-02-16T14:35:21Z</time>
      </trkpt>
      <trkpt lat="43.5671" lon="3.18214">
        <ele>328.39999389648</ele>
        <time>2011-02-16T14:35:22Z</time>
      </trkpt>
      <trkpt lat="43.56716" lon="3.18209">
        <ele>328.79998779297</ele>
        <time>2011-02-16T14:35:26Z</time>
      </trkpt>
      <trkpt lat="43.56717" lon="3.18208">
        <ele>329.60000610352</ele>
        <time>2011-02-16T14:35:27Z</time>
      </trkpt>
      <trkpt lat="43.56719" lon="3.18207">
        <ele>330</ele>
        <time>2011-02-16T14:35:28Z</time>
      </trkpt>
      <trkpt lat="43.5672" lon="3.18206">
        <ele>330.39999389648</ele>
        <time>2011-02-16T14:35:29Z</time>
      </trkpt>
      <trkpt lat="43.56728" lon="3.18195">
        <ele>330.39999389648</ele>
        <time>2011-02-16T14:35:35Z</time>
      </trkpt>
      <trkpt lat="43.56735" lon="3.18186">
        <ele>331</ele>
        <time>2011-02-16T14:35:41Z</time>
      </trkpt>
      <trkpt lat="43.56736" lon="3.18184">
        <ele>331.39999389648</ele>
        <time>2011-02-16T14:35:42Z</time>
      </trkpt>
      <trkpt lat="43.56738" lon="3.18182">
        <ele>331.79998779297</ele>
        <time>2011-02-16T14:35:43Z</time>
      </trkpt>
      <trkpt lat="43.56739" lon="3.18181">
        <ele>332.20001220703</ele>
        <time>2011-02-16T14:35:44Z</time>
      </trkpt>
      <trkpt lat="43.56741" lon="3.18179">
        <ele>332.60000610352</ele>
        <time>2011-02-16T14:35:45Z</time>
      </trkpt>
      <trkpt lat="43.56751" lon="3.18167">
        <ele>332.60000610352</ele>
        <time>2011-02-16T14:35:52Z</time>
      </trkpt>
      <trkpt lat="43.56764" lon="3.18154">
        <ele>333</ele>
        <time>2011-02-16T14:36:00Z</time>
      </trkpt>
      <trkpt lat="43.56766" lon="3.18153">
        <ele>333.39999389648</ele>
        <time>2011-02-16T14:36:01Z</time>
      </trkpt>
      <trkpt lat="43.56767" lon="3.18151">
        <ele>333.79998779297</ele>
        <time>2011-02-16T14:36:02Z</time>
      </trkpt>
      <trkpt lat="43.56768" lon="3.18149">
        <ele>334.20001220703</ele>
        <time>2011-02-16T14:36:03Z</time>
      </trkpt>
      <trkpt lat="43.5677" lon="3.18148">
        <ele>334.79998779297</ele>
        <time>2011-02-16T14:36:04Z</time>
      </trkpt>
      <trkpt lat="43.56777" lon="3.18141">
        <ele>334.79998779297</ele>
        <time>2011-02-16T14:36:08Z</time>
      </trkpt>
      <trkpt lat="43.56789" lon="3.18131">
        <ele>334.79998779297</ele>
        <time>2011-02-16T14:36:14Z</time>
      </trkpt>
      <trkpt lat="43.56791" lon="3.18129">
        <ele>335.20001220703</ele>
        <time>2011-02-16T14:36:15Z</time>
      </trkpt>
      <trkpt lat="43.56792" lon="3.18127">
        <ele>335.60000610352</ele>
        <time>2011-02-16T14:36:16Z</time>
      </trkpt>
      <trkpt lat="43.56794" lon="3.18125">
        <ele>336.39999389648</ele>
        <time>2011-02-16T14:36:17Z</time>
      </trkpt>
      <trkpt lat="43.56796" lon="3.18123">
        <ele>336.79998779297</ele>
        <time>2011-02-16T14:36:18Z</time>
      </trkpt>
      <trkpt lat="43.56802" lon="3.18118">
        <ele>336.79998779297</ele>
        <time>2011-02-16T14:36:21Z</time>
      </trkpt>
      <trkpt lat="43.56816" lon="3.18106">
        <ele>336.79998779297</ele>
        <time>2011-02-16T14:36:27Z</time>
      </trkpt>
      <trkpt lat="43.56834" lon="3.181">
        <ele>336.79998779297</ele>
        <time>2011-02-16T14:36:33Z</time>
      </trkpt>
      <trkpt lat="43.56846" lon="3.181">
        <ele>337.20001220703</ele>
        <time>2011-02-16T14:36:37Z</time>
      </trkpt>
      <trkpt lat="43.56849" lon="3.181">
        <ele>337.60000610352</ele>
        <time>2011-02-16T14:36:38Z</time>
      </trkpt>
      <trkpt lat="43.56853" lon="3.18099">
        <ele>338</ele>
        <time>2011-02-16T14:36:39Z</time>
      </trkpt>
      <trkpt lat="43.56856" lon="3.18098">
        <ele>338.60000610352</ele>
        <time>2011-02-16T14:36:40Z</time>
      </trkpt>
      <trkpt lat="43.56858" lon="3.18095">
        <ele>339</ele>
        <time>2011-02-16T14:36:41Z</time>
      </trkpt>
      <trkpt lat="43.56861" lon="3.18088">
        <ele>339</ele>
        <time>2011-02-16T14:36:43Z</time>
      </trkpt>
      <trkpt lat="43.56855" lon="3.18077">
        <ele>339</ele>
        <time>2011-02-16T14:36:46Z</time>
      </trkpt>
      <trkpt lat="43.56852" lon="3.18075">
        <ele>339</ele>
        <time>2011-02-16T14:36:47Z</time>
      </trkpt>
      <trkpt lat="43.56837" lon="3.18067">
        <ele>339</ele>
        <time>2011-02-16T14:36:51Z</time>
      </trkpt>
      <trkpt lat="43.56814" lon="3.1806">
        <ele>339</ele>
        <time>2011-02-16T14:36:56Z</time>
      </trkpt>
      <trkpt lat="43.56809" lon="3.1806">
        <ele>339</ele>
        <time>2011-02-16T14:36:57Z</time>
      </trkpt>
      <trkpt lat="43.56778" lon="3.18057">
        <ele>339</ele>
        <time>2011-02-16T14:37:04Z</time>
      </trkpt>
      <trkpt lat="43.56774" lon="3.18055">
        <ele>339</ele>
        <time>2011-02-16T14:37:05Z</time>
      </trkpt>
      <trkpt lat="43.56767" lon="3.18052">
        <ele>339</ele>
        <time>2011-02-16T14:37:07Z</time>
      </trkpt>
      <trkpt lat="43.5676" lon="3.18047">
        <ele>339</ele>
        <time>2011-02-16T14:37:09Z</time>
      </trkpt>
      <trkpt lat="43.56758" lon="3.18039">
        <ele>339.39999389648</ele>
        <time>2011-02-16T14:37:11Z</time>
      </trkpt>
      <trkpt lat="43.56758" lon="3.18037">
        <ele>339.79998779297</ele>
        <time>2011-02-16T14:37:12Z</time>
      </trkpt>
      <trkpt lat="43.56759" lon="3.18035">
        <ele>340.20001220703</ele>
        <time>2011-02-16T14:37:13Z</time>
      </trkpt>
      <trkpt lat="43.56761" lon="3.18034">
        <ele>340.60000610352</ele>
        <time>2011-02-16T14:37:14Z</time>
      </trkpt>
      <trkpt lat="43.56763" lon="3.18034">
        <ele>341.20001220703</ele>
        <time>2011-02-16T14:37:15Z</time>
      </trkpt>
      <trkpt lat="43.56765" lon="3.18035">
        <ele>341.20001220703</ele>
        <time>2011-02-16T14:37:16Z</time>
      </trkpt>
      <trkpt lat="43.56768" lon="3.18034">
        <ele>341.60000610352</ele>
        <time>2011-02-16T14:37:18Z</time>
      </trkpt>
      <trkpt lat="43.5677" lon="3.18033">
        <ele>342</ele>
        <time>2011-02-16T14:37:19Z</time>
      </trkpt>
      <trkpt lat="43.56771" lon="3.18033">
        <ele>342.39999389648</ele>
        <time>2011-02-16T14:37:20Z</time>
      </trkpt>
      <trkpt lat="43.56773" lon="3.18033">
        <ele>343</ele>
        <time>2011-02-16T14:37:21Z</time>
      </trkpt>
      <trkpt lat="43.56775" lon="3.18032">
        <ele>343.39999389648</ele>
        <time>2011-02-16T14:37:22Z</time>
      </trkpt>
      <trkpt lat="43.56776" lon="3.18032">
        <ele>343.39999389648</ele>
        <time>2011-02-16T14:37:23Z</time>
      </trkpt>
      <trkpt lat="43.56782" lon="3.1803">
        <ele>343.79998779297</ele>
        <time>2011-02-16T14:37:27Z</time>
      </trkpt>
      <trkpt lat="43.56783" lon="3.1803">
        <ele>344.20001220703</ele>
        <time>2011-02-16T14:37:28Z</time>
      </trkpt>
      <trkpt lat="43.56784" lon="3.18029">
        <ele>344.60000610352</ele>
        <time>2011-02-16T14:37:29Z</time>
      </trkpt>
      <trkpt lat="43.56786" lon="3.18028">
        <ele>345</ele>
        <time>2011-02-16T14:37:30Z</time>
      </trkpt>
      <trkpt lat="43.56787" lon="3.18028">
        <ele>345.39999389648</ele>
        <time>2011-02-16T14:37:31Z</time>
      </trkpt>
      <trkpt lat="43.56794" lon="3.18025">
        <ele>345.39999389648</ele>
        <time>2011-02-16T14:37:36Z</time>
      </trkpt>
      <trkpt lat="43.568" lon="3.18022">
        <ele>345.79998779297</ele>
        <time>2011-02-16T14:37:41Z</time>
      </trkpt>
      <trkpt lat="43.56801" lon="3.18021">
        <ele>346.20001220703</ele>
        <time>2011-02-16T14:37:42Z</time>
      </trkpt>
      <trkpt lat="43.56802" lon="3.18021">
        <ele>346.60000610352</ele>
        <time>2011-02-16T14:37:43Z</time>
      </trkpt>
      <trkpt lat="43.56804" lon="3.18021">
        <ele>347</ele>
        <time>2011-02-16T14:37:44Z</time>
      </trkpt>
      <trkpt lat="43.56805" lon="3.1802">
        <ele>347.39999389648</ele>
        <time>2011-02-16T14:37:45Z</time>
      </trkpt>
      <trkpt lat="43.56811" lon="3.18018">
        <ele>347.39999389648</ele>
        <time>2011-02-16T14:37:50Z</time>
      </trkpt>
      <trkpt lat="43.56816" lon="3.18016">
        <ele>347.39999389648</ele>
        <time>2011-02-16T14:37:55Z</time>
      </trkpt>
      <trkpt lat="43.56818" lon="3.18016">
        <ele>348.20001220703</ele>
        <time>2011-02-16T14:37:56Z</time>
      </trkpt>
      <trkpt lat="43.56819" lon="3.18016">
        <ele>348.60000610352</ele>
        <time>2011-02-16T14:37:57Z</time>
      </trkpt>
      <trkpt lat="43.5682" lon="3.18015">
        <ele>349</ele>
        <time>2011-02-16T14:37:58Z</time>
      </trkpt>
      <trkpt lat="43.56821" lon="3.18014">
        <ele>349.60000610352</ele>
        <time>2011-02-16T14:37:59Z</time>
      </trkpt>
      <trkpt lat="43.56824" lon="3.18011">
        <ele>349.60000610352</ele>
        <time>2011-02-16T14:38:02Z</time>
      </trkpt>
      <trkpt lat="43.56833" lon="3.18007">
        <ele>349.60000610352</ele>
        <time>2011-02-16T14:38:09Z</time>
      </trkpt>
      <trkpt lat="43.56836" lon="3.18006">
        <ele>350</ele>
        <time>2011-02-16T14:38:11Z</time>
      </trkpt>
      <trkpt lat="43.56837" lon="3.18005">
        <ele>350.39999389648</ele>
        <time>2011-02-16T14:38:12Z</time>
      </trkpt>
      <trkpt lat="43.56838" lon="3.18004">
        <ele>350.79998779297</ele>
        <time>2011-02-16T14:38:13Z</time>
      </trkpt>
      <trkpt lat="43.56839" lon="3.18004">
        <ele>351.20001220703</ele>
        <time>2011-02-16T14:38:14Z</time>
      </trkpt>
      <trkpt lat="43.56841" lon="3.18003">
        <ele>351.60000610352</ele>
        <time>2011-02-16T14:38:15Z</time>
      </trkpt>
      <trkpt lat="43.56847" lon="3.17999">
        <ele>351.60000610352</ele>
        <time>2011-02-16T14:38:20Z</time>
      </trkpt>
      <trkpt lat="43.56849" lon="3.17999">
        <ele>351.60000610352</ele>
        <time>2011-02-16T14:38:21Z</time>
      </trkpt>
      <trkpt lat="43.56855" lon="3.17995">
        <ele>352</ele>
        <time>2011-02-16T14:38:26Z</time>
      </trkpt>
      <trkpt lat="43.56856" lon="3.17995">
        <ele>352.39999389648</ele>
        <time>2011-02-16T14:38:27Z</time>
      </trkpt>
      <trkpt lat="43.56857" lon="3.17995">
        <ele>352.79998779297</ele>
        <time>2011-02-16T14:38:28Z</time>
      </trkpt>
      <trkpt lat="43.56859" lon="3.17994">
        <ele>353.39999389648</ele>
        <time>2011-02-16T14:38:29Z</time>
      </trkpt>
      <trkpt lat="43.5686" lon="3.17993">
        <ele>353.79998779297</ele>
        <time>2011-02-16T14:38:30Z</time>
      </trkpt>
      <trkpt lat="43.56868" lon="3.17987">
        <ele>353.79998779297</ele>
        <time>2011-02-16T14:38:37Z</time>
      </trkpt>
      <trkpt lat="43.56873" lon="3.17982">
        <ele>354.20001220703</ele>
        <time>2011-02-16T14:38:42Z</time>
      </trkpt>
      <trkpt lat="43.56874" lon="3.17981">
        <ele>354.60000610352</ele>
        <time>2011-02-16T14:38:43Z</time>
      </trkpt>
      <trkpt lat="43.56875" lon="3.1798">
        <ele>355</ele>
        <time>2011-02-16T14:38:44Z</time>
      </trkpt>
      <trkpt lat="43.56876" lon="3.17979">
        <ele>355.39999389648</ele>
        <time>2011-02-16T14:38:45Z</time>
      </trkpt>
      <trkpt lat="43.56877" lon="3.17977">
        <ele>355.79998779297</ele>
        <time>2011-02-16T14:38:46Z</time>
      </trkpt>
      <trkpt lat="43.56882" lon="3.17973">
        <ele>355.79998779297</ele>
        <time>2011-02-16T14:38:50Z</time>
      </trkpt>
      <trkpt lat="43.56886" lon="3.17972">
        <ele>356.20001220703</ele>
        <time>2011-02-16T14:38:53Z</time>
      </trkpt>
      <trkpt lat="43.56887" lon="3.17972">
        <ele>356.60000610352</ele>
        <time>2011-02-16T14:38:54Z</time>
      </trkpt>
      <trkpt lat="43.56888" lon="3.17971">
        <ele>357</ele>
        <time>2011-02-16T14:38:55Z</time>
      </trkpt>
      <trkpt lat="43.56889" lon="3.17971">
        <ele>357.39999389648</ele>
        <time>2011-02-16T14:38:56Z</time>
      </trkpt>
      <trkpt lat="43.5689" lon="3.17971">
        <ele>357.79998779297</ele>
        <time>2011-02-16T14:38:57Z</time>
      </trkpt>
      <trkpt lat="43.56892" lon="3.17971">
        <ele>357.79998779297</ele>
        <time>2011-02-16T14:38:58Z</time>
      </trkpt>
      <trkpt lat="43.56899" lon="3.17974">
        <ele>357.79998779297</ele>
        <time>2011-02-16T14:39:04Z</time>
      </trkpt>
      <trkpt lat="43.56903" lon="3.17977">
        <ele>358.20001220703</ele>
        <time>2011-02-16T14:39:07Z</time>
      </trkpt>
      <trkpt lat="43.56904" lon="3.17977">
        <ele>358.60000610352</ele>
        <time>2011-02-16T14:39:08Z</time>
      </trkpt>
      <trkpt lat="43.56906" lon="3.17977">
        <ele>359</ele>
        <time>2011-02-16T14:39:09Z</time>
      </trkpt>
      <trkpt lat="43.56907" lon="3.17977">
        <ele>359.79998779297</ele>
        <time>2011-02-16T14:39:10Z</time>
      </trkpt>
      <trkpt lat="43.56915" lon="3.1798">
        <ele>359.79998779297</ele>
        <time>2011-02-16T14:39:17Z</time>
      </trkpt>
      <trkpt lat="43.56925" lon="3.17982">
        <ele>360.20001220703</ele>
        <time>2011-02-16T14:39:24Z</time>
      </trkpt>
      <trkpt lat="43.56927" lon="3.17982">
        <ele>360.60000610352</ele>
        <time>2011-02-16T14:39:25Z</time>
      </trkpt>
      <trkpt lat="43.56928" lon="3.17982">
        <ele>361.20001220703</ele>
        <time>2011-02-16T14:39:26Z</time>
      </trkpt>
      <trkpt lat="43.56929" lon="3.17982">
        <ele>361.60000610352</ele>
        <time>2011-02-16T14:39:27Z</time>
      </trkpt>
      <trkpt lat="43.56931" lon="3.17982">
        <ele>362</ele>
        <time>2011-02-16T14:39:28Z</time>
      </trkpt>
      <trkpt lat="43.56934" lon="3.17983">
        <ele>362</ele>
        <time>2011-02-16T14:39:30Z</time>
      </trkpt>
      <trkpt lat="43.56943" lon="3.17982">
        <ele>362.39999389648</ele>
        <time>2011-02-16T14:39:37Z</time>
      </trkpt>
      <trkpt lat="43.56944" lon="3.17982">
        <ele>362.79998779297</ele>
        <time>2011-02-16T14:39:38Z</time>
      </trkpt>
      <trkpt lat="43.56945" lon="3.17982">
        <ele>363.20001220703</ele>
        <time>2011-02-16T14:39:39Z</time>
      </trkpt>
      <trkpt lat="43.56947" lon="3.17982">
        <ele>363.60000610352</ele>
        <time>2011-02-16T14:39:40Z</time>
      </trkpt>
      <trkpt lat="43.56948" lon="3.17982">
        <ele>364</ele>
        <time>2011-02-16T14:39:41Z</time>
      </trkpt>
      <trkpt lat="43.56953" lon="3.17981">
        <ele>364</ele>
        <time>2011-02-16T14:39:45Z</time>
      </trkpt>
      <trkpt lat="43.5696" lon="3.1798">
        <ele>364.39999389648</ele>
        <time>2011-02-16T14:39:50Z</time>
      </trkpt>
      <trkpt lat="43.56961" lon="3.1798">
        <ele>364.79998779297</ele>
        <time>2011-02-16T14:39:51Z</time>
      </trkpt>
      <trkpt lat="43.56963" lon="3.1798">
        <ele>365.20001220703</ele>
        <time>2011-02-16T14:39:52Z</time>
      </trkpt>
      <trkpt lat="43.56964" lon="3.1798">
        <ele>365.79998779297</ele>
        <time>2011-02-16T14:39:53Z</time>
      </trkpt>
      <trkpt lat="43.56966" lon="3.1798">
        <ele>366.20001220703</ele>
        <time>2011-02-16T14:39:54Z</time>
      </trkpt>
      <trkpt lat="43.56976" lon="3.17981">
        <ele>366.60000610352</ele>
        <time>2011-02-16T14:40:01Z</time>
      </trkpt>
      <trkpt lat="43.56977" lon="3.17981">
        <ele>367</ele>
        <time>2011-02-16T14:40:02Z</time>
      </trkpt>
      <trkpt lat="43.56978" lon="3.17981">
        <ele>367.39999389648</ele>
        <time>2011-02-16T14:40:03Z</time>
      </trkpt>
      <trkpt lat="43.56979" lon="3.17981">
        <ele>367.79998779297</ele>
        <time>2011-02-16T14:40:04Z</time>
      </trkpt>
      <trkpt lat="43.56981" lon="3.17981">
        <ele>368.20001220703</ele>
        <time>2011-02-16T14:40:05Z</time>
      </trkpt>
      <trkpt lat="43.56986" lon="3.17982">
        <ele>368.20001220703</ele>
        <time>2011-02-16T14:40:09Z</time>
      </trkpt>
      <trkpt lat="43.56995" lon="3.17984">
        <ele>368.20001220703</ele>
        <time>2011-02-16T14:40:16Z</time>
      </trkpt>
      <trkpt lat="43.57002" lon="3.17983">
        <ele>368.60000610352</ele>
        <time>2011-02-16T14:40:21Z</time>
      </trkpt>
      <trkpt lat="43.57003" lon="3.17982">
        <ele>369.20001220703</ele>
        <time>2011-02-16T14:40:22Z</time>
      </trkpt>
      <trkpt lat="43.57004" lon="3.17982">
        <ele>369.60000610352</ele>
        <time>2011-02-16T14:40:23Z</time>
      </trkpt>
      <trkpt lat="43.57006" lon="3.17981">
        <ele>370</ele>
        <time>2011-02-16T14:40:24Z</time>
      </trkpt>
      <trkpt lat="43.57007" lon="3.1798">
        <ele>370.39999389648</ele>
        <time>2011-02-16T14:40:25Z</time>
      </trkpt>
      <trkpt lat="43.57014" lon="3.17976">
        <ele>370.39999389648</ele>
        <time>2011-02-16T14:40:32Z</time>
      </trkpt>
      <trkpt lat="43.57018" lon="3.17974">
        <ele>370.79998779297</ele>
        <time>2011-02-16T14:40:36Z</time>
      </trkpt>
      <trkpt lat="43.57019" lon="3.17973">
        <ele>371.20001220703</ele>
        <time>2011-02-16T14:40:37Z</time>
      </trkpt>
      <trkpt lat="43.57021" lon="3.17973">
        <ele>371.60000610352</ele>
        <time>2011-02-16T14:40:38Z</time>
      </trkpt>
      <trkpt lat="43.57022" lon="3.17972">
        <ele>372</ele>
        <time>2011-02-16T14:40:39Z</time>
      </trkpt>
      <trkpt lat="43.57024" lon="3.17971">
        <ele>372.39999389648</ele>
        <time>2011-02-16T14:40:40Z</time>
      </trkpt>
      <trkpt lat="43.57032" lon="3.17967">
        <ele>372.39999389648</ele>
        <time>2011-02-16T14:40:46Z</time>
      </trkpt>
      <trkpt lat="43.57038" lon="3.17964">
        <ele>372.79998779297</ele>
        <time>2011-02-16T14:40:51Z</time>
      </trkpt>
      <trkpt lat="43.5704" lon="3.17964">
        <ele>373.20001220703</ele>
        <time>2011-02-16T14:40:52Z</time>
      </trkpt>
      <trkpt lat="43.57041" lon="3.17964">
        <ele>373.79998779297</ele>
        <time>2011-02-16T14:40:53Z</time>
      </trkpt>
      <trkpt lat="43.57042" lon="3.17964">
        <ele>374.20001220703</ele>
        <time>2011-02-16T14:40:54Z</time>
      </trkpt>
      <trkpt lat="43.57043" lon="3.17963">
        <ele>374.60000610352</ele>
        <time>2011-02-16T14:40:55Z</time>
      </trkpt>
      <trkpt lat="43.57051" lon="3.1796">
        <ele>374.60000610352</ele>
        <time>2011-02-16T14:41:01Z</time>
      </trkpt>
      <trkpt lat="43.57053" lon="3.1796">
        <ele>375</ele>
        <time>2011-02-16T14:41:03Z</time>
      </trkpt>
      <trkpt lat="43.57055" lon="3.1796">
        <ele>375.39999389648</ele>
        <time>2011-02-16T14:41:04Z</time>
      </trkpt>
      <trkpt lat="43.57056" lon="3.17959">
        <ele>375.79998779297</ele>
        <time>2011-02-16T14:41:05Z</time>
      </trkpt>
      <trkpt lat="43.57057" lon="3.17959">
        <ele>376.20001220703</ele>
        <time>2011-02-16T14:41:06Z</time>
      </trkpt>
      <trkpt lat="43.57059" lon="3.17959">
        <ele>376.60000610352</ele>
        <time>2011-02-16T14:41:07Z</time>
      </trkpt>
      <trkpt lat="43.5706" lon="3.17959">
        <ele>376.60000610352</ele>
        <time>2011-02-16T14:41:08Z</time>
      </trkpt>
      <trkpt lat="43.57075" lon="3.17955">
        <ele>377.20001220703</ele>
        <time>2011-02-16T14:41:17Z</time>
      </trkpt>
      <trkpt lat="43.57076" lon="3.17954">
        <ele>377.60000610352</ele>
        <time>2011-02-16T14:41:18Z</time>
      </trkpt>
      <trkpt lat="43.57077" lon="3.17954">
        <ele>378</ele>
        <time>2011-02-16T14:41:19Z</time>
      </trkpt>
      <trkpt lat="43.57079" lon="3.17954">
        <ele>378.39999389648</ele>
        <time>2011-02-16T14:41:20Z</time>
      </trkpt>
      <trkpt lat="43.57081" lon="3.17953">
        <ele>378.79998779297</ele>
        <time>2011-02-16T14:41:21Z</time>
      </trkpt>
      <trkpt lat="43.57084" lon="3.17953">
        <ele>378.79998779297</ele>
        <time>2011-02-16T14:41:23Z</time>
      </trkpt>
      <trkpt lat="43.57094" lon="3.17953">
        <ele>378.79998779297</ele>
        <time>2011-02-16T14:41:30Z</time>
      </trkpt>
      <trkpt lat="43.57102" lon="3.17953">
        <ele>379.20001220703</ele>
        <time>2011-02-16T14:41:35Z</time>
      </trkpt>
      <trkpt lat="43.57104" lon="3.17953">
        <ele>379.60000610352</ele>
        <time>2011-02-16T14:41:36Z</time>
      </trkpt>
      <trkpt lat="43.57105" lon="3.17953">
        <ele>380</ele>
        <time>2011-02-16T14:41:37Z</time>
      </trkpt>
      <trkpt lat="43.57107" lon="3.17953">
        <ele>380.39999389648</ele>
        <time>2011-02-16T14:41:38Z</time>
      </trkpt>
      <trkpt lat="43.57108" lon="3.17953">
        <ele>380.79998779297</ele>
        <time>2011-02-16T14:41:39Z</time>
      </trkpt>
      <trkpt lat="43.5712" lon="3.17952">
        <ele>380.79998779297</ele>
        <time>2011-02-16T14:41:45Z</time>
      </trkpt>
      <trkpt lat="43.57125" lon="3.17951">
        <ele>381.20001220703</ele>
        <time>2011-02-16T14:41:48Z</time>
      </trkpt>
      <trkpt lat="43.57127" lon="3.1795">
        <ele>381.60000610352</ele>
        <time>2011-02-16T14:41:49Z</time>
      </trkpt>
      <trkpt lat="43.57129" lon="3.17949">
        <ele>382</ele>
        <time>2011-02-16T14:41:50Z</time>
      </trkpt>
      <trkpt lat="43.5713" lon="3.17948">
        <ele>382.39999389648</ele>
        <time>2011-02-16T14:41:51Z</time>
      </trkpt>
      <trkpt lat="43.57132" lon="3.17947">
        <ele>383</ele>
        <time>2011-02-16T14:41:52Z</time>
      </trkpt>
      <trkpt lat="43.57134" lon="3.17947">
        <ele>383</ele>
        <time>2011-02-16T14:41:53Z</time>
      </trkpt>
      <trkpt lat="43.57149" lon="3.1794">
        <ele>383.39999389648</ele>
        <time>2011-02-16T14:42:00Z</time>
      </trkpt>
      <trkpt lat="43.57151" lon="3.17938">
        <ele>383.79998779297</ele>
        <time>2011-02-16T14:42:01Z</time>
      </trkpt>
      <trkpt lat="43.57153" lon="3.17937">
        <ele>384.20001220703</ele>
        <time>2011-02-16T14:42:02Z</time>
      </trkpt>
      <trkpt lat="43.57154" lon="3.17936">
        <ele>384.60000610352</ele>
        <time>2011-02-16T14:42:03Z</time>
      </trkpt>
      <trkpt lat="43.57156" lon="3.17934">
        <ele>385</ele>
        <time>2011-02-16T14:42:04Z</time>
      </trkpt>
      <trkpt lat="43.57167" lon="3.17927">
        <ele>385</ele>
        <time>2011-02-16T14:42:09Z</time>
      </trkpt>
      <trkpt lat="43.57187" lon="3.17911">
        <ele>385</ele>
        <time>2011-02-16T14:42:18Z</time>
      </trkpt>
      <trkpt lat="43.57196" lon="3.17904">
        <ele>385</ele>
        <time>2011-02-16T14:42:23Z</time>
      </trkpt>
      <trkpt lat="43.57196" lon="3.17904">
        <ele>385</ele>
        <time>2011-02-16T14:42:24Z</time>
      </trkpt>
      <trkpt lat="43.57206" lon="3.17905">
        <ele>385</ele>
        <time>2011-02-16T14:46:37Z</time>
      </trkpt>
      <trkpt lat="43.57207" lon="3.17905">
        <ele>385</ele>
        <time>2011-02-16T14:46:38Z</time>
      </trkpt>
      <trkpt lat="43.57216" lon="3.17913">
        <ele>385</ele>
        <time>2011-02-16T14:46:43Z</time>
      </trkpt>
      <trkpt lat="43.57226" lon="3.1792">
        <ele>384.39999389648</ele>
        <time>2011-02-16T14:46:47Z</time>
      </trkpt>
      <trkpt lat="43.57229" lon="3.17923">
        <ele>384</ele>
        <time>2011-02-16T14:46:48Z</time>
      </trkpt>
      <trkpt lat="43.57232" lon="3.17928">
        <ele>383.60000610352</ele>
        <time>2011-02-16T14:46:49Z</time>
      </trkpt>
      <trkpt lat="43.57234" lon="3.17934">
        <ele>383.20001220703</ele>
        <time>2011-02-16T14:46:50Z</time>
      </trkpt>
      <trkpt lat="43.57236" lon="3.17939">
        <ele>382.60000610352</ele>
        <time>2011-02-16T14:46:51Z</time>
      </trkpt>
      <trkpt lat="43.5724" lon="3.17944">
        <ele>382.60000610352</ele>
        <time>2011-02-16T14:46:52Z</time>
      </trkpt>
      <trkpt lat="43.57244" lon="3.1795">
        <ele>382.20001220703</ele>
        <time>2011-02-16T14:46:53Z</time>
      </trkpt>
      <trkpt lat="43.57248" lon="3.17955">
        <ele>381.79998779297</ele>
        <time>2011-02-16T14:46:54Z</time>
      </trkpt>
      <trkpt lat="43.57252" lon="3.17959">
        <ele>381.39999389648</ele>
        <time>2011-02-16T14:46:55Z</time>
      </trkpt>
      <trkpt lat="43.57256" lon="3.17963">
        <ele>381</ele>
        <time>2011-02-16T14:46:56Z</time>
      </trkpt>
      <trkpt lat="43.57259" lon="3.17967">
        <ele>380.60000610352</ele>
        <time>2011-02-16T14:46:57Z</time>
      </trkpt>
      <trkpt lat="43.5727" lon="3.17979">
        <ele>380.60000610352</ele>
        <time>2011-02-16T14:47:00Z</time>
      </trkpt>
      <trkpt lat="43.57278" lon="3.17987">
        <ele>380.60000610352</ele>
        <time>2011-02-16T14:47:02Z</time>
      </trkpt>
      <trkpt lat="43.57281" lon="3.1799">
        <ele>380.60000610352</ele>
        <time>2011-02-16T14:47:03Z</time>
      </trkpt>
      <trkpt lat="43.57296" lon="3.18002">
        <ele>380.60000610352</ele>
        <time>2011-02-16T14:47:07Z</time>
      </trkpt>
      <trkpt lat="43.5732" lon="3.18021">
        <ele>380.60000610352</ele>
        <time>2011-02-16T14:47:13Z</time>
      </trkpt>
      <trkpt lat="43.57324" lon="3.18023">
        <ele>380.60000610352</ele>
        <time>2011-02-16T14:47:14Z</time>
      </trkpt>
      <trkpt lat="43.57355" lon="3.18039">
        <ele>380.60000610352</ele>
        <time>2011-02-16T14:47:20Z</time>
      </trkpt>
      <trkpt lat="43.57366" lon="3.18045">
        <ele>380.60000610352</ele>
        <time>2011-02-16T14:47:22Z</time>
      </trkpt>
      <trkpt lat="43.57375" lon="3.18055">
        <ele>380.60000610352</ele>
        <time>2011-02-16T14:47:24Z</time>
      </trkpt>
      <trkpt lat="43.57402" lon="3.18099">
        <ele>380.60000610352</ele>
        <time>2011-02-16T14:47:31Z</time>
      </trkpt>
      <trkpt lat="43.57415" lon="3.18141">
        <ele>380.60000610352</ele>
        <time>2011-02-16T14:47:37Z</time>
      </trkpt>
      <trkpt lat="43.57416" lon="3.18172">
        <ele>380.60000610352</ele>
        <time>2011-02-16T14:47:41Z</time>
      </trkpt>
      <trkpt lat="43.57415" lon="3.18223">
        <ele>380.60000610352</ele>
        <time>2011-02-16T14:47:48Z</time>
      </trkpt>
      <trkpt lat="43.57412" lon="3.18271">
        <ele>380.60000610352</ele>
        <time>2011-02-16T14:47:54Z</time>
      </trkpt>
      <trkpt lat="43.57401" lon="3.1833">
        <ele>380.60000610352</ele>
        <time>2011-02-16T14:48:02Z</time>
      </trkpt>
      <trkpt lat="43.57394" lon="3.18364">
        <ele>380.60000610352</ele>
        <time>2011-02-16T14:48:08Z</time>
      </trkpt>
      <trkpt lat="43.57385" lon="3.18376">
        <ele>380.60000610352</ele>
        <time>2011-02-16T14:48:12Z</time>
      </trkpt>
      <trkpt lat="43.57371" lon="3.18382">
        <ele>380.60000610352</ele>
        <time>2011-02-16T14:48:18Z</time>
      </trkpt>
      <trkpt lat="43.57356" lon="3.18383">
        <ele>380.60000610352</ele>
        <time>2011-02-16T14:48:24Z</time>
      </trkpt>
      <trkpt lat="43.57343" lon="3.1838">
        <ele>380.60000610352</ele>
        <time>2011-02-16T14:48:30Z</time>
      </trkpt>
      <trkpt lat="43.5733" lon="3.18378">
        <ele>381</ele>
        <time>2011-02-16T14:48:36Z</time>
      </trkpt>
      <trkpt lat="43.57328" lon="3.18377">
        <ele>381.60000610352</ele>
        <time>2011-02-16T14:48:37Z</time>
      </trkpt>
      <trkpt lat="43.57326" lon="3.18377">
        <ele>382</ele>
        <time>2011-02-16T14:48:38Z</time>
      </trkpt>
      <trkpt lat="43.57324" lon="3.18376">
        <ele>382.79998779297</ele>
        <time>2011-02-16T14:48:39Z</time>
      </trkpt>
      <trkpt lat="43.57312" lon="3.18372">
        <ele>382.79998779297</ele>
        <time>2011-02-16T14:48:44Z</time>
      </trkpt>
      <trkpt lat="43.57309" lon="3.1837">
        <ele>383.20001220703</ele>
        <time>2011-02-16T14:48:45Z</time>
      </trkpt>
      <trkpt lat="43.57306" lon="3.18369">
        <ele>383.60000610352</ele>
        <time>2011-02-16T14:48:46Z</time>
      </trkpt>
      <trkpt lat="43.57304" lon="3.18368">
        <ele>384</ele>
        <time>2011-02-16T14:48:47Z</time>
      </trkpt>
      <trkpt lat="43.57301" lon="3.18366">
        <ele>384.39999389648</ele>
        <time>2011-02-16T14:48:48Z</time>
      </trkpt>
      <trkpt lat="43.57298" lon="3.18364">
        <ele>384.79998779297</ele>
        <time>2011-02-16T14:48:49Z</time>
      </trkpt>
      <trkpt lat="43.57295" lon="3.18361">
        <ele>384.79998779297</ele>
        <time>2011-02-16T14:48:50Z</time>
      </trkpt>
      <trkpt lat="43.57293" lon="3.18358">
        <ele>385.20001220703</ele>
        <time>2011-02-16T14:48:51Z</time>
      </trkpt>
      <trkpt lat="43.57291" lon="3.18355">
        <ele>385.60000610352</ele>
        <time>2011-02-16T14:48:52Z</time>
      </trkpt>
      <trkpt lat="43.57289" lon="3.18353">
        <ele>386</ele>
        <time>2011-02-16T14:48:53Z</time>
      </trkpt>
      <trkpt lat="43.57287" lon="3.18349">
        <ele>386.39999389648</ele>
        <time>2011-02-16T14:48:54Z</time>
      </trkpt>
      <trkpt lat="43.57285" lon="3.18346">
        <ele>386.79998779297</ele>
        <time>2011-02-16T14:48:55Z</time>
      </trkpt>
      <trkpt lat="43.57284" lon="3.18343">
        <ele>387.20001220703</ele>
        <time>2011-02-16T14:48:56Z</time>
      </trkpt>
      <trkpt lat="43.57282" lon="3.1834">
        <ele>387.79998779297</ele>
        <time>2011-02-16T14:48:57Z</time>
      </trkpt>
      <trkpt lat="43.57281" lon="3.18337">
        <ele>388.20001220703</ele>
        <time>2011-02-16T14:48:58Z</time>
      </trkpt>
      <trkpt lat="43.57279" lon="3.18334">
        <ele>388.60000610352</ele>
        <time>2011-02-16T14:48:59Z</time>
      </trkpt>
      <trkpt lat="43.57278" lon="3.18331">
        <ele>389</ele>
        <time>2011-02-16T14:49:00Z</time>
      </trkpt>
      <trkpt lat="43.57275" lon="3.18324">
        <ele>389</ele>
        <time>2011-02-16T14:49:02Z</time>
      </trkpt>
      <trkpt lat="43.57274" lon="3.1832">
        <ele>389.39999389648</ele>
        <time>2011-02-16T14:49:03Z</time>
      </trkpt>
      <trkpt lat="43.57273" lon="3.18316">
        <ele>390.39999389648</ele>
        <time>2011-02-16T14:49:04Z</time>
      </trkpt>
      <trkpt lat="43.57272" lon="3.18313">
        <ele>390.79998779297</ele>
        <time>2011-02-16T14:49:05Z</time>
      </trkpt>
      <trkpt lat="43.57271" lon="3.18309">
        <ele>391.20001220703</ele>
        <time>2011-02-16T14:49:06Z</time>
      </trkpt>
      <trkpt lat="43.5727" lon="3.18302">
        <ele>391.20001220703</ele>
        <time>2011-02-16T14:49:08Z</time>
      </trkpt>
      <trkpt lat="43.57268" lon="3.18296">
        <ele>391.79998779297</ele>
        <time>2011-02-16T14:49:10Z</time>
      </trkpt>
      <trkpt lat="43.57267" lon="3.18294">
        <ele>392.20001220703</ele>
        <time>2011-02-16T14:49:11Z</time>
      </trkpt>
      <trkpt lat="43.57265" lon="3.18292">
        <ele>392.60000610352</ele>
        <time>2011-02-16T14:49:12Z</time>
      </trkpt>
      <trkpt lat="43.57264" lon="3.18289">
        <ele>393</ele>
        <time>2011-02-16T14:49:13Z</time>
      </trkpt>
      <trkpt lat="43.57262" lon="3.18286">
        <ele>393.39999389648</ele>
        <time>2011-02-16T14:49:14Z</time>
      </trkpt>
      <trkpt lat="43.57255" lon="3.18281">
        <ele>393.39999389648</ele>
        <time>2011-02-16T14:49:17Z</time>
      </trkpt>
      <trkpt lat="43.57253" lon="3.18281">
        <ele>394</ele>
        <time>2011-02-16T14:49:18Z</time>
      </trkpt>
      <trkpt lat="43.57251" lon="3.18282">
        <ele>394.39999389648</ele>
        <time>2011-02-16T14:49:19Z</time>
      </trkpt>
      <trkpt lat="43.57249" lon="3.18283">
        <ele>394.79998779297</ele>
        <time>2011-02-16T14:49:20Z</time>
      </trkpt>
      <trkpt lat="43.57248" lon="3.18284">
        <ele>395.20001220703</ele>
        <time>2011-02-16T14:49:21Z</time>
      </trkpt>
      <trkpt lat="43.57246" lon="3.18286">
        <ele>395.79998779297</ele>
        <time>2011-02-16T14:49:22Z</time>
      </trkpt>
      <trkpt lat="43.57246" lon="3.18288">
        <ele>395.79998779297</ele>
        <time>2011-02-16T14:49:23Z</time>
      </trkpt>
      <trkpt lat="43.57244" lon="3.18293">
        <ele>395.79998779297</ele>
        <time>2011-02-16T14:49:25Z</time>
      </trkpt>
      <trkpt lat="43.5724" lon="3.18306">
        <ele>395.79998779297</ele>
        <time>2011-02-16T14:49:30Z</time>
      </trkpt>
      <trkpt lat="43.57238" lon="3.18311">
        <ele>396.20001220703</ele>
        <time>2011-02-16T14:49:32Z</time>
      </trkpt>
      <trkpt lat="43.57236" lon="3.18314">
        <ele>396.60000610352</ele>
        <time>2011-02-16T14:49:33Z</time>
      </trkpt>
      <trkpt lat="43.57236" lon="3.18317">
        <ele>397</ele>
        <time>2011-02-16T14:49:34Z</time>
      </trkpt>
      <trkpt lat="43.57235" lon="3.1832">
        <ele>397.39999389648</ele>
        <time>2011-02-16T14:49:35Z</time>
      </trkpt>
      <trkpt lat="43.57233" lon="3.18324">
        <ele>397.79998779297</ele>
        <time>2011-02-16T14:49:36Z</time>
      </trkpt>
      <trkpt lat="43.57232" lon="3.18327">
        <ele>397.79998779297</ele>
        <time>2011-02-16T14:49:37Z</time>
      </trkpt>
      <trkpt lat="43.5722" lon="3.18355">
        <ele>397.79998779297</ele>
        <time>2011-02-16T14:49:45Z</time>
      </trkpt>
      <trkpt lat="43.57209" lon="3.1838">
        <ele>397.79998779297</ele>
        <time>2011-02-16T14:49:53Z</time>
      </trkpt>
      <trkpt lat="43.572" lon="3.18399">
        <ele>397.79998779297</ele>
        <time>2011-02-16T14:50:01Z</time>
      </trkpt>
      <trkpt lat="43.57197" lon="3.18406">
        <ele>398.20001220703</ele>
        <time>2011-02-16T14:50:04Z</time>
      </trkpt>
      <trkpt lat="43.57196" lon="3.18409">
        <ele>398.60000610352</ele>
        <time>2011-02-16T14:50:05Z</time>
      </trkpt>
      <trkpt lat="43.57195" lon="3.18411">
        <ele>399</ele>
        <time>2011-02-16T14:50:06Z</time>
      </trkpt>
      <trkpt lat="43.57193" lon="3.18414">
        <ele>399.39999389648</ele>
        <time>2011-02-16T14:50:07Z</time>
      </trkpt>
      <trkpt lat="43.57192" lon="3.18416">
        <ele>399.79998779297</ele>
        <time>2011-02-16T14:50:08Z</time>
      </trkpt>
      <trkpt lat="43.5719" lon="3.18421">
        <ele>399.79998779297</ele>
        <time>2011-02-16T14:50:10Z</time>
      </trkpt>
      <trkpt lat="43.5718" lon="3.18432">
        <ele>400.20001220703</ele>
        <time>2011-02-16T14:50:15Z</time>
      </trkpt>
      <trkpt lat="43.57178" lon="3.18433">
        <ele>400.60000610352</ele>
        <time>2011-02-16T14:50:16Z</time>
      </trkpt>
      <trkpt lat="43.57175" lon="3.18434">
        <ele>401</ele>
        <time>2011-02-16T14:50:17Z</time>
      </trkpt>
      <trkpt lat="43.57172" lon="3.18434">
        <ele>401.79998779297</ele>
        <time>2011-02-16T14:50:18Z</time>
      </trkpt>
      <trkpt lat="43.57162" lon="3.18434">
        <ele>401.79998779297</ele>
        <time>2011-02-16T14:50:23Z</time>
      </trkpt>
      <trkpt lat="43.57156" lon="3.18435">
        <ele>402.20001220703</ele>
        <time>2011-02-16T14:50:26Z</time>
      </trkpt>
      <trkpt lat="43.57154" lon="3.18436">
        <ele>402.60000610352</ele>
        <time>2011-02-16T14:50:27Z</time>
      </trkpt>
      <trkpt lat="43.57152" lon="3.18436">
        <ele>403</ele>
        <time>2011-02-16T14:50:28Z</time>
      </trkpt>
      <trkpt lat="43.5715" lon="3.18436">
        <ele>403.60000610352</ele>
        <time>2011-02-16T14:50:29Z</time>
      </trkpt>
      <trkpt lat="43.57148" lon="3.18436">
        <ele>404</ele>
        <time>2011-02-16T14:50:30Z</time>
      </trkpt>
      <trkpt lat="43.57146" lon="3.18437">
        <ele>404</ele>
        <time>2011-02-16T14:50:31Z</time>
      </trkpt>
      <trkpt lat="43.57135" lon="3.18439">
        <ele>404</ele>
        <time>2011-02-16T14:50:37Z</time>
      </trkpt>
      <trkpt lat="43.57121" lon="3.18438">
        <ele>404</ele>
        <time>2011-02-16T14:50:42Z</time>
      </trkpt>
      <trkpt lat="43.57096" lon="3.18432">
        <ele>404</ele>
        <time>2011-02-16T14:50:47Z</time>
      </trkpt>
      <trkpt lat="43.57091" lon="3.18432">
        <ele>404</ele>
        <time>2011-02-16T14:50:48Z</time>
      </trkpt>
      <trkpt lat="43.57079" lon="3.18432">
        <ele>404</ele>
        <time>2011-02-16T14:50:51Z</time>
      </trkpt>
      <trkpt lat="43.57066" lon="3.18432">
        <ele>404</ele>
        <time>2011-02-16T14:50:57Z</time>
      </trkpt>
      <trkpt lat="43.57053" lon="3.1843">
        <ele>404.39999389648</ele>
        <time>2011-02-16T14:51:04Z</time>
      </trkpt>
      <trkpt lat="43.57051" lon="3.1843">
        <ele>404.79998779297</ele>
        <time>2011-02-16T14:51:05Z</time>
      </trkpt>
      <trkpt lat="43.57049" lon="3.18429">
        <ele>405.20001220703</ele>
        <time>2011-02-16T14:51:06Z</time>
      </trkpt>
      <trkpt lat="43.57047" lon="3.18429">
        <ele>406.20001220703</ele>
        <time>2011-02-16T14:51:07Z</time>
      </trkpt>
      <trkpt lat="43.57034" lon="3.18426">
        <ele>406.60000610352</ele>
        <time>2011-02-16T14:51:13Z</time>
      </trkpt>
      <trkpt lat="43.57032" lon="3.18425">
        <ele>407</ele>
        <time>2011-02-16T14:51:14Z</time>
      </trkpt>
      <trkpt lat="43.5703" lon="3.18425">
        <ele>407.39999389648</ele>
        <time>2011-02-16T14:51:15Z</time>
      </trkpt>
      <trkpt lat="43.57028" lon="3.18425">
        <ele>407.79998779297</ele>
        <time>2011-02-16T14:51:16Z</time>
      </trkpt>
      <trkpt lat="43.57026" lon="3.18425">
        <ele>408.20001220703</ele>
        <time>2011-02-16T14:51:17Z</time>
      </trkpt>
      <trkpt lat="43.57018" lon="3.18426">
        <ele>408.20001220703</ele>
        <time>2011-02-16T14:51:23Z</time>
      </trkpt>
      <trkpt lat="43.5701" lon="3.18424">
        <ele>408.79998779297</ele>
        <time>2011-02-16T14:51:30Z</time>
      </trkpt>
      <trkpt lat="43.5701" lon="3.18424">
        <ele>409.20001220703</ele>
        <time>2011-02-16T14:51:31Z</time>
      </trkpt>
      <trkpt lat="43.5701" lon="3.18424">
        <ele>410</ele>
        <time>2011-02-16T14:51:32Z</time>
      </trkpt>
      <trkpt lat="43.57005" lon="3.18424">
        <ele>410.39999389648</ele>
        <time>2011-02-16T14:52:43Z</time>
      </trkpt>
      <trkpt lat="43.57003" lon="3.18425">
        <ele>410.39999389648</ele>
        <time>2011-02-16T14:52:44Z</time>
      </trkpt>
      <trkpt lat="43.56998" lon="3.18435">
        <ele>410.39999389648</ele>
        <time>2011-02-16T14:52:49Z</time>
      </trkpt>
      <trkpt lat="43.57" lon="3.18443">
        <ele>410.39999389648</ele>
        <time>2011-02-16T14:52:52Z</time>
      </trkpt>
      <trkpt lat="43.57001" lon="3.18448">
        <ele>410.39999389648</ele>
        <time>2011-02-16T14:52:54Z</time>
      </trkpt>
      <trkpt lat="43.57003" lon="3.1846">
        <ele>410.79998779297</ele>
        <time>2011-02-16T14:52:58Z</time>
      </trkpt>
      <trkpt lat="43.57004" lon="3.18463">
        <ele>411.20001220703</ele>
        <time>2011-02-16T14:52:59Z</time>
      </trkpt>
      <trkpt lat="43.57005" lon="3.18465">
        <ele>411.60000610352</ele>
        <time>2011-02-16T14:53:00Z</time>
      </trkpt>
      <trkpt lat="43.57006" lon="3.18468">
        <ele>412</ele>
        <time>2011-02-16T14:53:01Z</time>
      </trkpt>
      <trkpt lat="43.57008" lon="3.18469">
        <ele>412.39999389648</ele>
        <time>2011-02-16T14:53:02Z</time>
      </trkpt>
      <trkpt lat="43.57013" lon="3.18467">
        <ele>412.39999389648</ele>
        <time>2011-02-16T14:53:05Z</time>
      </trkpt>
      <trkpt lat="43.57015" lon="3.18467">
        <ele>412.79998779297</ele>
        <time>2011-02-16T14:53:07Z</time>
      </trkpt>
      <trkpt lat="43.57016" lon="3.18468">
        <ele>413.20001220703</ele>
        <time>2011-02-16T14:53:08Z</time>
      </trkpt>
      <trkpt lat="43.57018" lon="3.18469">
        <ele>413.60000610352</ele>
        <time>2011-02-16T14:53:09Z</time>
      </trkpt>
      <trkpt lat="43.57018" lon="3.1847">
        <ele>414</ele>
        <time>2011-02-16T14:53:10Z</time>
      </trkpt>
      <trkpt lat="43.57019" lon="3.18471">
        <ele>414.39999389648</ele>
        <time>2011-02-16T14:53:11Z</time>
      </trkpt>
      <trkpt lat="43.57025" lon="3.18477">
        <ele>414.39999389648</ele>
        <time>2011-02-16T14:53:16Z</time>
      </trkpt>
      <trkpt lat="43.5703" lon="3.1847">
        <ele>414.39999389648</ele>
        <time>2011-02-16T14:53:20Z</time>
      </trkpt>
      <trkpt lat="43.57033" lon="3.18468">
        <ele>414.39999389648</ele>
        <time>2011-02-16T14:53:22Z</time>
      </trkpt>
      <trkpt lat="43.57037" lon="3.18466">
        <ele>414.39999389648</ele>
        <time>2011-02-16T14:53:25Z</time>
      </trkpt>
      <trkpt lat="43.57038" lon="3.18465">
        <ele>414.39999389648</ele>
        <time>2011-02-16T14:53:29Z</time>
      </trkpt>
      <trkpt lat="43.57036" lon="3.18466">
        <ele>414.39999389648</ele>
        <time>2011-02-16T14:55:12Z</time>
      </trkpt>
      <trkpt lat="43.57036" lon="3.18466">
        <ele>414.39999389648</ele>
        <time>2011-02-16T14:55:17Z</time>
      </trkpt>
      <trkpt lat="43.5704" lon="3.18474">
        <ele>414.39999389648</ele>
        <time>2011-02-16T14:57:52Z</time>
      </trkpt>
      <trkpt lat="43.57039" lon="3.18479">
        <ele>414.39999389648</ele>
        <time>2011-02-16T14:57:53Z</time>
      </trkpt>
      <trkpt lat="43.57032" lon="3.18488">
        <ele>414.39999389648</ele>
        <time>2011-02-16T14:57:56Z</time>
      </trkpt>
      <trkpt lat="43.57022" lon="3.18492">
        <ele>414.39999389648</ele>
        <time>2011-02-16T14:58:01Z</time>
      </trkpt>
      <trkpt lat="43.57014" lon="3.18486">
        <ele>414.39999389648</ele>
        <time>2011-02-16T14:58:07Z</time>
      </trkpt>
      <trkpt lat="43.57012" lon="3.18485">
        <ele>414.39999389648</ele>
        <time>2011-02-16T14:58:08Z</time>
      </trkpt>
      <trkpt lat="43.57008" lon="3.18476">
        <ele>414.39999389648</ele>
        <time>2011-02-16T14:58:12Z</time>
      </trkpt>
      <trkpt lat="43.57006" lon="3.18471">
        <ele>414.39999389648</ele>
        <time>2011-02-16T14:58:14Z</time>
      </trkpt>
      <trkpt lat="43.57003" lon="3.18459">
        <ele>414.39999389648</ele>
        <time>2011-02-16T14:58:19Z</time>
      </trkpt>
      <trkpt lat="43.57003" lon="3.18456">
        <ele>414.39999389648</ele>
        <time>2011-02-16T14:58:20Z</time>
      </trkpt>
      <trkpt lat="43.57001" lon="3.18443">
        <ele>414.39999389648</ele>
        <time>2011-02-16T14:58:25Z</time>
      </trkpt>
      <trkpt lat="43.56995" lon="3.18437">
        <ele>414.39999389648</ele>
        <time>2011-02-16T14:58:29Z</time>
      </trkpt>
      <trkpt lat="43.56993" lon="3.18441">
        <ele>414</ele>
        <time>2011-02-16T14:58:31Z</time>
      </trkpt>
      <trkpt lat="43.56992" lon="3.18443">
        <ele>413.60000610352</ele>
        <time>2011-02-16T14:58:32Z</time>
      </trkpt>
      <trkpt lat="43.56993" lon="3.18444">
        <ele>412.79998779297</ele>
        <time>2011-02-16T14:58:33Z</time>
      </trkpt>
      <trkpt lat="43.56992" lon="3.18446">
        <ele>412.39999389648</ele>
        <time>2011-02-16T14:58:34Z</time>
      </trkpt>
      <trkpt lat="43.56992" lon="3.18451">
        <ele>412.39999389648</ele>
        <time>2011-02-16T14:58:37Z</time>
      </trkpt>
      <trkpt lat="43.56992" lon="3.18453">
        <ele>412.39999389648</ele>
        <time>2011-02-16T14:58:38Z</time>
      </trkpt>
      <trkpt lat="43.56992" lon="3.18461">
        <ele>412.39999389648</ele>
        <time>2011-02-16T14:58:43Z</time>
      </trkpt>
      <trkpt lat="43.56993" lon="3.18463">
        <ele>412.39999389648</ele>
        <time>2011-02-16T14:58:44Z</time>
      </trkpt>
      <trkpt lat="43.56993" lon="3.18464">
        <ele>412.39999389648</ele>
        <time>2011-02-16T14:58:47Z</time>
      </trkpt>
      <trkpt lat="43.56993" lon="3.18472">
        <ele>412.39999389648</ele>
        <time>2011-02-16T14:58:56Z</time>
      </trkpt>
      <trkpt lat="43.56993" lon="3.18478">
        <ele>412.39999389648</ele>
        <time>2011-02-16T14:58:58Z</time>
      </trkpt>
      <trkpt lat="43.56987" lon="3.18483">
        <ele>412</ele>
        <time>2011-02-16T14:59:01Z</time>
      </trkpt>
      <trkpt lat="43.56985" lon="3.18484">
        <ele>411.60000610352</ele>
        <time>2011-02-16T14:59:02Z</time>
      </trkpt>
      <trkpt lat="43.56983" lon="3.18484">
        <ele>411.20001220703</ele>
        <time>2011-02-16T14:59:03Z</time>
      </trkpt>
      <trkpt lat="43.56981" lon="3.18483">
        <ele>410.79998779297</ele>
        <time>2011-02-16T14:59:04Z</time>
      </trkpt>
      <trkpt lat="43.56978" lon="3.18482">
        <ele>410.20001220703</ele>
        <time>2011-02-16T14:59:05Z</time>
      </trkpt>
      <trkpt lat="43.56976" lon="3.18482">
        <ele>409.60000610352</ele>
        <time>2011-02-16T14:59:06Z</time>
      </trkpt>
      <trkpt lat="43.56974" lon="3.18482">
        <ele>408.79998779297</ele>
        <time>2011-02-16T14:59:07Z</time>
      </trkpt>
      <trkpt lat="43.56973" lon="3.18482">
        <ele>408.20001220703</ele>
        <time>2011-02-16T14:59:08Z</time>
      </trkpt>
      <trkpt lat="43.56971" lon="3.18484">
        <ele>407.60000610352</ele>
        <time>2011-02-16T14:59:09Z</time>
      </trkpt>
      <trkpt lat="43.56969" lon="3.18485">
        <ele>407</ele>
        <time>2011-02-16T14:59:10Z</time>
      </trkpt>
      <trkpt lat="43.56966" lon="3.18484">
        <ele>406.39999389648</ele>
        <time>2011-02-16T14:59:11Z</time>
      </trkpt>
      <trkpt lat="43.56965" lon="3.18484">
        <ele>405.79998779297</ele>
        <time>2011-02-16T14:59:12Z</time>
      </trkpt>
      <trkpt lat="43.56964" lon="3.18484">
        <ele>405.20001220703</ele>
        <time>2011-02-16T14:59:13Z</time>
      </trkpt>
      <trkpt lat="43.56962" lon="3.18484">
        <ele>404.79998779297</ele>
        <time>2011-02-16T14:59:14Z</time>
      </trkpt>
      <trkpt lat="43.56961" lon="3.18484">
        <ele>404.39999389648</ele>
        <time>2011-02-16T14:59:15Z</time>
      </trkpt>
      <trkpt lat="43.56958" lon="3.18484">
        <ele>404</ele>
        <time>2011-02-16T14:59:16Z</time>
      </trkpt>
      <trkpt lat="43.56956" lon="3.18485">
        <ele>403.60000610352</ele>
        <time>2011-02-16T14:59:17Z</time>
      </trkpt>
      <trkpt lat="43.56954" lon="3.18486">
        <ele>403</ele>
        <time>2011-02-16T14:59:18Z</time>
      </trkpt>
      <trkpt lat="43.56951" lon="3.18487">
        <ele>402.39999389648</ele>
        <time>2011-02-16T14:59:19Z</time>
      </trkpt>
      <trkpt lat="43.56949" lon="3.18488">
        <ele>401.79998779297</ele>
        <time>2011-02-16T14:59:20Z</time>
      </trkpt>
      <trkpt lat="43.56948" lon="3.1849">
        <ele>401</ele>
        <time>2011-02-16T14:59:21Z</time>
      </trkpt>
      <trkpt lat="43.56947" lon="3.18492">
        <ele>399.60000610352</ele>
        <time>2011-02-16T14:59:22Z</time>
      </trkpt>
      <trkpt lat="43.56946" lon="3.18494">
        <ele>399</ele>
        <time>2011-02-16T14:59:23Z</time>
      </trkpt>
      <trkpt lat="43.56945" lon="3.18495">
        <ele>398.39999389648</ele>
        <time>2011-02-16T14:59:24Z</time>
      </trkpt>
      <trkpt lat="43.56944" lon="3.18498">
        <ele>397.79998779297</ele>
        <time>2011-02-16T14:59:25Z</time>
      </trkpt>
      <trkpt lat="43.56944" lon="3.18501">
        <ele>397.20001220703</ele>
        <time>2011-02-16T14:59:26Z</time>
      </trkpt>
      <trkpt lat="43.56944" lon="3.18503">
        <ele>396.60000610352</ele>
        <time>2011-02-16T14:59:27Z</time>
      </trkpt>
      <trkpt lat="43.56943" lon="3.18506">
        <ele>396</ele>
        <time>2011-02-16T14:59:28Z</time>
      </trkpt>
      <trkpt lat="43.56942" lon="3.1851">
        <ele>395.60000610352</ele>
        <time>2011-02-16T14:59:29Z</time>
      </trkpt>
      <trkpt lat="43.56942" lon="3.18513">
        <ele>395</ele>
        <time>2011-02-16T14:59:30Z</time>
      </trkpt>
      <trkpt lat="43.56942" lon="3.18517">
        <ele>394.39999389648</ele>
        <time>2011-02-16T14:59:31Z</time>
      </trkpt>
      <trkpt lat="43.56942" lon="3.18521">
        <ele>393.79998779297</ele>
        <time>2011-02-16T14:59:32Z</time>
      </trkpt>
      <trkpt lat="43.56941" lon="3.18525">
        <ele>393.39999389648</ele>
        <time>2011-02-16T14:59:33Z</time>
      </trkpt>
      <trkpt lat="43.56941" lon="3.18529">
        <ele>392.79998779297</ele>
        <time>2011-02-16T14:59:34Z</time>
      </trkpt>
      <trkpt lat="43.5694" lon="3.18532">
        <ele>392.39999389648</ele>
        <time>2011-02-16T14:59:35Z</time>
      </trkpt>
      <trkpt lat="43.5694" lon="3.18534">
        <ele>391.79998779297</ele>
        <time>2011-02-16T14:59:36Z</time>
      </trkpt>
      <trkpt lat="43.5694" lon="3.18537">
        <ele>391.39999389648</ele>
        <time>2011-02-16T14:59:37Z</time>
      </trkpt>
      <trkpt lat="43.56939" lon="3.1854">
        <ele>390.79998779297</ele>
        <time>2011-02-16T14:59:38Z</time>
      </trkpt>
      <trkpt lat="43.5694" lon="3.18542">
        <ele>390.20001220703</ele>
        <time>2011-02-16T14:59:39Z</time>
      </trkpt>
      <trkpt lat="43.5694" lon="3.18544">
        <ele>389.60000610352</ele>
        <time>2011-02-16T14:59:40Z</time>
      </trkpt>
      <trkpt lat="43.5694" lon="3.18545">
        <ele>389.20001220703</ele>
        <time>2011-02-16T14:59:41Z</time>
      </trkpt>
      <trkpt lat="43.5694" lon="3.18552">
        <ele>388</ele>
        <time>2011-02-16T14:59:43Z</time>
      </trkpt>
      <trkpt lat="43.5694" lon="3.18556">
        <ele>387.60000610352</ele>
        <time>2011-02-16T14:59:44Z</time>
      </trkpt>
      <trkpt lat="43.56939" lon="3.18558">
        <ele>387</ele>
        <time>2011-02-16T14:59:45Z</time>
      </trkpt>
      <trkpt lat="43.56939" lon="3.18562">
        <ele>387</ele>
        <time>2011-02-16T14:59:46Z</time>
      </trkpt>
      <trkpt lat="43.5694" lon="3.18565">
        <ele>386</ele>
        <time>2011-02-16T14:59:47Z</time>
      </trkpt>
      <trkpt lat="43.5694" lon="3.18568">
        <ele>385.60000610352</ele>
        <time>2011-02-16T14:59:48Z</time>
      </trkpt>
      <trkpt lat="43.5694" lon="3.1857">
        <ele>385.20001220703</ele>
        <time>2011-02-16T14:59:49Z</time>
      </trkpt>
      <trkpt lat="43.56939" lon="3.18572">
        <ele>384.60000610352</ele>
        <time>2011-02-16T14:59:50Z</time>
      </trkpt>
      <trkpt lat="43.5694" lon="3.18574">
        <ele>384.20001220703</ele>
        <time>2011-02-16T14:59:51Z</time>
      </trkpt>
      <trkpt lat="43.56941" lon="3.18578">
        <ele>383.79998779297</ele>
        <time>2011-02-16T14:59:52Z</time>
      </trkpt>
      <trkpt lat="43.56942" lon="3.18581">
        <ele>383.20001220703</ele>
        <time>2011-02-16T14:59:53Z</time>
      </trkpt>
      <trkpt lat="43.56944" lon="3.18584">
        <ele>382.79998779297</ele>
        <time>2011-02-16T14:59:54Z</time>
      </trkpt>
      <trkpt lat="43.56944" lon="3.18586">
        <ele>382.39999389648</ele>
        <time>2011-02-16T14:59:55Z</time>
      </trkpt>
      <trkpt lat="43.56946" lon="3.18594">
        <ele>382.39999389648</ele>
        <time>2011-02-16T14:59:58Z</time>
      </trkpt>
      <trkpt lat="43.56947" lon="3.18595">
        <ele>382</ele>
        <time>2011-02-16T14:59:59Z</time>
      </trkpt>
      <trkpt lat="43.56947" lon="3.18596">
        <ele>381.60000610352</ele>
        <time>2011-02-16T15:00:00Z</time>
      </trkpt>
      <trkpt lat="43.56948" lon="3.18598">
        <ele>381.20001220703</ele>
        <time>2011-02-16T15:00:01Z</time>
      </trkpt>
      <trkpt lat="43.56948" lon="3.18599">
        <ele>380.79998779297</ele>
        <time>2011-02-16T15:00:02Z</time>
      </trkpt>
      <trkpt lat="43.56948" lon="3.186">
        <ele>380.39999389648</ele>
        <time>2011-02-16T15:00:03Z</time>
      </trkpt>
      <trkpt lat="43.56949" lon="3.18603">
        <ele>380.39999389648</ele>
        <time>2011-02-16T15:00:05Z</time>
      </trkpt>
      <trkpt lat="43.56953" lon="3.18616">
        <ele>380</ele>
        <time>2011-02-16T15:00:54Z</time>
      </trkpt>
      <trkpt lat="43.56953" lon="3.18616">
        <ele>379.60000610352</ele>
        <time>2011-02-16T15:00:55Z</time>
      </trkpt>
      <trkpt lat="43.56952" lon="3.18616">
        <ele>379.20001220703</ele>
        <time>2011-02-16T15:00:56Z</time>
      </trkpt>
      <trkpt lat="43.56952" lon="3.18617">
        <ele>378.79998779297</ele>
        <time>2011-02-16T15:00:57Z</time>
      </trkpt>
      <trkpt lat="43.56953" lon="3.18621">
        <ele>378.39999389648</ele>
        <time>2011-02-16T15:01:07Z</time>
      </trkpt>
      <trkpt lat="43.56953" lon="3.18623">
        <ele>378.39999389648</ele>
        <time>2011-02-16T15:01:08Z</time>
      </trkpt>
      <trkpt lat="43.56953" lon="3.18625">
        <ele>377.79998779297</ele>
        <time>2011-02-16T15:01:09Z</time>
      </trkpt>
      <trkpt lat="43.56953" lon="3.18627">
        <ele>377.39999389648</ele>
        <time>2011-02-16T15:01:10Z</time>
      </trkpt>
      <trkpt lat="43.56953" lon="3.18629">
        <ele>377</ele>
        <time>2011-02-16T15:01:11Z</time>
      </trkpt>
      <trkpt lat="43.56953" lon="3.18631">
        <ele>376.60000610352</ele>
        <time>2011-02-16T15:01:12Z</time>
      </trkpt>
      <trkpt lat="43.56954" lon="3.18633">
        <ele>376.20001220703</ele>
        <time>2011-02-16T15:01:13Z</time>
      </trkpt>
      <trkpt lat="43.56954" lon="3.18635">
        <ele>376.20001220703</ele>
        <time>2011-02-16T15:01:14Z</time>
      </trkpt>
      <trkpt lat="43.56955" lon="3.18637">
        <ele>376.20001220703</ele>
        <time>2011-02-16T15:01:16Z</time>
      </trkpt>
      <trkpt lat="43.56956" lon="3.18638">
        <ele>375.79998779297</ele>
        <time>2011-02-16T15:01:17Z</time>
      </trkpt>
      <trkpt lat="43.56956" lon="3.18639">
        <ele>375.39999389648</ele>
        <time>2011-02-16T15:01:18Z</time>
      </trkpt>
      <trkpt lat="43.56957" lon="3.18641">
        <ele>375</ele>
        <time>2011-02-16T15:01:19Z</time>
      </trkpt>
      <trkpt lat="43.56958" lon="3.18642">
        <ele>374.60000610352</ele>
        <time>2011-02-16T15:01:20Z</time>
      </trkpt>
      <trkpt lat="43.56958" lon="3.18644">
        <ele>374</ele>
        <time>2011-02-16T15:01:21Z</time>
      </trkpt>
      <trkpt lat="43.5696" lon="3.18649">
        <ele>374</ele>
        <time>2011-02-16T15:01:24Z</time>
      </trkpt>
      <trkpt lat="43.5696" lon="3.18649">
        <ele>374</ele>
        <time>2011-02-16T15:01:25Z</time>
      </trkpt>
      <trkpt lat="43.56962" lon="3.18656">
        <ele>374</ele>
        <time>2011-02-16T15:01:29Z</time>
      </trkpt>
      <trkpt lat="43.56962" lon="3.18658">
        <ele>373.60000610352</ele>
        <time>2011-02-16T15:01:30Z</time>
      </trkpt>
      <trkpt lat="43.56962" lon="3.18659">
        <ele>373.20001220703</ele>
        <time>2011-02-16T15:01:31Z</time>
      </trkpt>
      <trkpt lat="43.56962" lon="3.1866">
        <ele>372.79998779297</ele>
        <time>2011-02-16T15:01:32Z</time>
      </trkpt>
      <trkpt lat="43.56961" lon="3.18661">
        <ele>372.39999389648</ele>
        <time>2011-02-16T15:01:33Z</time>
      </trkpt>
      <trkpt lat="43.56961" lon="3.18662">
        <ele>372</ele>
        <time>2011-02-16T15:01:34Z</time>
      </trkpt>
      <trkpt lat="43.5696" lon="3.18663">
        <ele>372</ele>
        <time>2011-02-16T15:01:35Z</time>
      </trkpt>
      <trkpt lat="43.5696" lon="3.18664">
        <ele>371.60000610352</ele>
        <time>2011-02-16T15:01:36Z</time>
      </trkpt>
      <trkpt lat="43.56959" lon="3.18664">
        <ele>371.20001220703</ele>
        <time>2011-02-16T15:01:37Z</time>
      </trkpt>
      <trkpt lat="43.56959" lon="3.18664">
        <ele>370.60000610352</ele>
        <time>2011-02-16T15:01:38Z</time>
      </trkpt>
      <trkpt lat="43.56954" lon="3.18681">
        <ele>366.39999389648</ele>
        <time>2011-02-16T15:02:02Z</time>
      </trkpt>
      <trkpt lat="43.56955" lon="3.18684">
        <ele>366</ele>
        <time>2011-02-16T15:02:03Z</time>
      </trkpt>
      <trkpt lat="43.56955" lon="3.18685">
        <ele>365.60000610352</ele>
        <time>2011-02-16T15:02:04Z</time>
      </trkpt>
      <trkpt lat="43.56955" lon="3.18688">
        <ele>365.60000610352</ele>
        <time>2011-02-16T15:02:05Z</time>
      </trkpt>
      <trkpt lat="43.56955" lon="3.18691">
        <ele>365</ele>
        <time>2011-02-16T15:02:06Z</time>
      </trkpt>
      <trkpt lat="43.56956" lon="3.18694">
        <ele>364.60000610352</ele>
        <time>2011-02-16T15:02:07Z</time>
      </trkpt>
      <trkpt lat="43.56955" lon="3.18696">
        <ele>364.20001220703</ele>
        <time>2011-02-16T15:02:08Z</time>
      </trkpt>
      <trkpt lat="43.56955" lon="3.18698">
        <ele>363.60000610352</ele>
        <time>2011-02-16T15:02:09Z</time>
      </trkpt>
      <trkpt lat="43.56955" lon="3.18698">
        <ele>363</ele>
        <time>2011-02-16T15:02:10Z</time>
      </trkpt>
      <trkpt lat="43.56955" lon="3.18699">
        <ele>362.60000610352</ele>
        <time>2011-02-16T15:02:11Z</time>
      </trkpt>
      <trkpt lat="43.56956" lon="3.18701">
        <ele>362</ele>
        <time>2011-02-16T15:02:12Z</time>
      </trkpt>
      <trkpt lat="43.56956" lon="3.18703">
        <ele>361.39999389648</ele>
        <time>2011-02-16T15:02:13Z</time>
      </trkpt>
      <trkpt lat="43.56956" lon="3.18706">
        <ele>360.79998779297</ele>
        <time>2011-02-16T15:02:14Z</time>
      </trkpt>
      <trkpt lat="43.56957" lon="3.1871">
        <ele>359.79998779297</ele>
        <time>2011-02-16T15:02:16Z</time>
      </trkpt>
      <trkpt lat="43.56957" lon="3.18712">
        <ele>359.39999389648</ele>
        <time>2011-02-16T15:02:17Z</time>
      </trkpt>
      <trkpt lat="43.56957" lon="3.18714">
        <ele>358.79998779297</ele>
        <time>2011-02-16T15:02:18Z</time>
      </trkpt>
      <trkpt lat="43.56957" lon="3.18715">
        <ele>358.39999389648</ele>
        <time>2011-02-16T15:02:19Z</time>
      </trkpt>
      <trkpt lat="43.56952" lon="3.18741">
        <ele>350</ele>
        <time>2011-02-16T15:03:00Z</time>
      </trkpt>
      <trkpt lat="43.5695" lon="3.18749">
        <ele>349</ele>
        <time>2011-02-16T15:03:08Z</time>
      </trkpt>
      <trkpt lat="43.56948" lon="3.18751">
        <ele>348.60000610352</ele>
        <time>2011-02-16T15:03:09Z</time>
      </trkpt>
      <trkpt lat="43.56948" lon="3.18754">
        <ele>348</ele>
        <time>2011-02-16T15:03:10Z</time>
      </trkpt>
      <trkpt lat="43.56947" lon="3.18757">
        <ele>347.39999389648</ele>
        <time>2011-02-16T15:03:11Z</time>
      </trkpt>
      <trkpt lat="43.56947" lon="3.18759">
        <ele>346.79998779297</ele>
        <time>2011-02-16T15:03:12Z</time>
      </trkpt>
      <trkpt lat="43.56946" lon="3.1876">
        <ele>346.20001220703</ele>
        <time>2011-02-16T15:03:13Z</time>
      </trkpt>
      <trkpt lat="43.56946" lon="3.1876">
        <ele>345.60000610352</ele>
        <time>2011-02-16T15:03:14Z</time>
      </trkpt>
      <trkpt lat="43.56945" lon="3.18763">
        <ele>343.39999389648</ele>
        <time>2011-02-16T15:03:19Z</time>
      </trkpt>
      <trkpt lat="43.56942" lon="3.18773">
        <ele>343</ele>
        <time>2011-02-16T15:03:24Z</time>
      </trkpt>
      <trkpt lat="43.56942" lon="3.18775">
        <ele>342.60000610352</ele>
        <time>2011-02-16T15:03:25Z</time>
      </trkpt>
      <trkpt lat="43.5694" lon="3.18779">
        <ele>342.20001220703</ele>
        <time>2011-02-16T15:03:26Z</time>
      </trkpt>
      <trkpt lat="43.56939" lon="3.18783">
        <ele>341.79998779297</ele>
        <time>2011-02-16T15:03:27Z</time>
      </trkpt>
      <trkpt lat="43.56937" lon="3.18787">
        <ele>341.20001220703</ele>
        <time>2011-02-16T15:03:28Z</time>
      </trkpt>
      <trkpt lat="43.56936" lon="3.18792">
        <ele>340.79998779297</ele>
        <time>2011-02-16T15:03:29Z</time>
      </trkpt>
      <trkpt lat="43.56934" lon="3.18796">
        <ele>339.79998779297</ele>
        <time>2011-02-16T15:03:30Z</time>
      </trkpt>
      <trkpt lat="43.56933" lon="3.18799">
        <ele>339.20001220703</ele>
        <time>2011-02-16T15:03:31Z</time>
      </trkpt>
      <trkpt lat="43.56932" lon="3.18803">
        <ele>338.60000610352</ele>
        <time>2011-02-16T15:03:32Z</time>
      </trkpt>
      <trkpt lat="43.56932" lon="3.18805">
        <ele>338</ele>
        <time>2011-02-16T15:03:33Z</time>
      </trkpt>
      <trkpt lat="43.56931" lon="3.18808">
        <ele>337.39999389648</ele>
        <time>2011-02-16T15:03:34Z</time>
      </trkpt>
      <trkpt lat="43.5693" lon="3.18812">
        <ele>336.79998779297</ele>
        <time>2011-02-16T15:03:35Z</time>
      </trkpt>
      <trkpt lat="43.5693" lon="3.18815">
        <ele>336.20001220703</ele>
        <time>2011-02-16T15:03:36Z</time>
      </trkpt>
      <trkpt lat="43.5693" lon="3.18818">
        <ele>335.60000610352</ele>
        <time>2011-02-16T15:03:37Z</time>
      </trkpt>
      <trkpt lat="43.56929" lon="3.18821">
        <ele>335</ele>
        <time>2011-02-16T15:03:38Z</time>
      </trkpt>
      <trkpt lat="43.56929" lon="3.18823">
        <ele>334.39999389648</ele>
        <time>2011-02-16T15:03:39Z</time>
      </trkpt>
      <trkpt lat="43.56928" lon="3.18826">
        <ele>333.60000610352</ele>
        <time>2011-02-16T15:03:40Z</time>
      </trkpt>
      <trkpt lat="43.56928" lon="3.18829">
        <ele>333</ele>
        <time>2011-02-16T15:03:41Z</time>
      </trkpt>
      <trkpt lat="43.56927" lon="3.18832">
        <ele>332.39999389648</ele>
        <time>2011-02-16T15:03:42Z</time>
      </trkpt>
      <trkpt lat="43.56927" lon="3.18834">
        <ele>331.79998779297</ele>
        <time>2011-02-16T15:03:43Z</time>
      </trkpt>
      <trkpt lat="43.56926" lon="3.18837">
        <ele>331.39999389648</ele>
        <time>2011-02-16T15:03:44Z</time>
      </trkpt>
      <trkpt lat="43.56926" lon="3.18839">
        <ele>331</ele>
        <time>2011-02-16T15:03:45Z</time>
      </trkpt>
      <trkpt lat="43.56925" lon="3.18842">
        <ele>330.60000610352</ele>
        <time>2011-02-16T15:03:46Z</time>
      </trkpt>
      <trkpt lat="43.56924" lon="3.18845">
        <ele>330</ele>
        <time>2011-02-16T15:03:47Z</time>
      </trkpt>
      <trkpt lat="43.56924" lon="3.18848">
        <ele>329.60000610352</ele>
        <time>2011-02-16T15:03:48Z</time>
      </trkpt>
      <trkpt lat="43.56925" lon="3.18851">
        <ele>329.20001220703</ele>
        <time>2011-02-16T15:03:49Z</time>
      </trkpt>
      <trkpt lat="43.56924" lon="3.18854">
        <ele>328.79998779297</ele>
        <time>2011-02-16T15:03:50Z</time>
      </trkpt>
      <trkpt lat="43.56924" lon="3.18858">
        <ele>328.20001220703</ele>
        <time>2011-02-16T15:03:51Z</time>
      </trkpt>
      <trkpt lat="43.56923" lon="3.18862">
        <ele>327.79998779297</ele>
        <time>2011-02-16T15:03:52Z</time>
      </trkpt>
      <trkpt lat="43.56922" lon="3.18866">
        <ele>327.39999389648</ele>
        <time>2011-02-16T15:03:53Z</time>
      </trkpt>
      <trkpt lat="43.56921" lon="3.1887">
        <ele>326.39999389648</ele>
        <time>2011-02-16T15:03:54Z</time>
      </trkpt>
      <trkpt lat="43.5692" lon="3.18873">
        <ele>326</ele>
        <time>2011-02-16T15:03:55Z</time>
      </trkpt>
      <trkpt lat="43.56918" lon="3.18877">
        <ele>325.60000610352</ele>
        <time>2011-02-16T15:03:56Z</time>
      </trkpt>
      <trkpt lat="43.56913" lon="3.18884">
        <ele>325.20001220703</ele>
        <time>2011-02-16T15:03:58Z</time>
      </trkpt>
      <trkpt lat="43.56911" lon="3.18886">
        <ele>324.60000610352</ele>
        <time>2011-02-16T15:03:59Z</time>
      </trkpt>
      <trkpt lat="43.56909" lon="3.18889">
        <ele>324.20001220703</ele>
        <time>2011-02-16T15:04:00Z</time>
      </trkpt>
      <trkpt lat="43.56907" lon="3.18891">
        <ele>323.79998779297</ele>
        <time>2011-02-16T15:04:01Z</time>
      </trkpt>
      <trkpt lat="43.56905" lon="3.18893">
        <ele>323.39999389648</ele>
        <time>2011-02-16T15:04:02Z</time>
      </trkpt>
      <trkpt lat="43.56904" lon="3.18897">
        <ele>323</ele>
        <time>2011-02-16T15:04:03Z</time>
      </trkpt>
      <trkpt lat="43.56901" lon="3.18899">
        <ele>322.60000610352</ele>
        <time>2011-02-16T15:04:04Z</time>
      </trkpt>
      <trkpt lat="43.56898" lon="3.189">
        <ele>322.20001220703</ele>
        <time>2011-02-16T15:04:05Z</time>
      </trkpt>
      <trkpt lat="43.56897" lon="3.18898">
        <ele>321.79998779297</ele>
        <time>2011-02-16T15:04:06Z</time>
      </trkpt>
      <trkpt lat="43.56895" lon="3.18898">
        <ele>321.39999389648</ele>
        <time>2011-02-16T15:04:07Z</time>
      </trkpt>
      <trkpt lat="43.56894" lon="3.18897">
        <ele>321.39999389648</ele>
        <time>2011-02-16T15:04:08Z</time>
      </trkpt>
      <trkpt lat="43.56887" lon="3.18895">
        <ele>321.39999389648</ele>
        <time>2011-02-16T15:04:12Z</time>
      </trkpt>
      <trkpt lat="43.56887" lon="3.18893">
        <ele>321.39999389648</ele>
        <time>2011-02-16T15:04:13Z</time>
      </trkpt>
      <trkpt lat="43.56883" lon="3.18892">
        <ele>321.39999389648</ele>
        <time>2011-02-16T15:04:16Z</time>
      </trkpt>
      <trkpt lat="43.56884" lon="3.18892">
        <ele>321.39999389648</ele>
        <time>2011-02-16T15:04:18Z</time>
      </trkpt>
      <trkpt lat="43.56875" lon="3.18889">
        <ele>321.39999389648</ele>
        <time>2011-02-16T15:05:46Z</time>
      </trkpt>
      <trkpt lat="43.56872" lon="3.18887">
        <ele>321.39999389648</ele>
        <time>2011-02-16T15:05:47Z</time>
      </trkpt>
      <trkpt lat="43.5686" lon="3.18881">
        <ele>321</ele>
        <time>2011-02-16T15:05:50Z</time>
      </trkpt>
      <trkpt lat="43.56855" lon="3.18879">
        <ele>320.39999389648</ele>
        <time>2011-02-16T15:05:51Z</time>
      </trkpt>
      <trkpt lat="43.5685" lon="3.18875">
        <ele>320</ele>
        <time>2011-02-16T15:05:52Z</time>
      </trkpt>
      <trkpt lat="43.56844" lon="3.18872">
        <ele>319.60000610352</ele>
        <time>2011-02-16T15:05:53Z</time>
      </trkpt>
      <trkpt lat="43.56838" lon="3.18869">
        <ele>319.20001220703</ele>
        <time>2011-02-16T15:05:54Z</time>
      </trkpt>
      <trkpt lat="43.56831" lon="3.18867">
        <ele>318.60000610352</ele>
        <time>2011-02-16T15:05:55Z</time>
      </trkpt>
      <trkpt lat="43.56823" lon="3.18864">
        <ele>318</ele>
        <time>2011-02-16T15:05:56Z</time>
      </trkpt>
      <trkpt lat="43.56815" lon="3.18862">
        <ele>317.20001220703</ele>
        <time>2011-02-16T15:05:57Z</time>
      </trkpt>
      <trkpt lat="43.56807" lon="3.18859">
        <ele>315.39999389648</ele>
        <time>2011-02-16T15:05:58Z</time>
      </trkpt>
      <trkpt lat="43.56799" lon="3.18856">
        <ele>314.39999389648</ele>
        <time>2011-02-16T15:05:59Z</time>
      </trkpt>
      <trkpt lat="43.56791" lon="3.18854">
        <ele>313.20001220703</ele>
        <time>2011-02-16T15:06:00Z</time>
      </trkpt>
      <trkpt lat="43.56784" lon="3.18852">
        <ele>312</ele>
        <time>2011-02-16T15:06:01Z</time>
      </trkpt>
      <trkpt lat="43.56777" lon="3.18851">
        <ele>310.79998779297</ele>
        <time>2011-02-16T15:06:02Z</time>
      </trkpt>
      <trkpt lat="43.5677" lon="3.18852">
        <ele>309.39999389648</ele>
        <time>2011-02-16T15:06:03Z</time>
      </trkpt>
      <trkpt lat="43.56761" lon="3.18857">
        <ele>308.20001220703</ele>
        <time>2011-02-16T15:06:04Z</time>
      </trkpt>
      <trkpt lat="43.56752" lon="3.18861">
        <ele>307</ele>
        <time>2011-02-16T15:06:05Z</time>
      </trkpt>
      <trkpt lat="43.56743" lon="3.18865">
        <ele>305.79998779297</ele>
        <time>2011-02-16T15:06:06Z</time>
      </trkpt>
      <trkpt lat="43.56733" lon="3.18869">
        <ele>304.39999389648</ele>
        <time>2011-02-16T15:06:07Z</time>
      </trkpt>
      <trkpt lat="43.56725" lon="3.18873">
        <ele>303</ele>
        <time>2011-02-16T15:06:08Z</time>
      </trkpt>
      <trkpt lat="43.56716" lon="3.18875">
        <ele>301.39999389648</ele>
        <time>2011-02-16T15:06:09Z</time>
      </trkpt>
      <trkpt lat="43.56706" lon="3.18876">
        <ele>300</ele>
        <time>2011-02-16T15:06:10Z</time>
      </trkpt>
      <trkpt lat="43.56697" lon="3.18876">
        <ele>298.60000610352</ele>
        <time>2011-02-16T15:06:11Z</time>
      </trkpt>
      <trkpt lat="43.5669" lon="3.18876">
        <ele>297</ele>
        <time>2011-02-16T15:06:12Z</time>
      </trkpt>
      <trkpt lat="43.56683" lon="3.18875">
        <ele>295.60000610352</ele>
        <time>2011-02-16T15:06:13Z</time>
      </trkpt>
      <trkpt lat="43.56678" lon="3.18877">
        <ele>294.20001220703</ele>
        <time>2011-02-16T15:06:14Z</time>
      </trkpt>
      <trkpt lat="43.56672" lon="3.18879">
        <ele>293</ele>
        <time>2011-02-16T15:06:15Z</time>
      </trkpt>
      <trkpt lat="43.56667" lon="3.18884">
        <ele>291.60000610352</ele>
        <time>2011-02-16T15:06:16Z</time>
      </trkpt>
      <trkpt lat="43.56662" lon="3.18888">
        <ele>290.60000610352</ele>
        <time>2011-02-16T15:06:17Z</time>
      </trkpt>
      <trkpt lat="43.56657" lon="3.1889">
        <ele>289.39999389648</ele>
        <time>2011-02-16T15:06:18Z</time>
      </trkpt>
      <trkpt lat="43.56653" lon="3.18891">
        <ele>288.39999389648</ele>
        <time>2011-02-16T15:06:19Z</time>
      </trkpt>
      <trkpt lat="43.56649" lon="3.18892">
        <ele>287.39999389648</ele>
        <time>2011-02-16T15:06:20Z</time>
      </trkpt>
      <trkpt lat="43.56644" lon="3.18889">
        <ele>286.60000610352</ele>
        <time>2011-02-16T15:06:21Z</time>
      </trkpt>
      <trkpt lat="43.5664" lon="3.18885">
        <ele>285.79998779297</ele>
        <time>2011-02-16T15:06:22Z</time>
      </trkpt>
      <trkpt lat="43.56636" lon="3.1888">
        <ele>284.39999389648</ele>
        <time>2011-02-16T15:06:23Z</time>
      </trkpt>
      <trkpt lat="43.56632" lon="3.18876">
        <ele>283.60000610352</ele>
        <time>2011-02-16T15:06:24Z</time>
      </trkpt>
      <trkpt lat="43.56628" lon="3.18873">
        <ele>282.79998779297</ele>
        <time>2011-02-16T15:06:25Z</time>
      </trkpt>
      <trkpt lat="43.56625" lon="3.18872">
        <ele>282</ele>
        <time>2011-02-16T15:06:26Z</time>
      </trkpt>
      <trkpt lat="43.56625" lon="3.18872">
        <ele>281.39999389648</ele>
        <time>2011-02-16T15:06:27Z</time>
      </trkpt>
      <trkpt lat="43.5662" lon="3.18863">
        <ele>279</ele>
        <time>2011-02-16T15:06:30Z</time>
      </trkpt>
      <trkpt lat="43.56618" lon="3.18861">
        <ele>279</ele>
        <time>2011-02-16T15:06:31Z</time>
      </trkpt>
      <trkpt lat="43.56608" lon="3.1886">
        <ele>278.60000610352</ele>
        <time>2011-02-16T15:06:34Z</time>
      </trkpt>
      <trkpt lat="43.56604" lon="3.18864">
        <ele>278.20001220703</ele>
        <time>2011-02-16T15:06:35Z</time>
      </trkpt>
      <trkpt lat="43.56601" lon="3.18869">
        <ele>277.60000610352</ele>
        <time>2011-02-16T15:06:36Z</time>
      </trkpt>
      <trkpt lat="43.56598" lon="3.18873">
        <ele>277.20001220703</ele>
        <time>2011-02-16T15:06:37Z</time>
      </trkpt>
      <trkpt lat="43.56594" lon="3.18876">
        <ele>276.60000610352</ele>
        <time>2011-02-16T15:06:38Z</time>
      </trkpt>
      <trkpt lat="43.56591" lon="3.18881">
        <ele>276.20001220703</ele>
        <time>2011-02-16T15:06:39Z</time>
      </trkpt>
      <trkpt lat="43.56587" lon="3.18885">
        <ele>275.60000610352</ele>
        <time>2011-02-16T15:06:40Z</time>
      </trkpt>
      <trkpt lat="43.56584" lon="3.18889">
        <ele>275.20001220703</ele>
        <time>2011-02-16T15:06:41Z</time>
      </trkpt>
      <trkpt lat="43.5658" lon="3.18892">
        <ele>274.60000610352</ele>
        <time>2011-02-16T15:06:42Z</time>
      </trkpt>
      <trkpt lat="43.56576" lon="3.18896">
        <ele>274</ele>
        <time>2011-02-16T15:06:43Z</time>
      </trkpt>
      <trkpt lat="43.56572" lon="3.18899">
        <ele>273.60000610352</ele>
        <time>2011-02-16T15:06:44Z</time>
      </trkpt>
      <trkpt lat="43.56567" lon="3.18902">
        <ele>273</ele>
        <time>2011-02-16T15:06:45Z</time>
      </trkpt>
      <trkpt lat="43.56562" lon="3.18906">
        <ele>272.60000610352</ele>
        <time>2011-02-16T15:06:46Z</time>
      </trkpt>
      <trkpt lat="43.56557" lon="3.1891">
        <ele>271.60000610352</ele>
        <time>2011-02-16T15:06:47Z</time>
      </trkpt>
      <trkpt lat="43.56552" lon="3.18912">
        <ele>271.20001220703</ele>
        <time>2011-02-16T15:06:48Z</time>
      </trkpt>
      <trkpt lat="43.56547" lon="3.18916">
        <ele>270.60000610352</ele>
        <time>2011-02-16T15:06:49Z</time>
      </trkpt>
      <trkpt lat="43.56541" lon="3.1892">
        <ele>270</ele>
        <time>2011-02-16T15:06:50Z</time>
      </trkpt>
      <trkpt lat="43.56535" lon="3.18924">
        <ele>269.39999389648</ele>
        <time>2011-02-16T15:06:51Z</time>
      </trkpt>
      <trkpt lat="43.56528" lon="3.18927">
        <ele>268.79998779297</ele>
        <time>2011-02-16T15:06:52Z</time>
      </trkpt>
      <trkpt lat="43.56521" lon="3.18929">
        <ele>268.20001220703</ele>
        <time>2011-02-16T15:06:53Z</time>
      </trkpt>
      <trkpt lat="43.56515" lon="3.18931">
        <ele>267.60000610352</ele>
        <time>2011-02-16T15:06:54Z</time>
      </trkpt>
      <trkpt lat="43.56511" lon="3.18932">
        <ele>266.79998779297</ele>
        <time>2011-02-16T15:06:55Z</time>
      </trkpt>
      <trkpt lat="43.56506" lon="3.18934">
        <ele>266.20001220703</ele>
        <time>2011-02-16T15:06:56Z</time>
      </trkpt>
      <trkpt lat="43.56503" lon="3.18935">
        <ele>265.60000610352</ele>
        <time>2011-02-16T15:06:57Z</time>
      </trkpt>
      <trkpt lat="43.56501" lon="3.18935">
        <ele>265</ele>
        <time>2011-02-16T15:06:58Z</time>
      </trkpt>
      <trkpt lat="43.56494" lon="3.18933">
        <ele>265</ele>
        <time>2011-02-16T15:07:01Z</time>
      </trkpt>
      <trkpt lat="43.56492" lon="3.18931">
        <ele>264.39999389648</ele>
        <time>2011-02-16T15:07:02Z</time>
      </trkpt>
      <trkpt lat="43.5649" lon="3.1893">
        <ele>264</ele>
        <time>2011-02-16T15:07:03Z</time>
      </trkpt>
      <trkpt lat="43.56489" lon="3.1893">
        <ele>263.60000610352</ele>
        <time>2011-02-16T15:07:04Z</time>
      </trkpt>
      <trkpt lat="43.56487" lon="3.18931">
        <ele>263.20001220703</ele>
        <time>2011-02-16T15:07:05Z</time>
      </trkpt>
      <trkpt lat="43.56485" lon="3.18933">
        <ele>262.79998779297</ele>
        <time>2011-02-16T15:07:06Z</time>
      </trkpt>
      <trkpt lat="43.56475" lon="3.18937">
        <ele>262.79998779297</ele>
        <time>2011-02-16T15:07:09Z</time>
      </trkpt>
      <trkpt lat="43.56472" lon="3.18938">
        <ele>262.79998779297</ele>
        <time>2011-02-16T15:07:10Z</time>
      </trkpt>
      <trkpt lat="43.56461" lon="3.18951">
        <ele>262.79998779297</ele>
        <time>2011-02-16T15:07:15Z</time>
      </trkpt>
      <trkpt lat="43.56457" lon="3.18955">
        <ele>262.79998779297</ele>
        <time>2011-02-16T15:07:17Z</time>
      </trkpt>
      <trkpt lat="43.56454" lon="3.18956">
        <ele>262.79998779297</ele>
        <time>2011-02-16T15:07:18Z</time>
      </trkpt>
      <trkpt lat="43.56451" lon="3.18953">
        <ele>262.79998779297</ele>
        <time>2011-02-16T15:07:19Z</time>
      </trkpt>
      <trkpt lat="43.56449" lon="3.18947">
        <ele>262.79998779297</ele>
        <time>2011-02-16T15:07:21Z</time>
      </trkpt>
      <trkpt lat="43.56445" lon="3.18941">
        <ele>262.79998779297</ele>
        <time>2011-02-16T15:07:23Z</time>
      </trkpt>
      <trkpt lat="43.56441" lon="3.18936">
        <ele>262.79998779297</ele>
        <time>2011-02-16T15:07:25Z</time>
      </trkpt>
      <trkpt lat="43.56433" lon="3.18935">
        <ele>262.79998779297</ele>
        <time>2011-02-16T15:07:28Z</time>
      </trkpt>
      <trkpt lat="43.56423" lon="3.18943">
        <ele>262.79998779297</ele>
        <time>2011-02-16T15:07:31Z</time>
      </trkpt>
      <trkpt lat="43.56405" lon="3.18955">
        <ele>262.39999389648</ele>
        <time>2011-02-16T15:07:34Z</time>
      </trkpt>
      <trkpt lat="43.56398" lon="3.18958">
        <ele>261.79998779297</ele>
        <time>2011-02-16T15:07:35Z</time>
      </trkpt>
      <trkpt lat="43.56392" lon="3.18961">
        <ele>261.39999389648</ele>
        <time>2011-02-16T15:07:36Z</time>
      </trkpt>
      <trkpt lat="43.56387" lon="3.18963">
        <ele>260.39999389648</ele>
        <time>2011-02-16T15:07:37Z</time>
      </trkpt>
      <trkpt lat="43.56382" lon="3.18964">
        <ele>259.79998779297</ele>
        <time>2011-02-16T15:07:38Z</time>
      </trkpt>
      <trkpt lat="43.56379" lon="3.18965">
        <ele>259.20001220703</ele>
        <time>2011-02-16T15:07:39Z</time>
      </trkpt>
      <trkpt lat="43.56376" lon="3.18965">
        <ele>258.60000610352</ele>
        <time>2011-02-16T15:07:40Z</time>
      </trkpt>
      <trkpt lat="43.56375" lon="3.18965">
        <ele>257.79998779297</ele>
        <time>2011-02-16T15:07:41Z</time>
      </trkpt>
      <trkpt lat="43.56374" lon="3.18964">
        <ele>257.20001220703</ele>
        <time>2011-02-16T15:07:42Z</time>
      </trkpt>
      <trkpt lat="43.56371" lon="3.18965">
        <ele>255.80000305176</ele>
        <time>2011-02-16T15:07:44Z</time>
      </trkpt>
      <trkpt lat="43.56362" lon="3.18968">
        <ele>255.80000305176</ele>
        <time>2011-02-16T15:07:47Z</time>
      </trkpt>
      <trkpt lat="43.56358" lon="3.1897">
        <ele>255.39999389648</ele>
        <time>2011-02-16T15:07:48Z</time>
      </trkpt>
      <trkpt lat="43.56352" lon="3.18971">
        <ele>255</ele>
        <time>2011-02-16T15:07:49Z</time>
      </trkpt>
      <trkpt lat="43.56346" lon="3.18973">
        <ele>254.60000610352</ele>
        <time>2011-02-16T15:07:50Z</time>
      </trkpt>
      <trkpt lat="43.56339" lon="3.18975">
        <ele>254</ele>
        <time>2011-02-16T15:07:51Z</time>
      </trkpt>
      <trkpt lat="43.56331" lon="3.18977">
        <ele>253.19999694824</ele>
        <time>2011-02-16T15:07:52Z</time>
      </trkpt>
      <trkpt lat="43.56323" lon="3.1898">
        <ele>252.60000610352</ele>
        <time>2011-02-16T15:07:53Z</time>
      </trkpt>
      <trkpt lat="43.56315" lon="3.18981">
        <ele>252</ele>
        <time>2011-02-16T15:07:54Z</time>
      </trkpt>
      <trkpt lat="43.56306" lon="3.18982">
        <ele>251.19999694824</ele>
        <time>2011-02-16T15:07:55Z</time>
      </trkpt>
      <trkpt lat="43.56298" lon="3.18983">
        <ele>250.39999389648</ele>
        <time>2011-02-16T15:07:56Z</time>
      </trkpt>
      <trkpt lat="43.5629" lon="3.18983">
        <ele>249.39999389648</ele>
        <time>2011-02-16T15:07:57Z</time>
      </trkpt>
      <trkpt lat="43.56283" lon="3.18983">
        <ele>248.60000610352</ele>
        <time>2011-02-16T15:07:58Z</time>
      </trkpt>
      <trkpt lat="43.56278" lon="3.18985">
        <ele>247.60000610352</ele>
        <time>2011-02-16T15:07:59Z</time>
      </trkpt>
      <trkpt lat="43.56272" lon="3.1899">
        <ele>247</ele>
        <time>2011-02-16T15:08:00Z</time>
      </trkpt>
      <trkpt lat="43.56266" lon="3.18994">
        <ele>246.19999694824</ele>
        <time>2011-02-16T15:08:01Z</time>
      </trkpt>
      <trkpt lat="43.5626" lon="3.18999">
        <ele>244.80000305176</ele>
        <time>2011-02-16T15:08:02Z</time>
      </trkpt>
      <trkpt lat="43.56253" lon="3.19002">
        <ele>244.19999694824</ele>
        <time>2011-02-16T15:08:03Z</time>
      </trkpt>
      <trkpt lat="43.56248" lon="3.19006">
        <ele>243.60000610352</ele>
        <time>2011-02-16T15:08:04Z</time>
      </trkpt>
      <trkpt lat="43.56242" lon="3.19009">
        <ele>243</ele>
        <time>2011-02-16T15:08:05Z</time>
      </trkpt>
      <trkpt lat="43.56236" lon="3.19013">
        <ele>242.39999389648</ele>
        <time>2011-02-16T15:08:06Z</time>
      </trkpt>
      <trkpt lat="43.5623" lon="3.19017">
        <ele>242</ele>
        <time>2011-02-16T15:08:07Z</time>
      </trkpt>
      <trkpt lat="43.56223" lon="3.1902">
        <ele>241.39999389648</ele>
        <time>2011-02-16T15:08:08Z</time>
      </trkpt>
      <trkpt lat="43.56216" lon="3.1902">
        <ele>240.80000305176</ele>
        <time>2011-02-16T15:08:09Z</time>
      </trkpt>
      <trkpt lat="43.56208" lon="3.19019">
        <ele>240.39999389648</ele>
        <time>2011-02-16T15:08:10Z</time>
      </trkpt>
      <trkpt lat="43.56202" lon="3.19014">
        <ele>239.80000305176</ele>
        <time>2011-02-16T15:08:11Z</time>
      </trkpt>
      <trkpt lat="43.5619" lon="3.19002">
        <ele>239.80000305176</ele>
        <time>2011-02-16T15:08:13Z</time>
      </trkpt>
      <trkpt lat="43.56186" lon="3.18996">
        <ele>239.80000305176</ele>
        <time>2011-02-16T15:08:14Z</time>
      </trkpt>
      <trkpt lat="43.56175" lon="3.18984">
        <ele>239.39999389648</ele>
        <time>2011-02-16T15:08:16Z</time>
      </trkpt>
      <trkpt lat="43.5617" lon="3.18978">
        <ele>239</ele>
        <time>2011-02-16T15:08:17Z</time>
      </trkpt>
      <trkpt lat="43.56166" lon="3.18972">
        <ele>238.60000610352</ele>
        <time>2011-02-16T15:08:18Z</time>
      </trkpt>
      <trkpt lat="43.56161" lon="3.18967">
        <ele>238.19999694824</ele>
        <time>2011-02-16T15:08:19Z</time>
      </trkpt>
      <trkpt lat="43.56157" lon="3.1896">
        <ele>237.80000305176</ele>
        <time>2011-02-16T15:08:20Z</time>
      </trkpt>
      <trkpt lat="43.56148" lon="3.18949">
        <ele>237.80000305176</ele>
        <time>2011-02-16T15:08:22Z</time>
      </trkpt>
      <trkpt lat="43.56142" lon="3.18945">
        <ele>237.80000305176</ele>
        <time>2011-02-16T15:08:23Z</time>
      </trkpt>
      <trkpt lat="43.56108" lon="3.18928">
        <ele>237.19999694824</ele>
        <time>2011-02-16T15:08:29Z</time>
      </trkpt>
      <trkpt lat="43.56102" lon="3.18925">
        <ele>236.80000305176</ele>
        <time>2011-02-16T15:08:30Z</time>
      </trkpt>
      <trkpt lat="43.56097" lon="3.18922">
        <ele>236.39999389648</ele>
        <time>2011-02-16T15:08:31Z</time>
      </trkpt>
      <trkpt lat="43.56091" lon="3.18921">
        <ele>236</ele>
        <time>2011-02-16T15:08:32Z</time>
      </trkpt>
      <trkpt lat="43.56086" lon="3.18919">
        <ele>235.60000610352</ele>
        <time>2011-02-16T15:08:33Z</time>
      </trkpt>
      <trkpt lat="43.5608" lon="3.18919">
        <ele>235.60000610352</ele>
        <time>2011-02-16T15:08:34Z</time>
      </trkpt>
      <trkpt lat="43.56065" lon="3.18928">
        <ele>235.60000610352</ele>
        <time>2011-02-16T15:08:37Z</time>
      </trkpt>
      <trkpt lat="43.5606" lon="3.18932">
        <ele>235.60000610352</ele>
        <time>2011-02-16T15:08:38Z</time>
      </trkpt>
      <trkpt lat="43.56038" lon="3.18955">
        <ele>235.60000610352</ele>
        <time>2011-02-16T15:08:43Z</time>
      </trkpt>
      <trkpt lat="43.56025" lon="3.18966">
        <ele>235.60000610352</ele>
        <time>2011-02-16T15:08:46Z</time>
      </trkpt>
      <trkpt lat="43.5602" lon="3.18969">
        <ele>235</ele>
        <time>2011-02-16T15:08:47Z</time>
      </trkpt>
      <trkpt lat="43.56016" lon="3.1897">
        <ele>234.60000610352</ele>
        <time>2011-02-16T15:08:48Z</time>
      </trkpt>
      <trkpt lat="43.56012" lon="3.18971">
        <ele>234.19999694824</ele>
        <time>2011-02-16T15:08:49Z</time>
      </trkpt>
      <trkpt lat="43.56007" lon="3.18972">
        <ele>233.60000610352</ele>
        <time>2011-02-16T15:08:50Z</time>
      </trkpt>
      <trkpt lat="43.56002" lon="3.18974">
        <ele>233.19999694824</ele>
        <time>2011-02-16T15:08:51Z</time>
      </trkpt>
      <trkpt lat="43.55964" lon="3.18984">
        <ele>233.19999694824</ele>
        <time>2011-02-16T15:08:59Z</time>
      </trkpt>
      <trkpt lat="43.55952" lon="3.18992">
        <ele>233.19999694824</ele>
        <time>2011-02-16T15:09:01Z</time>
      </trkpt>
      <trkpt lat="43.55947" lon="3.18997">
        <ele>233.19999694824</ele>
        <time>2011-02-16T15:09:02Z</time>
      </trkpt>
      <trkpt lat="43.55936" lon="3.19006">
        <ele>233.19999694824</ele>
        <time>2011-02-16T15:09:04Z</time>
      </trkpt>
      <trkpt lat="43.55926" lon="3.19013">
        <ele>233.19999694824</ele>
        <time>2011-02-16T15:09:06Z</time>
      </trkpt>
      <trkpt lat="43.55922" lon="3.19015">
        <ele>233.19999694824</ele>
        <time>2011-02-16T15:09:07Z</time>
      </trkpt>
      <trkpt lat="43.55917" lon="3.19017">
        <ele>233.60000610352</ele>
        <time>2011-02-16T15:09:08Z</time>
      </trkpt>
      <trkpt lat="43.55912" lon="3.1902">
        <ele>234</ele>
        <time>2011-02-16T15:09:09Z</time>
      </trkpt>
      <trkpt lat="43.55907" lon="3.19022">
        <ele>234.39999389648</ele>
        <time>2011-02-16T15:09:10Z</time>
      </trkpt>
      <trkpt lat="43.55903" lon="3.19023">
        <ele>234.80000305176</ele>
        <time>2011-02-16T15:09:11Z</time>
      </trkpt>
      <trkpt lat="43.55898" lon="3.19024">
        <ele>235.19999694824</ele>
        <time>2011-02-16T15:09:12Z</time>
      </trkpt>
      <trkpt lat="43.55893" lon="3.19024">
        <ele>235.19999694824</ele>
        <time>2011-02-16T15:09:13Z</time>
      </trkpt>
      <trkpt lat="43.55881" lon="3.19026">
        <ele>235.19999694824</ele>
        <time>2011-02-16T15:09:16Z</time>
      </trkpt>
      <trkpt lat="43.55876" lon="3.19026">
        <ele>235.19999694824</ele>
        <time>2011-02-16T15:09:17Z</time>
      </trkpt>
      <trkpt lat="43.55871" lon="3.19025">
        <ele>235.19999694824</ele>
        <time>2011-02-16T15:09:18Z</time>
      </trkpt>
      <trkpt lat="43.55857" lon="3.19024">
        <ele>235.19999694824</ele>
        <time>2011-02-16T15:09:21Z</time>
      </trkpt>
      <trkpt lat="43.55843" lon="3.19022">
        <ele>235.19999694824</ele>
        <time>2011-02-16T15:09:24Z</time>
      </trkpt>
      <trkpt lat="43.55828" lon="3.19021">
        <ele>235.19999694824</ele>
        <time>2011-02-16T15:09:27Z</time>
      </trkpt>
      <trkpt lat="43.55813" lon="3.19021">
        <ele>234.80000305176</ele>
        <time>2011-02-16T15:09:30Z</time>
      </trkpt>
      <trkpt lat="43.55807" lon="3.19021">
        <ele>234.39999389648</ele>
        <time>2011-02-16T15:09:31Z</time>
      </trkpt>
      <trkpt lat="43.55802" lon="3.19021">
        <ele>234</ele>
        <time>2011-02-16T15:09:32Z</time>
      </trkpt>
      <trkpt lat="43.55796" lon="3.19022">
        <ele>233.60000610352</ele>
        <time>2011-02-16T15:09:33Z</time>
      </trkpt>
      <trkpt lat="43.5579" lon="3.19023">
        <ele>233.19999694824</ele>
        <time>2011-02-16T15:09:34Z</time>
      </trkpt>
      <trkpt lat="43.55778" lon="3.19025">
        <ele>233.19999694824</ele>
        <time>2011-02-16T15:09:36Z</time>
      </trkpt>
      <trkpt lat="43.55772" lon="3.19025">
        <ele>232.60000610352</ele>
        <time>2011-02-16T15:09:37Z</time>
      </trkpt>
      <trkpt lat="43.55766" lon="3.19026">
        <ele>232.19999694824</ele>
        <time>2011-02-16T15:09:38Z</time>
      </trkpt>
      <trkpt lat="43.5576" lon="3.19026">
        <ele>231.60000610352</ele>
        <time>2011-02-16T15:09:39Z</time>
      </trkpt>
      <trkpt lat="43.55754" lon="3.19028">
        <ele>230.60000610352</ele>
        <time>2011-02-16T15:09:40Z</time>
      </trkpt>
      <trkpt lat="43.55748" lon="3.19029">
        <ele>230.60000610352</ele>
        <time>2011-02-16T15:09:41Z</time>
      </trkpt>
      <trkpt lat="43.55737" lon="3.1903">
        <ele>230.60000610352</ele>
        <time>2011-02-16T15:09:43Z</time>
      </trkpt>
      <trkpt lat="43.55732" lon="3.19029">
        <ele>230.19999694824</ele>
        <time>2011-02-16T15:09:44Z</time>
      </trkpt>
      <trkpt lat="43.55727" lon="3.1903">
        <ele>229.80000305176</ele>
        <time>2011-02-16T15:09:45Z</time>
      </trkpt>
      <trkpt lat="43.55722" lon="3.19032">
        <ele>229.39999389648</ele>
        <time>2011-02-16T15:09:46Z</time>
      </trkpt>
      <trkpt lat="43.55717" lon="3.19035">
        <ele>229</ele>
        <time>2011-02-16T15:09:47Z</time>
      </trkpt>
      <trkpt lat="43.55713" lon="3.19036">
        <ele>228.60000610352</ele>
        <time>2011-02-16T15:09:48Z</time>
      </trkpt>
      <trkpt lat="43.5571" lon="3.19038">
        <ele>228.60000610352</ele>
        <time>2011-02-16T15:09:49Z</time>
      </trkpt>
      <trkpt lat="43.55698" lon="3.19039">
        <ele>228.60000610352</ele>
        <time>2011-02-16T15:09:52Z</time>
      </trkpt>
      <trkpt lat="43.55693" lon="3.1904">
        <ele>228.60000610352</ele>
        <time>2011-02-16T15:09:53Z</time>
      </trkpt>
      <trkpt lat="43.55672" lon="3.19049">
        <ele>228.60000610352</ele>
        <time>2011-02-16T15:09:57Z</time>
      </trkpt>
      <trkpt lat="43.55647" lon="3.19056">
        <ele>228.60000610352</ele>
        <time>2011-02-16T15:10:01Z</time>
      </trkpt>
      <trkpt lat="43.55641" lon="3.19058">
        <ele>228.60000610352</ele>
        <time>2011-02-16T15:10:02Z</time>
      </trkpt>
      <trkpt lat="43.55617" lon="3.1906">
        <ele>228.60000610352</ele>
        <time>2011-02-16T15:10:06Z</time>
      </trkpt>
      <trkpt lat="43.5559" lon="3.1906">
        <ele>228.60000610352</ele>
        <time>2011-02-16T15:10:11Z</time>
      </trkpt>
      <trkpt lat="43.55585" lon="3.1906">
        <ele>228.60000610352</ele>
        <time>2011-02-16T15:10:12Z</time>
      </trkpt>
      <trkpt lat="43.5555" lon="3.19057">
        <ele>228.60000610352</ele>
        <time>2011-02-16T15:10:19Z</time>
      </trkpt>
      <trkpt lat="43.55535" lon="3.19064">
        <ele>228.60000610352</ele>
        <time>2011-02-16T15:10:22Z</time>
      </trkpt>
      <trkpt lat="43.55529" lon="3.19065">
        <ele>228.19999694824</ele>
        <time>2011-02-16T15:10:23Z</time>
      </trkpt>
      <trkpt lat="43.55522" lon="3.19067">
        <ele>227.80000305176</ele>
        <time>2011-02-16T15:10:24Z</time>
      </trkpt>
      <trkpt lat="43.55516" lon="3.19067">
        <ele>227.39999389648</ele>
        <time>2011-02-16T15:10:25Z</time>
      </trkpt>
      <trkpt lat="43.55509" lon="3.19068">
        <ele>226.80000305176</ele>
        <time>2011-02-16T15:10:26Z</time>
      </trkpt>
      <trkpt lat="43.55502" lon="3.19068">
        <ele>226.39999389648</ele>
        <time>2011-02-16T15:10:27Z</time>
      </trkpt>
      <trkpt lat="43.55495" lon="3.1907">
        <ele>226</ele>
        <time>2011-02-16T15:10:28Z</time>
      </trkpt>
      <trkpt lat="43.55488" lon="3.19071">
        <ele>225.60000610352</ele>
        <time>2011-02-16T15:10:29Z</time>
      </trkpt>
      <trkpt lat="43.55481" lon="3.19074">
        <ele>224.60000610352</ele>
        <time>2011-02-16T15:10:30Z</time>
      </trkpt>
      <trkpt lat="43.55475" lon="3.19076">
        <ele>224.19999694824</ele>
        <time>2011-02-16T15:10:31Z</time>
      </trkpt>
      <trkpt lat="43.55468" lon="3.19078">
        <ele>223.80000305176</ele>
        <time>2011-02-16T15:10:32Z</time>
      </trkpt>
      <trkpt lat="43.55461" lon="3.1908">
        <ele>223.39999389648</ele>
        <time>2011-02-16T15:10:33Z</time>
      </trkpt>
      <trkpt lat="43.55453" lon="3.19082">
        <ele>223</ele>
        <time>2011-02-16T15:10:34Z</time>
      </trkpt>
      <trkpt lat="43.55446" lon="3.19083">
        <ele>222.60000610352</ele>
        <time>2011-02-16T15:10:35Z</time>
      </trkpt>
      <trkpt lat="43.55439" lon="3.19086">
        <ele>222.19999694824</ele>
        <time>2011-02-16T15:10:36Z</time>
      </trkpt>
      <trkpt lat="43.55433" lon="3.19087">
        <ele>222.19999694824</ele>
        <time>2011-02-16T15:10:37Z</time>
      </trkpt>
      <trkpt lat="43.55426" lon="3.19089">
        <ele>221.60000610352</ele>
        <time>2011-02-16T15:10:38Z</time>
      </trkpt>
      <trkpt lat="43.55421" lon="3.19092">
        <ele>221.19999694824</ele>
        <time>2011-02-16T15:10:39Z</time>
      </trkpt>
      <trkpt lat="43.55415" lon="3.19092">
        <ele>220.60000610352</ele>
        <time>2011-02-16T15:10:40Z</time>
      </trkpt>
      <trkpt lat="43.55411" lon="3.19092">
        <ele>220.19999694824</ele>
        <time>2011-02-16T15:10:41Z</time>
      </trkpt>
      <trkpt lat="43.55406" lon="3.19092">
        <ele>219.80000305176</ele>
        <time>2011-02-16T15:10:42Z</time>
      </trkpt>
      <trkpt lat="43.55386" lon="3.19092">
        <ele>219.80000305176</ele>
        <time>2011-02-16T15:10:47Z</time>
      </trkpt>
      <trkpt lat="43.55376" lon="3.19092">
        <ele>220.19999694824</ele>
        <time>2011-02-16T15:10:50Z</time>
      </trkpt>
      <trkpt lat="43.55373" lon="3.19092">
        <ele>220.60000610352</ele>
        <time>2011-02-16T15:10:51Z</time>
      </trkpt>
      <trkpt lat="43.55371" lon="3.19091">
        <ele>221</ele>
        <time>2011-02-16T15:10:52Z</time>
      </trkpt>
      <trkpt lat="43.5537" lon="3.1909">
        <ele>221.39999389648</ele>
        <time>2011-02-16T15:10:53Z</time>
      </trkpt>
      <trkpt lat="43.55368" lon="3.19089">
        <ele>221.80000305176</ele>
        <time>2011-02-16T15:10:54Z</time>
      </trkpt>
      <trkpt lat="43.55363" lon="3.19088">
        <ele>221.80000305176</ele>
        <time>2011-02-16T15:10:56Z</time>
      </trkpt>
      <trkpt lat="43.55362" lon="3.19088">
        <ele>221.80000305176</ele>
        <time>2011-02-16T15:10:57Z</time>
      </trkpt>
      <trkpt lat="43.55358" lon="3.19088">
        <ele>222.39999389648</ele>
        <time>2011-02-16T15:10:59Z</time>
      </trkpt>
      <trkpt lat="43.55357" lon="3.19087">
        <ele>222.80000305176</ele>
        <time>2011-02-16T15:11:00Z</time>
      </trkpt>
      <trkpt lat="43.55355" lon="3.19088">
        <ele>223.19999694824</ele>
        <time>2011-02-16T15:11:01Z</time>
      </trkpt>
      <trkpt lat="43.55353" lon="3.19089">
        <ele>223.80000305176</ele>
        <time>2011-02-16T15:11:02Z</time>
      </trkpt>
      <trkpt lat="43.55351" lon="3.1909">
        <ele>224.19999694824</ele>
        <time>2011-02-16T15:11:03Z</time>
      </trkpt>
      <trkpt lat="43.55341" lon="3.19092">
        <ele>224.60000610352</ele>
        <time>2011-02-16T15:11:07Z</time>
      </trkpt>
      <trkpt lat="43.5534" lon="3.19092">
        <ele>225</ele>
        <time>2011-02-16T15:11:08Z</time>
      </trkpt>
      <trkpt lat="43.55338" lon="3.19093">
        <ele>225.60000610352</ele>
        <time>2011-02-16T15:11:09Z</time>
      </trkpt>
      <trkpt lat="43.55335" lon="3.19093">
        <ele>226</ele>
        <time>2011-02-16T15:11:10Z</time>
      </trkpt>
      <trkpt lat="43.55333" lon="3.19094">
        <ele>226.39999389648</ele>
        <time>2011-02-16T15:11:11Z</time>
      </trkpt>
      <trkpt lat="43.55331" lon="3.19094">
        <ele>226.39999389648</ele>
        <time>2011-02-16T15:11:12Z</time>
      </trkpt>
      <trkpt lat="43.55325" lon="3.19095">
        <ele>226.80000305176</ele>
        <time>2011-02-16T15:11:15Z</time>
      </trkpt>
      <trkpt lat="43.55322" lon="3.19096">
        <ele>227.19999694824</ele>
        <time>2011-02-16T15:11:16Z</time>
      </trkpt>
      <trkpt lat="43.5532" lon="3.19096">
        <ele>227.60000610352</ele>
        <time>2011-02-16T15:11:17Z</time>
      </trkpt>
      <trkpt lat="43.55317" lon="3.19097">
        <ele>228</ele>
        <time>2011-02-16T15:11:18Z</time>
      </trkpt>
      <trkpt lat="43.55315" lon="3.19097">
        <ele>228.39999389648</ele>
        <time>2011-02-16T15:11:19Z</time>
      </trkpt>
      <trkpt lat="43.553" lon="3.19099">
        <ele>228.39999389648</ele>
        <time>2011-02-16T15:11:25Z</time>
      </trkpt>
      <trkpt lat="43.55285" lon="3.191">
        <ele>228.39999389648</ele>
        <time>2011-02-16T15:11:31Z</time>
      </trkpt>
      <trkpt lat="43.55279" lon="3.191">
        <ele>228.80000305176</ele>
        <time>2011-02-16T15:11:34Z</time>
      </trkpt>
      <trkpt lat="43.55277" lon="3.19099">
        <ele>229.19999694824</ele>
        <time>2011-02-16T15:11:35Z</time>
      </trkpt>
      <trkpt lat="43.55275" lon="3.19098">
        <ele>229.60000610352</ele>
        <time>2011-02-16T15:11:36Z</time>
      </trkpt>
      <trkpt lat="43.55273" lon="3.19097">
        <ele>230</ele>
        <time>2011-02-16T15:11:37Z</time>
      </trkpt>
      <trkpt lat="43.55272" lon="3.19096">
        <ele>230.60000610352</ele>
        <time>2011-02-16T15:11:38Z</time>
      </trkpt>
      <trkpt lat="43.55268" lon="3.19094">
        <ele>230.60000610352</ele>
        <time>2011-02-16T15:11:40Z</time>
      </trkpt>
      <trkpt lat="43.55263" lon="3.19091">
        <ele>230.60000610352</ele>
        <time>2011-02-16T15:11:43Z</time>
      </trkpt>
      <trkpt lat="43.55261" lon="3.19089">
        <ele>231.39999389648</ele>
        <time>2011-02-16T15:11:44Z</time>
      </trkpt>
      <trkpt lat="43.5526" lon="3.19088">
        <ele>231.80000305176</ele>
        <time>2011-02-16T15:11:45Z</time>
      </trkpt>
      <trkpt lat="43.55259" lon="3.19086">
        <ele>232.19999694824</ele>
        <time>2011-02-16T15:11:46Z</time>
      </trkpt>
      <trkpt lat="43.55257" lon="3.19085">
        <ele>232.60000610352</ele>
        <time>2011-02-16T15:11:47Z</time>
      </trkpt>
      <trkpt lat="43.55256" lon="3.19081">
        <ele>232.60000610352</ele>
        <time>2011-02-16T15:11:49Z</time>
      </trkpt>
      <trkpt lat="43.55256" lon="3.19079">
        <ele>233</ele>
        <time>2011-02-16T15:11:50Z</time>
      </trkpt>
      <trkpt lat="43.55256" lon="3.19077">
        <ele>233.39999389648</ele>
        <time>2011-02-16T15:11:51Z</time>
      </trkpt>
      <trkpt lat="43.55255" lon="3.19075">
        <ele>233.80000305176</ele>
        <time>2011-02-16T15:11:52Z</time>
      </trkpt>
      <trkpt lat="43.55255" lon="3.19073">
        <ele>234.19999694824</ele>
        <time>2011-02-16T15:11:53Z</time>
      </trkpt>
      <trkpt lat="43.55255" lon="3.19071">
        <ele>234.60000610352</ele>
        <time>2011-02-16T15:11:54Z</time>
      </trkpt>
      <trkpt lat="43.55254" lon="3.19066">
        <ele>234.60000610352</ele>
        <time>2011-02-16T15:11:57Z</time>
      </trkpt>
      <trkpt lat="43.55255" lon="3.19058">
        <ele>234.60000610352</ele>
        <time>2011-02-16T15:12:01Z</time>
      </trkpt>
      <trkpt lat="43.55255" lon="3.19057">
        <ele>235</ele>
        <time>2011-02-16T15:12:02Z</time>
      </trkpt>
      <trkpt lat="43.55255" lon="3.19055">
        <ele>235.39999389648</ele>
        <time>2011-02-16T15:12:03Z</time>
      </trkpt>
      <trkpt lat="43.55254" lon="3.19052">
        <ele>235.80000305176</ele>
        <time>2011-02-16T15:12:04Z</time>
      </trkpt>
      <trkpt lat="43.55254" lon="3.19051">
        <ele>236.19999694824</ele>
        <time>2011-02-16T15:12:05Z</time>
      </trkpt>
      <trkpt lat="43.55254" lon="3.19049">
        <ele>236.60000610352</ele>
        <time>2011-02-16T15:12:06Z</time>
      </trkpt>
      <trkpt lat="43.55256" lon="3.19042">
        <ele>236.60000610352</ele>
        <time>2011-02-16T15:12:10Z</time>
      </trkpt>
      <trkpt lat="43.55259" lon="3.19031">
        <ele>237.19999694824</ele>
        <time>2011-02-16T15:12:17Z</time>
      </trkpt>
      <trkpt lat="43.5526" lon="3.19029">
        <ele>237.60000610352</ele>
        <time>2011-02-16T15:12:18Z</time>
      </trkpt>
      <trkpt lat="43.5526" lon="3.19028">
        <ele>238</ele>
        <time>2011-02-16T15:12:19Z</time>
      </trkpt>
      <trkpt lat="43.55261" lon="3.19027">
        <ele>238.39999389648</ele>
        <time>2011-02-16T15:12:20Z</time>
      </trkpt>
      <trkpt lat="43.55262" lon="3.19026">
        <ele>238.80000305176</ele>
        <time>2011-02-16T15:12:21Z</time>
      </trkpt>
      <trkpt lat="43.55265" lon="3.19023">
        <ele>238.80000305176</ele>
        <time>2011-02-16T15:12:24Z</time>
      </trkpt>
      <trkpt lat="43.55265" lon="3.19022">
        <ele>239.19999694824</ele>
        <time>2011-02-16T15:12:25Z</time>
      </trkpt>
      <trkpt lat="43.55265" lon="3.1902">
        <ele>239.60000610352</ele>
        <time>2011-02-16T15:12:26Z</time>
      </trkpt>
      <trkpt lat="43.55265" lon="3.19018">
        <ele>240.19999694824</ele>
        <time>2011-02-16T15:12:27Z</time>
      </trkpt>
      <trkpt lat="43.55265" lon="3.19017">
        <ele>240.60000610352</ele>
        <time>2011-02-16T15:12:28Z</time>
      </trkpt>
      <trkpt lat="43.55265" lon="3.19015">
        <ele>241</ele>
        <time>2011-02-16T15:12:29Z</time>
      </trkpt>
      <trkpt lat="43.55265" lon="3.19014">
        <ele>241</ele>
        <time>2011-02-16T15:12:30Z</time>
      </trkpt>
      <trkpt lat="43.55266" lon="3.19008">
        <ele>241</ele>
        <time>2011-02-16T15:12:34Z</time>
      </trkpt>
      <trkpt lat="43.55266" lon="3.19003">
        <ele>241.39999389648</ele>
        <time>2011-02-16T15:12:37Z</time>
      </trkpt>
      <trkpt lat="43.55265" lon="3.19002">
        <ele>241.80000305176</ele>
        <time>2011-02-16T15:12:38Z</time>
      </trkpt>
      <trkpt lat="43.55265" lon="3.19">
        <ele>242.19999694824</ele>
        <time>2011-02-16T15:12:39Z</time>
      </trkpt>
      <trkpt lat="43.55264" lon="3.18998">
        <ele>242.60000610352</ele>
        <time>2011-02-16T15:12:40Z</time>
      </trkpt>
      <trkpt lat="43.55264" lon="3.18997">
        <ele>243</ele>
        <time>2011-02-16T15:12:41Z</time>
      </trkpt>
      <trkpt lat="43.5526" lon="3.18991">
        <ele>243</ele>
        <time>2011-02-16T15:12:46Z</time>
      </trkpt>
      <trkpt lat="43.55258" lon="3.18988">
        <ele>243.39999389648</ele>
        <time>2011-02-16T15:12:49Z</time>
      </trkpt>
      <trkpt lat="43.55257" lon="3.18987">
        <ele>243.80000305176</ele>
        <time>2011-02-16T15:12:50Z</time>
      </trkpt>
      <trkpt lat="43.55256" lon="3.18985">
        <ele>244.19999694824</ele>
        <time>2011-02-16T15:12:51Z</time>
      </trkpt>
      <trkpt lat="43.55255" lon="3.18984">
        <ele>244.60000610352</ele>
        <time>2011-02-16T15:12:52Z</time>
      </trkpt>
      <trkpt lat="43.55254" lon="3.18983">
        <ele>245</ele>
        <time>2011-02-16T15:12:53Z</time>
      </trkpt>
      <trkpt lat="43.55248" lon="3.18976">
        <ele>245</ele>
        <time>2011-02-16T15:12:58Z</time>
      </trkpt>
      <trkpt lat="43.55243" lon="3.18969">
        <ele>245.39999389648</ele>
        <time>2011-02-16T15:13:03Z</time>
      </trkpt>
      <trkpt lat="43.55242" lon="3.18968">
        <ele>245.80000305176</ele>
        <time>2011-02-16T15:13:04Z</time>
      </trkpt>
      <trkpt lat="43.55241" lon="3.18967">
        <ele>246.19999694824</ele>
        <time>2011-02-16T15:13:05Z</time>
      </trkpt>
      <trkpt lat="43.5524" lon="3.18965">
        <ele>246.60000610352</ele>
        <time>2011-02-16T15:13:06Z</time>
      </trkpt>
      <trkpt lat="43.55239" lon="3.18963">
        <ele>247</ele>
        <time>2011-02-16T15:13:07Z</time>
      </trkpt>
      <trkpt lat="43.55238" lon="3.18959">
        <ele>247</ele>
        <time>2011-02-16T15:13:09Z</time>
      </trkpt>
      <trkpt lat="43.55235" lon="3.18953">
        <ele>247.60000610352</ele>
        <time>2011-02-16T15:13:13Z</time>
      </trkpt>
      <trkpt lat="43.55235" lon="3.18951">
        <ele>248</ele>
        <time>2011-02-16T15:13:14Z</time>
      </trkpt>
      <trkpt lat="43.55234" lon="3.1895">
        <ele>248.39999389648</ele>
        <time>2011-02-16T15:13:15Z</time>
      </trkpt>
      <trkpt lat="43.55233" lon="3.18948">
        <ele>248.80000305176</ele>
        <time>2011-02-16T15:13:16Z</time>
      </trkpt>
      <trkpt lat="43.55233" lon="3.18946">
        <ele>249.19999694824</ele>
        <time>2011-02-16T15:13:17Z</time>
      </trkpt>
      <trkpt lat="43.55236" lon="3.18938">
        <ele>249.19999694824</ele>
        <time>2011-02-16T15:13:21Z</time>
      </trkpt>
      <trkpt lat="43.55246" lon="3.18931">
        <ele>249.19999694824</ele>
        <time>2011-02-16T15:13:27Z</time>
      </trkpt>
      <trkpt lat="43.55257" lon="3.18926">
        <ele>249.19999694824</ele>
        <time>2011-02-16T15:13:33Z</time>
      </trkpt>
      <trkpt lat="43.5526" lon="3.18922">
        <ele>249.80000305176</ele>
        <time>2011-02-16T15:13:35Z</time>
      </trkpt>
      <trkpt lat="43.55262" lon="3.1892">
        <ele>250.19999694824</ele>
        <time>2011-02-16T15:13:36Z</time>
      </trkpt>
      <trkpt lat="43.55263" lon="3.18918">
        <ele>250.60000610352</ele>
        <time>2011-02-16T15:13:37Z</time>
      </trkpt>
      <trkpt lat="43.55264" lon="3.18916">
        <ele>251</ele>
        <time>2011-02-16T15:13:38Z</time>
      </trkpt>
      <trkpt lat="43.55266" lon="3.18915">
        <ele>251.39999389648</ele>
        <time>2011-02-16T15:13:39Z</time>
      </trkpt>
      <trkpt lat="43.55267" lon="3.18913">
        <ele>251.39999389648</ele>
        <time>2011-02-16T15:13:40Z</time>
      </trkpt>
      <trkpt lat="43.55278" lon="3.18903">
        <ele>251.39999389648</ele>
        <time>2011-02-16T15:13:47Z</time>
      </trkpt>
      <trkpt lat="43.55282" lon="3.189">
        <ele>251.80000305176</ele>
        <time>2011-02-16T15:13:49Z</time>
      </trkpt>
      <trkpt lat="43.55284" lon="3.189">
        <ele>252.19999694824</ele>
        <time>2011-02-16T15:13:50Z</time>
      </trkpt>
      <trkpt lat="43.55286" lon="3.18898">
        <ele>252.60000610352</ele>
        <time>2011-02-16T15:13:51Z</time>
      </trkpt>
      <trkpt lat="43.55289" lon="3.18896">
        <ele>253.19999694824</ele>
        <time>2011-02-16T15:13:52Z</time>
      </trkpt>
      <trkpt lat="43.55291" lon="3.18895">
        <ele>253.60000610352</ele>
        <time>2011-02-16T15:13:53Z</time>
      </trkpt>
      <trkpt lat="43.55302" lon="3.18888">
        <ele>253.60000610352</ele>
        <time>2011-02-16T15:13:58Z</time>
      </trkpt>
      <trkpt lat="43.55306" lon="3.18885">
        <ele>254</ele>
        <time>2011-02-16T15:14:00Z</time>
      </trkpt>
      <trkpt lat="43.55309" lon="3.18886">
        <ele>254.39999389648</ele>
        <time>2011-02-16T15:14:01Z</time>
      </trkpt>
      <trkpt lat="43.5531" lon="3.18885">
        <ele>254.80000305176</ele>
        <time>2011-02-16T15:14:02Z</time>
      </trkpt>
      <trkpt lat="43.55313" lon="3.18886">
        <ele>255.19999694824</ele>
        <time>2011-02-16T15:14:03Z</time>
      </trkpt>
      <trkpt lat="43.55315" lon="3.18886">
        <ele>255.60000610352</ele>
        <time>2011-02-16T15:14:04Z</time>
      </trkpt>
      <trkpt lat="43.5533" lon="3.18886">
        <ele>255.60000610352</ele>
        <time>2011-02-16T15:14:10Z</time>
      </trkpt>
      <trkpt lat="43.55347" lon="3.18885">
        <ele>255.60000610352</ele>
        <time>2011-02-16T15:14:17Z</time>
      </trkpt>
      <trkpt lat="43.55355" lon="3.18884">
        <ele>256</ele>
        <time>2011-02-16T15:14:20Z</time>
      </trkpt>
      <trkpt lat="43.55357" lon="3.18883">
        <ele>256.39999389648</ele>
        <time>2011-02-16T15:14:21Z</time>
      </trkpt>
      <trkpt lat="43.55359" lon="3.18883">
        <ele>256.79998779297</ele>
        <time>2011-02-16T15:14:22Z</time>
      </trkpt>
      <trkpt lat="43.5536" lon="3.18883">
        <ele>257.20001220703</ele>
        <time>2011-02-16T15:14:23Z</time>
      </trkpt>
      <trkpt lat="43.55363" lon="3.18883">
        <ele>257.60000610352</ele>
        <time>2011-02-16T15:14:24Z</time>
      </trkpt>
      <trkpt lat="43.55378" lon="3.18877">
        <ele>257.60000610352</ele>
        <time>2011-02-16T15:14:30Z</time>
      </trkpt>
      <trkpt lat="43.55402" lon="3.18865">
        <ele>257.60000610352</ele>
        <time>2011-02-16T15:14:39Z</time>
      </trkpt>
      <trkpt lat="43.5542" lon="3.18854">
        <ele>257.60000610352</ele>
        <time>2011-02-16T15:14:46Z</time>
      </trkpt>
      <trkpt lat="43.55423" lon="3.18852">
        <ele>257.60000610352</ele>
        <time>2011-02-16T15:14:47Z</time>
      </trkpt>
      <trkpt lat="43.55438" lon="3.18848">
        <ele>257.60000610352</ele>
        <time>2011-02-16T15:14:53Z</time>
      </trkpt>
      <trkpt lat="43.55442" lon="3.18849">
        <ele>257.60000610352</ele>
        <time>2011-02-16T15:14:56Z</time>
      </trkpt>
      <trkpt lat="43.55445" lon="3.18849">
        <ele>257.60000610352</ele>
        <time>2011-02-16T15:14:59Z</time>
      </trkpt>
      <trkpt lat="43.55453" lon="3.18848">
        <ele>259.60000610352</ele>
        <time>2011-02-16T15:15:39Z</time>
      </trkpt>
      <trkpt lat="43.55455" lon="3.18848">
        <ele>259.60000610352</ele>
        <time>2011-02-16T15:15:40Z</time>
      </trkpt>
      <trkpt lat="43.55465" lon="3.1884">
        <ele>259.60000610352</ele>
        <time>2011-02-16T15:15:44Z</time>
      </trkpt>
      <trkpt lat="43.55468" lon="3.18838">
        <ele>259.60000610352</ele>
        <time>2011-02-16T15:15:45Z</time>
      </trkpt>
      <trkpt lat="43.55484" lon="3.18826">
        <ele>259.60000610352</ele>
        <time>2011-02-16T15:15:50Z</time>
      </trkpt>
      <trkpt lat="43.55492" lon="3.1882">
        <ele>259.60000610352</ele>
        <time>2011-02-16T15:15:52Z</time>
      </trkpt>
      <trkpt lat="43.55508" lon="3.18806">
        <ele>259.60000610352</ele>
        <time>2011-02-16T15:15:56Z</time>
      </trkpt>
      <trkpt lat="43.55516" lon="3.18799">
        <ele>259.60000610352</ele>
        <time>2011-02-16T15:15:58Z</time>
      </trkpt>
      <trkpt lat="43.55523" lon="3.18792">
        <ele>259.60000610352</ele>
        <time>2011-02-16T15:16:00Z</time>
      </trkpt>
      <trkpt lat="43.55531" lon="3.18783">
        <ele>259.60000610352</ele>
        <time>2011-02-16T15:16:03Z</time>
      </trkpt>
      <trkpt lat="43.55537" lon="3.18779">
        <ele>260</ele>
        <time>2011-02-16T15:16:05Z</time>
      </trkpt>
      <trkpt lat="43.5554" lon="3.18777">
        <ele>260.39999389648</ele>
        <time>2011-02-16T15:16:06Z</time>
      </trkpt>
      <trkpt lat="43.55542" lon="3.18775">
        <ele>261</ele>
        <time>2011-02-16T15:16:07Z</time>
      </trkpt>
      <trkpt lat="43.55545" lon="3.18773">
        <ele>261.39999389648</ele>
        <time>2011-02-16T15:16:08Z</time>
      </trkpt>
      <trkpt lat="43.55548" lon="3.18771">
        <ele>261.79998779297</ele>
        <time>2011-02-16T15:16:09Z</time>
      </trkpt>
      <trkpt lat="43.55565" lon="3.18759">
        <ele>261.79998779297</ele>
        <time>2011-02-16T15:16:15Z</time>
      </trkpt>
      <trkpt lat="43.55573" lon="3.18753">
        <ele>262.20001220703</ele>
        <time>2011-02-16T15:16:18Z</time>
      </trkpt>
      <trkpt lat="43.55576" lon="3.1875">
        <ele>262.60000610352</ele>
        <time>2011-02-16T15:16:19Z</time>
      </trkpt>
      <trkpt lat="43.55579" lon="3.18747">
        <ele>263</ele>
        <time>2011-02-16T15:16:20Z</time>
      </trkpt>
      <trkpt lat="43.55581" lon="3.18745">
        <ele>263.39999389648</ele>
        <time>2011-02-16T15:16:21Z</time>
      </trkpt>
      <trkpt lat="43.55584" lon="3.18742">
        <ele>263.79998779297</ele>
        <time>2011-02-16T15:16:22Z</time>
      </trkpt>
      <trkpt lat="43.55587" lon="3.18739">
        <ele>263.79998779297</ele>
        <time>2011-02-16T15:16:23Z</time>
      </trkpt>
      <trkpt lat="43.55609" lon="3.18715">
        <ele>263.79998779297</ele>
        <time>2011-02-16T15:16:31Z</time>
      </trkpt>
      <trkpt lat="43.55612" lon="3.18711">
        <ele>264.39999389648</ele>
        <time>2011-02-16T15:16:32Z</time>
      </trkpt>
      <trkpt lat="43.55614" lon="3.18708">
        <ele>264.79998779297</ele>
        <time>2011-02-16T15:16:33Z</time>
      </trkpt>
      <trkpt lat="43.55616" lon="3.18705">
        <ele>265.20001220703</ele>
        <time>2011-02-16T15:16:34Z</time>
      </trkpt>
      <trkpt lat="43.55618" lon="3.18701">
        <ele>265.79998779297</ele>
        <time>2011-02-16T15:16:35Z</time>
      </trkpt>
      <trkpt lat="43.55621" lon="3.18698">
        <ele>266.20001220703</ele>
        <time>2011-02-16T15:16:36Z</time>
      </trkpt>
      <trkpt lat="43.55625" lon="3.18691">
        <ele>266.20001220703</ele>
        <time>2011-02-16T15:16:38Z</time>
      </trkpt>
      <trkpt lat="43.55637" lon="3.18678">
        <ele>266.20001220703</ele>
        <time>2011-02-16T15:16:43Z</time>
      </trkpt>
      <trkpt lat="43.55649" lon="3.18661">
        <ele>266.20001220703</ele>
        <time>2011-02-16T15:16:49Z</time>
      </trkpt>
      <trkpt lat="43.55655" lon="3.18645">
        <ele>266.20001220703</ele>
        <time>2011-02-16T15:16:54Z</time>
      </trkpt>
      <trkpt lat="43.55665" lon="3.18613">
        <ele>266.60000610352</ele>
        <time>2011-02-16T15:17:02Z</time>
      </trkpt>
      <trkpt lat="43.55666" lon="3.18608">
        <ele>267.20001220703</ele>
        <time>2011-02-16T15:17:03Z</time>
      </trkpt>
      <trkpt lat="43.55666" lon="3.18604">
        <ele>267.60000610352</ele>
        <time>2011-02-16T15:17:04Z</time>
      </trkpt>
      <trkpt lat="43.55666" lon="3.18599">
        <ele>268.39999389648</ele>
        <time>2011-02-16T15:17:05Z</time>
      </trkpt>
      <trkpt lat="43.55668" lon="3.18585">
        <ele>269</ele>
        <time>2011-02-16T15:17:08Z</time>
      </trkpt>
      <trkpt lat="43.55669" lon="3.1858">
        <ele>269.39999389648</ele>
        <time>2011-02-16T15:17:09Z</time>
      </trkpt>
      <trkpt lat="43.55671" lon="3.18576">
        <ele>269.79998779297</ele>
        <time>2011-02-16T15:17:10Z</time>
      </trkpt>
      <trkpt lat="43.55673" lon="3.18572">
        <ele>270.20001220703</ele>
        <time>2011-02-16T15:17:11Z</time>
      </trkpt>
      <trkpt lat="43.55675" lon="3.18568">
        <ele>270.60000610352</ele>
        <time>2011-02-16T15:17:12Z</time>
      </trkpt>
      <trkpt lat="43.55679" lon="3.18562">
        <ele>270.60000610352</ele>
        <time>2011-02-16T15:17:14Z</time>
      </trkpt>
      <trkpt lat="43.55691" lon="3.18542">
        <ele>271</ele>
        <time>2011-02-16T15:17:20Z</time>
      </trkpt>
      <trkpt lat="43.55693" lon="3.18539">
        <ele>271.39999389648</ele>
        <time>2011-02-16T15:17:21Z</time>
      </trkpt>
      <trkpt lat="43.55695" lon="3.18535">
        <ele>271.79998779297</ele>
        <time>2011-02-16T15:17:22Z</time>
      </trkpt>
      <trkpt lat="43.55697" lon="3.18532">
        <ele>272.20001220703</ele>
        <time>2011-02-16T15:17:23Z</time>
      </trkpt>
      <trkpt lat="43.55699" lon="3.18529">
        <ele>272.60000610352</ele>
        <time>2011-02-16T15:17:24Z</time>
      </trkpt>
      <trkpt lat="43.55707" lon="3.18516">
        <ele>272.60000610352</ele>
        <time>2011-02-16T15:17:28Z</time>
      </trkpt>
      <trkpt lat="43.55724" lon="3.18489">
        <ele>272.60000610352</ele>
        <time>2011-02-16T15:17:36Z</time>
      </trkpt>
      <trkpt lat="43.55741" lon="3.18457">
        <ele>272.60000610352</ele>
        <time>2011-02-16T15:17:46Z</time>
      </trkpt>
      <trkpt lat="43.55742" lon="3.1845">
        <ele>273</ele>
        <time>2011-02-16T15:17:48Z</time>
      </trkpt>
      <trkpt lat="43.55742" lon="3.18447">
        <ele>273.39999389648</ele>
        <time>2011-02-16T15:17:49Z</time>
      </trkpt>
      <trkpt lat="43.5574" lon="3.18445">
        <ele>273.79998779297</ele>
        <time>2011-02-16T15:17:50Z</time>
      </trkpt>
      <trkpt lat="43.55737" lon="3.18444">
        <ele>274.20001220703</ele>
        <time>2011-02-16T15:17:51Z</time>
      </trkpt>
      <trkpt lat="43.55735" lon="3.18443">
        <ele>274.79998779297</ele>
        <time>2011-02-16T15:17:52Z</time>
      </trkpt>
      <trkpt lat="43.55732" lon="3.18444">
        <ele>274.79998779297</ele>
        <time>2011-02-16T15:17:53Z</time>
      </trkpt>
      <trkpt lat="43.55725" lon="3.18444">
        <ele>274.79998779297</ele>
        <time>2011-02-16T15:17:55Z</time>
      </trkpt>
      <trkpt lat="43.55711" lon="3.18446">
        <ele>274.79998779297</ele>
        <time>2011-02-16T15:17:59Z</time>
      </trkpt>
      <trkpt lat="43.55699" lon="3.18445">
        <ele>274.39999389648</ele>
        <time>2011-02-16T15:18:02Z</time>
      </trkpt>
      <trkpt lat="43.55695" lon="3.18445">
        <ele>273.79998779297</ele>
        <time>2011-02-16T15:18:03Z</time>
      </trkpt>
      <trkpt lat="43.55691" lon="3.18445">
        <ele>273.39999389648</ele>
        <time>2011-02-16T15:18:04Z</time>
      </trkpt>
      <trkpt lat="43.55686" lon="3.18445">
        <ele>273</ele>
        <time>2011-02-16T15:18:05Z</time>
      </trkpt>
      <trkpt lat="43.55682" lon="3.18445">
        <ele>272.60000610352</ele>
        <time>2011-02-16T15:18:06Z</time>
      </trkpt>
      <trkpt lat="43.55663" lon="3.18446">
        <ele>272.60000610352</ele>
        <time>2011-02-16T15:18:10Z</time>
      </trkpt>
      <trkpt lat="43.55648" lon="3.18448">
        <ele>272.20001220703</ele>
        <time>2011-02-16T15:18:13Z</time>
      </trkpt>
      <trkpt lat="43.55643" lon="3.18448">
        <ele>271.79998779297</ele>
        <time>2011-02-16T15:18:14Z</time>
      </trkpt>
      <trkpt lat="43.55637" lon="3.18449">
        <ele>271.39999389648</ele>
        <time>2011-02-16T15:18:15Z</time>
      </trkpt>
      <trkpt lat="43.55632" lon="3.18449">
        <ele>271</ele>
        <time>2011-02-16T15:18:16Z</time>
      </trkpt>
      <trkpt lat="43.55626" lon="3.1845">
        <ele>270.60000610352</ele>
        <time>2011-02-16T15:18:17Z</time>
      </trkpt>
      <trkpt lat="43.55603" lon="3.18452">
        <ele>270.60000610352</ele>
        <time>2011-02-16T15:18:21Z</time>
      </trkpt>
      <trkpt lat="43.55592" lon="3.18454">
        <ele>270.20001220703</ele>
        <time>2011-02-16T15:18:23Z</time>
      </trkpt>
      <trkpt lat="43.55586" lon="3.18457">
        <ele>269.79998779297</ele>
        <time>2011-02-16T15:18:24Z</time>
      </trkpt>
      <trkpt lat="43.5558" lon="3.1846">
        <ele>269.39999389648</ele>
        <time>2011-02-16T15:18:25Z</time>
      </trkpt>
      <trkpt lat="43.55574" lon="3.18462">
        <ele>269</ele>
        <time>2011-02-16T15:18:26Z</time>
      </trkpt>
      <trkpt lat="43.55568" lon="3.18465">
        <ele>268.39999389648</ele>
        <time>2011-02-16T15:18:27Z</time>
      </trkpt>
      <trkpt lat="43.55536" lon="3.1848">
        <ele>268.39999389648</ele>
        <time>2011-02-16T15:18:32Z</time>
      </trkpt>
      <trkpt lat="43.55523" lon="3.18484">
        <ele>268.39999389648</ele>
        <time>2011-02-16T15:18:34Z</time>
      </trkpt>
      <trkpt lat="43.55509" lon="3.18492">
        <ele>268.39999389648</ele>
        <time>2011-02-16T15:18:36Z</time>
      </trkpt>
      <trkpt lat="43.5549" lon="3.18507">
        <ele>268.39999389648</ele>
        <time>2011-02-16T15:18:39Z</time>
      </trkpt>
      <trkpt lat="43.55462" lon="3.18533">
        <ele>267.60000610352</ele>
        <time>2011-02-16T15:18:44Z</time>
      </trkpt>
      <trkpt lat="43.55457" lon="3.18537">
        <ele>267.20001220703</ele>
        <time>2011-02-16T15:18:45Z</time>
      </trkpt>
      <trkpt lat="43.5545" lon="3.18541">
        <ele>266.79998779297</ele>
        <time>2011-02-16T15:18:46Z</time>
      </trkpt>
      <trkpt lat="43.55444" lon="3.18545">
        <ele>266.39999389648</ele>
        <time>2011-02-16T15:18:47Z</time>
      </trkpt>
      <trkpt lat="43.55427" lon="3.18553">
        <ele>266.39999389648</ele>
        <time>2011-02-16T15:18:50Z</time>
      </trkpt>
      <trkpt lat="43.55389" lon="3.18568">
        <ele>266.39999389648</ele>
        <time>2011-02-16T15:18:57Z</time>
      </trkpt>
      <trkpt lat="43.55352" lon="3.18579">
        <ele>266.39999389648</ele>
        <time>2011-02-16T15:19:05Z</time>
      </trkpt>
      <trkpt lat="43.55311" lon="3.18588">
        <ele>266.39999389648</ele>
        <time>2011-02-16T15:19:14Z</time>
      </trkpt>
      <trkpt lat="43.55276" lon="3.18597">
        <ele>266.39999389648</ele>
        <time>2011-02-16T15:19:21Z</time>
      </trkpt>
      <trkpt lat="43.5526" lon="3.186">
        <ele>266</ele>
        <time>2011-02-16T15:19:24Z</time>
      </trkpt>
      <trkpt lat="43.55254" lon="3.186">
        <ele>265.60000610352</ele>
        <time>2011-02-16T15:19:25Z</time>
      </trkpt>
      <trkpt lat="43.55248" lon="3.18601">
        <ele>265.20001220703</ele>
        <time>2011-02-16T15:19:26Z</time>
      </trkpt>
      <trkpt lat="43.55243" lon="3.18603">
        <ele>264.79998779297</ele>
        <time>2011-02-16T15:19:27Z</time>
      </trkpt>
      <trkpt lat="43.55236" lon="3.18604">
        <ele>264.39999389648</ele>
        <time>2011-02-16T15:19:28Z</time>
      </trkpt>
      <trkpt lat="43.55202" lon="3.18612">
        <ele>264</ele>
        <time>2011-02-16T15:19:34Z</time>
      </trkpt>
      <trkpt lat="43.55197" lon="3.18613">
        <ele>263.60000610352</ele>
        <time>2011-02-16T15:19:35Z</time>
      </trkpt>
      <trkpt lat="43.55191" lon="3.18615">
        <ele>263.20001220703</ele>
        <time>2011-02-16T15:19:36Z</time>
      </trkpt>
      <trkpt lat="43.55186" lon="3.18616">
        <ele>262.79998779297</ele>
        <time>2011-02-16T15:19:37Z</time>
      </trkpt>
      <trkpt lat="43.5518" lon="3.18618">
        <ele>262.39999389648</ele>
        <time>2011-02-16T15:19:38Z</time>
      </trkpt>
      <trkpt lat="43.55152" lon="3.18626">
        <ele>262.39999389648</ele>
        <time>2011-02-16T15:19:43Z</time>
      </trkpt>
      <trkpt lat="43.55146" lon="3.18627">
        <ele>262.39999389648</ele>
        <time>2011-02-16T15:19:44Z</time>
      </trkpt>
      <trkpt lat="43.55108" lon="3.18634">
        <ele>262.39999389648</ele>
        <time>2011-02-16T15:19:51Z</time>
      </trkpt>
      <trkpt lat="43.5508" lon="3.18633">
        <ele>262</ele>
        <time>2011-02-16T15:19:56Z</time>
      </trkpt>
      <trkpt lat="43.55073" lon="3.18632">
        <ele>261.60000610352</ele>
        <time>2011-02-16T15:19:57Z</time>
      </trkpt>
      <trkpt lat="43.55067" lon="3.18632">
        <ele>260.79998779297</ele>
        <time>2011-02-16T15:19:58Z</time>
      </trkpt>
      <trkpt lat="43.5506" lon="3.18632">
        <ele>260.39999389648</ele>
        <time>2011-02-16T15:19:59Z</time>
      </trkpt>
      <trkpt lat="43.55053" lon="3.18631">
        <ele>259.79998779297</ele>
        <time>2011-02-16T15:20:00Z</time>
      </trkpt>
      <trkpt lat="43.55047" lon="3.1863">
        <ele>259.39999389648</ele>
        <time>2011-02-16T15:20:01Z</time>
      </trkpt>
      <trkpt lat="43.5504" lon="3.1863">
        <ele>259</ele>
        <time>2011-02-16T15:20:02Z</time>
      </trkpt>
      <trkpt lat="43.55033" lon="3.1863">
        <ele>258.60000610352</ele>
        <time>2011-02-16T15:20:03Z</time>
      </trkpt>
      <trkpt lat="43.55026" lon="3.18631">
        <ele>258.20001220703</ele>
        <time>2011-02-16T15:20:04Z</time>
      </trkpt>
      <trkpt lat="43.5502" lon="3.18632">
        <ele>257.79998779297</ele>
        <time>2011-02-16T15:20:05Z</time>
      </trkpt>
      <trkpt lat="43.55013" lon="3.18635">
        <ele>257.39999389648</ele>
        <time>2011-02-16T15:20:06Z</time>
      </trkpt>
      <trkpt lat="43.55007" lon="3.18637">
        <ele>257</ele>
        <time>2011-02-16T15:20:07Z</time>
      </trkpt>
      <trkpt lat="43.55001" lon="3.1864">
        <ele>256.60000610352</ele>
        <time>2011-02-16T15:20:08Z</time>
      </trkpt>
      <trkpt lat="43.54996" lon="3.18643">
        <ele>256.20001220703</ele>
        <time>2011-02-16T15:20:09Z</time>
      </trkpt>
      <trkpt lat="43.54991" lon="3.18646">
        <ele>256.20001220703</ele>
        <time>2011-02-16T15:20:10Z</time>
      </trkpt>
      <trkpt lat="43.54962" lon="3.1866">
        <ele>256.20001220703</ele>
        <time>2011-02-16T15:20:16Z</time>
      </trkpt>
      <trkpt lat="43.54956" lon="3.18661">
        <ele>256.20001220703</ele>
        <time>2011-02-16T15:20:17Z</time>
      </trkpt>
      <trkpt lat="43.54935" lon="3.18667">
        <ele>256.20001220703</ele>
        <time>2011-02-16T15:20:21Z</time>
      </trkpt>
      <trkpt lat="43.54916" lon="3.18669">
        <ele>256.20001220703</ele>
        <time>2011-02-16T15:20:25Z</time>
      </trkpt>
      <trkpt lat="43.54903" lon="3.18667">
        <ele>256.20001220703</ele>
        <time>2011-02-16T15:20:28Z</time>
      </trkpt>
      <trkpt lat="43.54886" lon="3.18662">
        <ele>256.20001220703</ele>
        <time>2011-02-16T15:20:32Z</time>
      </trkpt>
      <trkpt lat="43.54876" lon="3.1866">
        <ele>256.20001220703</ele>
        <time>2011-02-16T15:20:34Z</time>
      </trkpt>
      <trkpt lat="43.5486" lon="3.18657">
        <ele>256.20001220703</ele>
        <time>2011-02-16T15:20:38Z</time>
      </trkpt>
      <trkpt lat="43.54853" lon="3.18656">
        <ele>256.20001220703</ele>
        <time>2011-02-16T15:20:40Z</time>
      </trkpt>
      <trkpt lat="43.54849" lon="3.18657">
        <ele>255.80000305176</ele>
        <time>2011-02-16T15:20:42Z</time>
      </trkpt>
      <trkpt lat="43.54848" lon="3.18657">
        <ele>255.39999389648</ele>
        <time>2011-02-16T15:20:43Z</time>
      </trkpt>
      <trkpt lat="43.54847" lon="3.18658">
        <ele>254.80000305176</ele>
        <time>2011-02-16T15:20:44Z</time>
      </trkpt>
      <trkpt lat="43.54846" lon="3.18659">
        <ele>254.39999389648</ele>
        <time>2011-02-16T15:20:45Z</time>
      </trkpt>
      <trkpt lat="43.54846" lon="3.1866">
        <ele>254</ele>
        <time>2011-02-16T15:20:46Z</time>
      </trkpt>
      <trkpt lat="43.54846" lon="3.18659">
        <ele>254</ele>
        <time>2011-02-16T15:20:48Z</time>
      </trkpt>
      <trkpt lat="43.54845" lon="3.18666">
        <ele>251.80000305176</ele>
        <time>2011-02-16T15:22:27Z</time>
      </trkpt>
      <trkpt lat="43.54844" lon="3.18671">
        <ele>251.80000305176</ele>
        <time>2011-02-16T15:22:28Z</time>
      </trkpt>
      <trkpt lat="43.54838" lon="3.18689">
        <ele>251.80000305176</ele>
        <time>2011-02-16T15:22:31Z</time>
      </trkpt>
      <trkpt lat="43.54834" lon="3.18694">
        <ele>251.80000305176</ele>
        <time>2011-02-16T15:22:32Z</time>
      </trkpt>
      <trkpt lat="43.54821" lon="3.18703">
        <ele>251.80000305176</ele>
        <time>2011-02-16T15:22:35Z</time>
      </trkpt>
      <trkpt lat="43.54818" lon="3.18704">
        <ele>251.39999389648</ele>
        <time>2011-02-16T15:22:36Z</time>
      </trkpt>
      <trkpt lat="43.54814" lon="3.18704">
        <ele>251</ele>
        <time>2011-02-16T15:22:37Z</time>
      </trkpt>
      <trkpt lat="43.54811" lon="3.18704">
        <ele>250.60000610352</ele>
        <time>2011-02-16T15:22:38Z</time>
      </trkpt>
      <trkpt lat="43.54808" lon="3.18703">
        <ele>250.19999694824</ele>
        <time>2011-02-16T15:22:39Z</time>
      </trkpt>
      <trkpt lat="43.54805" lon="3.18701">
        <ele>249.80000305176</ele>
        <time>2011-02-16T15:22:40Z</time>
      </trkpt>
      <trkpt lat="43.54796" lon="3.18697">
        <ele>249.80000305176</ele>
        <time>2011-02-16T15:22:42Z</time>
      </trkpt>
      <trkpt lat="43.54792" lon="3.18695">
        <ele>249.80000305176</ele>
        <time>2011-02-16T15:22:43Z</time>
      </trkpt>
      <trkpt lat="43.54786" lon="3.18693">
        <ele>249.39999389648</ele>
        <time>2011-02-16T15:22:44Z</time>
      </trkpt>
      <trkpt lat="43.54781" lon="3.18692">
        <ele>249</ele>
        <time>2011-02-16T15:22:45Z</time>
      </trkpt>
      <trkpt lat="43.54774" lon="3.18691">
        <ele>248.60000610352</ele>
        <time>2011-02-16T15:22:46Z</time>
      </trkpt>
      <trkpt lat="43.54768" lon="3.18688">
        <ele>248.19999694824</ele>
        <time>2011-02-16T15:22:47Z</time>
      </trkpt>
      <trkpt lat="43.54762" lon="3.18685">
        <ele>247.80000305176</ele>
        <time>2011-02-16T15:22:48Z</time>
      </trkpt>
      <trkpt lat="43.54756" lon="3.18681">
        <ele>247.39999389648</ele>
        <time>2011-02-16T15:22:49Z</time>
      </trkpt>
      <trkpt lat="43.54749" lon="3.18678">
        <ele>246.80000305176</ele>
        <time>2011-02-16T15:22:50Z</time>
      </trkpt>
      <trkpt lat="43.54742" lon="3.18676">
        <ele>246.39999389648</ele>
        <time>2011-02-16T15:22:51Z</time>
      </trkpt>
      <trkpt lat="43.54735" lon="3.18675">
        <ele>245.39999389648</ele>
        <time>2011-02-16T15:22:52Z</time>
      </trkpt>
      <trkpt lat="43.54728" lon="3.18673">
        <ele>244.80000305176</ele>
        <time>2011-02-16T15:22:53Z</time>
      </trkpt>
      <trkpt lat="43.54721" lon="3.18671">
        <ele>244.39999389648</ele>
        <time>2011-02-16T15:22:54Z</time>
      </trkpt>
      <trkpt lat="43.54715" lon="3.18669">
        <ele>243.60000610352</ele>
        <time>2011-02-16T15:22:55Z</time>
      </trkpt>
      <trkpt lat="43.54708" lon="3.18668">
        <ele>243</ele>
        <time>2011-02-16T15:22:56Z</time>
      </trkpt>
      <trkpt lat="43.54701" lon="3.18666">
        <ele>242.39999389648</ele>
        <time>2011-02-16T15:22:57Z</time>
      </trkpt>
      <trkpt lat="43.54695" lon="3.18665">
        <ele>241.60000610352</ele>
        <time>2011-02-16T15:22:58Z</time>
      </trkpt>
      <trkpt lat="43.54689" lon="3.18664">
        <ele>241</ele>
        <time>2011-02-16T15:22:59Z</time>
      </trkpt>
      <trkpt lat="43.54682" lon="3.18663">
        <ele>240.39999389648</ele>
        <time>2011-02-16T15:23:00Z</time>
      </trkpt>
      <trkpt lat="43.54675" lon="3.18662">
        <ele>239.60000610352</ele>
        <time>2011-02-16T15:23:01Z</time>
      </trkpt>
      <trkpt lat="43.54668" lon="3.18661">
        <ele>239</ele>
        <time>2011-02-16T15:23:02Z</time>
      </trkpt>
      <trkpt lat="43.54661" lon="3.18661">
        <ele>238.39999389648</ele>
        <time>2011-02-16T15:23:03Z</time>
      </trkpt>
      <trkpt lat="43.54653" lon="3.1866">
        <ele>237.60000610352</ele>
        <time>2011-02-16T15:23:04Z</time>
      </trkpt>
      <trkpt lat="43.54646" lon="3.1866">
        <ele>236.80000305176</ele>
        <time>2011-02-16T15:23:05Z</time>
      </trkpt>
      <trkpt lat="43.54639" lon="3.18662">
        <ele>236.19999694824</ele>
        <time>2011-02-16T15:23:06Z</time>
      </trkpt>
      <trkpt lat="43.54633" lon="3.18664">
        <ele>235.19999694824</ele>
        <time>2011-02-16T15:23:07Z</time>
      </trkpt>
      <trkpt lat="43.54628" lon="3.18667">
        <ele>234.19999694824</ele>
        <time>2011-02-16T15:23:08Z</time>
      </trkpt>
      <trkpt lat="43.54624" lon="3.18671">
        <ele>233.39999389648</ele>
        <time>2011-02-16T15:23:09Z</time>
      </trkpt>
      <trkpt lat="43.5462" lon="3.18676">
        <ele>232.39999389648</ele>
        <time>2011-02-16T15:23:10Z</time>
      </trkpt>
      <trkpt lat="43.54616" lon="3.1868">
        <ele>231.60000610352</ele>
        <time>2011-02-16T15:23:11Z</time>
      </trkpt>
      <trkpt lat="43.5461" lon="3.18683">
        <ele>230.80000305176</ele>
        <time>2011-02-16T15:23:12Z</time>
      </trkpt>
      <trkpt lat="43.54603" lon="3.18685">
        <ele>230</ele>
        <time>2011-02-16T15:23:13Z</time>
      </trkpt>
      <trkpt lat="43.54597" lon="3.18687">
        <ele>229.19999694824</ele>
        <time>2011-02-16T15:23:14Z</time>
      </trkpt>
      <trkpt lat="43.5459" lon="3.18691">
        <ele>228.39999389648</ele>
        <time>2011-02-16T15:23:15Z</time>
      </trkpt>
      <trkpt lat="43.54583" lon="3.18694">
        <ele>227.39999389648</ele>
        <time>2011-02-16T15:23:16Z</time>
      </trkpt>
      <trkpt lat="43.54576" lon="3.18698">
        <ele>225.39999389648</ele>
        <time>2011-02-16T15:23:17Z</time>
      </trkpt>
      <trkpt lat="43.5457" lon="3.18701">
        <ele>224.39999389648</ele>
        <time>2011-02-16T15:23:18Z</time>
      </trkpt>
      <trkpt lat="43.54563" lon="3.18703">
        <ele>223.39999389648</ele>
        <time>2011-02-16T15:23:19Z</time>
      </trkpt>
      <trkpt lat="43.54557" lon="3.18703">
        <ele>222.39999389648</ele>
        <time>2011-02-16T15:23:20Z</time>
      </trkpt>
      <trkpt lat="43.54551" lon="3.18703">
        <ele>222.39999389648</ele>
        <time>2011-02-16T15:23:21Z</time>
      </trkpt>
      <trkpt lat="43.54528" lon="3.18705">
        <ele>222.39999389648</ele>
        <time>2011-02-16T15:23:25Z</time>
      </trkpt>
      <trkpt lat="43.54516" lon="3.1871">
        <ele>222.39999389648</ele>
        <time>2011-02-16T15:23:27Z</time>
      </trkpt>
      <trkpt lat="43.54491" lon="3.1872">
        <ele>222.39999389648</ele>
        <time>2011-02-16T15:23:31Z</time>
      </trkpt>
      <trkpt lat="43.54485" lon="3.18723">
        <ele>222.39999389648</ele>
        <time>2011-02-16T15:23:32Z</time>
      </trkpt>
      <trkpt lat="43.54475" lon="3.18729">
        <ele>222.39999389648</ele>
        <time>2011-02-16T15:23:34Z</time>
      </trkpt>
      <trkpt lat="43.54461" lon="3.1874">
        <ele>222.39999389648</ele>
        <time>2011-02-16T15:23:37Z</time>
      </trkpt>
      <trkpt lat="43.54431" lon="3.18761">
        <ele>222</ele>
        <time>2011-02-16T15:23:43Z</time>
      </trkpt>
      <trkpt lat="43.54426" lon="3.18767">
        <ele>221.39999389648</ele>
        <time>2011-02-16T15:23:44Z</time>
      </trkpt>
      <trkpt lat="43.54422" lon="3.18773">
        <ele>221</ele>
        <time>2011-02-16T15:23:45Z</time>
      </trkpt>
      <trkpt lat="43.54418" lon="3.1878">
        <ele>220.19999694824</ele>
        <time>2011-02-16T15:23:46Z</time>
      </trkpt>
      <trkpt lat="43.54412" lon="3.18786">
        <ele>219.39999389648</ele>
        <time>2011-02-16T15:23:47Z</time>
      </trkpt>
      <trkpt lat="43.54408" lon="3.18793">
        <ele>218.80000305176</ele>
        <time>2011-02-16T15:23:48Z</time>
      </trkpt>
      <trkpt lat="43.54403" lon="3.188">
        <ele>218</ele>
        <time>2011-02-16T15:23:49Z</time>
      </trkpt>
      <trkpt lat="43.54397" lon="3.18807">
        <ele>217.19999694824</ele>
        <time>2011-02-16T15:23:50Z</time>
      </trkpt>
      <trkpt lat="43.54392" lon="3.18813">
        <ele>216.39999389648</ele>
        <time>2011-02-16T15:23:51Z</time>
      </trkpt>
      <trkpt lat="43.54386" lon="3.18818">
        <ele>215.60000610352</ele>
        <time>2011-02-16T15:23:52Z</time>
      </trkpt>
      <trkpt lat="43.5438" lon="3.18823">
        <ele>215</ele>
        <time>2011-02-16T15:23:53Z</time>
      </trkpt>
      <trkpt lat="43.54375" lon="3.18828">
        <ele>215</ele>
        <time>2011-02-16T15:23:54Z</time>
      </trkpt>
      <trkpt lat="43.54366" lon="3.18837">
        <ele>215</ele>
        <time>2011-02-16T15:23:56Z</time>
      </trkpt>
      <trkpt lat="43.54361" lon="3.18841">
        <ele>215</ele>
        <time>2011-02-16T15:23:57Z</time>
      </trkpt>
      <trkpt lat="43.54349" lon="3.18845">
        <ele>214.19999694824</ele>
        <time>2011-02-16T15:23:59Z</time>
      </trkpt>
      <trkpt lat="43.54344" lon="3.18845">
        <ele>213.60000610352</ele>
        <time>2011-02-16T15:24:00Z</time>
      </trkpt>
      <trkpt lat="43.54338" lon="3.18847">
        <ele>213</ele>
        <time>2011-02-16T15:24:01Z</time>
      </trkpt>
      <trkpt lat="43.54332" lon="3.18851">
        <ele>212.39999389648</ele>
        <time>2011-02-16T15:24:02Z</time>
      </trkpt>
      <trkpt lat="43.54327" lon="3.18855">
        <ele>211.80000305176</ele>
        <time>2011-02-16T15:24:03Z</time>
      </trkpt>
      <trkpt lat="43.54321" lon="3.18861">
        <ele>211.39999389648</ele>
        <time>2011-02-16T15:24:04Z</time>
      </trkpt>
      <trkpt lat="43.54315" lon="3.18866">
        <ele>210.80000305176</ele>
        <time>2011-02-16T15:24:05Z</time>
      </trkpt>
      <trkpt lat="43.54309" lon="3.18871">
        <ele>209.19999694824</ele>
        <time>2011-02-16T15:24:06Z</time>
      </trkpt>
      <trkpt lat="43.54303" lon="3.18875">
        <ele>208.60000610352</ele>
        <time>2011-02-16T15:24:07Z</time>
      </trkpt>
      <trkpt lat="43.54298" lon="3.1888">
        <ele>207.80000305176</ele>
        <time>2011-02-16T15:24:08Z</time>
      </trkpt>
      <trkpt lat="43.54294" lon="3.18886">
        <ele>207.19999694824</ele>
        <time>2011-02-16T15:24:09Z</time>
      </trkpt>
      <trkpt lat="43.5429" lon="3.18892">
        <ele>207.19999694824</ele>
        <time>2011-02-16T15:24:10Z</time>
      </trkpt>
      <trkpt lat="43.54286" lon="3.18898">
        <ele>207.19999694824</ele>
        <time>2011-02-16T15:24:11Z</time>
      </trkpt>
      <trkpt lat="43.54281" lon="3.18903">
        <ele>206.60000610352</ele>
        <time>2011-02-16T15:24:12Z</time>
      </trkpt>
      <trkpt lat="43.54277" lon="3.18908">
        <ele>206.19999694824</ele>
        <time>2011-02-16T15:24:13Z</time>
      </trkpt>
      <trkpt lat="43.54274" lon="3.18913">
        <ele>205.80000305176</ele>
        <time>2011-02-16T15:24:14Z</time>
      </trkpt>
      <trkpt lat="43.5427" lon="3.18917">
        <ele>205.19999694824</ele>
        <time>2011-02-16T15:24:15Z</time>
      </trkpt>
      <trkpt lat="43.54265" lon="3.1892">
        <ele>204.80000305176</ele>
        <time>2011-02-16T15:24:16Z</time>
      </trkpt>
      <trkpt lat="43.54258" lon="3.18921">
        <ele>204.39999389648</ele>
        <time>2011-02-16T15:24:17Z</time>
      </trkpt>
      <trkpt lat="43.54253" lon="3.18922">
        <ele>203.80000305176</ele>
        <time>2011-02-16T15:24:18Z</time>
      </trkpt>
      <trkpt lat="43.54247" lon="3.18922">
        <ele>203.39999389648</ele>
        <time>2011-02-16T15:24:19Z</time>
      </trkpt>
      <trkpt lat="43.5424" lon="3.18923">
        <ele>202.80000305176</ele>
        <time>2011-02-16T15:24:20Z</time>
      </trkpt>
      <trkpt lat="43.54234" lon="3.18923">
        <ele>202.19999694824</ele>
        <time>2011-02-16T15:24:21Z</time>
      </trkpt>
      <trkpt lat="43.54228" lon="3.18924">
        <ele>201.60000610352</ele>
        <time>2011-02-16T15:24:22Z</time>
      </trkpt>
      <trkpt lat="43.54222" lon="3.18924">
        <ele>201</ele>
        <time>2011-02-16T15:24:23Z</time>
      </trkpt>
      <trkpt lat="43.54216" lon="3.18924">
        <ele>200.39999389648</ele>
        <time>2011-02-16T15:24:24Z</time>
      </trkpt>
      <trkpt lat="43.5421" lon="3.18924">
        <ele>199.80000305176</ele>
        <time>2011-02-16T15:24:25Z</time>
      </trkpt>
      <trkpt lat="43.5419" lon="3.1893">
        <ele>199.80000305176</ele>
        <time>2011-02-16T15:24:29Z</time>
      </trkpt>
      <trkpt lat="43.5418" lon="3.18936">
        <ele>199.80000305176</ele>
        <time>2011-02-16T15:24:33Z</time>
      </trkpt>
      <trkpt lat="43.54176" lon="3.18938">
        <ele>199.80000305176</ele>
        <time>2011-02-16T15:24:35Z</time>
      </trkpt>
      <trkpt lat="43.54169" lon="3.18943">
        <ele>199.80000305176</ele>
        <time>2011-02-16T15:24:38Z</time>
      </trkpt>
      <trkpt lat="43.54156" lon="3.18952">
        <ele>199.80000305176</ele>
        <time>2011-02-16T15:24:43Z</time>
      </trkpt>
      <trkpt lat="43.54142" lon="3.18971">
        <ele>199.80000305176</ele>
        <time>2011-02-16T15:24:48Z</time>
      </trkpt>
      <trkpt lat="43.54133" lon="3.18981">
        <ele>199.19999694824</ele>
        <time>2011-02-16T15:24:50Z</time>
      </trkpt>
      <trkpt lat="43.54128" lon="3.18985">
        <ele>198.80000305176</ele>
        <time>2011-02-16T15:24:51Z</time>
      </trkpt>
      <trkpt lat="43.54122" lon="3.18988">
        <ele>198.39999389648</ele>
        <time>2011-02-16T15:24:52Z</time>
      </trkpt>
      <trkpt lat="43.54116" lon="3.18989">
        <ele>198</ele>
        <time>2011-02-16T15:24:53Z</time>
      </trkpt>
      <trkpt lat="43.5411" lon="3.18991">
        <ele>197.60000610352</ele>
        <time>2011-02-16T15:24:54Z</time>
      </trkpt>
      <trkpt lat="43.54104" lon="3.18994">
        <ele>197.19999694824</ele>
        <time>2011-02-16T15:24:55Z</time>
      </trkpt>
      <trkpt lat="43.54099" lon="3.18998">
        <ele>196.80000305176</ele>
        <time>2011-02-16T15:24:56Z</time>
      </trkpt>
      <trkpt lat="43.54094" lon="3.19003">
        <ele>196.19999694824</ele>
        <time>2011-02-16T15:24:57Z</time>
      </trkpt>
      <trkpt lat="43.54088" lon="3.19008">
        <ele>195.80000305176</ele>
        <time>2011-02-16T15:24:58Z</time>
      </trkpt>
      <trkpt lat="43.54081" lon="3.19012">
        <ele>195.19999694824</ele>
        <time>2011-02-16T15:24:59Z</time>
      </trkpt>
      <trkpt lat="43.54073" lon="3.19014">
        <ele>194.39999389648</ele>
        <time>2011-02-16T15:25:00Z</time>
      </trkpt>
      <trkpt lat="43.54066" lon="3.19016">
        <ele>193.80000305176</ele>
        <time>2011-02-16T15:25:01Z</time>
      </trkpt>
      <trkpt lat="43.5406" lon="3.19017">
        <ele>193.19999694824</ele>
        <time>2011-02-16T15:25:02Z</time>
      </trkpt>
      <trkpt lat="43.54052" lon="3.19017">
        <ele>192.60000610352</ele>
        <time>2011-02-16T15:25:03Z</time>
      </trkpt>
      <trkpt lat="43.54046" lon="3.19017">
        <ele>192.60000610352</ele>
        <time>2011-02-16T15:25:04Z</time>
      </trkpt>
      <trkpt lat="43.5404" lon="3.19014">
        <ele>192.60000610352</ele>
        <time>2011-02-16T15:25:05Z</time>
      </trkpt>
      <trkpt lat="43.54033" lon="3.19012">
        <ele>192.19999694824</ele>
        <time>2011-02-16T15:25:06Z</time>
      </trkpt>
      <trkpt lat="43.54026" lon="3.1901">
        <ele>191.80000305176</ele>
        <time>2011-02-16T15:25:07Z</time>
      </trkpt>
      <trkpt lat="43.5402" lon="3.19009">
        <ele>191.19999694824</ele>
        <time>2011-02-16T15:25:08Z</time>
      </trkpt>
      <trkpt lat="43.54015" lon="3.1901">
        <ele>190.60000610352</ele>
        <time>2011-02-16T15:25:09Z</time>
      </trkpt>
      <trkpt lat="43.5401" lon="3.19014">
        <ele>190</ele>
        <time>2011-02-16T15:25:10Z</time>
      </trkpt>
      <trkpt lat="43.54005" lon="3.19018">
        <ele>189.39999389648</ele>
        <time>2011-02-16T15:25:11Z</time>
      </trkpt>
      <trkpt lat="43.54" lon="3.19021">
        <ele>188.60000610352</ele>
        <time>2011-02-16T15:25:12Z</time>
      </trkpt>
      <trkpt lat="43.53996" lon="3.19024">
        <ele>188</ele>
        <time>2011-02-16T15:25:13Z</time>
      </trkpt>
      <trkpt lat="43.53994" lon="3.19028">
        <ele>187.39999389648</ele>
        <time>2011-02-16T15:25:14Z</time>
      </trkpt>
      <trkpt lat="43.53991" lon="3.19033">
        <ele>186.80000305176</ele>
        <time>2011-02-16T15:25:15Z</time>
      </trkpt>
      <trkpt lat="43.53988" lon="3.19036">
        <ele>186.19999694824</ele>
        <time>2011-02-16T15:25:16Z</time>
      </trkpt>
      <trkpt lat="43.53984" lon="3.19037">
        <ele>185.60000610352</ele>
        <time>2011-02-16T15:25:17Z</time>
      </trkpt>
      <trkpt lat="43.53978" lon="3.19036">
        <ele>185.60000610352</ele>
        <time>2011-02-16T15:25:18Z</time>
      </trkpt>
      <trkpt lat="43.53973" lon="3.19037">
        <ele>185.19999694824</ele>
        <time>2011-02-16T15:25:19Z</time>
      </trkpt>
      <trkpt lat="43.53967" lon="3.19039">
        <ele>184.39999389648</ele>
        <time>2011-02-16T15:25:20Z</time>
      </trkpt>
      <trkpt lat="43.53961" lon="3.19042">
        <ele>184</ele>
        <time>2011-02-16T15:25:21Z</time>
      </trkpt>
      <trkpt lat="43.53955" lon="3.19046">
        <ele>183.60000610352</ele>
        <time>2011-02-16T15:25:22Z</time>
      </trkpt>
      <trkpt lat="43.5395" lon="3.19051">
        <ele>183.19999694824</ele>
        <time>2011-02-16T15:25:23Z</time>
      </trkpt>
      <trkpt lat="43.53946" lon="3.19056">
        <ele>182.60000610352</ele>
        <time>2011-02-16T15:25:24Z</time>
      </trkpt>
      <trkpt lat="43.53942" lon="3.19061">
        <ele>182.19999694824</ele>
        <time>2011-02-16T15:25:25Z</time>
      </trkpt>
      <trkpt lat="43.5394" lon="3.19067">
        <ele>181.60000610352</ele>
        <time>2011-02-16T15:25:26Z</time>
      </trkpt>
      <trkpt lat="43.53938" lon="3.19072">
        <ele>181.19999694824</ele>
        <time>2011-02-16T15:25:27Z</time>
      </trkpt>
      <trkpt lat="43.53936" lon="3.19076">
        <ele>181.19999694824</ele>
        <time>2011-02-16T15:25:28Z</time>
      </trkpt>
      <trkpt lat="43.53922" lon="3.19082">
        <ele>181.19999694824</ele>
        <time>2011-02-16T15:25:32Z</time>
      </trkpt>
      <trkpt lat="43.53917" lon="3.19083">
        <ele>180.80000305176</ele>
        <time>2011-02-16T15:25:33Z</time>
      </trkpt>
      <trkpt lat="43.53912" lon="3.19084">
        <ele>180.39999389648</ele>
        <time>2011-02-16T15:25:34Z</time>
      </trkpt>
      <trkpt lat="43.53907" lon="3.19085">
        <ele>180</ele>
        <time>2011-02-16T15:25:35Z</time>
      </trkpt>
      <trkpt lat="43.53903" lon="3.19085">
        <ele>179.60000610352</ele>
        <time>2011-02-16T15:25:36Z</time>
      </trkpt>
      <trkpt lat="43.53901" lon="3.19085">
        <ele>179</ele>
        <time>2011-02-16T15:25:37Z</time>
      </trkpt>
      <trkpt lat="43.53898" lon="3.19087">
        <ele>178.19999694824</ele>
        <time>2011-02-16T15:25:38Z</time>
      </trkpt>
      <trkpt lat="43.53896" lon="3.19089">
        <ele>177.60000610352</ele>
        <time>2011-02-16T15:25:39Z</time>
      </trkpt>
      <trkpt lat="43.53894" lon="3.19093">
        <ele>177</ele>
        <time>2011-02-16T15:25:40Z</time>
      </trkpt>
      <trkpt lat="43.53895" lon="3.19098">
        <ele>176.39999389648</ele>
        <time>2011-02-16T15:25:41Z</time>
      </trkpt>
      <trkpt lat="43.53895" lon="3.19102">
        <ele>176.39999389648</ele>
        <time>2011-02-16T15:25:42Z</time>
      </trkpt>
      <trkpt lat="43.53896" lon="3.19114">
        <ele>176.39999389648</ele>
        <time>2011-02-16T15:25:44Z</time>
      </trkpt>
      <trkpt lat="43.53897" lon="3.1912">
        <ele>176.39999389648</ele>
        <time>2011-02-16T15:25:45Z</time>
      </trkpt>
      <trkpt lat="43.53902" lon="3.19147">
        <ele>176.39999389648</ele>
        <time>2011-02-16T15:25:49Z</time>
      </trkpt>
      <trkpt lat="43.53904" lon="3.19153">
        <ele>176.39999389648</ele>
        <time>2011-02-16T15:25:50Z</time>
      </trkpt>
      <trkpt lat="43.53909" lon="3.19167">
        <ele>176</ele>
        <time>2011-02-16T15:25:53Z</time>
      </trkpt>
      <trkpt lat="43.53912" lon="3.19169">
        <ele>175.60000610352</ele>
        <time>2011-02-16T15:25:54Z</time>
      </trkpt>
      <trkpt lat="43.53917" lon="3.19171">
        <ele>175.19999694824</ele>
        <time>2011-02-16T15:25:55Z</time>
      </trkpt>
      <trkpt lat="43.53921" lon="3.19171">
        <ele>174.80000305176</ele>
        <time>2011-02-16T15:25:56Z</time>
      </trkpt>
      <trkpt lat="43.53925" lon="3.19171">
        <ele>174.19999694824</ele>
        <time>2011-02-16T15:25:57Z</time>
      </trkpt>
      <trkpt lat="43.53931" lon="3.19172">
        <ele>174.19999694824</ele>
        <time>2011-02-16T15:26:00Z</time>
      </trkpt>
      <trkpt lat="43.53935" lon="3.19173">
        <ele>173.80000305176</ele>
        <time>2011-02-16T15:26:02Z</time>
      </trkpt>
      <trkpt lat="43.53936" lon="3.19174">
        <ele>173.39999389648</ele>
        <time>2011-02-16T15:26:03Z</time>
      </trkpt>
      <trkpt lat="43.53937" lon="3.19176">
        <ele>173</ele>
        <time>2011-02-16T15:26:04Z</time>
      </trkpt>
      <trkpt lat="43.53938" lon="3.19177">
        <ele>172.60000610352</ele>
        <time>2011-02-16T15:26:05Z</time>
      </trkpt>
      <trkpt lat="43.53938" lon="3.19179">
        <ele>172.19999694824</ele>
        <time>2011-02-16T15:26:06Z</time>
      </trkpt>
      <trkpt lat="43.53935" lon="3.19185">
        <ele>172.19999694824</ele>
        <time>2011-02-16T15:26:09Z</time>
      </trkpt>
      <trkpt lat="43.53927" lon="3.19191">
        <ele>171.80000305176</ele>
        <time>2011-02-16T15:26:12Z</time>
      </trkpt>
      <trkpt lat="43.53925" lon="3.19193">
        <ele>171.39999389648</ele>
        <time>2011-02-16T15:26:13Z</time>
      </trkpt>
      <trkpt lat="43.53922" lon="3.19195">
        <ele>171</ele>
        <time>2011-02-16T15:26:14Z</time>
      </trkpt>
      <trkpt lat="43.5392" lon="3.19197">
        <ele>170.39999389648</ele>
        <time>2011-02-16T15:26:15Z</time>
      </trkpt>
      <trkpt lat="43.53918" lon="3.19199">
        <ele>170</ele>
        <time>2011-02-16T15:26:16Z</time>
      </trkpt>
      <trkpt lat="43.53914" lon="3.19201">
        <ele>170</ele>
        <time>2011-02-16T15:26:19Z</time>
      </trkpt>
      <trkpt lat="43.53914" lon="3.19201">
        <ele>169.60000610352</ele>
        <time>2011-02-16T15:26:20Z</time>
      </trkpt>
      <trkpt lat="43.53914" lon="3.19201">
        <ele>169.19999694824</ele>
        <time>2011-02-16T15:26:21Z</time>
      </trkpt>
      <trkpt lat="43.5391" lon="3.19205">
        <ele>168</ele>
        <time>2011-02-16T15:26:46Z</time>
      </trkpt>
      <trkpt lat="43.53904" lon="3.19221">
        <ele>168</ele>
        <time>2011-02-16T15:27:01Z</time>
      </trkpt>
      <trkpt lat="43.53899" lon="3.19224">
        <ele>168</ele>
        <time>2011-02-16T15:27:14Z</time>
      </trkpt>
      <trkpt lat="43.53894" lon="3.19225">
        <ele>168</ele>
        <time>2011-02-16T15:27:16Z</time>
      </trkpt>
      <trkpt lat="43.53884" lon="3.19231">
        <ele>168</ele>
        <time>2011-02-16T15:27:20Z</time>
      </trkpt>
      <trkpt lat="43.53877" lon="3.19242">
        <ele>168</ele>
        <time>2011-02-16T15:27:25Z</time>
      </trkpt>
      <trkpt lat="43.53871" lon="3.1926">
        <ele>168</ele>
        <time>2011-02-16T15:27:32Z</time>
      </trkpt>
      <trkpt lat="43.53862" lon="3.19262">
        <ele>168</ele>
        <time>2011-02-16T15:27:36Z</time>
      </trkpt>
      <trkpt lat="43.53846" lon="3.19259">
        <ele>168</ele>
        <time>2011-02-16T15:27:41Z</time>
      </trkpt>
      <trkpt lat="43.53831" lon="3.19254">
        <ele>168</ele>
        <time>2011-02-16T15:27:46Z</time>
      </trkpt>
      <trkpt lat="43.5381" lon="3.19239">
        <ele>168</ele>
        <time>2011-02-16T15:27:51Z</time>
      </trkpt>
      <trkpt lat="43.53799" lon="3.19234">
        <ele>168</ele>
        <time>2011-02-16T15:27:53Z</time>
      </trkpt>
      <trkpt lat="43.53788" lon="3.19234">
        <ele>168</ele>
        <time>2011-02-16T15:27:55Z</time>
      </trkpt>
      <trkpt lat="43.53779" lon="3.19236">
        <ele>168</ele>
        <time>2011-02-16T15:27:57Z</time>
      </trkpt>
      <trkpt lat="43.53768" lon="3.1924">
        <ele>168</ele>
        <time>2011-02-16T15:28:00Z</time>
      </trkpt>
      <trkpt lat="43.53761" lon="3.19241">
        <ele>168</ele>
        <time>2011-02-16T15:28:02Z</time>
      </trkpt>
      <trkpt lat="43.53756" lon="3.19239">
        <ele>168</ele>
        <time>2011-02-16T15:28:04Z</time>
      </trkpt>
      <trkpt lat="43.53746" lon="3.19232">
        <ele>168</ele>
        <time>2011-02-16T15:28:09Z</time>
      </trkpt>
      <trkpt lat="43.53744" lon="3.19231">
        <ele>168</ele>
        <time>2011-02-16T15:28:10Z</time>
      </trkpt>
      <trkpt lat="43.53742" lon="3.1923">
        <ele>168.39999389648</ele>
        <time>2011-02-16T15:28:11Z</time>
      </trkpt>
      <trkpt lat="43.5374" lon="3.1923">
        <ele>168.80000305176</ele>
        <time>2011-02-16T15:28:12Z</time>
      </trkpt>
      <trkpt lat="43.53737" lon="3.19228">
        <ele>169.19999694824</ele>
        <time>2011-02-16T15:28:13Z</time>
      </trkpt>
      <trkpt lat="43.53735" lon="3.19227">
        <ele>170</ele>
        <time>2011-02-16T15:28:14Z</time>
      </trkpt>
      <trkpt lat="43.53732" lon="3.19224">
        <ele>170</ele>
        <time>2011-02-16T15:28:15Z</time>
      </trkpt>
      <trkpt lat="43.53719" lon="3.19216">
        <ele>170</ele>
        <time>2011-02-16T15:28:19Z</time>
      </trkpt>
      <trkpt lat="43.53698" lon="3.19199">
        <ele>170</ele>
        <time>2011-02-16T15:28:25Z</time>
      </trkpt>
      <trkpt lat="43.53684" lon="3.19189">
        <ele>170</ele>
        <time>2011-02-16T15:28:29Z</time>
      </trkpt>
      <trkpt lat="43.53677" lon="3.19184">
        <ele>170</ele>
        <time>2011-02-16T15:28:31Z</time>
      </trkpt>
      <trkpt lat="43.53661" lon="3.1917">
        <ele>170</ele>
        <time>2011-02-16T15:28:36Z</time>
      </trkpt>
      <trkpt lat="43.53656" lon="3.19169">
        <ele>170</ele>
        <time>2011-02-16T15:28:37Z</time>
      </trkpt>
      <trkpt lat="43.53649" lon="3.19168">
        <ele>170</ele>
        <time>2011-02-16T15:28:39Z</time>
      </trkpt>
      <trkpt lat="43.53641" lon="3.19171">
        <ele>170</ele>
        <time>2011-02-16T15:28:41Z</time>
      </trkpt>
      <trkpt lat="43.53619" lon="3.19187">
        <ele>170</ele>
        <time>2011-02-16T15:28:47Z</time>
      </trkpt>
      <trkpt lat="43.536" lon="3.19198">
        <ele>170</ele>
        <time>2011-02-16T15:28:53Z</time>
      </trkpt>
      <trkpt lat="43.53572" lon="3.19211">
        <ele>170</ele>
        <time>2011-02-16T15:28:59Z</time>
      </trkpt>
      <trkpt lat="43.53548" lon="3.19221">
        <ele>169.19999694824</ele>
        <time>2011-02-16T15:29:03Z</time>
      </trkpt>
      <trkpt lat="43.5354" lon="3.19224">
        <ele>168.80000305176</ele>
        <time>2011-02-16T15:29:04Z</time>
      </trkpt>
      <trkpt lat="43.53533" lon="3.19227">
        <ele>168.39999389648</ele>
        <time>2011-02-16T15:29:05Z</time>
      </trkpt>
      <trkpt lat="43.53524" lon="3.1923">
        <ele>167.80000305176</ele>
        <time>2011-02-16T15:29:06Z</time>
      </trkpt>
      <trkpt lat="43.53516" lon="3.19232">
        <ele>167.19999694824</ele>
        <time>2011-02-16T15:29:07Z</time>
      </trkpt>
      <trkpt lat="43.53507" lon="3.19234">
        <ele>166.39999389648</ele>
        <time>2011-02-16T15:29:08Z</time>
      </trkpt>
      <trkpt lat="43.53498" lon="3.19235">
        <ele>165.80000305176</ele>
        <time>2011-02-16T15:29:09Z</time>
      </trkpt>
      <trkpt lat="43.53489" lon="3.19237">
        <ele>165</ele>
        <time>2011-02-16T15:29:10Z</time>
      </trkpt>
      <trkpt lat="43.5348" lon="3.19239">
        <ele>164.19999694824</ele>
        <time>2011-02-16T15:29:11Z</time>
      </trkpt>
      <trkpt lat="43.53471" lon="3.1924">
        <ele>163.60000610352</ele>
        <time>2011-02-16T15:29:12Z</time>
      </trkpt>
      <trkpt lat="43.53463" lon="3.19242">
        <ele>162.80000305176</ele>
        <time>2011-02-16T15:29:13Z</time>
      </trkpt>
      <trkpt lat="43.53456" lon="3.19245">
        <ele>162</ele>
        <time>2011-02-16T15:29:14Z</time>
      </trkpt>
      <trkpt lat="43.53448" lon="3.19249">
        <ele>161.19999694824</ele>
        <time>2011-02-16T15:29:15Z</time>
      </trkpt>
      <trkpt lat="43.53442" lon="3.19253">
        <ele>160.39999389648</ele>
        <time>2011-02-16T15:29:16Z</time>
      </trkpt>
      <trkpt lat="43.53428" lon="3.19263">
        <ele>159.80000305176</ele>
        <time>2011-02-16T15:29:18Z</time>
      </trkpt>
      <trkpt lat="43.53421" lon="3.19268">
        <ele>159.19999694824</ele>
        <time>2011-02-16T15:29:19Z</time>
      </trkpt>
      <trkpt lat="43.53415" lon="3.19275">
        <ele>158.80000305176</ele>
        <time>2011-02-16T15:29:20Z</time>
      </trkpt>
      <trkpt lat="43.53408" lon="3.1928">
        <ele>158.19999694824</ele>
        <time>2011-02-16T15:29:21Z</time>
      </trkpt>
      <trkpt lat="43.53402" lon="3.19284">
        <ele>157.60000610352</ele>
        <time>2011-02-16T15:29:22Z</time>
      </trkpt>
      <trkpt lat="43.53394" lon="3.19287">
        <ele>157.60000610352</ele>
        <time>2011-02-16T15:29:23Z</time>
      </trkpt>
      <trkpt lat="43.53381" lon="3.19288">
        <ele>157.19999694824</ele>
        <time>2011-02-16T15:29:25Z</time>
      </trkpt>
      <trkpt lat="43.53374" lon="3.19288">
        <ele>156.80000305176</ele>
        <time>2011-02-16T15:29:26Z</time>
      </trkpt>
      <trkpt lat="43.53368" lon="3.19289">
        <ele>156.39999389648</ele>
        <time>2011-02-16T15:29:27Z</time>
      </trkpt>
      <trkpt lat="43.53361" lon="3.1929">
        <ele>155.39999389648</ele>
        <time>2011-02-16T15:29:28Z</time>
      </trkpt>
      <trkpt lat="43.53333" lon="3.19292">
        <ele>155.39999389648</ele>
        <time>2011-02-16T15:29:33Z</time>
      </trkpt>
      <trkpt lat="43.53328" lon="3.19292">
        <ele>155</ele>
        <time>2011-02-16T15:29:34Z</time>
      </trkpt>
      <trkpt lat="43.53323" lon="3.19292">
        <ele>154.60000610352</ele>
        <time>2011-02-16T15:29:35Z</time>
      </trkpt>
      <trkpt lat="43.5332" lon="3.19292">
        <ele>154</ele>
        <time>2011-02-16T15:29:36Z</time>
      </trkpt>
      <trkpt lat="43.53318" lon="3.1929">
        <ele>153.60000610352</ele>
        <time>2011-02-16T15:29:37Z</time>
      </trkpt>
      <trkpt lat="43.53316" lon="3.19287">
        <ele>153.19999694824</ele>
        <time>2011-02-16T15:29:38Z</time>
      </trkpt>
      <trkpt lat="43.53315" lon="3.19278">
        <ele>153.19999694824</ele>
        <time>2011-02-16T15:29:41Z</time>
      </trkpt>
      <trkpt lat="43.53315" lon="3.19276">
        <ele>152.80000305176</ele>
        <time>2011-02-16T15:29:42Z</time>
      </trkpt>
      <trkpt lat="43.53314" lon="3.19274">
        <ele>152.19999694824</ele>
        <time>2011-02-16T15:29:43Z</time>
      </trkpt>
      <trkpt lat="43.53314" lon="3.19273">
        <ele>151.80000305176</ele>
        <time>2011-02-16T15:29:44Z</time>
      </trkpt>
      <trkpt lat="43.53313" lon="3.19271">
        <ele>151.39999389648</ele>
        <time>2011-02-16T15:29:45Z</time>
      </trkpt>
      <trkpt lat="43.53312" lon="3.19269">
        <ele>151</ele>
        <time>2011-02-16T15:29:46Z</time>
      </trkpt>
      <trkpt lat="43.53312" lon="3.19268">
        <ele>151</ele>
        <time>2011-02-16T15:29:47Z</time>
      </trkpt>
      <trkpt lat="43.53308" lon="3.19256">
        <ele>151</ele>
        <time>2011-02-16T15:29:53Z</time>
      </trkpt>
      <trkpt lat="43.53305" lon="3.19242">
        <ele>151</ele>
        <time>2011-02-16T15:29:59Z</time>
      </trkpt>
      <trkpt lat="43.53305" lon="3.1924">
        <ele>151</ele>
        <time>2011-02-16T15:30:00Z</time>
      </trkpt>
      <trkpt lat="43.53304" lon="3.19237">
        <ele>151.39999389648</ele>
        <time>2011-02-16T15:30:01Z</time>
      </trkpt>
      <trkpt lat="43.53304" lon="3.19234">
        <ele>151.80000305176</ele>
        <time>2011-02-16T15:30:02Z</time>
      </trkpt>
      <trkpt lat="43.53303" lon="3.19232">
        <ele>152.39999389648</ele>
        <time>2011-02-16T15:30:03Z</time>
      </trkpt>
      <trkpt lat="43.53302" lon="3.19229">
        <ele>152.80000305176</ele>
        <time>2011-02-16T15:30:04Z</time>
      </trkpt>
      <trkpt lat="43.53301" lon="3.19227">
        <ele>153.19999694824</ele>
        <time>2011-02-16T15:30:05Z</time>
      </trkpt>
      <trkpt lat="43.533" lon="3.19223">
        <ele>153.19999694824</ele>
        <time>2011-02-16T15:30:06Z</time>
      </trkpt>
      <trkpt lat="43.53299" lon="3.1922">
        <ele>153.60000610352</ele>
        <time>2011-02-16T15:30:07Z</time>
      </trkpt>
      <trkpt lat="43.53298" lon="3.19217">
        <ele>154.19999694824</ele>
        <time>2011-02-16T15:30:08Z</time>
      </trkpt>
      <trkpt lat="43.53297" lon="3.19214">
        <ele>154.60000610352</ele>
        <time>2011-02-16T15:30:09Z</time>
      </trkpt>
      <trkpt lat="43.53296" lon="3.19211">
        <ele>155</ele>
        <time>2011-02-16T15:30:10Z</time>
      </trkpt>
      <trkpt lat="43.53296" lon="3.19208">
        <ele>155.39999389648</ele>
        <time>2011-02-16T15:30:11Z</time>
      </trkpt>
      <trkpt lat="43.53293" lon="3.19199">
        <ele>155.39999389648</ele>
        <time>2011-02-16T15:30:14Z</time>
      </trkpt>
      <trkpt lat="43.53284" lon="3.19177">
        <ele>155.39999389648</ele>
        <time>2011-02-16T15:30:22Z</time>
      </trkpt>
      <trkpt lat="43.53281" lon="3.19176">
        <ele>155.39999389648</ele>
        <time>2011-02-16T15:30:23Z</time>
      </trkpt>
      <trkpt lat="43.53273" lon="3.1918">
        <ele>155.39999389648</ele>
        <time>2011-02-16T15:30:26Z</time>
      </trkpt>
      <trkpt lat="43.5327" lon="3.19184">
        <ele>155.39999389648</ele>
        <time>2011-02-16T15:30:27Z</time>
      </trkpt>
      <trkpt lat="43.53257" lon="3.19198">
        <ele>155.39999389648</ele>
        <time>2011-02-16T15:30:31Z</time>
      </trkpt>
      <trkpt lat="43.53244" lon="3.19206">
        <ele>155</ele>
        <time>2011-02-16T15:30:34Z</time>
      </trkpt>
      <trkpt lat="43.53239" lon="3.19208">
        <ele>154.39999389648</ele>
        <time>2011-02-16T15:30:35Z</time>
      </trkpt>
      <trkpt lat="43.53235" lon="3.19209">
        <ele>153.80000305176</ele>
        <time>2011-02-16T15:30:36Z</time>
      </trkpt>
      <trkpt lat="43.5323" lon="3.19211">
        <ele>153.39999389648</ele>
        <time>2011-02-16T15:30:37Z</time>
      </trkpt>
      <trkpt lat="43.53226" lon="3.19212">
        <ele>152.80000305176</ele>
        <time>2011-02-16T15:30:38Z</time>
      </trkpt>
      <trkpt lat="43.53212" lon="3.19218">
        <ele>152.80000305176</ele>
        <time>2011-02-16T15:30:42Z</time>
      </trkpt>
      <trkpt lat="43.53201" lon="3.19222">
        <ele>152.80000305176</ele>
        <time>2011-02-16T15:30:47Z</time>
      </trkpt>
      <trkpt lat="43.53198" lon="3.19224">
        <ele>152.80000305176</ele>
        <time>2011-02-16T15:30:50Z</time>
      </trkpt>
      <trkpt lat="43.53197" lon="3.19224">
        <ele>152.80000305176</ele>
        <time>2011-02-16T15:30:51Z</time>
      </trkpt>
      <trkpt lat="43.53196" lon="3.19224">
        <ele>152.80000305176</ele>
        <time>2011-02-16T15:30:53Z</time>
      </trkpt>
      <trkpt lat="43.53191" lon="3.1923">
        <ele>153.39999389648</ele>
        <time>2011-02-16T15:33:16Z</time>
      </trkpt>
      <trkpt lat="43.53189" lon="3.19231">
        <ele>153.39999389648</ele>
        <time>2011-02-16T15:33:17Z</time>
      </trkpt>
      <trkpt lat="43.53186" lon="3.19232">
        <ele>153.39999389648</ele>
        <time>2011-02-16T15:33:18Z</time>
      </trkpt>
      <trkpt lat="43.53169" lon="3.1924">
        <ele>153.39999389648</ele>
        <time>2011-02-16T15:33:24Z</time>
      </trkpt>
      <trkpt lat="43.53144" lon="3.19252">
        <ele>153.39999389648</ele>
        <time>2011-02-16T15:33:30Z</time>
      </trkpt>
      <trkpt lat="43.5311" lon="3.19272">
        <ele>153.39999389648</ele>
        <time>2011-02-16T15:33:37Z</time>
      </trkpt>
      <trkpt lat="43.53099" lon="3.19277">
        <ele>153</ele>
        <time>2011-02-16T15:33:39Z</time>
      </trkpt>
      <trkpt lat="43.53094" lon="3.1928">
        <ele>152.60000610352</ele>
        <time>2011-02-16T15:33:40Z</time>
      </trkpt>
      <trkpt lat="43.53088" lon="3.19283">
        <ele>152.19999694824</ele>
        <time>2011-02-16T15:33:41Z</time>
      </trkpt>
      <trkpt lat="43.53082" lon="3.19285">
        <ele>151.39999389648</ele>
        <time>2011-02-16T15:33:42Z</time>
      </trkpt>
      <trkpt lat="43.53077" lon="3.19287">
        <ele>151.39999389648</ele>
        <time>2011-02-16T15:33:43Z</time>
      </trkpt>
      <trkpt lat="43.53059" lon="3.1929">
        <ele>151.39999389648</ele>
        <time>2011-02-16T15:33:46Z</time>
      </trkpt>
      <trkpt lat="43.53054" lon="3.19289">
        <ele>150.80000305176</ele>
        <time>2011-02-16T15:33:47Z</time>
      </trkpt>
      <trkpt lat="43.53048" lon="3.19289">
        <ele>150.39999389648</ele>
        <time>2011-02-16T15:33:48Z</time>
      </trkpt>
      <trkpt lat="43.53042" lon="3.19288">
        <ele>150</ele>
        <time>2011-02-16T15:33:49Z</time>
      </trkpt>
      <trkpt lat="43.53036" lon="3.19288">
        <ele>149.60000610352</ele>
        <time>2011-02-16T15:33:50Z</time>
      </trkpt>
      <trkpt lat="43.5303" lon="3.19288">
        <ele>149.19999694824</ele>
        <time>2011-02-16T15:33:51Z</time>
      </trkpt>
      <trkpt lat="43.53001" lon="3.19287">
        <ele>149.19999694824</ele>
        <time>2011-02-16T15:33:56Z</time>
      </trkpt>
      <trkpt lat="43.52974" lon="3.19284">
        <ele>149.19999694824</ele>
        <time>2011-02-16T15:34:02Z</time>
      </trkpt>
      <trkpt lat="43.52961" lon="3.19283">
        <ele>148.80000305176</ele>
        <time>2011-02-16T15:34:07Z</time>
      </trkpt>
      <trkpt lat="43.52959" lon="3.19283">
        <ele>148.39999389648</ele>
        <time>2011-02-16T15:34:08Z</time>
      </trkpt>
      <trkpt lat="43.52957" lon="3.19283">
        <ele>148</ele>
        <time>2011-02-16T15:34:09Z</time>
      </trkpt>
      <trkpt lat="43.52955" lon="3.19283">
        <ele>147.60000610352</ele>
        <time>2011-02-16T15:34:10Z</time>
      </trkpt>
      <trkpt lat="43.52953" lon="3.19282">
        <ele>147.19999694824</ele>
        <time>2011-02-16T15:34:11Z</time>
      </trkpt>
      <trkpt lat="43.52944" lon="3.19282">
        <ele>147.19999694824</ele>
        <time>2011-02-16T15:34:16Z</time>
      </trkpt>
      <trkpt lat="43.52938" lon="3.19283">
        <ele>147.19999694824</ele>
        <time>2011-02-16T15:34:20Z</time>
      </trkpt>
      <trkpt lat="43.52938" lon="3.19287">
        <ele>147.19999694824</ele>
        <time>2011-02-16T15:34:22Z</time>
      </trkpt>
      <trkpt lat="43.52942" lon="3.19287">
        <ele>147.19999694824</ele>
        <time>2011-02-16T15:34:25Z</time>
      </trkpt>
      <trkpt lat="43.52951" lon="3.19287">
        <ele>147.19999694824</ele>
        <time>2011-02-16T15:34:31Z</time>
      </trkpt>
      <trkpt lat="43.52953" lon="3.19286">
        <ele>147.19999694824</ele>
        <time>2011-02-16T15:34:32Z</time>
      </trkpt>
      <trkpt lat="43.52962" lon="3.19287">
        <ele>147.19999694824</ele>
        <time>2011-02-16T15:34:38Z</time>
      </trkpt>
      <trkpt lat="43.52963" lon="3.19287">
        <ele>147.19999694824</ele>
        <time>2011-02-16T15:34:39Z</time>
      </trkpt>
      <trkpt lat="43.52969" lon="3.19288">
        <ele>147.19999694824</ele>
        <time>2011-02-16T15:34:43Z</time>
      </trkpt>
      <trkpt lat="43.52978" lon="3.19283">
        <ele>147.19999694824</ele>
        <time>2011-02-16T15:34:48Z</time>
      </trkpt>
      <trkpt lat="43.52981" lon="3.19269">
        <ele>147.19999694824</ele>
        <time>2011-02-16T15:34:52Z</time>
      </trkpt>
      <trkpt lat="43.52982" lon="3.19265">
        <ele>147.19999694824</ele>
        <time>2011-02-16T15:34:53Z</time>
      </trkpt>
      <trkpt lat="43.52983" lon="3.19257">
        <ele>147.19999694824</ele>
        <time>2011-02-16T15:34:55Z</time>
      </trkpt>
      <trkpt lat="43.52985" lon="3.19245">
        <ele>147.19999694824</ele>
        <time>2011-02-16T15:34:58Z</time>
      </trkpt>
      <trkpt lat="43.52987" lon="3.19239">
        <ele>147.60000610352</ele>
        <time>2011-02-16T15:35:00Z</time>
      </trkpt>
      <trkpt lat="43.52988" lon="3.19237">
        <ele>148</ele>
        <time>2011-02-16T15:35:01Z</time>
      </trkpt>
      <trkpt lat="43.52988" lon="3.19234">
        <ele>148.39999389648</ele>
        <time>2011-02-16T15:35:02Z</time>
      </trkpt>
      <trkpt lat="43.52988" lon="3.19231">
        <ele>148.80000305176</ele>
        <time>2011-02-16T15:35:03Z</time>
      </trkpt>
      <trkpt lat="43.52989" lon="3.19228">
        <ele>149.39999389648</ele>
        <time>2011-02-16T15:35:04Z</time>
      </trkpt>
      <trkpt lat="43.5299" lon="3.1922">
        <ele>149.39999389648</ele>
        <time>2011-02-16T15:35:07Z</time>
      </trkpt>
      <trkpt lat="43.5299" lon="3.19217">
        <ele>149.80000305176</ele>
        <time>2011-02-16T15:35:08Z</time>
      </trkpt>
      <trkpt lat="43.5299" lon="3.19215">
        <ele>150.19999694824</ele>
        <time>2011-02-16T15:35:09Z</time>
      </trkpt>
      <trkpt lat="43.5299" lon="3.19213">
        <ele>150.60000610352</ele>
        <time>2011-02-16T15:35:10Z</time>
      </trkpt>
      <trkpt lat="43.52991" lon="3.1921">
        <ele>151</ele>
        <time>2011-02-16T15:35:11Z</time>
      </trkpt>
      <trkpt lat="43.52991" lon="3.19208">
        <ele>151.60000610352</ele>
        <time>2011-02-16T15:35:12Z</time>
      </trkpt>
      <trkpt lat="43.52991" lon="3.19203">
        <ele>152</ele>
        <time>2011-02-16T15:35:14Z</time>
      </trkpt>
      <trkpt lat="43.52991" lon="3.19201">
        <ele>152.39999389648</ele>
        <time>2011-02-16T15:35:15Z</time>
      </trkpt>
      <trkpt lat="43.52991" lon="3.19198">
        <ele>152.80000305176</ele>
        <time>2011-02-16T15:35:16Z</time>
      </trkpt>
      <trkpt lat="43.52991" lon="3.19196">
        <ele>153.19999694824</ele>
        <time>2011-02-16T15:35:17Z</time>
      </trkpt>
      <trkpt lat="43.52991" lon="3.19194">
        <ele>153.60000610352</ele>
        <time>2011-02-16T15:35:18Z</time>
      </trkpt>
      <trkpt lat="43.5299" lon="3.1919">
        <ele>154.39999389648</ele>
        <time>2011-02-16T15:35:20Z</time>
      </trkpt>
      <trkpt lat="43.5299" lon="3.19187">
        <ele>154.80000305176</ele>
        <time>2011-02-16T15:35:21Z</time>
      </trkpt>
      <trkpt lat="43.5299" lon="3.19185">
        <ele>155.19999694824</ele>
        <time>2011-02-16T15:35:22Z</time>
      </trkpt>
      <trkpt lat="43.5299" lon="3.19183">
        <ele>155.60000610352</ele>
        <time>2011-02-16T15:35:23Z</time>
      </trkpt>
      <trkpt lat="43.5299" lon="3.19182">
        <ele>155.60000610352</ele>
        <time>2011-02-16T15:35:24Z</time>
      </trkpt>
      <trkpt lat="43.52991" lon="3.19176">
        <ele>156</ele>
        <time>2011-02-16T15:35:27Z</time>
      </trkpt>
      <trkpt lat="43.52991" lon="3.19174">
        <ele>156.39999389648</ele>
        <time>2011-02-16T15:35:28Z</time>
      </trkpt>
      <trkpt lat="43.5299" lon="3.19172">
        <ele>156.80000305176</ele>
        <time>2011-02-16T15:35:29Z</time>
      </trkpt>
      <trkpt lat="43.5299" lon="3.1917">
        <ele>157.19999694824</ele>
        <time>2011-02-16T15:35:30Z</time>
      </trkpt>
      <trkpt lat="43.5299" lon="3.19168">
        <ele>157.60000610352</ele>
        <time>2011-02-16T15:35:31Z</time>
      </trkpt>
      <trkpt lat="43.5299" lon="3.19165">
        <ele>157.60000610352</ele>
        <time>2011-02-16T15:35:33Z</time>
      </trkpt>
      <trkpt lat="43.5299" lon="3.19156">
        <ele>158</ele>
        <time>2011-02-16T15:35:37Z</time>
      </trkpt>
      <trkpt lat="43.5299" lon="3.19155">
        <ele>158.39999389648</ele>
        <time>2011-02-16T15:35:38Z</time>
      </trkpt>
      <trkpt lat="43.5299" lon="3.19152">
        <ele>159</ele>
        <time>2011-02-16T15:35:39Z</time>
      </trkpt>
      <trkpt lat="43.5299" lon="3.1915">
        <ele>159.39999389648</ele>
        <time>2011-02-16T15:35:40Z</time>
      </trkpt>
      <trkpt lat="43.5299" lon="3.19148">
        <ele>159.80000305176</ele>
        <time>2011-02-16T15:35:41Z</time>
      </trkpt>
      <trkpt lat="43.5299" lon="3.19146">
        <ele>159.80000305176</ele>
        <time>2011-02-16T15:35:42Z</time>
      </trkpt>
      <trkpt lat="43.5299" lon="3.19142">
        <ele>160.19999694824</ele>
        <time>2011-02-16T15:35:44Z</time>
      </trkpt>
      <trkpt lat="43.5299" lon="3.19139">
        <ele>161</ele>
        <time>2011-02-16T15:35:45Z</time>
      </trkpt>
      <trkpt lat="43.5299" lon="3.19137">
        <ele>161.39999389648</ele>
        <time>2011-02-16T15:35:46Z</time>
      </trkpt>
      <trkpt lat="43.5299" lon="3.19135">
        <ele>162</ele>
        <time>2011-02-16T15:35:47Z</time>
      </trkpt>
      <trkpt lat="43.52989" lon="3.19126">
        <ele>162</ele>
        <time>2011-02-16T15:35:51Z</time>
      </trkpt>
      <trkpt lat="43.52989" lon="3.19106">
        <ele>162.39999389648</ele>
        <time>2011-02-16T15:35:59Z</time>
      </trkpt>
      <trkpt lat="43.52989" lon="3.19103">
        <ele>162.80000305176</ele>
        <time>2011-02-16T15:36:00Z</time>
      </trkpt>
      <trkpt lat="43.52989" lon="3.191">
        <ele>163.19999694824</ele>
        <time>2011-02-16T15:36:01Z</time>
      </trkpt>
      <trkpt lat="43.52989" lon="3.19098">
        <ele>163.60000610352</ele>
        <time>2011-02-16T15:36:02Z</time>
      </trkpt>
      <trkpt lat="43.52989" lon="3.19095">
        <ele>164</ele>
        <time>2011-02-16T15:36:03Z</time>
      </trkpt>
      <trkpt lat="43.52989" lon="3.19087">
        <ele>164</ele>
        <time>2011-02-16T15:36:06Z</time>
      </trkpt>
      <trkpt lat="43.5299" lon="3.1907">
        <ele>164</ele>
        <time>2011-02-16T15:36:13Z</time>
      </trkpt>
      <trkpt lat="43.5299" lon="3.19056">
        <ele>164.39999389648</ele>
        <time>2011-02-16T15:36:19Z</time>
      </trkpt>
      <trkpt lat="43.5299" lon="3.19054">
        <ele>164.80000305176</ele>
        <time>2011-02-16T15:36:20Z</time>
      </trkpt>
      <trkpt lat="43.5299" lon="3.19051">
        <ele>165.19999694824</ele>
        <time>2011-02-16T15:36:21Z</time>
      </trkpt>
      <trkpt lat="43.52989" lon="3.19049">
        <ele>165.60000610352</ele>
        <time>2011-02-16T15:36:22Z</time>
      </trkpt>
      <trkpt lat="43.52989" lon="3.19046">
        <ele>166</ele>
        <time>2011-02-16T15:36:23Z</time>
      </trkpt>
      <trkpt lat="43.52989" lon="3.19042">
        <ele>166</ele>
        <time>2011-02-16T15:36:25Z</time>
      </trkpt>
      <trkpt lat="43.52993" lon="3.19033">
        <ele>166.39999389648</ele>
        <time>2011-02-16T15:36:30Z</time>
      </trkpt>
      <trkpt lat="43.52995" lon="3.19032">
        <ele>166.80000305176</ele>
        <time>2011-02-16T15:36:31Z</time>
      </trkpt>
      <trkpt lat="43.52997" lon="3.1903">
        <ele>167.19999694824</ele>
        <time>2011-02-16T15:36:32Z</time>
      </trkpt>
      <trkpt lat="43.52998" lon="3.19029">
        <ele>167.80000305176</ele>
        <time>2011-02-16T15:36:33Z</time>
      </trkpt>
      <trkpt lat="43.53" lon="3.19027">
        <ele>168.19999694824</ele>
        <time>2011-02-16T15:36:34Z</time>
      </trkpt>
      <trkpt lat="43.53002" lon="3.19024">
        <ele>168.60000610352</ele>
        <time>2011-02-16T15:36:36Z</time>
      </trkpt>
      <trkpt lat="43.53003" lon="3.19023">
        <ele>169</ele>
        <time>2011-02-16T15:36:37Z</time>
      </trkpt>
      <trkpt lat="43.53004" lon="3.19022">
        <ele>169.39999389648</ele>
        <time>2011-02-16T15:36:38Z</time>
      </trkpt>
      <trkpt lat="43.53006" lon="3.19021">
        <ele>170</ele>
        <time>2011-02-16T15:36:39Z</time>
      </trkpt>
      <trkpt lat="43.53008" lon="3.1902">
        <ele>170.39999389648</ele>
        <time>2011-02-16T15:36:40Z</time>
      </trkpt>
      <trkpt lat="43.53012" lon="3.19015">
        <ele>170.80000305176</ele>
        <time>2011-02-16T15:36:43Z</time>
      </trkpt>
      <trkpt lat="43.53014" lon="3.19013">
        <ele>171.19999694824</ele>
        <time>2011-02-16T15:36:44Z</time>
      </trkpt>
      <trkpt lat="43.53015" lon="3.19012">
        <ele>171.60000610352</ele>
        <time>2011-02-16T15:36:45Z</time>
      </trkpt>
      <trkpt lat="43.53016" lon="3.19011">
        <ele>172</ele>
        <time>2011-02-16T15:36:46Z</time>
      </trkpt>
      <trkpt lat="43.53018" lon="3.19009">
        <ele>172.39999389648</ele>
        <time>2011-02-16T15:36:47Z</time>
      </trkpt>
      <trkpt lat="43.53019" lon="3.19006">
        <ele>172.39999389648</ele>
        <time>2011-02-16T15:36:49Z</time>
      </trkpt>
      <trkpt lat="43.53025" lon="3.18998">
        <ele>172.39999389648</ele>
        <time>2011-02-16T15:36:55Z</time>
      </trkpt>
      <trkpt lat="43.53033" lon="3.1899">
        <ele>172.39999389648</ele>
        <time>2011-02-16T15:37:02Z</time>
      </trkpt>
      <trkpt lat="43.53038" lon="3.18983">
        <ele>172.39999389648</ele>
        <time>2011-02-16T15:37:52Z</time>
      </trkpt>
      <trkpt lat="43.5304" lon="3.18979">
        <ele>172.39999389648</ele>
        <time>2011-02-16T15:37:53Z</time>
      </trkpt>
      <trkpt lat="43.53043" lon="3.18957">
        <ele>172.39999389648</ele>
        <time>2011-02-16T15:37:57Z</time>
      </trkpt>
      <trkpt lat="43.53041" lon="3.18949">
        <ele>172.39999389648</ele>
        <time>2011-02-16T15:37:59Z</time>
      </trkpt>
      <trkpt lat="43.53038" lon="3.18941">
        <ele>172.39999389648</ele>
        <time>2011-02-16T15:38:01Z</time>
      </trkpt>
      <trkpt lat="43.53033" lon="3.18923">
        <ele>172.39999389648</ele>
        <time>2011-02-16T15:38:05Z</time>
      </trkpt>
      <trkpt lat="43.5303" lon="3.18909">
        <ele>172.39999389648</ele>
        <time>2011-02-16T15:38:08Z</time>
      </trkpt>
      <trkpt lat="43.53029" lon="3.18887">
        <ele>172.80000305176</ele>
        <time>2011-02-16T15:38:12Z</time>
      </trkpt>
      <trkpt lat="43.53028" lon="3.18882">
        <ele>173.80000305176</ele>
        <time>2011-02-16T15:38:13Z</time>
      </trkpt>
      <trkpt lat="43.53028" lon="3.18877">
        <ele>174.19999694824</ele>
        <time>2011-02-16T15:38:14Z</time>
      </trkpt>
      <trkpt lat="43.53027" lon="3.18872">
        <ele>174.60000610352</ele>
        <time>2011-02-16T15:38:15Z</time>
      </trkpt>
      <trkpt lat="43.5302" lon="3.18861">
        <ele>174.60000610352</ele>
        <time>2011-02-16T15:38:18Z</time>
      </trkpt>
      <trkpt lat="43.53018" lon="3.18859">
        <ele>175</ele>
        <time>2011-02-16T15:38:19Z</time>
      </trkpt>
      <trkpt lat="43.53015" lon="3.18857">
        <ele>175.39999389648</ele>
        <time>2011-02-16T15:38:20Z</time>
      </trkpt>
      <trkpt lat="43.53012" lon="3.18854">
        <ele>176</ele>
        <time>2011-02-16T15:38:21Z</time>
      </trkpt>
      <trkpt lat="43.5301" lon="3.18852">
        <ele>176.39999389648</ele>
        <time>2011-02-16T15:38:22Z</time>
      </trkpt>
      <trkpt lat="43.53007" lon="3.18849">
        <ele>176.80000305176</ele>
        <time>2011-02-16T15:38:23Z</time>
      </trkpt>
      <trkpt lat="43.53005" lon="3.18846">
        <ele>176.80000305176</ele>
        <time>2011-02-16T15:38:24Z</time>
      </trkpt>
      <trkpt lat="43.53002" lon="3.18843">
        <ele>177.39999389648</ele>
        <time>2011-02-16T15:38:25Z</time>
      </trkpt>
      <trkpt lat="43.53" lon="3.1884">
        <ele>177.80000305176</ele>
        <time>2011-02-16T15:38:26Z</time>
      </trkpt>
      <trkpt lat="43.52998" lon="3.18837">
        <ele>178.19999694824</ele>
        <time>2011-02-16T15:38:27Z</time>
      </trkpt>
      <trkpt lat="43.52995" lon="3.18833">
        <ele>178.80000305176</ele>
        <time>2011-02-16T15:38:28Z</time>
      </trkpt>
      <trkpt lat="43.52993" lon="3.18829">
        <ele>179.19999694824</ele>
        <time>2011-02-16T15:38:29Z</time>
      </trkpt>
      <trkpt lat="43.52985" lon="3.18817">
        <ele>179.19999694824</ele>
        <time>2011-02-16T15:38:32Z</time>
      </trkpt>
      <trkpt lat="43.52973" lon="3.18798">
        <ele>179.19999694824</ele>
        <time>2011-02-16T15:38:38Z</time>
      </trkpt>
      <trkpt lat="43.52973" lon="3.18799">
        <ele>179.19999694824</ele>
        <time>2011-02-16T15:38:39Z</time>
      </trkpt>
      <trkpt lat="43.52971" lon="3.18788">
        <ele>179.19999694824</ele>
        <time>2011-02-16T15:39:10Z</time>
      </trkpt>
      <trkpt lat="43.52967" lon="3.18779">
        <ele>179.19999694824</ele>
        <time>2011-02-16T15:39:12Z</time>
      </trkpt>
      <trkpt lat="43.52961" lon="3.18765">
        <ele>179.19999694824</ele>
        <time>2011-02-16T15:39:15Z</time>
      </trkpt>
      <trkpt lat="43.52958" lon="3.1876">
        <ele>179.19999694824</ele>
        <time>2011-02-16T15:39:16Z</time>
      </trkpt>
      <trkpt lat="43.52954" lon="3.18756">
        <ele>178.80000305176</ele>
        <time>2011-02-16T15:39:17Z</time>
      </trkpt>
      <trkpt lat="43.5295" lon="3.18751">
        <ele>178.39999389648</ele>
        <time>2011-02-16T15:39:18Z</time>
      </trkpt>
      <trkpt lat="43.52946" lon="3.18745">
        <ele>177.80000305176</ele>
        <time>2011-02-16T15:39:19Z</time>
      </trkpt>
      <trkpt lat="43.52943" lon="3.18738">
        <ele>177.39999389648</ele>
        <time>2011-02-16T15:39:20Z</time>
      </trkpt>
      <trkpt lat="43.5294" lon="3.18731">
        <ele>177</ele>
        <time>2011-02-16T15:39:21Z</time>
      </trkpt>
      <trkpt lat="43.52937" lon="3.18723">
        <ele>176.39999389648</ele>
        <time>2011-02-16T15:39:22Z</time>
      </trkpt>
      <trkpt lat="43.52934" lon="3.18715">
        <ele>175.80000305176</ele>
        <time>2011-02-16T15:39:23Z</time>
      </trkpt>
      <trkpt lat="43.52932" lon="3.18708">
        <ele>175.19999694824</ele>
        <time>2011-02-16T15:39:24Z</time>
      </trkpt>
      <trkpt lat="43.5293" lon="3.18701">
        <ele>174.60000610352</ele>
        <time>2011-02-16T15:39:25Z</time>
      </trkpt>
      <trkpt lat="43.52929" lon="3.18692">
        <ele>174</ele>
        <time>2011-02-16T15:39:26Z</time>
      </trkpt>
      <trkpt lat="43.52928" lon="3.18684">
        <ele>172.60000610352</ele>
        <time>2011-02-16T15:39:27Z</time>
      </trkpt>
      <trkpt lat="43.52929" lon="3.18673">
        <ele>171.80000305176</ele>
        <time>2011-02-16T15:39:28Z</time>
      </trkpt>
      <trkpt lat="43.5293" lon="3.18663">
        <ele>171</ele>
        <time>2011-02-16T15:39:29Z</time>
      </trkpt>
      <trkpt lat="43.52933" lon="3.18651">
        <ele>170.19999694824</ele>
        <time>2011-02-16T15:39:30Z</time>
      </trkpt>
      <trkpt lat="43.52935" lon="3.1864">
        <ele>169.19999694824</ele>
        <time>2011-02-16T15:39:31Z</time>
      </trkpt>
      <trkpt lat="43.52937" lon="3.18629">
        <ele>168.19999694824</ele>
        <time>2011-02-16T15:39:32Z</time>
      </trkpt>
      <trkpt lat="43.5294" lon="3.1862">
        <ele>167.39999389648</ele>
        <time>2011-02-16T15:39:33Z</time>
      </trkpt>
      <trkpt lat="43.52944" lon="3.18612">
        <ele>166.39999389648</ele>
        <time>2011-02-16T15:39:34Z</time>
      </trkpt>
      <trkpt lat="43.52948" lon="3.18607">
        <ele>165.39999389648</ele>
        <time>2011-02-16T15:39:35Z</time>
      </trkpt>
      <trkpt lat="43.52951" lon="3.18601">
        <ele>164.39999389648</ele>
        <time>2011-02-16T15:39:36Z</time>
      </trkpt>
      <trkpt lat="43.52953" lon="3.18595">
        <ele>163.60000610352</ele>
        <time>2011-02-16T15:39:37Z</time>
      </trkpt>
      <trkpt lat="43.52953" lon="3.18587">
        <ele>162.80000305176</ele>
        <time>2011-02-16T15:39:38Z</time>
      </trkpt>
      <trkpt lat="43.52952" lon="3.1858">
        <ele>162</ele>
        <time>2011-02-16T15:39:39Z</time>
      </trkpt>
      <trkpt lat="43.5295" lon="3.18574">
        <ele>161.19999694824</ele>
        <time>2011-02-16T15:39:40Z</time>
      </trkpt>
      <trkpt lat="43.52946" lon="3.18568">
        <ele>160.39999389648</ele>
        <time>2011-02-16T15:39:41Z</time>
      </trkpt>
      <trkpt lat="43.52942" lon="3.18564">
        <ele>159.60000610352</ele>
        <time>2011-02-16T15:39:42Z</time>
      </trkpt>
      <trkpt lat="43.52936" lon="3.18563">
        <ele>158.80000305176</ele>
        <time>2011-02-16T15:39:43Z</time>
      </trkpt>
      <trkpt lat="43.5293" lon="3.18562">
        <ele>158.19999694824</ele>
        <time>2011-02-16T15:39:44Z</time>
      </trkpt>
      <trkpt lat="43.52925" lon="3.18562">
        <ele>157.60000610352</ele>
        <time>2011-02-16T15:39:45Z</time>
      </trkpt>
      <trkpt lat="43.52919" lon="3.18564">
        <ele>157</ele>
        <time>2011-02-16T15:39:46Z</time>
      </trkpt>
      <trkpt lat="43.52914" lon="3.18566">
        <ele>156.39999389648</ele>
        <time>2011-02-16T15:39:47Z</time>
      </trkpt>
      <trkpt lat="43.52909" lon="3.18568">
        <ele>155.80000305176</ele>
        <time>2011-02-16T15:39:48Z</time>
      </trkpt>
      <trkpt lat="43.52885" lon="3.18574">
        <ele>155.80000305176</ele>
        <time>2011-02-16T15:39:53Z</time>
      </trkpt>
      <trkpt lat="43.52855" lon="3.18581">
        <ele>155.80000305176</ele>
        <time>2011-02-16T15:39:59Z</time>
      </trkpt>
      <trkpt lat="43.5285" lon="3.18581">
        <ele>155.80000305176</ele>
        <time>2011-02-16T15:40:00Z</time>
      </trkpt>
      <trkpt lat="43.52846" lon="3.1858">
        <ele>155.19999694824</ele>
        <time>2011-02-16T15:40:01Z</time>
      </trkpt>
      <trkpt lat="43.52842" lon="3.1858">
        <ele>154.60000610352</ele>
        <time>2011-02-16T15:40:02Z</time>
      </trkpt>
      <trkpt lat="43.52838" lon="3.18581">
        <ele>154</ele>
        <time>2011-02-16T15:40:03Z</time>
      </trkpt>
      <trkpt lat="43.52834" lon="3.18582">
        <ele>153.39999389648</ele>
        <time>2011-02-16T15:40:04Z</time>
      </trkpt>
      <trkpt lat="43.5283" lon="3.18583">
        <ele>152.80000305176</ele>
        <time>2011-02-16T15:40:05Z</time>
      </trkpt>
      <trkpt lat="43.52826" lon="3.18584">
        <ele>153.19999694824</ele>
        <time>2011-02-16T15:40:06Z</time>
      </trkpt>
      <trkpt lat="43.52821" lon="3.18585">
        <ele>153.80000305176</ele>
        <time>2011-02-16T15:40:07Z</time>
      </trkpt>
      <trkpt lat="43.52817" lon="3.18586">
        <ele>154.19999694824</ele>
        <time>2011-02-16T15:40:08Z</time>
      </trkpt>
      <trkpt lat="43.52813" lon="3.18587">
        <ele>154.60000610352</ele>
        <time>2011-02-16T15:40:09Z</time>
      </trkpt>
      <trkpt lat="43.52808" lon="3.18589">
        <ele>155</ele>
        <time>2011-02-16T15:40:10Z</time>
      </trkpt>
      <trkpt lat="43.528" lon="3.18591">
        <ele>155</ele>
        <time>2011-02-16T15:40:12Z</time>
      </trkpt>
      <trkpt lat="43.52768" lon="3.18605">
        <ele>155</ele>
        <time>2011-02-16T15:40:19Z</time>
      </trkpt>
      <trkpt lat="43.52738" lon="3.18623">
        <ele>155</ele>
        <time>2011-02-16T15:40:26Z</time>
      </trkpt>
      <trkpt lat="43.52722" lon="3.1863">
        <ele>155</ele>
        <time>2011-02-16T15:40:30Z</time>
      </trkpt>
      <trkpt lat="43.52713" lon="3.18637">
        <ele>155</ele>
        <time>2011-02-16T15:40:32Z</time>
      </trkpt>
      <trkpt lat="43.52673" lon="3.18666">
        <ele>155</ele>
        <time>2011-02-16T15:40:41Z</time>
      </trkpt>
      <trkpt lat="43.52668" lon="3.1867">
        <ele>154.19999694824</ele>
        <time>2011-02-16T15:40:42Z</time>
      </trkpt>
      <trkpt lat="43.52663" lon="3.18673">
        <ele>153.80000305176</ele>
        <time>2011-02-16T15:40:43Z</time>
      </trkpt>
      <trkpt lat="43.52659" lon="3.18677">
        <ele>153.39999389648</ele>
        <time>2011-02-16T15:40:44Z</time>
      </trkpt>
      <trkpt lat="43.52655" lon="3.1868">
        <ele>153</ele>
        <time>2011-02-16T15:40:45Z</time>
      </trkpt>
      <trkpt lat="43.52639" lon="3.18694">
        <ele>153</ele>
        <time>2011-02-16T15:40:49Z</time>
      </trkpt>
      <trkpt lat="43.52624" lon="3.18705">
        <ele>153</ele>
        <time>2011-02-16T15:40:53Z</time>
      </trkpt>
      <trkpt lat="43.52617" lon="3.18702">
        <ele>153</ele>
        <time>2011-02-16T15:40:55Z</time>
      </trkpt>
      <trkpt lat="43.52607" lon="3.18684">
        <ele>153</ele>
        <time>2011-02-16T15:41:00Z</time>
      </trkpt>
      <trkpt lat="43.52605" lon="3.18681">
        <ele>153</ele>
        <time>2011-02-16T15:41:01Z</time>
      </trkpt>
      <trkpt lat="43.52604" lon="3.18676">
        <ele>153</ele>
        <time>2011-02-16T15:41:04Z</time>
      </trkpt>
      <trkpt lat="43.52602" lon="3.18673">
        <ele>153</ele>
        <time>2011-02-16T15:41:06Z</time>
      </trkpt>
      <trkpt lat="43.52599" lon="3.18665">
        <ele>153</ele>
        <time>2011-02-16T15:41:09Z</time>
      </trkpt>
      <trkpt lat="43.52596" lon="3.18658">
        <ele>153</ele>
        <time>2011-02-16T15:41:11Z</time>
      </trkpt>
      <trkpt lat="43.52594" lon="3.18644">
        <ele>153</ele>
        <time>2011-02-16T15:41:14Z</time>
      </trkpt>
      <trkpt lat="43.52595" lon="3.18639">
        <ele>153</ele>
        <time>2011-02-16T15:41:15Z</time>
      </trkpt>
      <trkpt lat="43.52601" lon="3.18635">
        <ele>153</ele>
        <time>2011-02-16T15:41:17Z</time>
      </trkpt>
      <trkpt lat="43.52615" lon="3.1863">
        <ele>153</ele>
        <time>2011-02-16T15:41:21Z</time>
      </trkpt>
      <trkpt lat="43.52618" lon="3.1863">
        <ele>153</ele>
        <time>2011-02-16T15:41:22Z</time>
      </trkpt>
      <trkpt lat="43.52634" lon="3.18625">
        <ele>153</ele>
        <time>2011-02-16T15:41:28Z</time>
      </trkpt>
      <trkpt lat="43.52634" lon="3.18623">
        <ele>153</ele>
        <time>2011-02-16T15:41:29Z</time>
      </trkpt>
      <trkpt lat="43.52634" lon="3.18622">
        <ele>153</ele>
        <time>2011-02-16T15:41:31Z</time>
      </trkpt>
      <trkpt lat="43.52634" lon="3.18622">
        <ele>153</ele>
        <time>2011-02-16T15:41:33Z</time>
      </trkpt>
      <trkpt lat="43.52634" lon="3.18622">
        <ele>153</ele>
        <time>2011-02-16T15:41:35Z</time>
      </trkpt>
      <trkpt lat="43.52675" lon="3.18573">
        <ele>148.15637207031</ele>
        <time>2011-02-16T15:43:30Z</time>
      </trkpt>
      <trkpt lat="43.52757" lon="3.18497">
        <ele>139.35571289062</ele>
        <time>2011-02-16T15:46:58Z</time>
      </trkpt>
      <trkpt lat="43.5277" lon="3.18502">
        <ele>127.7562789917</ele>
        <time>2011-02-16T15:51:34Z</time>
      </trkpt>
      <trkpt lat="43.52766" lon="3.18505">
        <ele>60.706069946289</ele>
        <time>2011-02-16T16:18:09Z</time>
      </trkpt>
      <trkpt lat="43.52761" lon="3.18503">
        <ele>36.599998474121</ele>
        <time>2011-02-16T16:27:44Z</time>
      </trkpt>
    </trkseg>
  </trk>
</gpx>